Wetterdaten: Samstag, 22.07.2017
Datum Zeit Temp. A. Temp. A. max Feuchte A. Luftdruck Regen Wind Richtung Richtung Sonnenschein ET UV Solar Taupunkt Windchill Windböen
22.07.2017 00:00 17,4 °C 17,4 °C 88 % 1010,1 hPa 0,0 mm 5,4 km/h (1 Bft) W-SW 249 ° 0 min 0,000 mm 0,0 UV-I 0 W/m² 15,4 °C 17,4 °C 9,7 km/h (2 Bft)
22.07.2017 00:01 17,4 °C 17,4 °C 88 % 1010,2 hPa 0,0 mm 4,2 km/h (1 Bft) W-SW 258 ° 0 min 0,000 mm 0,0 UV-I 0 W/m² 15,4 °C 17,4 °C 8,0 km/h (2 Bft)
22.07.2017 00:02 17,4 °C 17,4 °C 88 % 1010,3 hPa 0,0 mm 10,1 km/h (2 Bft) W 267 ° 0 min 0,000 mm 0,0 UV-I 0 W/m² 15,4 °C 17,4 °C 14,5 km/h (3 Bft)
22.07.2017 00:03 17,4 °C 17,4 °C 88 % 1010,3 hPa 0,0 mm 5,7 km/h (1 Bft) W 269 ° 0 min 0,000 mm 0,0 UV-I 0 W/m² 15,4 °C 17,4 °C 16,1 km/h (3 Bft)
22.07.2017 00:04 17,4 °C 17,4 °C 88 % 1010,3 hPa 0,0 mm 6,6 km/h (2 Bft) W 270 ° 0 min 0,000 mm 0,0 UV-I 0 W/m² 15,4 °C 17,4 °C 12,9 km/h (3 Bft)
22.07.2017 00:05 17,4 °C 17,4 °C 88 % 1010,3 hPa 0,0 mm 6,4 km/h (2 Bft) W-SW 242 ° 0 min 0,000 mm 0,0 UV-I 0 W/m² 15,4 °C 17,4 °C 9,7 km/h (2 Bft)
22.07.2017 00:06 17,4 °C 17,4 °C 88 % 1010,3 hPa 0,0 mm 3,4 km/h (1 Bft) W 277 ° 0 min 0,000 mm 0,0 UV-I 0 W/m² 15,4 °C 17,4 °C 6,4 km/h (2 Bft)
22.07.2017 00:07 17,4 °C 17,4 °C 88 % 1010,3 hPa 0,0 mm 6,4 km/h (2 Bft) W-SW 256 ° 0 min 0,000 mm 0,0 UV-I 0 W/m² 15,4 °C 17,4 °C 11,3 km/h (2 Bft)
22.07.2017 00:08 17,4 °C 17,4 °C 88 % 1010,3 hPa 0,0 mm 1,2 km/h (1 Bft) W-SW 256 ° 0 min 0,000 mm 0,0 UV-I 0 W/m² 15,4 °C 17,4 °C 4,8 km/h (1 Bft)
22.07.2017 00:09 17,4 °C 17,4 °C 88 % 1010,3 hPa 0,0 mm 3,3 km/h (1 Bft) W 281 ° 0 min 0,000 mm 0,0 UV-I 0 W/m² 15,4 °C 17,4 °C 9,7 km/h (2 Bft)
22.07.2017 00:10 17,4 °C 17,4 °C 89 % 1010,2 hPa 0,0 mm 8,5 km/h (2 Bft) W-NW 286 ° 0 min 0,000 mm 0,0 UV-I 0 W/m² 15,6 °C 17,4 °C 12,9 km/h (3 Bft)
22.07.2017 00:11 17,4 °C 17,4 °C 89 % 1010,2 hPa 0,0 mm 6,0 km/h (2 Bft) W 267 ° 0 min 0,000 mm 0,0 UV-I 0 W/m² 15,6 °C 17,4 °C 12,9 km/h (3 Bft)
22.07.2017 00:12 17,4 °C 17,4 °C 89 % 1010,3 hPa 0,0 mm 4,8 km/h (1 Bft) W-SW 257 ° 0 min 0,000 mm 0,0 UV-I 0 W/m² 15,6 °C 17,4 °C 9,7 km/h (2 Bft)
22.07.2017 00:13 17,4 °C 17,4 °C 89 % 1010,4 hPa 0,0 mm 5,2 km/h (1 Bft) W-SW 250 ° 0 min 0,000 mm 0,0 UV-I 0 W/m² 15,6 °C 17,4 °C 9,7 km/h (2 Bft)
22.07.2017 00:14 17,4 °C 17,4 °C 89 % 1010,4 hPa 0,0 mm 7,7 km/h (2 Bft) SW 231 ° 0 min 0,000 mm 0,0 UV-I 0 W/m² 15,6 °C 17,4 °C 16,1 km/h (3 Bft)
22.07.2017 00:15 17,4 °C 17,4 °C 88 % 1010,4 hPa 0,0 mm 0,7 km/h (0 Bft) SW 231 ° 0 min 0,000 mm 0,0 UV-I 0 W/m² 15,4 °C 17,4 °C 3,2 km/h (1 Bft)
22.07.2017 00:16 17,4 °C 17,4 °C 88 % 1010,4 hPa 0,0 mm 1,5 km/h (1 Bft) SW 231 ° 0 min 0,000 mm 0,0 UV-I 0 W/m² 15,4 °C 17,4 °C 3,2 km/h (1 Bft)
22.07.2017 00:17 17,5 °C 17,5 °C 88 % 1010,5 hPa 0,0 mm 2,5 km/h (1 Bft) S-SW 211 ° 0 min 0,000 mm 0,0 UV-I 0 W/m² 15,5 °C 17,5 °C 3,2 km/h (1 Bft)
22.07.2017 00:18 17,5 °C 17,5 °C 88 % 1010,5 hPa 0,0 mm 0,8 km/h (0 Bft) S-SW 211 ° 0 min 0,000 mm 0,0 UV-I 0 W/m² 15,5 °C 17,5 °C 1,6 km/h (1 Bft)
22.07.2017 00:19 17,4 °C 17,5 °C 88 % 1010,5 hPa 0,0 mm 0,1 km/h (0 Bft) S-SW 211 ° 0 min 0,000 mm 0,0 UV-I 0 W/m² 15,4 °C 17,4 °C 1,6 km/h (1 Bft)
22.07.2017 00:20 17,4 °C 17,4 °C 89 % 1010,5 hPa 0,0 mm 4,3 km/h (1 Bft) NW 307 ° 0 min 0,000 mm 0,0 UV-I 0 W/m² 15,6 °C 17,4 °C 11,3 km/h (2 Bft)
22.07.2017 00:21 17,4 °C 17,4 °C 89 % 1010,5 hPa 0,0 mm 4,4 km/h (1 Bft) W-NW 291 ° 0 min 0,000 mm 0,0 UV-I 0 W/m² 15,6 °C 17,4 °C 9,7 km/h (2 Bft)
22.07.2017 00:22 17,4 °C 17,4 °C 89 % 1010,6 hPa 0,0 mm 3,6 km/h (1 Bft) S 186 ° 0 min 0,000 mm 0,0 UV-I 0 W/m² 15,6 °C 17,4 °C 6,4 km/h (2 Bft)
22.07.2017 00:23 17,5 °C 17,5 °C 88 % 1010,6 hPa 0,0 mm 2,5 km/h (1 Bft) S 186 ° 0 min 0,000 mm 0,0 UV-I 0 W/m² 15,5 °C 17,5 °C 6,4 km/h (2 Bft)
22.07.2017 00:24 17,5 °C 17,5 °C 89 % 1010,7 hPa 0,0 mm 2,2 km/h (1 Bft) W-NW 296 ° 0 min 0,000 mm 0,0 UV-I 0 W/m² 15,7 °C 17,5 °C 6,4 km/h (2 Bft)
22.07.2017 00:25 17,5 °C 17,5 °C 89 % 1010,7 hPa 0,0 mm 5,3 km/h (1 Bft) W-SW 246 ° 0 min 0,000 mm 0,0 UV-I 0 W/m² 15,7 °C 17,5 °C 8,0 km/h (2 Bft)
22.07.2017 00:26 17,5 °C 17,5 °C 89 % 1010,7 hPa 0,0 mm 5,6 km/h (1 Bft) W 275 ° 0 min 0,000 mm 0,0 UV-I 0 W/m² 15,7 °C 17,5 °C 11,3 km/h (2 Bft)
22.07.2017 00:27 17,5 °C 17,5 °C 88 % 1010,7 hPa 0,0 mm 0,0 km/h (0 Bft) W 275 ° 0 min 0,000 mm 0,0 UV-I 0 W/m² 15,5 °C 17,5 °C 0,0 km/h (0 Bft)
22.07.2017 00:28 17,6 °C 17,6 °C 88 % 1010,7 hPa 0,0 mm 2,8 km/h (1 Bft) W 270 ° 0 min 0,000 mm 0,0 UV-I 0 W/m² 15,6 °C 17,6 °C 4,8 km/h (1 Bft)
22.07.2017 00:29 17,6 °C 17,6 °C 88 % 1010,8 hPa 0,0 mm 1,1 km/h (1 Bft) W 270 ° 0 min 0,000 mm 0,0 UV-I 0 W/m² 15,6 °C 17,6 °C 3,2 km/h (1 Bft)
22.07.2017 00:30 17,6 °C 17,6 °C 88 % 1010,7 hPa 0,0 mm 0,1 km/h (0 Bft) W 270 ° 0 min 0,000 mm 0,0 UV-I 0 W/m² 15,6 °C 17,6 °C 1,6 km/h (1 Bft)
22.07.2017 00:31 17,6 °C 17,6 °C 88 % 1010,8 hPa 0,0 mm 1,3 km/h (1 Bft) W 271 ° 0 min 0,000 mm 0,0 UV-I 0 W/m² 15,6 °C 17,6 °C 4,8 km/h (1 Bft)
22.07.2017 00:32 17,6 °C 17,6 °C 88 % 1010,8 hPa 0,0 mm 4,2 km/h (1 Bft) W 259 ° 0 min 0,000 mm 0,0 UV-I 0 W/m² 15,6 °C 17,6 °C 6,4 km/h (2 Bft)
22.07.2017 00:33 17,6 °C 17,6 °C 88 % 1010,8 hPa 0,0 mm 3,0 km/h (1 Bft) W 271 ° 0 min 0,000 mm 0,0 UV-I 0 W/m² 15,6 °C 17,6 °C 6,4 km/h (2 Bft)
22.07.2017 00:34 17,6 °C 17,6 °C 88 % 1010,8 hPa 0,0 mm 2,5 km/h (1 Bft) W-SW 255 ° 0 min 0,000 mm 0,0 UV-I 0 W/m² 15,6 °C 17,6 °C 4,8 km/h (1 Bft)
22.07.2017 00:35 17,6 °C 17,6 °C 88 % 1010,8 hPa 0,0 mm 4,4 km/h (1 Bft) W 263 ° 0 min 0,000 mm 0,0 UV-I 0 W/m² 15,6 °C 17,6 °C 6,4 km/h (2 Bft)
22.07.2017 00:36 17,6 °C 17,6 °C 88 % 1010,8 hPa 0,0 mm 4,8 km/h (1 Bft) W 270 ° 0 min 0,000 mm 0,0 UV-I 0 W/m² 15,6 °C 17,6 °C 6,4 km/h (2 Bft)
22.07.2017 00:37 17,6 °C 17,6 °C 88 % 1010,9 hPa 0,0 mm 3,5 km/h (1 Bft) W-NW 291 ° 0 min 0,000 mm 0,0 UV-I 0 W/m² 15,6 °C 17,6 °C 6,4 km/h (2 Bft)
22.07.2017 00:38 17,6 °C 17,6 °C 88 % 1010,8 hPa 0,0 mm 4,4 km/h (1 Bft) W-NW 302 ° 0 min 0,000 mm 0,0 UV-I 0 W/m² 15,6 °C 17,6 °C 6,4 km/h (2 Bft)
22.07.2017 00:39 17,6 °C 17,6 °C 88 % 1010,7 hPa 0,0 mm 4,2 km/h (1 Bft) W-NW 287 ° 0 min 0,000 mm 0,0 UV-I 0 W/m² 15,6 °C 17,6 °C 6,4 km/h (2 Bft)
22.07.2017 00:40 17,7 °C 17,7 °C 88 % 1010,7 hPa 0,0 mm 3,3 km/h (1 Bft) W-NW 292 ° 0 min 0,000 mm 0,0 UV-I 0 W/m² 15,7 °C 17,7 °C 4,8 km/h (1 Bft)
22.07.2017 00:41 17,7 °C 17,7 °C 88 % 1010,7 hPa 0,0 mm 1,7 km/h (1 Bft) W-NW 292 ° 0 min 0,000 mm 0,0 UV-I 0 W/m² 15,7 °C 17,7 °C 3,2 km/h (1 Bft)
22.07.2017 00:42 17,6 °C 17,7 °C 88 % 1010,7 hPa 0,0 mm 3,4 km/h (1 Bft) W 268 ° 0 min 0,000 mm 0,0 UV-I 0 W/m² 15,6 °C 17,6 °C 4,8 km/h (1 Bft)
22.07.2017 00:43 17,6 °C 17,7 °C 88 % 1010,7 hPa 0,0 mm 5,7 km/h (1 Bft) W-NW 292 ° 0 min 0,000 mm 0,0 UV-I 0 W/m² 15,6 °C 17,6 °C 11,3 km/h (2 Bft)
22.07.2017 00:44 17,6 °C 17,6 °C 88 % 1010,8 hPa 0,0 mm 3,8 km/h (1 Bft) W-NW 286 ° 0 min 0,000 mm 0,0 UV-I 0 W/m² 15,6 °C 17,6 °C 6,4 km/h (2 Bft)
22.07.2017 00:45 17,6 °C 17,7 °C 88 % 1010,8 hPa 0,0 mm 4,1 km/h (1 Bft) W 265 ° 0 min 0,000 mm 0,0 UV-I 0 W/m² 15,6 °C 17,6 °C 9,7 km/h (2 Bft)
22.07.2017 00:46 17,6 °C 17,6 °C 88 % 1010,8 hPa 0,0 mm 11,6 km/h (2 Bft) W-SW 257 ° 0 min 0,000 mm 0,0 UV-I 0 W/m² 15,6 °C 17,6 °C 19,3 km/h (3 Bft)
22.07.2017 00:47 17,6 °C 17,6 °C 88 % 1010,9 hPa 0,0 mm 8,0 km/h (2 Bft) W-NW 284 ° 0 min 0,000 mm 0,0 UV-I 0 W/m² 15,6 °C 17,6 °C 19,3 km/h (3 Bft)
22.07.2017 00:48 17,6 °C 17,6 °C 88 % 1010,9 hPa 0,0 mm 4,9 km/h (1 Bft) W-NW 294 ° 0 min 0,000 mm 0,0 UV-I 0 W/m² 15,6 °C 17,6 °C 6,4 km/h (2 Bft)
22.07.2017 00:49 17,6 °C 17,6 °C 88 % 1011,0 hPa 0,0 mm 4,6 km/h (1 Bft) W-NW 289 ° 0 min 0,000 mm 0,0 UV-I 0 W/m² 15,6 °C 17,6 °C 6,4 km/h (2 Bft)
22.07.2017 00:50 17,6 °C 17,6 °C 88 % 1011,0 hPa 0,0 mm 4,6 km/h (1 Bft) W-NW 283 ° 0 min 0,000 mm 0,0 UV-I 0 W/m² 15,6 °C 17,6 °C 9,7 km/h (2 Bft)
22.07.2017 00:51 17,6 °C 17,6 °C 88 % 1011,0 hPa 0,0 mm 4,6 km/h (1 Bft) W-NW 289 ° 0 min 0,000 mm 0,0 UV-I 0 W/m² 15,6 °C 17,6 °C 11,3 km/h (2 Bft)
22.07.2017 00:52 17,6 °C 17,6 °C 88 % 1011,0 hPa 0,0 mm 8,2 km/h (2 Bft) W-NW 295 ° 0 min 0,000 mm 0,0 UV-I 0 W/m² 15,6 °C 17,6 °C 12,9 km/h (3 Bft)
22.07.2017 00:53 17,6 °C 17,6 °C 88 % 1011,0 hPa 0,0 mm 7,7 km/h (2 Bft) W-NW 301 ° 0 min 0,000 mm 0,0 UV-I 0 W/m² 15,6 °C 17,6 °C 11,3 km/h (2 Bft)
22.07.2017 00:54 17,5 °C 17,6 °C 88 % 1010,9 hPa 0,0 mm 3,2 km/h (1 Bft) NW 325 ° 0 min 0,000 mm 0,0 UV-I 0 W/m² 15,5 °C 17,5 °C 4,8 km/h (1 Bft)
22.07.2017 00:55 17,5 °C 17,6 °C 88 % 1010,9 hPa 0,0 mm 4,2 km/h (1 Bft) NW 322 ° 0 min 0,000 mm 0,0 UV-I 0 W/m² 15,5 °C 17,5 °C 6,4 km/h (2 Bft)
22.07.2017 00:56 17,5 °C 17,5 °C 88 % 1011,0 hPa 0,0 mm 3,5 km/h (1 Bft) W 263 ° 0 min 0,000 mm 0,0 UV-I 0 W/m² 15,5 °C 17,5 °C 6,4 km/h (2 Bft)
22.07.2017 00:57 17,4 °C 17,5 °C 88 % 1011,0 hPa 0,0 mm 5,4 km/h (1 Bft) W-NW 288 ° 0 min 0,000 mm 0,0 UV-I 0 W/m² 15,4 °C 17,4 °C 11,3 km/h (2 Bft)
22.07.2017 00:58 17,4 °C 17,5 °C 88 % 1011,1 hPa 0,0 mm 10,1 km/h (2 Bft) W-NW 286 ° 0 min 0,000 mm 0,0 UV-I 0 W/m² 15,4 °C 17,4 °C 16,1 km/h (3 Bft)
22.07.2017 00:59 17,4 °C 17,5 °C 88 % 1011,2 hPa 0,0 mm 8,2 km/h (2 Bft) W 271 ° 0 min 0,000 mm 0,0 UV-I 0 W/m² 15,4 °C 17,4 °C 12,9 km/h (3 Bft)
22.07.2017 01:00 17,4 °C 17,4 °C 88 % 1011,2 hPa 0,0 mm 9,7 km/h (2 Bft) W-NW 296 ° 0 min 0,025 mm 0,0 UV-I 0 W/m² 15,4 °C 17,4 °C 14,5 km/h (3 Bft)
22.07.2017 01:01 17,4 °C 17,4 °C 88 % 1011,2 hPa 0,0 mm 7,0 km/h (2 Bft) NW 319 ° 0 min 0,000 mm 0,0 UV-I 0 W/m² 15,4 °C 17,4 °C 11,3 km/h (2 Bft)
22.07.2017 01:02 17,4 °C 17,4 °C 88 % 1011,2 hPa 0,0 mm 3,6 km/h (1 Bft) NW 320 ° 0 min 0,000 mm 0,0 UV-I 0 W/m² 15,4 °C 17,4 °C 8,0 km/h (2 Bft)
22.07.2017 01:03 17,4 °C 17,4 °C 88 % 1011,1 hPa 0,0 mm 1,9 km/h (1 Bft) NW 320 ° 0 min 0,000 mm 0,0 UV-I 0 W/m² 15,4 °C 17,4 °C 4,8 km/h (1 Bft)
22.07.2017 01:04 17,4 °C 17,4 °C 89 % 1011,2 hPa 0,0 mm 3,1 km/h (1 Bft) NW 305 ° 0 min 0,000 mm 0,0 UV-I 0 W/m² 15,6 °C 17,4 °C 4,8 km/h (1 Bft)
22.07.2017 01:05 17,3 °C 17,4 °C 89 % 1011,2 hPa 0,0 mm 5,0 km/h (1 Bft) NW 304 ° 0 min 0,000 mm 0,0 UV-I 0 W/m² 15,5 °C 17,3 °C 6,4 km/h (2 Bft)
22.07.2017 01:06 17,3 °C 17,3 °C 89 % 1011,2 hPa 0,0 mm 3,5 km/h (1 Bft) NW 307 ° 0 min 0,000 mm 0,0 UV-I 0 W/m² 15,5 °C 17,3 °C 6,4 km/h (2 Bft)
22.07.2017 01:07 17,3 °C 17,3 °C 89 % 1011,2 hPa 0,0 mm 3,8 km/h (1 Bft) W 273 ° 0 min 0,000 mm 0,0 UV-I 0 W/m² 15,5 °C 17,3 °C 4,8 km/h (1 Bft)
22.07.2017 01:08 17,3 °C 17,3 °C 89 % 1011,2 hPa 0,0 mm 2,1 km/h (1 Bft) W-NW 284 ° 0 min 0,000 mm 0,0 UV-I 0 W/m² 15,5 °C 17,3 °C 4,8 km/h (1 Bft)
22.07.2017 01:09 17,3 °C 17,3 °C 89 % 1011,2 hPa 0,0 mm 1,4 km/h (1 Bft) W 275 ° 0 min 0,000 mm 0,0 UV-I 0 W/m² 15,5 °C 17,3 °C 4,8 km/h (1 Bft)
22.07.2017 01:10 17,2 °C 17,3 °C 89 % 1011,3 hPa 0,0 mm 3,7 km/h (1 Bft) W 262 ° 0 min 0,000 mm 0,0 UV-I 0 W/m² 15,4 °C 17,2 °C 6,4 km/h (2 Bft)
22.07.2017 01:11 17,2 °C 17,2 °C 89 % 1011,3 hPa 0,0 mm 4,6 km/h (1 Bft) W 263 ° 0 min 0,000 mm 0,0 UV-I 0 W/m² 15,4 °C 17,2 °C 6,4 km/h (2 Bft)
22.07.2017 01:12 17,2 °C 17,2 °C 89 % 1011,3 hPa 0,0 mm 3,2 km/h (1 Bft) W 263 ° 0 min 0,000 mm 0,0 UV-I 0 W/m² 15,4 °C 17,2 °C 4,8 km/h (1 Bft)
22.07.2017 01:13 17,2 °C 17,2 °C 89 % 1011,3 hPa 0,0 mm 4,0 km/h (1 Bft) NW 324 ° 0 min 0,000 mm 0,0 UV-I 0 W/m² 15,4 °C 17,2 °C 6,4 km/h (2 Bft)
22.07.2017 01:14 17,1 °C 17,2 °C 89 % 1011,3 hPa 0,0 mm 3,3 km/h (1 Bft) W 272 ° 0 min 0,000 mm 0,0 UV-I 0 W/m² 15,3 °C 17,1 °C 4,8 km/h (1 Bft)
22.07.2017 01:15 17,1 °C 17,1 °C 90 % 1011,3 hPa 0,0 mm 1,5 km/h (1 Bft) W 268 ° 0 min 0,000 mm 0,0 UV-I 0 W/m² 15,4 °C 17,1 °C 4,8 km/h (1 Bft)
22.07.2017 01:16 17,1 °C 17,1 °C 90 % 1011,2 hPa 0,0 mm 5,1 km/h (1 Bft) W-NW 291 ° 0 min 0,000 mm 0,0 UV-I 0 W/m² 15,4 °C 17,1 °C 9,7 km/h (2 Bft)
22.07.2017 01:17 17,1 °C 17,1 °C 90 % 1011,2 hPa 0,0 mm 5,4 km/h (1 Bft) W 280 ° 0 min 0,000 mm 0,0 UV-I 0 W/m² 15,4 °C 17,1 °C 6,4 km/h (2 Bft)
22.07.2017 01:18 17,1 °C 17,1 °C 90 % 1011,3 hPa 0,0 mm 5,0 km/h (1 Bft) W-NW 295 ° 0 min 0,000 mm 0,0 UV-I 0 W/m² 15,4 °C 17,1 °C 9,7 km/h (2 Bft)
22.07.2017 01:19 17,1 °C 17,1 °C 90 % 1011,3 hPa 0,0 mm 6,4 km/h (2 Bft) W 280 ° 0 min 0,000 mm 0,0 UV-I 0 W/m² 15,4 °C 17,1 °C 9,7 km/h (2 Bft)
22.07.2017 01:20 17,1 °C 17,1 °C 90 % 1011,3 hPa 0,0 mm 5,5 km/h (1 Bft) W 280 ° 0 min 0,000 mm 0,0 UV-I 0 W/m² 15,4 °C 17,1 °C 9,7 km/h (2 Bft)
22.07.2017 01:21 17,1 °C 17,1 °C 90 % 1011,4 hPa 0,0 mm 8,8 km/h (2 Bft) W-SW 242 ° 0 min 0,000 mm 0,0 UV-I 0 W/m² 15,4 °C 17,1 °C 12,9 km/h (3 Bft)
22.07.2017 01:22 17,0 °C 17,1 °C 90 % 1011,3 hPa 0,0 mm 6,3 km/h (2 Bft) W-NW 302 ° 0 min 0,000 mm 0,0 UV-I 0 W/m² 15,3 °C 17,0 °C 11,3 km/h (2 Bft)
22.07.2017 01:23 17,0 °C 17,0 °C 90 % 1011,3 hPa 0,0 mm 4,2 km/h (1 Bft) W 270 ° 0 min 0,000 mm 0,0 UV-I 0 W/m² 15,3 °C 17,0 °C 6,4 km/h (2 Bft)
22.07.2017 01:24 16,9 °C 17,0 °C 90 % 1011,4 hPa 0,0 mm 4,2 km/h (1 Bft) W-SW 246 ° 0 min 0,000 mm 0,0 UV-I 0 W/m² 15,2 °C 16,9 °C 6,4 km/h (2 Bft)
22.07.2017 01:25 16,9 °C 16,9 °C 90 % 1011,4 hPa 0,0 mm 6,9 km/h (2 Bft) W-SW 245 ° 0 min 0,000 mm 0,0 UV-I 0 W/m² 15,2 °C 16,9 °C 11,3 km/h (2 Bft)
22.07.2017 01:26 16,9 °C 16,9 °C 90 % 1011,4 hPa 0,0 mm 2,3 km/h (1 Bft) W 275 ° 0 min 0,000 mm 0,0 UV-I 0 W/m² 15,2 °C 16,9 °C 4,8 km/h (1 Bft)
22.07.2017 01:27 16,8 °C 16,9 °C 90 % 1011,4 hPa 0,0 mm 4,6 km/h (1 Bft) W-NW 287 ° 0 min 0,000 mm 0,0 UV-I 0 W/m² 15,1 °C 16,8 °C 6,4 km/h (2 Bft)
22.07.2017 01:28 16,8 °C 16,9 °C 90 % 1011,4 hPa 0,0 mm 4,3 km/h (1 Bft) W-NW 292 ° 0 min 0,000 mm 0,0 UV-I 0 W/m² 15,1 °C 16,8 °C 4,8 km/h (1 Bft)
22.07.2017 01:29 16,8 °C 16,8 °C 90 % 1011,4 hPa 0,0 mm 2,3 km/h (1 Bft) W-NW 292 ° 0 min 0,000 mm 0,0 UV-I 0 W/m² 15,1 °C 16,8 °C 4,8 km/h (1 Bft)
22.07.2017 01:30 16,8 °C 16,8 °C 90 % 1011,4 hPa 0,0 mm 4,3 km/h (1 Bft) W-NW 288 ° 0 min 0,000 mm 0,0 UV-I 0 W/m² 15,1 °C 16,8 °C 6,4 km/h (2 Bft)
22.07.2017 01:31 16,8 °C 16,8 °C 90 % 1011,4 hPa 0,0 mm 4,7 km/h (1 Bft) W-SW 252 ° 0 min 0,000 mm 0,0 UV-I 0 W/m² 15,1 °C 16,8 °C 8,0 km/h (2 Bft)
22.07.2017 01:32 16,7 °C 16,8 °C 90 % 1011,4 hPa 0,0 mm 4,4 km/h (1 Bft) W-NW 300 ° 0 min 0,000 mm 0,0 UV-I 0 W/m² 15,0 °C 16,7 °C 11,3 km/h (2 Bft)
22.07.2017 01:33 16,7 °C 16,8 °C 90 % 1011,5 hPa 0,0 mm 7,0 km/h (2 Bft) W 267 ° 0 min 0,000 mm 0,0 UV-I 0 W/m² 15,0 °C 16,7 °C 12,9 km/h (3 Bft)
22.07.2017 01:34 16,7 °C 16,8 °C 90 % 1011,5 hPa 0,0 mm 4,6 km/h (1 Bft) W 281 ° 0 min 0,000 mm 0,0 UV-I 0 W/m² 15,0 °C 16,7 °C 8,0 km/h (2 Bft)
22.07.2017 01:35 16,7 °C 16,8 °C 90 % 1011,5 hPa 0,0 mm 6,2 km/h (2 Bft) W 265 ° 0 min 0,000 mm 0,0 UV-I 0 W/m² 15,0 °C 16,7 °C 11,3 km/h (2 Bft)
22.07.2017 01:36 16,7 °C 16,7 °C 90 % 1011,5 hPa 0,0 mm 3,5 km/h (1 Bft) W-NW 283 ° 0 min 0,000 mm 0,0 UV-I 0 W/m² 15,0 °C 16,7 °C 6,4 km/h (2 Bft)
22.07.2017 01:37 16,7 °C 16,7 °C 90 % 1011,5 hPa 0,0 mm 1,8 km/h (1 Bft) W-NW 283 ° 0 min 0,000 mm 0,0 UV-I 0 W/m² 15,0 °C 16,7 °C 3,2 km/h (1 Bft)
22.07.2017 01:38 16,7 °C 16,7 °C 90 % 1011,6 hPa 0,0 mm 2,7 km/h (1 Bft) W-NW 282 ° 0 min 0,000 mm 0,0 UV-I 0 W/m² 15,0 °C 16,7 °C 4,8 km/h (1 Bft)
22.07.2017 01:39 16,7 °C 16,7 °C 90 % 1011,5 hPa 0,0 mm 5,1 km/h (1 Bft) W-SW 257 ° 0 min 0,000 mm 0,0 UV-I 0 W/m² 15,0 °C 16,7 °C 8,0 km/h (2 Bft)
22.07.2017 01:40 16,7 °C 16,7 °C 90 % 1011,5 hPa 0,0 mm 4,3 km/h (1 Bft) W 269 ° 0 min 0,000 mm 0,0 UV-I 0 W/m² 15,0 °C 16,7 °C 6,4 km/h (2 Bft)
22.07.2017 01:41 16,7 °C 16,7 °C 90 % 1011,6 hPa 0,0 mm 7,2 km/h (2 Bft) W-SW 242 ° 0 min 0,000 mm 0,0 UV-I 0 W/m² 15,0 °C 16,7 °C 14,5 km/h (3 Bft)
22.07.2017 01:42 16,7 °C 16,7 °C 90 % 1011,6 hPa 0,0 mm 7,8 km/h (2 Bft) S-SW 211 ° 0 min 0,000 mm 0,0 UV-I 0 W/m² 15,0 °C 16,7 °C 11,3 km/h (2 Bft)
22.07.2017 01:43 16,6 °C 16,7 °C 90 % 1011,6 hPa 0,0 mm 3,8 km/h (1 Bft) W 266 ° 0 min 0,000 mm 0,0 UV-I 0 W/m² 15,0 °C 16,6 °C 9,7 km/h (2 Bft)
22.07.2017 01:44 16,7 °C 16,7 °C 90 % 1011,6 hPa 0,0 mm 9,5 km/h (2 Bft) W 270 ° 0 min 0,000 mm 0,0 UV-I 0 W/m² 15,0 °C 16,7 °C 12,9 km/h (3 Bft)
22.07.2017 01:45 16,7 °C 16,7 °C 90 % 1011,6 hPa 0,0 mm 6,6 km/h (2 Bft) W-SW 250 ° 0 min 0,000 mm 0,0 UV-I 0 W/m² 15,0 °C 16,7 °C 12,9 km/h (3 Bft)
22.07.2017 01:46 16,7 °C 16,7 °C 90 % 1011,5 hPa 0,0 mm 17,8 km/h (3 Bft) W-NW 286 ° 0 min 0,000 mm 0,0 UV-I 0 W/m² 15,0 °C 16,7 °C 25,7 km/h (4 Bft)
22.07.2017 01:47 16,7 °C 16,7 °C 89 % 1011,6 hPa 0,0 mm 9,9 km/h (2 Bft) W-NW 284 ° 0 min 0,000 mm 0,0 UV-I 0 W/m² 14,9 °C 16,7 °C 12,9 km/h (3 Bft)
22.07.2017 01:48 16,7 °C 16,7 °C 89 % 1011,6 hPa 0,0 mm 9,0 km/h (2 Bft) W 271 ° 0 min 0,000 mm 0,0 UV-I 0 W/m² 14,9 °C 16,7 °C 14,5 km/h (3 Bft)
22.07.2017 01:49 16,8 °C 16,8 °C 89 % 1011,5 hPa 0,0 mm 2,9 km/h (1 Bft) SW 234 ° 0 min 0,000 mm 0,0 UV-I 0 W/m² 15,0 °C 16,8 °C 6,4 km/h (2 Bft)
22.07.2017 01:50 16,8 °C 16,8 °C 89 % 1011,6 hPa 0,0 mm 5,0 km/h (1 Bft) W 259 ° 0 min 0,000 mm 0,0 UV-I 0 W/m² 15,0 °C 16,8 °C 12,9 km/h (3 Bft)
22.07.2017 01:51 16,7 °C 16,8 °C 89 % 1011,6 hPa 0,0 mm 7,4 km/h (2 Bft) W-SW 250 ° 0 min 0,000 mm 0,0 UV-I 0 W/m² 14,9 °C 16,7 °C 16,1 km/h (3 Bft)
22.07.2017 01:52 16,7 °C 16,7 °C 89 % 1011,6 hPa 0,0 mm 10,7 km/h (2 Bft) NW 319 ° 0 min 0,000 mm 0,0 UV-I 0 W/m² 14,9 °C 16,7 °C 16,1 km/h (3 Bft)
22.07.2017 01:53 16,8 °C 16,8 °C 88 % 1011,6 hPa 0,0 mm 13,9 km/h (3 Bft) W 275 ° 0 min 0,000 mm 0,0 UV-I 0 W/m² 14,8 °C 16,8 °C 19,3 km/h (3 Bft)
22.07.2017 01:54 16,7 °C 16,8 °C 88 % 1011,8 hPa 0,0 mm 15,6 km/h (3 Bft) W 275 ° 0 min 0,000 mm 0,0 UV-I 0 W/m² 14,7 °C 16,7 °C 20,9 km/h (4 Bft)
22.07.2017 01:55 16,8 °C 16,8 °C 87 % 1011,8 hPa 0,0 mm 12,1 km/h (2 Bft) W 274 ° 0 min 0,000 mm 0,0 UV-I 0 W/m² 14,6 °C 16,8 °C 19,3 km/h (3 Bft)
22.07.2017 01:56 16,8 °C 16,8 °C 87 % 1011,8 hPa 0,0 mm 8,0 km/h (2 Bft) W-SW 243 ° 0 min 0,000 mm 0,0 UV-I 0 W/m² 14,6 °C 16,8 °C 12,9 km/h (3 Bft)
22.07.2017 01:57 16,8 °C 16,8 °C 87 % 1011,8 hPa 0,0 mm 7,4 km/h (2 Bft) W 262 ° 0 min 0,000 mm 0,0 UV-I 0 W/m² 14,6 °C 16,8 °C 12,9 km/h (3 Bft)
22.07.2017 01:58 16,8 °C 16,8 °C 87 % 1011,9 hPa 0,0 mm 11,0 km/h (2 Bft) W-SW 240 ° 0 min 0,000 mm 0,0 UV-I 0 W/m² 14,6 °C 16,8 °C 16,1 km/h (3 Bft)
22.07.2017 01:59 16,8 °C 16,8 °C 87 % 1011,8 hPa 0,0 mm 9,8 km/h (2 Bft) W 280 ° 0 min 0,000 mm 0,0 UV-I 0 W/m² 14,6 °C 16,8 °C 14,5 km/h (3 Bft)
22.07.2017 02:00 16,8 °C 16,8 °C 87 % 1011,8 hPa 0,0 mm 8,6 km/h (2 Bft) SW 229 ° 0 min 0,000 mm 0,0 UV-I 0 W/m² 14,6 °C 16,8 °C 14,5 km/h (3 Bft)
22.07.2017 02:01 16,8 °C 16,8 °C 87 % 1011,8 hPa 0,0 mm 7,8 km/h (2 Bft) W 265 ° 0 min 0,026 mm 0,0 UV-I 0 W/m² 14,6 °C 16,8 °C 11,3 km/h (2 Bft)
22.07.2017 02:02 16,7 °C 16,8 °C 86 % 1011,8 hPa 0,0 mm 14,3 km/h (3 Bft) W 265 ° 0 min 0,000 mm 0,0 UV-I 0 W/m² 14,3 °C 16,7 °C 22,5 km/h (4 Bft)
22.07.2017 02:03 16,7 °C 16,7 °C 86 % 1011,8 hPa 0,0 mm 11,7 km/h (2 Bft) W 261 ° 0 min 0,000 mm 0,0 UV-I 0 W/m² 14,3 °C 16,7 °C 20,9 km/h (4 Bft)
22.07.2017 02:04 16,7 °C 16,7 °C 86 % 1011,6 hPa 0,0 mm 6,6 km/h (2 Bft) S-SW 208 ° 0 min 0,000 mm 0,0 UV-I 0 W/m² 14,3 °C 16,7 °C 9,7 km/h (2 Bft)
22.07.2017 02:05 16,7 °C 16,7 °C 86 % 1011,8 hPa 0,0 mm 10,3 km/h (2 Bft) W 276 ° 0 min 0,000 mm 0,0 UV-I 0 W/m² 14,3 °C 16,7 °C 17,7 km/h (3 Bft)
22.07.2017 02:06 16,7 °C 16,7 °C 86 % 1011,6 hPa 0,0 mm 8,5 km/h (2 Bft) W 271 ° 0 min 0,000 mm 0,0 UV-I 0 W/m² 14,3 °C 16,7 °C 11,3 km/h (2 Bft)
22.07.2017 02:07 16,7 °C 16,7 °C 86 % 1011,8 hPa 0,0 mm 8,0 km/h (2 Bft) W-NW 282 ° 0 min 0,000 mm 0,0 UV-I 0 W/m² 14,3 °C 16,7 °C 12,9 km/h (3 Bft)
22.07.2017 02:08 16,6 °C 16,7 °C 86 % 1011,6 hPa 0,0 mm 7,6 km/h (2 Bft) W-SW 238 ° 0 min 0,000 mm 0,0 UV-I 0 W/m² 14,2 °C 16,6 °C 16,1 km/h (3 Bft)
22.07.2017 02:09 16,6 °C 16,6 °C 86 % 1011,6 hPa 0,0 mm 7,2 km/h (2 Bft) S-SW 213 ° 0 min 0,000 mm 0,0 UV-I 0 W/m² 14,2 °C 16,6 °C 14,5 km/h (3 Bft)
22.07.2017 02:10 16,6 °C 16,6 °C 86 % 1011,6 hPa 0,0 mm 2,2 km/h (1 Bft) SW 214 ° 0 min 0,000 mm 0,0 UV-I 0 W/m² 14,2 °C 16,6 °C 4,8 km/h (1 Bft)
22.07.2017 02:11 16,6 °C 16,6 °C 86 % 1011,6 hPa 0,0 mm 5,6 km/h (1 Bft) W-SW 257 ° 0 min 0,000 mm 0,0 UV-I 0 W/m² 14,2 °C 16,6 °C 6,4 km/h (2 Bft)
22.07.2017 02:12 16,6 °C 16,6 °C 86 % 1011,6 hPa 0,0 mm 8,9 km/h (2 Bft) W-NW 284 ° 0 min 0,000 mm 0,0 UV-I 0 W/m² 14,2 °C 16,6 °C 14,5 km/h (3 Bft)
22.07.2017 02:13 16,6 °C 16,6 °C 86 % 1011,6 hPa 0,0 mm 8,1 km/h (2 Bft) W 275 ° 0 min 0,000 mm 0,0 UV-I 0 W/m² 14,2 °C 16,6 °C 14,5 km/h (3 Bft)
22.07.2017 02:14 16,5 °C 16,6 °C 86 % 1011,6 hPa 0,0 mm 7,2 km/h (2 Bft) W 279 ° 0 min 0,000 mm 0,0 UV-I 0 W/m² 14,1 °C 16,5 °C 11,3 km/h (2 Bft)
22.07.2017 02:15 16,4 °C 16,5 °C 86 % 1011,6 hPa 0,0 mm 10,3 km/h (2 Bft) W-NW 296 ° 0 min 0,000 mm 0,0 UV-I 0 W/m² 14,1 °C 16,4 °C 16,1 km/h (3 Bft)
22.07.2017 02:16 16,4 °C 16,4 °C 86 % 1011,6 hPa 0,0 mm 8,7 km/h (2 Bft) W 262 ° 0 min 0,000 mm 0,0 UV-I 0 W/m² 14,1 °C 16,4 °C 14,5 km/h (3 Bft)
22.07.2017 02:17 16,4 °C 16,4 °C 87 % 1011,6 hPa 0,0 mm 6,0 km/h (2 Bft) W-SW 243 ° 0 min 0,000 mm 0,0 UV-I 0 W/m² 14,2 °C 16,4 °C 12,9 km/h (3 Bft)
22.07.2017 02:18 16,4 °C 16,4 °C 86 % 1011,6 hPa 0,0 mm 4,8 km/h (1 Bft) W-NW 294 ° 0 min 0,000 mm 0,0 UV-I 0 W/m² 14,1 °C 16,4 °C 6,4 km/h (2 Bft)
22.07.2017 02:19 16,3 °C 16,4 °C 87 % 1011,6 hPa 0,0 mm 5,9 km/h (2 Bft) W-SW 244 ° 0 min 0,000 mm 0,0 UV-I 0 W/m² 14,1 °C 16,3 °C 12,9 km/h (3 Bft)
22.07.2017 02:20 16,3 °C 16,4 °C 87 % 1011,6 hPa 0,0 mm 8,7 km/h (2 Bft) W-SW 256 ° 0 min 0,000 mm 0,0 UV-I 0 W/m² 14,1 °C 16,3 °C 14,5 km/h (3 Bft)
22.07.2017 02:21 16,3 °C 16,3 °C 87 % 1011,5 hPa 0,0 mm 2,9 km/h (1 Bft) W-SW 256 ° 0 min 0,000 mm 0,0 UV-I 0 W/m² 14,1 °C 16,3 °C 4,8 km/h (1 Bft)
22.07.2017 02:22 16,3 °C 16,3 °C 87 % 1011,5 hPa 0,0 mm 9,3 km/h (2 Bft) W 268 ° 0 min 0,000 mm 0,0 UV-I 0 W/m² 14,1 °C 16,3 °C 20,9 km/h (4 Bft)
22.07.2017 02:23 16,3 °C 16,3 °C 87 % 1011,5 hPa 0,0 mm 10,2 km/h (2 Bft) W 259 ° 0 min 0,000 mm 0,0 UV-I 0 W/m² 14,1 °C 16,3 °C 12,9 km/h (3 Bft)
22.07.2017 02:24 16,3 °C 16,3 °C 87 % 1011,5 hPa 0,0 mm 8,6 km/h (2 Bft) W 261 ° 0 min 0,000 mm 0,0 UV-I 0 W/m² 14,1 °C 16,3 °C 11,3 km/h (2 Bft)
22.07.2017 02:25 16,3 °C 16,3 °C 87 % 1011,5 hPa 0,0 mm 6,3 km/h (2 Bft) SW 227 ° 0 min 0,000 mm 0,0 UV-I 0 W/m² 14,1 °C 16,3 °C 8,0 km/h (2 Bft)
22.07.2017 02:26 16,2 °C 16,3 °C 87 % 1011,5 hPa 0,0 mm 2,7 km/h (1 Bft) W 268 ° 0 min 0,000 mm 0,0 UV-I 0 W/m² 14,0 °C 16,2 °C 9,7 km/h (2 Bft)
22.07.2017 02:27 16,2 °C 16,2 °C 88 % 1011,4 hPa 0,0 mm 3,8 km/h (1 Bft) W-SW 246 ° 0 min 0,000 mm 0,0 UV-I 0 W/m² 14,2 °C 16,2 °C 6,4 km/h (2 Bft)
22.07.2017 02:28 16,1 °C 16,2 °C 88 % 1011,4 hPa 0,0 mm 2,4 km/h (1 Bft) W-SW 248 ° 0 min 0,000 mm 0,0 UV-I 0 W/m² 14,1 °C 16,1 °C 4,8 km/h (1 Bft)
22.07.2017 02:29 16,1 °C 16,1 °C 88 % 1011,5 hPa 0,0 mm 3,3 km/h (1 Bft) W-SW 254 ° 0 min 0,000 mm 0,0 UV-I 0 W/m² 14,1 °C 16,1 °C 4,8 km/h (1 Bft)
22.07.2017 02:30 16,0 °C 16,1 °C 88 % 1011,4 hPa 0,0 mm 3,6 km/h (1 Bft) W-SW 257 ° 0 min 0,000 mm 0,0 UV-I 0 W/m² 14,0 °C 16,0 °C 4,8 km/h (1 Bft)
22.07.2017 02:31 16,0 °C 16,1 °C 88 % 1011,4 hPa 0,0 mm 2,2 km/h (1 Bft) W-SW 257 ° 0 min 0,000 mm 0,0 UV-I 0 W/m² 14,0 °C 16,0 °C 3,2 km/h (1 Bft)
22.07.2017 02:32 15,9 °C 16,0 °C 88 % 1011,4 hPa 0,0 mm 2,1 km/h (1 Bft) W 269 ° 0 min 0,000 mm 0,0 UV-I 0 W/m² 13,9 °C 15,9 °C 6,4 km/h (2 Bft)
22.07.2017 02:33 15,9 °C 15,9 °C 89 % 1011,4 hPa 0,0 mm 1,3 km/h (1 Bft) W 268 ° 0 min 0,000 mm 0,0 UV-I 0 W/m² 14,1 °C 15,9 °C 3,2 km/h (1 Bft)
22.07.2017 02:34 15,9 °C 15,9 °C 88 % 1011,4 hPa 0,0 mm 0,9 km/h (0 Bft) W 268 ° 0 min 0,000 mm 0,0 UV-I 0 W/m² 13,9 °C 15,9 °C 1,6 km/h (1 Bft)
22.07.2017 02:35 15,8 °C 15,9 °C 89 % 1011,5 hPa 0,0 mm 1,3 km/h (1 Bft) W-SW 239 ° 0 min 0,000 mm 0,0 UV-I 0 W/m² 14,0 °C 15,8 °C 4,8 km/h (1 Bft)
22.07.2017 02:36 15,8 °C 15,8 °C 89 % 1011,5 hPa 0,0 mm 1,5 km/h (1 Bft) SW 234 ° 0 min 0,000 mm 0,0 UV-I 0 W/m² 14,0 °C 15,8 °C 4,8 km/h (1 Bft)
22.07.2017 02:37 15,7 °C 15,8 °C 89 % 1011,5 hPa 0,0 mm 4,6 km/h (1 Bft) S 181 ° 0 min 0,000 mm 0,0 UV-I 0 W/m² 13,9 °C 15,7 °C 8,0 km/h (2 Bft)
22.07.2017 02:38 15,8 °C 15,8 °C 89 % 1011,4 hPa 0,0 mm 5,7 km/h (1 Bft) W-SW 244 ° 0 min 0,000 mm 0,0 UV-I 0 W/m² 14,0 °C 15,8 °C 11,3 km/h (2 Bft)
22.07.2017 02:39 15,7 °C 15,8 °C 89 % 1011,4 hPa 0,2 mm 4,2 km/h (1 Bft) W 281 ° 0 min 0,000 mm 0,0 UV-I 0 W/m² 13,9 °C 15,7 °C 6,4 km/h (2 Bft)
22.07.2017 02:40 15,8 °C 15,8 °C 89 % 1011,4 hPa 0,0 mm 1,4 km/h (1 Bft) W 281 ° 0 min 0,000 mm 0,0 UV-I 0 W/m² 14,0 °C 15,8 °C 1,6 km/h (1 Bft)
22.07.2017 02:41 15,7 °C 15,8 °C 89 % 1011,4 hPa 0,0 mm 1,1 km/h (1 Bft) W 259 ° 0 min 0,000 mm 0,0 UV-I 0 W/m² 13,9 °C 15,7 °C 4,8 km/h (1 Bft)
22.07.2017 02:42 15,7 °C 15,7 °C 89 % 1011,4 hPa 0,0 mm 4,1 km/h (1 Bft) W 263 ° 0 min 0,000 mm 0,0 UV-I 0 W/m² 13,9 °C 15,7 °C 6,4 km/h (2 Bft)
22.07.2017 02:43 15,7 °C 15,7 °C 89 % 1011,4 hPa 0,0 mm 4,6 km/h (1 Bft) S-SW 194 ° 0 min 0,000 mm 0,0 UV-I 0 W/m² 13,9 °C 15,7 °C 6,4 km/h (2 Bft)
22.07.2017 02:44 15,7 °C 15,7 °C 89 % 1011,4 hPa 0,0 mm 6,2 km/h (2 Bft) W-SW 243 ° 0 min 0,000 mm 0,0 UV-I 0 W/m² 13,9 °C 15,7 °C 11,3 km/h (2 Bft)
22.07.2017 02:45 15,6 °C 15,7 °C 89 % 1011,4 hPa 0,0 mm 1,7 km/h (1 Bft) SW 219 ° 0 min 0,000 mm 0,0 UV-I 0 W/m² 13,8 °C 15,6 °C 4,8 km/h (1 Bft)
22.07.2017 02:46 15,6 °C 15,6 °C 89 % 1011,4 hPa 0,0 mm 2,6 km/h (1 Bft) SW 219 ° 0 min 0,000 mm 0,0 UV-I 0 W/m² 13,8 °C 15,6 °C 3,2 km/h (1 Bft)
22.07.2017 02:47 15,6 °C 15,6 °C 90 % 1011,4 hPa 0,0 mm 2,2 km/h (1 Bft) SW 219 ° 0 min 0,000 mm 0,0 UV-I 0 W/m² 14,0 °C 15,6 °C 3,2 km/h (1 Bft)
22.07.2017 02:48 15,6 °C 15,6 °C 90 % 1011,3 hPa 0,2 mm 2,5 km/h (1 Bft) S-SW 192 ° 0 min 0,000 mm 0,0 UV-I 0 W/m² 14,0 °C 15,6 °C 6,4 km/h (2 Bft)
22.07.2017 02:49 15,5 °C 15,6 °C 90 % 1011,3 hPa 0,0 mm 4,8 km/h (1 Bft) S 188 ° 0 min 0,000 mm 0,0 UV-I 0 W/m² 13,9 °C 15,5 °C 8,0 km/h (2 Bft)
22.07.2017 02:50 15,4 °C 15,5 °C 90 % 1011,3 hPa 0,2 mm 2,9 km/h (1 Bft) W-SW 246 ° 0 min 0,000 mm 0,0 UV-I 0 W/m² 13,8 °C 15,4 °C 4,8 km/h (1 Bft)
22.07.2017 02:51 15,4 °C 15,4 °C 90 % 1011,3 hPa 0,0 mm 3,5 km/h (1 Bft) SW 229 ° 0 min 0,000 mm 0,0 UV-I 0 W/m² 13,8 °C 15,4 °C 6,4 km/h (2 Bft)
22.07.2017 02:52 15,4 °C 15,4 °C 90 % 1011,2 hPa 0,0 mm 3,1 km/h (1 Bft) W 270 ° 0 min 0,000 mm 0,0 UV-I 0 W/m² 13,8 °C 15,4 °C 4,8 km/h (1 Bft)
22.07.2017 02:53 15,3 °C 15,4 °C 90 % 1011,2 hPa 0,0 mm 3,0 km/h (1 Bft) W 265 ° 0 min 0,000 mm 0,0 UV-I 0 W/m² 13,7 °C 15,3 °C 4,8 km/h (1 Bft)
22.07.2017 02:54 15,3 °C 15,4 °C 91 % 1011,2 hPa 0,0 mm 0,6 km/h (0 Bft) W-SW 245 ° 0 min 0,000 mm 0,0 UV-I 0 W/m² 13,8 °C 15,3 °C 1,6 km/h (1 Bft)
22.07.2017 02:55 15,3 °C 15,3 °C 91 % 1011,2 hPa 0,2 mm 1,2 km/h (1 Bft) W-SW 245 ° 0 min 0,000 mm 0,0 UV-I 0 W/m² 13,8 °C 15,3 °C 3,2 km/h (1 Bft)
22.07.2017 02:56 15,2 °C 15,3 °C 91 % 1011,2 hPa 0,0 mm 1,5 km/h (1 Bft) W-SW 240 ° 0 min 0,000 mm 0,0 UV-I 0 W/m² 13,7 °C 15,2 °C 3,2 km/h (1 Bft)
22.07.2017 02:57 15,2 °C 15,2 °C 91 % 1011,3 hPa 0,0 mm 0,9 km/h (0 Bft) W-SW 240 ° 0 min 0,000 mm 0,0 UV-I 0 W/m² 13,7 °C 15,2 °C 3,2 km/h (1 Bft)
22.07.2017 02:58 15,2 °C 15,2 °C 91 % 1011,3 hPa 0,0 mm 0,7 km/h (0 Bft) W-SW 240 ° 0 min 0,000 mm 0,0 UV-I 0 W/m² 13,7 °C 15,2 °C 3,2 km/h (1 Bft)
22.07.2017 02:59 15,2 °C 15,2 °C 91 % 1011,3 hPa 0,0 mm 5,2 km/h (1 Bft) S-SW 200 ° 0 min 0,000 mm 0,0 UV-I 0 W/m² 13,7 °C 15,2 °C 9,7 km/h (2 Bft)
22.07.2017 03:00 15,1 °C 15,2 °C 92 % 1011,3 hPa 0,0 mm 6,5 km/h (2 Bft) W-SW 242 ° 0 min 0,025 mm 0,0 UV-I 0 W/m² 13,8 °C 15,1 °C 12,9 km/h (3 Bft)
22.07.2017 03:01 15,1 °C 15,1 °C 92 % 1011,2 hPa 0,0 mm 5,7 km/h (1 Bft) W 259 ° 0 min 0,000 mm 0,0 UV-I 0 W/m² 13,8 °C 15,1 °C 9,7 km/h (2 Bft)
22.07.2017 03:02 15,1 °C 15,1 °C 92 % 1011,3 hPa 0,0 mm 0,3 km/h (0 Bft) W 259 ° 0 min 0,000 mm 0,0 UV-I 0 W/m² 13,8 °C 15,1 °C 1,6 km/h (1 Bft)
22.07.2017 03:03 15,0 °C 15,1 °C 92 % 1011,3 hPa 0,0 mm 0,0 km/h (0 Bft) W 259 ° 0 min 0,000 mm 0,0 UV-I 0 W/m² 13,7 °C 15,0 °C 0,0 km/h (0 Bft)
22.07.2017 03:04 15,0 °C 15,1 °C 92 % 1011,3 hPa 0,0 mm 3,0 km/h (1 Bft) S 180 ° 0 min 0,000 mm 0,0 UV-I 0 W/m² 13,7 °C 15,0 °C 4,8 km/h (1 Bft)
22.07.2017 03:05 14,9 °C 15,0 °C 92 % 1011,3 hPa 0,0 mm 1,3 km/h (1 Bft) S 182 ° 0 min 0,000 mm 0,0 UV-I 0 W/m² 13,6 °C 14,9 °C 3,2 km/h (1 Bft)
22.07.2017 03:06 14,9 °C 15,0 °C 92 % 1011,3 hPa 0,0 mm 0,5 km/h (0 Bft) S 186 ° 0 min 0,000 mm 0,0 UV-I 0 W/m² 13,6 °C 14,9 °C 3,2 km/h (1 Bft)
22.07.2017 03:07 14,9 °C 14,9 °C 92 % 1011,3 hPa 0,0 mm 3,1 km/h (1 Bft) SW 214 ° 0 min 0,000 mm 0,0 UV-I 0 W/m² 13,6 °C 14,9 °C 4,8 km/h (1 Bft)
22.07.2017 03:08 14,9 °C 15,0 °C 92 % 1011,3 hPa 0,0 mm 2,9 km/h (1 Bft) S-SW 211 ° 0 min 0,000 mm 0,0 UV-I 0 W/m² 13,6 °C 14,9 °C 4,8 km/h (1 Bft)
22.07.2017 03:09 14,9 °C 15,0 °C 92 % 1011,3 hPa 0,0 mm 0,5 km/h (0 Bft) S-SW 211 ° 0 min 0,000 mm 0,0 UV-I 0 W/m² 13,6 °C 14,9 °C 1,6 km/h (1 Bft)
22.07.2017 03:10 14,9 °C 14,9 °C 92 % 1011,3 hPa 0,0 mm 0,5 km/h (0 Bft) S-SW 211 ° 0 min 0,000 mm 0,0 UV-I 0 W/m² 13,6 °C 14,9 °C 1,6 km/h (1 Bft)
22.07.2017 03:11 14,9 °C 15,0 °C 92 % 1011,3 hPa 0,0 mm 1,5 km/h (1 Bft) W-SW 244 ° 0 min 0,000 mm 0,0 UV-I 0 W/m² 13,6 °C 14,9 °C 6,4 km/h (2 Bft)
22.07.2017 03:12 14,9 °C 14,9 °C 92 % 1011,3 hPa 0,0 mm 3,4 km/h (1 Bft) W 263 ° 0 min 0,000 mm 0,0 UV-I 0 W/m² 13,6 °C 14,9 °C 6,4 km/h (2 Bft)
22.07.2017 03:13 14,9 °C 14,9 °C 92 % 1011,3 hPa 0,0 mm 2,7 km/h (1 Bft) S-SW 200 ° 0 min 0,000 mm 0,0 UV-I 0 W/m² 13,6 °C 14,9 °C 4,8 km/h (1 Bft)
22.07.2017 03:14 14,9 °C 14,9 °C 92 % 1011,2 hPa 0,0 mm 5,4 km/h (1 Bft) S 175 ° 0 min 0,000 mm 0,0 UV-I 0 W/m² 13,6 °C 14,9 °C 8,0 km/h (2 Bft)
22.07.2017 03:15 14,9 °C 15,0 °C 92 % 1011,2 hPa 0,0 mm 2,8 km/h (1 Bft) S-SW 204 ° 0 min 0,000 mm 0,0 UV-I 0 W/m² 13,6 °C 14,9 °C 4,8 km/h (1 Bft)
22.07.2017 03:16 15,0 °C 15,0 °C 92 % 1011,2 hPa 0,0 mm 0,0 km/h (0 Bft) S-SW 204 ° 0 min 0,000 mm 0,0 UV-I 0 W/m² 13,7 °C 15,0 °C 0,0 km/h (0 Bft)
22.07.2017 03:17 15,0 °C 15,0 °C 92 % 1011,2 hPa 0,0 mm 0,0 km/h (0 Bft) S-SW 204 ° 0 min 0,000 mm 0,0 UV-I 0 W/m² 13,7 °C 15,0 °C 0,0 km/h (0 Bft)
22.07.2017 03:18 15,0 °C 15,0 °C 92 % 1011,2 hPa 0,0 mm 0,1 km/h (0 Bft) S-SW 204 ° 0 min 0,000 mm 0,0 UV-I 0 W/m² 13,7 °C 15,0 °C 1,6 km/h (1 Bft)
22.07.2017 03:19 14,9 °C 15,0 °C 92 % 1011,3 hPa 0,0 mm 0,9 km/h (0 Bft) S 189 ° 0 min 0,000 mm 0,0 UV-I 0 W/m² 13,6 °C 14,9 °C 3,2 km/h (1 Bft)
22.07.2017 03:20 14,9 °C 14,9 °C 92 % 1011,3 hPa 0,0 mm 1,4 km/h (1 Bft) S 185 ° 0 min 0,000 mm 0,0 UV-I 0 W/m² 13,6 °C 14,9 °C 4,8 km/h (1 Bft)
22.07.2017 03:21 14,9 °C 14,9 °C 92 % 1011,3 hPa 0,0 mm 2,1 km/h (1 Bft) S 188 ° 0 min 0,000 mm 0,0 UV-I 0 W/m² 13,6 °C 14,9 °C 4,8 km/h (1 Bft)
22.07.2017 03:22 14,9 °C 14,9 °C 92 % 1011,3 hPa 0,0 mm 0,0 km/h (0 Bft) S 188 ° 0 min 0,000 mm 0,0 UV-I 0 W/m² 13,6 °C 14,9 °C 0,0 km/h (0 Bft)
22.07.2017 03:23 14,9 °C 14,9 °C 92 % 1011,3 hPa 0,0 mm 0,0 km/h (0 Bft) S 188 ° 0 min 0,000 mm 0,0 UV-I 0 W/m² 13,6 °C 14,9 °C 0,0 km/h (0 Bft)
22.07.2017 03:24 14,9 °C 14,9 °C 92 % 1011,3 hPa 0,0 mm 0,8 km/h (0 Bft) S 188 ° 0 min 0,000 mm 0,0 UV-I 0 W/m² 13,6 °C 14,9 °C 3,2 km/h (1 Bft)
22.07.2017 03:25 14,9 °C 14,9 °C 92 % 1011,3 hPa 0,0 mm 0,8 km/h (0 Bft) S 188 ° 0 min 0,000 mm 0,0 UV-I 0 W/m² 13,6 °C 14,9 °C 1,6 km/h (1 Bft)
22.07.2017 03:26 14,8 °C 14,9 °C 92 % 1011,3 hPa 0,0 mm 0,0 km/h (0 Bft) S 188 ° 0 min 0,000 mm 0,0 UV-I 0 W/m² 13,5 °C 14,8 °C 0,0 km/h (0 Bft)
22.07.2017 03:27 14,8 °C 14,8 °C 92 % 1011,3 hPa 0,0 mm 0,0 km/h (0 Bft) S 188 ° 0 min 0,000 mm 0,0 UV-I 0 W/m² 13,5 °C 14,8 °C 0,0 km/h (0 Bft)
22.07.2017 03:28 14,8 °C 14,8 °C 92 % 1011,3 hPa 0,0 mm 0,0 km/h (0 Bft) S 188 ° 0 min 0,000 mm 0,0 UV-I 0 W/m² 13,5 °C 14,8 °C 0,0 km/h (0 Bft)
22.07.2017 03:29 14,8 °C 14,8 °C 93 % 1011,3 hPa 0,0 mm 0,0 km/h (0 Bft) S 188 ° 0 min 0,000 mm 0,0 UV-I 0 W/m² 13,7 °C 14,8 °C 0,0 km/h (0 Bft)
22.07.2017 03:30 14,8 °C 14,8 °C 93 % 1011,3 hPa 0,0 mm 0,0 km/h (0 Bft) S 188 ° 0 min 0,000 mm 0,0 UV-I 0 W/m² 13,7 °C 14,8 °C 0,0 km/h (0 Bft)
22.07.2017 03:31 14,7 °C 14,8 °C 93 % 1011,3 hPa 0,0 mm 0,0 km/h (0 Bft) S 188 ° 0 min 0,000 mm 0,0 UV-I 0 W/m² 13,6 °C 14,7 °C 0,0 km/h (0 Bft)
22.07.2017 03:32 14,7 °C 14,7 °C 93 % 1011,3 hPa 0,0 mm 2,6 km/h (1 Bft) S 184 ° 0 min 0,000 mm 0,0 UV-I 0 W/m² 13,6 °C 14,7 °C 6,4 km/h (2 Bft)
22.07.2017 03:33 14,7 °C 14,7 °C 93 % 1011,3 hPa 0,0 mm 2,6 km/h (1 Bft) SW 217 ° 0 min 0,000 mm 0,0 UV-I 0 W/m² 13,6 °C 14,7 °C 4,8 km/h (1 Bft)
22.07.2017 03:34 14,6 °C 14,7 °C 93 % 1011,3 hPa 0,0 mm 0,5 km/h (0 Bft) SW 217 ° 0 min 0,000 mm 0,0 UV-I 0 W/m² 13,5 °C 14,6 °C 1,6 km/h (1 Bft)
22.07.2017 03:35 14,6 °C 14,6 °C 93 % 1011,3 hPa 0,0 mm 0,4 km/h (0 Bft) SW 217 ° 0 min 0,000 mm 0,0 UV-I 0 W/m² 13,5 °C 14,6 °C 1,6 km/h (1 Bft)
22.07.2017 03:36 14,6 °C 14,6 °C 93 % 1011,3 hPa 0,0 mm 1,5 km/h (1 Bft) SW 216 ° 0 min 0,000 mm 0,0 UV-I 0 W/m² 13,5 °C 14,6 °C 3,2 km/h (1 Bft)
22.07.2017 03:37 14,6 °C 14,6 °C 93 % 1011,3 hPa 0,0 mm 0,3 km/h (0 Bft) SW 216 ° 0 min 0,000 mm 0,0 UV-I 0 W/m² 13,5 °C 14,6 °C 1,6 km/h (1 Bft)
22.07.2017 03:38 14,6 °C 14,6 °C 93 % 1011,3 hPa 0,0 mm 0,0 km/h (0 Bft) SW 216 ° 0 min 0,000 mm 0,0 UV-I 0 W/m² 13,5 °C 14,6 °C 0,0 km/h (0 Bft)
22.07.2017 03:39 14,5 °C 14,6 °C 94 % 1011,3 hPa 0,0 mm 0,0 km/h (0 Bft) SW 216 ° 0 min 0,000 mm 0,0 UV-I 0 W/m² 13,5 °C 14,5 °C 0,0 km/h (0 Bft)
22.07.2017 03:40 14,5 °C 14,6 °C 94 % 1011,3 hPa 0,0 mm 0,0 km/h (0 Bft) SW 216 ° 0 min 0,000 mm 0,0 UV-I 0 W/m² 13,5 °C 14,5 °C 0,0 km/h (0 Bft)
22.07.2017 03:41 14,5 °C 14,6 °C 94 % 1011,3 hPa 0,0 mm 0,5 km/h (0 Bft) SW 216 ° 0 min 0,000 mm 0,0 UV-I 0 W/m² 13,5 °C 14,5 °C 1,6 km/h (1 Bft)
22.07.2017 03:42 14,4 °C 14,5 °C 94 % 1011,3 hPa 0,0 mm 0,1 km/h (0 Bft) SW 216 ° 0 min 0,000 mm 0,0 UV-I 0 W/m² 13,4 °C 14,4 °C 1,6 km/h (1 Bft)
22.07.2017 03:43 14,4 °C 14,5 °C 94 % 1011,3 hPa 0,0 mm 0,0 km/h (0 Bft) SW 216 ° 0 min 0,000 mm 0,0 UV-I 0 W/m² 13,4 °C 14,4 °C 0,0 km/h (0 Bft)
22.07.2017 03:44 14,4 °C 14,5 °C 94 % 1011,3 hPa 0,0 mm 0,0 km/h (0 Bft) SW 216 ° 0 min 0,000 mm 0,0 UV-I 0 W/m² 13,4 °C 14,4 °C 0,0 km/h (0 Bft)
22.07.2017 03:45 14,4 °C 14,4 °C 94 % 1011,3 hPa 0,0 mm 0,0 km/h (0 Bft) SW 216 ° 0 min 0,000 mm 0,0 UV-I 0 W/m² 13,4 °C 14,4 °C 0,0 km/h (0 Bft)
22.07.2017 03:46 14,4 °C 14,4 °C 94 % 1011,2 hPa 0,0 mm 1,7 km/h (1 Bft) SW 227 ° 0 min 0,000 mm 0,0 UV-I 0 W/m² 13,4 °C 14,4 °C 3,2 km/h (1 Bft)
22.07.2017 03:47 14,4 °C 14,4 °C 94 % 1011,2 hPa 0,0 mm 0,8 km/h (0 Bft) S 186 ° 0 min 0,000 mm 0,0 UV-I 0 W/m² 13,4 °C 14,4 °C 3,2 km/h (1 Bft)
22.07.2017 03:48 14,4 °C 14,4 °C 94 % 1011,3 hPa 0,0 mm 0,0 km/h (0 Bft) S 186 ° 0 min 0,000 mm 0,0 UV-I 0 W/m² 13,4 °C 14,4 °C 0,0 km/h (0 Bft)
22.07.2017 03:49 14,4 °C 14,4 °C 94 % 1011,2 hPa 0,0 mm 0,1 km/h (0 Bft) S 186 ° 0 min 0,000 mm 0,0 UV-I 0 W/m² 13,4 °C 14,4 °C 1,6 km/h (1 Bft)
22.07.2017 03:50 14,4 °C 14,4 °C 94 % 1011,3 hPa 0,0 mm 0,4 km/h (0 Bft) S 186 ° 0 min 0,000 mm 0,0 UV-I 0 W/m² 13,4 °C 14,4 °C 1,6 km/h (1 Bft)
22.07.2017 03:51 14,4 °C 14,4 °C 94 % 1011,3 hPa 0,0 mm 0,2 km/h (0 Bft) S 186 ° 0 min 0,000 mm 0,0 UV-I 0 W/m² 13,4 °C 14,4 °C 1,6 km/h (1 Bft)
22.07.2017 03:52 14,4 °C 14,4 °C 94 % 1011,2 hPa 0,0 mm 0,8 km/h (0 Bft) S 186 ° 0 min 0,000 mm 0,0 UV-I 0 W/m² 13,4 °C 14,4 °C 3,2 km/h (1 Bft)
22.07.2017 03:53 14,4 °C 14,4 °C 94 % 1011,2 hPa 0,0 mm 1,3 km/h (1 Bft) S 186 ° 0 min 0,000 mm 0,0 UV-I 0 W/m² 13,4 °C 14,4 °C 1,6 km/h (1 Bft)
22.07.2017 03:54 14,4 °C 14,4 °C 94 % 1011,3 hPa 0,0 mm 1,0 km/h (0 Bft) S 186 ° 0 min 0,000 mm 0,0 UV-I 0 W/m² 13,4 °C 14,4 °C 1,6 km/h (1 Bft)
22.07.2017 03:55 14,4 °C 14,4 °C 94 % 1011,3 hPa 0,0 mm 0,6 km/h (0 Bft) S 186 ° 0 min 0,000 mm 0,0 UV-I 0 W/m² 13,4 °C 14,4 °C 1,6 km/h (1 Bft)
22.07.2017 03:56 14,4 °C 14,4 °C 94 % 1011,2 hPa 0,0 mm 0,0 km/h (0 Bft) S 186 ° 0 min 0,000 mm 0,0 UV-I 0 W/m² 13,4 °C 14,4 °C 0,0 km/h (0 Bft)
22.07.2017 03:57 14,4 °C 14,4 °C 94 % 1011,2 hPa 0,0 mm 0,0 km/h (0 Bft) S 186 ° 0 min 0,000 mm 0,0 UV-I 0 W/m² 13,4 °C 14,4 °C 0,0 km/h (0 Bft)
22.07.2017 03:58 14,3 °C 14,4 °C 94 % 1011,3 hPa 0,0 mm 1,6 km/h (1 Bft) W 259 ° 0 min 0,000 mm 0,0 UV-I 0 W/m² 13,3 °C 14,3 °C 4,8 km/h (1 Bft)
22.07.2017 03:59 14,4 °C 14,4 °C 94 % 1011,3 hPa 0,0 mm 3,1 km/h (1 Bft) S 188 ° 0 min 0,000 mm 0,0 UV-I 0 W/m² 13,4 °C 14,4 °C 6,4 km/h (2 Bft)
22.07.2017 04:00 14,4 °C 14,4 °C 94 % 1011,3 hPa 0,0 mm 1,8 km/h (1 Bft) S 190 ° 0 min 0,000 mm 0,0 UV-I 0 W/m² 13,4 °C 14,4 °C 3,2 km/h (1 Bft)
22.07.2017 04:01 14,4 °C 14,4 °C 94 % 1011,3 hPa 0,0 mm 0,4 km/h (0 Bft) S 190 ° 0 min 0,000 mm 0,0 UV-I 0 W/m² 13,4 °C 14,4 °C 1,6 km/h (1 Bft)
22.07.2017 04:02 14,4 °C 14,4 °C 94 % 1011,3 hPa 0,0 mm 0,2 km/h (0 Bft) S 190 ° 0 min 0,000 mm 0,0 UV-I 0 W/m² 13,4 °C 14,4 °C 1,6 km/h (1 Bft)
22.07.2017 04:03 14,4 °C 14,4 °C 94 % 1011,3 hPa 0,0 mm 0,0 km/h (0 Bft) S 190 ° 0 min 0,000 mm 0,0 UV-I 0 W/m² 13,4 °C 14,4 °C 0,0 km/h (0 Bft)
22.07.2017 04:04 14,4 °C 14,4 °C 94 % 1011,2 hPa 0,0 mm 0,0 km/h (0 Bft) S 190 ° 0 min 0,000 mm 0,0 UV-I 0 W/m² 13,4 °C 14,4 °C 0,0 km/h (0 Bft)
22.07.2017 04:05 14,3 °C 14,4 °C 94 % 1011,2 hPa 0,0 mm 0,0 km/h (0 Bft) S 190 ° 0 min 0,000 mm 0,0 UV-I 0 W/m² 13,3 °C 14,3 °C 0,0 km/h (0 Bft)
22.07.2017 04:06 14,3 °C 14,4 °C 94 % 1011,2 hPa 0,0 mm 1,7 km/h (1 Bft) SW 220 ° 0 min 0,000 mm 0,0 UV-I 0 W/m² 13,3 °C 14,3 °C 4,8 km/h (1 Bft)
22.07.2017 04:07 14,3 °C 14,4 °C 94 % 1011,2 hPa 0,0 mm 0,6 km/h (0 Bft) SW 220 ° 0 min 0,000 mm 0,0 UV-I 0 W/m² 13,3 °C 14,3 °C 1,6 km/h (1 Bft)
22.07.2017 04:08 14,3 °C 14,4 °C 94 % 1011,1 hPa 0,0 mm 0,0 km/h (0 Bft) SW 220 ° 0 min 0,000 mm 0,0 UV-I 0 W/m² 13,3 °C 14,3 °C 0,0 km/h (0 Bft)
22.07.2017 04:09 14,3 °C 14,4 °C 94 % 1011,1 hPa 0,0 mm 0,0 km/h (0 Bft) SW 220 ° 0 min 0,000 mm 0,0 UV-I 0 W/m² 13,3 °C 14,3 °C 0,0 km/h (0 Bft)
22.07.2017 04:10 14,3 °C 14,3 °C 94 % 1011,1 hPa 0,0 mm 0,0 km/h (0 Bft) SW 220 ° 0 min 0,000 mm 0,0 UV-I 0 W/m² 13,3 °C 14,3 °C 0,0 km/h (0 Bft)
22.07.2017 04:11 14,3 °C 14,3 °C 94 % 1011,1 hPa 0,0 mm 0,0 km/h (0 Bft) SW 220 ° 0 min 0,000 mm 0,0 UV-I 0 W/m² 13,3 °C 14,3 °C 0,0 km/h (0 Bft)
22.07.2017 04:12 14,3 °C 14,3 °C 95 % 1011,1 hPa 0,0 mm 0,0 km/h (0 Bft) SW 220 ° 0 min 0,000 mm 0,0 UV-I 0 W/m² 13,5 °C 14,3 °C 0,0 km/h (0 Bft)
22.07.2017 04:13 14,3 °C 14,3 °C 95 % 1011,2 hPa 0,0 mm 0,0 km/h (0 Bft) SW 220 ° 0 min 0,000 mm 0,0 UV-I 0 W/m² 13,5 °C 14,3 °C 0,0 km/h (0 Bft)
22.07.2017 04:14 14,3 °C 14,3 °C 95 % 1011,2 hPa 0,0 mm 0,0 km/h (0 Bft) SW 220 ° 0 min 0,000 mm 0,0 UV-I 0 W/m² 13,5 °C 14,3 °C 0,0 km/h (0 Bft)
22.07.2017 04:15 14,3 °C 14,3 °C 95 % 1011,1 hPa 0,0 mm 0,0 km/h (0 Bft) SW 220 ° 0 min 0,000 mm 0,0 UV-I 0 W/m² 13,5 °C 14,3 °C 0,0 km/h (0 Bft)
22.07.2017 04:16 14,3 °C 14,3 °C 95 % 1011,1 hPa 0,0 mm 0,0 km/h (0 Bft) SW 220 ° 0 min 0,000 mm 0,0 UV-I 0 W/m² 13,5 °C 14,3 °C 0,0 km/h (0 Bft)
22.07.2017 04:17 14,3 °C 14,3 °C 95 % 1011,1 hPa 0,0 mm 0,0 km/h (0 Bft) SW 220 ° 0 min 0,000 mm 0,0 UV-I 0 W/m² 13,5 °C 14,3 °C 0,0 km/h (0 Bft)
22.07.2017 04:18 14,3 °C 14,3 °C 95 % 1011,0 hPa 0,0 mm 0,2 km/h (0 Bft) SW 220 ° 0 min 0,000 mm 0,0 UV-I 0 W/m² 13,5 °C 14,3 °C 3,2 km/h (1 Bft)
22.07.2017 04:19 14,3 °C 14,3 °C 95 % 1011,0 hPa 0,0 mm 0,7 km/h (0 Bft) SW 220 ° 0 min 0,000 mm 0,0 UV-I 0 W/m² 13,5 °C 14,3 °C 3,2 km/h (1 Bft)
22.07.2017 04:20 14,3 °C 14,3 °C 95 % 1011,1 hPa 0,0 mm 0,0 km/h (0 Bft) SW 220 ° 0 min 0,000 mm 0,0 UV-I 0 W/m² 13,5 °C 14,3 °C 0,0 km/h (0 Bft)
22.07.2017 04:21 14,4 °C 14,4 °C 95 % 1011,1 hPa 0,0 mm 0,0 km/h (0 Bft) SW 220 ° 0 min 0,000 mm 0,0 UV-I 0 W/m² 13,6 °C 14,4 °C 0,0 km/h (0 Bft)
22.07.2017 04:22 14,4 °C 14,4 °C 95 % 1011,1 hPa 0,0 mm 0,0 km/h (0 Bft) SW 220 ° 0 min 0,000 mm 0,0 UV-I 0 W/m² 13,6 °C 14,4 °C 0,0 km/h (0 Bft)
22.07.2017 04:23 14,4 °C 14,4 °C 95 % 1011,1 hPa 0,0 mm 0,0 km/h (0 Bft) SW 220 ° 0 min 0,000 mm 0,0 UV-I 0 W/m² 13,6 °C 14,4 °C 0,0 km/h (0 Bft)
22.07.2017 04:24 14,4 °C 14,4 °C 95 % 1011,1 hPa 0,0 mm 0,2 km/h (0 Bft) SW 220 ° 0 min 0,000 mm 0,0 UV-I 0 W/m² 13,6 °C 14,4 °C 1,6 km/h (1 Bft)
22.07.2017 04:25 14,4 °C 14,4 °C 95 % 1011,1 hPa 0,0 mm 2,0 km/h (1 Bft) SW 219 ° 0 min 0,000 mm 0,0 UV-I 0 W/m² 13,6 °C 14,4 °C 3,2 km/h (1 Bft)
22.07.2017 04:26 14,4 °C 14,4 °C 95 % 1011,1 hPa 0,0 mm 0,3 km/h (0 Bft) SW 219 ° 0 min 0,000 mm 0,0 UV-I 0 W/m² 13,6 °C 14,4 °C 1,6 km/h (1 Bft)
22.07.2017 04:27 14,4 °C 14,4 °C 95 % 1011,1 hPa 0,0 mm 0,0 km/h (0 Bft) SW 219 ° 0 min 0,000 mm 0,0 UV-I 0 W/m² 13,6 °C 14,4 °C 0,0 km/h (0 Bft)
22.07.2017 04:28 14,3 °C 14,4 °C 95 % 1011,1 hPa 0,0 mm 0,0 km/h (0 Bft) SW 219 ° 0 min 0,000 mm 0,0 UV-I 0 W/m² 13,5 °C 14,3 °C 0,0 km/h (0 Bft)
22.07.2017 04:29 14,4 °C 14,4 °C 95 % 1011,1 hPa 0,0 mm 0,0 km/h (0 Bft) SW 219 ° 0 min 0,000 mm 0,0 UV-I 0 W/m² 13,6 °C 14,4 °C 0,0 km/h (0 Bft)
22.07.2017 04:30 14,3 °C 14,4 °C 95 % 1011,0 hPa 0,0 mm 0,0 km/h (0 Bft) SW 219 ° 0 min 0,000 mm 0,0 UV-I 0 W/m² 13,5 °C 14,3 °C 0,0 km/h (0 Bft)
22.07.2017 04:31 14,3 °C 14,4 °C 95 % 1011,0 hPa 0,0 mm 0,0 km/h (0 Bft) SW 219 ° 0 min 0,000 mm 0,0 UV-I 0 W/m² 13,5 °C 14,3 °C 0,0 km/h (0 Bft)
22.07.2017 04:32 14,3 °C 14,4 °C 95 % 1011,0 hPa 0,0 mm 0,0 km/h (0 Bft) SW 219 ° 0 min 0,000 mm 0,0 UV-I 0 W/m² 13,5 °C 14,3 °C 0,0 km/h (0 Bft)
22.07.2017 04:33 14,3 °C 14,4 °C 95 % 1011,1 hPa 0,0 mm 0,0 km/h (0 Bft) SW 219 ° 0 min 0,000 mm 0,0 UV-I 0 W/m² 13,5 °C 14,3 °C 0,0 km/h (0 Bft)
22.07.2017 04:34 14,3 °C 14,4 °C 95 % 1011,1 hPa 0,0 mm 0,0 km/h (0 Bft) SW 219 ° 0 min 0,000 mm 0,0 UV-I 0 W/m² 13,5 °C 14,3 °C 0,0 km/h (0 Bft)
22.07.2017 04:35 14,3 °C 14,4 °C 95 % 1011,1 hPa 0,0 mm 0,0 km/h (0 Bft) SW 219 ° 0 min 0,000 mm 0,0 UV-I 0 W/m² 13,5 °C 14,3 °C 0,0 km/h (0 Bft)
22.07.2017 04:36 14,3 °C 14,3 °C 95 % 1011,1 hPa 0,0 mm 0,0 km/h (0 Bft) SW 219 ° 0 min 0,000 mm 0,0 UV-I 0 W/m² 13,5 °C 14,3 °C 0,0 km/h (0 Bft)
22.07.2017 04:37 14,3 °C 14,3 °C 95 % 1011,1 hPa 0,0 mm 0,0 km/h (0 Bft) SW 219 ° 0 min 0,000 mm 0,0 UV-I 0 W/m² 13,5 °C 14,3 °C 0,0 km/h (0 Bft)
22.07.2017 04:38 14,3 °C 14,3 °C 95 % 1011,0 hPa 0,0 mm 0,0 km/h (0 Bft) SW 219 ° 0 min 0,000 mm 0,0 UV-I 0 W/m² 13,5 °C 14,3 °C 0,0 km/h (0 Bft)
22.07.2017 04:39 14,3 °C 14,3 °C 95 % 1011,1 hPa 0,0 mm 0,0 km/h (0 Bft) SW 219 ° 0 min 0,000 mm 0,0 UV-I 0 W/m² 13,5 °C 14,3 °C 0,0 km/h (0 Bft)
22.07.2017 04:40 14,3 °C 14,3 °C 95 % 1011,1 hPa 0,0 mm 0,0 km/h (0 Bft) SW 219 ° 0 min 0,000 mm 0,0 UV-I 0 W/m² 13,5 °C 14,3 °C 0,0 km/h (0 Bft)
22.07.2017 04:41 14,3 °C 14,3 °C 95 % 1011,1 hPa 0,0 mm 0,0 km/h (0 Bft) SW 219 ° 0 min 0,000 mm 0,0 UV-I 0 W/m² 13,5 °C 14,3 °C 0,0 km/h (0 Bft)
22.07.2017 04:42 14,3 °C 14,3 °C 95 % 1011,1 hPa 0,0 mm 0,0 km/h (0 Bft) SW 219 ° 0 min 0,000 mm 0,0 UV-I 0 W/m² 13,5 °C 14,3 °C 0,0 km/h (0 Bft)
22.07.2017 04:43 14,3 °C 14,3 °C 95 % 1011,1 hPa 0,0 mm 0,0 km/h (0 Bft) SW 219 ° 0 min 0,000 mm 0,0 UV-I 0 W/m² 13,5 °C 14,3 °C 0,0 km/h (0 Bft)
22.07.2017 04:44 14,3 °C 14,3 °C 95 % 1011,1 hPa 0,0 mm 0,0 km/h (0 Bft) SW 219 ° 0 min 0,000 mm 0,0 UV-I 0 W/m² 13,5 °C 14,3 °C 0,0 km/h (0 Bft)
22.07.2017 04:45 14,3 °C 14,3 °C 95 % 1011,1 hPa 0,0 mm 0,0 km/h (0 Bft) SW 219 ° 0 min 0,000 mm 0,0 UV-I 0 W/m² 13,5 °C 14,3 °C 0,0 km/h (0 Bft)
22.07.2017 04:46 14,4 °C 14,4 °C 95 % 1011,1 hPa 0,0 mm 0,0 km/h (0 Bft) SW 219 ° 0 min 0,000 mm 0,0 UV-I 0 W/m² 13,6 °C 14,4 °C 0,0 km/h (0 Bft)
22.07.2017 04:47 14,4 °C 14,4 °C 95 % 1011,1 hPa 0,0 mm 0,0 km/h (0 Bft) SW 220 ° 0 min 0,000 mm 0,0 UV-I 0 W/m² 13,6 °C 14,4 °C 0,0 km/h (0 Bft)
22.07.2017 04:48 14,4 °C 14,4 °C 95 % 1011,1 hPa 0,0 mm 0,0 km/h (0 Bft) SW 219 ° 0 min 0,000 mm 0,0 UV-I 0 W/m² 13,6 °C 14,4 °C 0,0 km/h (0 Bft)
22.07.2017 04:49 14,4 °C 14,4 °C 95 % 1011,1 hPa 0,0 mm 0,0 km/h (0 Bft) SW 220 ° 0 min 0,000 mm 0,0 UV-I 0 W/m² 13,6 °C 14,4 °C 0,0 km/h (0 Bft)
22.07.2017 04:50 14,4 °C 14,4 °C 95 % 1011,1 hPa 0,0 mm 0,0 km/h (0 Bft) SW 219 ° 0 min 0,000 mm 0,0 UV-I 0 W/m² 13,6 °C 14,4 °C 0,0 km/h (0 Bft)
22.07.2017 04:51 14,4 °C 14,4 °C 95 % 1011,1 hPa 0,0 mm 0,0 km/h (0 Bft) SW 219 ° 0 min 0,000 mm 0,0 UV-I 0 W/m² 13,6 °C 14,4 °C 0,0 km/h (0 Bft)
22.07.2017 04:52 14,4 °C 14,4 °C 95 % 1011,2 hPa 0,0 mm 0,0 km/h (0 Bft) SW 219 ° 0 min 0,000 mm 0,0 UV-I 0 W/m² 13,6 °C 14,4 °C 0,0 km/h (0 Bft)
22.07.2017 04:53 14,4 °C 14,4 °C 95 % 1011,1 hPa 0,0 mm 0,0 km/h (0 Bft) SW 219 ° 0 min 0,000 mm 0,0 UV-I 0 W/m² 13,6 °C 14,4 °C 0,0 km/h (0 Bft)
22.07.2017 04:54 14,4 °C 14,4 °C 95 % 1011,1 hPa 0,0 mm 0,0 km/h (0 Bft) SW 220 ° 0 min 0,000 mm 0,0 UV-I 0 W/m² 13,6 °C 14,4 °C 0,0 km/h (0 Bft)
22.07.2017 04:55 14,4 °C 14,4 °C 95 % 1011,1 hPa 0,0 mm 0,0 km/h (0 Bft) SW 220 ° 0 min 0,000 mm 0,0 UV-I 0 W/m² 13,6 °C 14,4 °C 0,0 km/h (0 Bft)
22.07.2017 04:56 14,4 °C 14,4 °C 95 % 1011,1 hPa 0,0 mm 0,0 km/h (0 Bft) SW 220 ° 0 min 0,000 mm 0,0 UV-I 0 W/m² 13,6 °C 14,4 °C 0,0 km/h (0 Bft)
22.07.2017 04:57 14,4 °C 14,4 °C 95 % 1011,1 hPa 0,0 mm 0,0 km/h (0 Bft) SW 220 ° 0 min 0,000 mm 0,0 UV-I 0 W/m² 13,6 °C 14,4 °C 0,0 km/h (0 Bft)
22.07.2017 04:58 14,4 °C 14,4 °C 95 % 1011,1 hPa 0,0 mm 0,0 km/h (0 Bft) SW 220 ° 0 min 0,000 mm 0,0 UV-I 0 W/m² 13,6 °C 14,4 °C 0,0 km/h (0 Bft)
22.07.2017 04:59 14,3 °C 14,4 °C 95 % 1011,2 hPa 0,0 mm 0,0 km/h (0 Bft) SW 220 ° 0 min 0,000 mm 0,0 UV-I 0 W/m² 13,5 °C 14,3 °C 0,0 km/h (0 Bft)
22.07.2017 05:00 14,3 °C 14,3 °C 95 % 1011,1 hPa 0,0 mm 0,0 km/h (0 Bft) SW 220 ° 0 min 0,000 mm 0,0 UV-I 0 W/m² 13,5 °C 14,3 °C 0,0 km/h (0 Bft)
22.07.2017 05:01 14,3 °C 14,4 °C 95 % 1011,2 hPa 0,0 mm 0,0 km/h (0 Bft) SW 220 ° 0 min 0,000 mm 0,0 UV-I 0 W/m² 13,5 °C 14,3 °C 0,0 km/h (0 Bft)
22.07.2017 05:02 14,3 °C 14,4 °C 95 % 1011,2 hPa 0,0 mm 0,0 km/h (0 Bft) SW 220 ° 0 min 0,000 mm 0,0 UV-I 0 W/m² 13,5 °C 14,3 °C 0,0 km/h (0 Bft)
22.07.2017 05:03 14,3 °C 14,3 °C 95 % 1011,2 hPa 0,0 mm 0,0 km/h (0 Bft) SW 220 ° 0 min 0,000 mm 0,0 UV-I 0 W/m² 13,5 °C 14,3 °C 0,0 km/h (0 Bft)
22.07.2017 05:04 14,4 °C 14,4 °C 95 % 1011,2 hPa 0,0 mm 0,0 km/h (0 Bft) SW 220 ° 0 min 0,000 mm 0,0 UV-I 0 W/m² 13,6 °C 14,4 °C 0,0 km/h (0 Bft)
22.07.2017 05:05 14,3 °C 14,4 °C 95 % 1011,2 hPa 0,0 mm 0,0 km/h (0 Bft) SW 220 ° 0 min 0,000 mm 0,0 UV-I 0 W/m² 13,5 °C 14,3 °C 0,0 km/h (0 Bft)
22.07.2017 05:06 14,4 °C 14,4 °C 95 % 1011,2 hPa 0,0 mm 0,0 km/h (0 Bft) SW 220 ° 0 min 0,000 mm 0,0 UV-I 0 W/m² 13,6 °C 14,4 °C 0,0 km/h (0 Bft)
22.07.2017 05:07 14,3 °C 14,4 °C 95 % 1011,2 hPa 0,0 mm 0,0 km/h (0 Bft) SW 220 ° 0 min 0,000 mm 0,0 UV-I 0 W/m² 13,5 °C 14,3 °C 0,0 km/h (0 Bft)
22.07.2017 05:08 14,4 °C 14,4 °C 95 % 1011,2 hPa 0,0 mm 0,0 km/h (0 Bft) SW 220 ° 0 min 0,000 mm 0,0 UV-I 0 W/m² 13,6 °C 14,4 °C 0,0 km/h (0 Bft)
22.07.2017 05:09 14,3 °C 14,4 °C 95 % 1011,2 hPa 0,0 mm 0,0 km/h (0 Bft) SW 220 ° 0 min 0,000 mm 0,0 UV-I 0 W/m² 13,5 °C 14,3 °C 0,0 km/h (0 Bft)
22.07.2017 05:10 14,3 °C 14,4 °C 95 % 1011,2 hPa 0,0 mm 0,0 km/h (0 Bft) SW 220 ° 0 min 0,000 mm 0,0 UV-I 0 W/m² 13,5 °C 14,3 °C 0,0 km/h (0 Bft)
22.07.2017 05:11 14,4 °C 14,4 °C 95 % 1011,3 hPa 0,0 mm 0,0 km/h (0 Bft) SW 220 ° 0 min 0,000 mm 0,0 UV-I 0 W/m² 13,6 °C 14,4 °C 0,0 km/h (0 Bft)
22.07.2017 05:12 14,3 °C 14,4 °C 95 % 1011,3 hPa 0,0 mm 0,0 km/h (0 Bft) SW 220 ° 0 min 0,000 mm 0,0 UV-I 0 W/m² 13,5 °C 14,3 °C 0,0 km/h (0 Bft)
22.07.2017 05:13 14,3 °C 14,3 °C 95 % 1011,2 hPa 0,0 mm 0,0 km/h (0 Bft) SW 220 ° 0 min 0,000 mm 0,0 UV-I 0 W/m² 13,5 °C 14,3 °C 0,0 km/h (0 Bft)
22.07.2017 05:14 14,3 °C 14,4 °C 95 % 1011,3 hPa 0,0 mm 0,0 km/h (0 Bft) SW 219 ° 0 min 0,000 mm 0,0 UV-I 0 W/m² 13,5 °C 14,3 °C 0,0 km/h (0 Bft)
22.07.2017 05:15 14,3 °C 14,3 °C 95 % 1011,3 hPa 0,0 mm 0,0 km/h (0 Bft) SW 220 ° 0 min 0,000 mm 0,0 UV-I 0 W/m² 13,5 °C 14,3 °C 0,0 km/h (0 Bft)
22.07.2017 05:16 14,3 °C 14,4 °C 95 % 1011,3 hPa 0,0 mm 0,0 km/h (0 Bft) SW 220 ° 0 min 0,000 mm 0,0 UV-I 0 W/m² 13,5 °C 14,3 °C 0,0 km/h (0 Bft)
22.07.2017 05:17 14,4 °C 14,4 °C 95 % 1011,3 hPa 0,0 mm 0,0 km/h (0 Bft) SW 220 ° 0 min 0,000 mm 0,0 UV-I 0 W/m² 13,6 °C 14,4 °C 0,0 km/h (0 Bft)
22.07.2017 05:18 14,4 °C 14,4 °C 95 % 1011,4 hPa 0,0 mm 0,0 km/h (0 Bft) SW 220 ° 0 min 0,000 mm 0,0 UV-I 0 W/m² 13,6 °C 14,4 °C 0,0 km/h (0 Bft)
22.07.2017 05:19 14,4 °C 14,4 °C 95 % 1011,4 hPa 0,0 mm 0,0 km/h (0 Bft) SW 220 ° 0 min 0,000 mm 0,0 UV-I 0 W/m² 13,6 °C 14,4 °C 0,0 km/h (0 Bft)
22.07.2017 05:20 14,4 °C 14,4 °C 95 % 1011,4 hPa 0,0 mm 0,0 km/h (0 Bft) SW 220 ° 0 min 0,000 mm 0,0 UV-I 0 W/m² 13,6 °C 14,4 °C 0,0 km/h (0 Bft)
22.07.2017 05:21 14,4 °C 14,4 °C 95 % 1011,4 hPa 0,0 mm 0,0 km/h (0 Bft) SW 220 ° 0 min 0,000 mm 0,0 UV-I 0 W/m² 13,6 °C 14,4 °C 0,0 km/h (0 Bft)
22.07.2017 05:22 14,4 °C 14,4 °C 95 % 1011,4 hPa 0,0 mm 0,0 km/h (0 Bft) SW 220 ° 0 min 0,000 mm 0,0 UV-I 0 W/m² 13,6 °C 14,4 °C 0,0 km/h (0 Bft)
22.07.2017 05:23 14,4 °C 14,4 °C 95 % 1011,4 hPa 0,0 mm 0,0 km/h (0 Bft) SW 220 ° 0 min 0,000 mm 0,0 UV-I 0 W/m² 13,6 °C 14,4 °C 0,0 km/h (0 Bft)
22.07.2017 05:24 14,4 °C 14,4 °C 95 % 1011,4 hPa 0,0 mm 0,0 km/h (0 Bft) SW 220 ° 0 min 0,000 mm 0,0 UV-I 0 W/m² 13,6 °C 14,4 °C 0,0 km/h (0 Bft)
22.07.2017 05:25 14,4 °C 14,4 °C 95 % 1011,4 hPa 0,0 mm 0,0 km/h (0 Bft) SW 220 ° 0 min 0,000 mm 0,0 UV-I 0 W/m² 13,6 °C 14,4 °C 0,0 km/h (0 Bft)
22.07.2017 05:26 14,4 °C 14,4 °C 95 % 1011,4 hPa 0,0 mm 0,0 km/h (0 Bft) SW 220 ° 0 min 0,000 mm 0,0 UV-I 0 W/m² 13,6 °C 14,4 °C 0,0 km/h (0 Bft)
22.07.2017 05:27 14,4 °C 14,4 °C 95 % 1011,4 hPa 0,0 mm 0,0 km/h (0 Bft) SW 220 ° 0 min 0,000 mm 0,0 UV-I 0 W/m² 13,6 °C 14,4 °C 0,0 km/h (0 Bft)
22.07.2017 05:28 14,3 °C 14,4 °C 95 % 1011,3 hPa 0,0 mm 0,0 km/h (0 Bft) SW 220 ° 0 min 0,000 mm 0,0 UV-I 0 W/m² 13,5 °C 14,3 °C 0,0 km/h (0 Bft)
22.07.2017 05:29 14,3 °C 14,4 °C 95 % 1011,3 hPa 0,0 mm 0,0 km/h (0 Bft) SW 220 ° 0 min 0,000 mm 0,0 UV-I 0 W/m² 13,5 °C 14,3 °C 0,0 km/h (0 Bft)
22.07.2017 05:30 14,4 °C 14,4 °C 95 % 1011,3 hPa 0,0 mm 0,0 km/h (0 Bft) SW 220 ° 0 min 0,000 mm 0,0 UV-I 0 W/m² 13,6 °C 14,4 °C 0,0 km/h (0 Bft)
22.07.2017 05:31 14,3 °C 14,4 °C 95 % 1011,3 hPa 0,0 mm 0,0 km/h (0 Bft) SW 220 ° 0 min 0,000 mm 0,0 UV-I 0 W/m² 13,5 °C 14,3 °C 0,0 km/h (0 Bft)
22.07.2017 05:32 14,3 °C 14,3 °C 95 % 1011,3 hPa 0,0 mm 0,0 km/h (0 Bft) SW 220 ° 0 min 0,000 mm 0,0 UV-I 0 W/m² 13,5 °C 14,3 °C 0,0 km/h (0 Bft)
22.07.2017 05:33 14,3 °C 14,3 °C 95 % 1011,3 hPa 0,0 mm 0,0 km/h (0 Bft) SW 220 ° 0 min 0,000 mm 0,0 UV-I 0 W/m² 13,5 °C 14,3 °C 0,0 km/h (0 Bft)
22.07.2017 05:34 14,3 °C 14,3 °C 95 % 1011,3 hPa 0,0 mm 0,0 km/h (0 Bft) SW 220 ° 0 min 0,000 mm 0,0 UV-I 0 W/m² 13,5 °C 14,3 °C 0,0 km/h (0 Bft)
22.07.2017 05:35 14,3 °C 14,3 °C 95 % 1011,4 hPa 0,0 mm 0,0 km/h (0 Bft) SW 220 ° 0 min 0,000 mm 0,0 UV-I 0 W/m² 13,5 °C 14,3 °C 0,0 km/h (0 Bft)
22.07.2017 05:36 14,3 °C 14,3 °C 95 % 1011,4 hPa 0,0 mm 0,0 km/h (0 Bft) SW 220 ° 0 min 0,000 mm 0,0 UV-I 0 W/m² 13,5 °C 14,3 °C 0,0 km/h (0 Bft)
22.07.2017 05:37 14,4 °C 14,4 °C 95 % 1011,4 hPa 0,0 mm 0,0 km/h (0 Bft) SW 220 ° 0 min 0,000 mm 0,0 UV-I 0 W/m² 13,6 °C 14,4 °C 0,0 km/h (0 Bft)
22.07.2017 05:38 14,4 °C 14,4 °C 95 % 1011,3 hPa 0,0 mm 0,0 km/h (0 Bft) SW 220 ° 0 min 0,000 mm 0,0 UV-I 0 W/m² 13,6 °C 14,4 °C 0,0 km/h (0 Bft)
22.07.2017 05:39 14,4 °C 14,4 °C 95 % 1011,3 hPa 0,0 mm 0,0 km/h (0 Bft) SW 220 ° 0 min 0,000 mm 0,0 UV-I 0 W/m² 13,6 °C 14,4 °C 0,0 km/h (0 Bft)
22.07.2017 05:40 14,4 °C 14,4 °C 95 % 1011,3 hPa 0,0 mm 0,0 km/h (0 Bft) SW 220 ° 0 min 0,000 mm 0,0 UV-I 0 W/m² 13,6 °C 14,4 °C 0,0 km/h (0 Bft)
22.07.2017 05:41 14,4 °C 14,4 °C 95 % 1011,4 hPa 0,0 mm 0,0 km/h (0 Bft) SW 220 ° 0 min 0,000 mm 0,0 UV-I 0 W/m² 13,6 °C 14,4 °C 0,0 km/h (0 Bft)
22.07.2017 05:42 14,4 °C 14,4 °C 95 % 1011,4 hPa 0,0 mm 0,0 km/h (0 Bft) SW 220 ° 0 min 0,000 mm 0,0 UV-I 0 W/m² 13,6 °C 14,4 °C 0,0 km/h (0 Bft)
22.07.2017 05:43 14,4 °C 14,4 °C 95 % 1011,3 hPa 0,0 mm 0,0 km/h (0 Bft) SW 220 ° 0 min 0,000 mm 0,0 UV-I 0 W/m² 13,6 °C 14,4 °C 0,0 km/h (0 Bft)
22.07.2017 05:44 14,5 °C 14,5 °C 95 % 1011,4 hPa 0,0 mm 0,0 km/h (0 Bft) SW 220 ° 0 min 0,000 mm 0,0 UV-I 0 W/m² 13,7 °C 14,5 °C 0,0 km/h (0 Bft)
22.07.2017 05:45 14,5 °C 14,5 °C 95 % 1011,4 hPa 0,0 mm 0,0 km/h (0 Bft) SW 220 ° 0 min 0,000 mm 0,0 UV-I 0 W/m² 13,7 °C 14,5 °C 0,0 km/h (0 Bft)
22.07.2017 05:46 14,6 °C 14,6 °C 95 % 1011,4 hPa 0,0 mm 0,0 km/h (0 Bft) SW 220 ° 0 min 0,000 mm 0,0 UV-I 0 W/m² 13,8 °C 14,6 °C 0,0 km/h (0 Bft)
22.07.2017 05:47 14,6 °C 14,6 °C 95 % 1011,4 hPa 0,0 mm 0,0 km/h (0 Bft) S-SW 201 ° 0 min 0,000 mm 0,0 UV-I 0 W/m² 13,8 °C 14,6 °C 0,0 km/h (0 Bft)
22.07.2017 05:48 14,6 °C 14,6 °C 95 % 1011,4 hPa 0,0 mm 0,0 km/h (0 Bft) S-SW 201 ° 0 min 0,000 mm 0,0 UV-I 5 W/m² 13,8 °C 14,6 °C 0,0 km/h (0 Bft)
22.07.2017 05:49 14,6 °C 14,6 °C 95 % 1011,4 hPa 0,0 mm 0,0 km/h (0 Bft) S-SW 201 ° 0 min 0,000 mm 0,0 UV-I 5 W/m² 13,8 °C 14,6 °C 0,0 km/h (0 Bft)
22.07.2017 05:50 14,6 °C 14,6 °C 95 % 1011,4 hPa 0,0 mm 0,0 km/h (0 Bft) S-SW 201 ° 0 min 0,000 mm 0,0 UV-I 5 W/m² 13,8 °C 14,6 °C 0,0 km/h (0 Bft)
22.07.2017 05:51 14,6 °C 14,6 °C 95 % 1011,4 hPa 0,0 mm 0,0 km/h (0 Bft) S-SW 200 ° 0 min 0,000 mm 0,0 UV-I 7 W/m² 13,8 °C 14,6 °C 0,0 km/h (0 Bft)
22.07.2017 05:52 14,6 °C 14,6 °C 95 % 1011,4 hPa 0,0 mm 3,0 km/h (1 Bft) S 190 ° 0 min 0,000 mm 0,0 UV-I 7 W/m² 13,8 °C 14,6 °C 4,8 km/h (1 Bft)
22.07.2017 05:53 14,6 °C 14,6 °C 95 % 1011,5 hPa 0,0 mm 0,7 km/h (0 Bft) S 190 ° 0 min 0,000 mm 0,0 UV-I 7 W/m² 13,8 °C 14,6 °C 3,2 km/h (1 Bft)
22.07.2017 05:54 14,6 °C 14,6 °C 95 % 1011,5 hPa 0,0 mm 0,0 km/h (0 Bft) S 190 ° 0 min 0,000 mm 0,0 UV-I 7 W/m² 13,8 °C 14,6 °C 0,0 km/h (0 Bft)
22.07.2017 05:55 14,6 °C 14,6 °C 95 % 1011,5 hPa 0,0 mm 0,0 km/h (0 Bft) S 190 ° 0 min 0,000 mm 0,0 UV-I 7 W/m² 13,8 °C 14,6 °C 0,0 km/h (0 Bft)
22.07.2017 05:56 14,6 °C 14,6 °C 95 % 1011,5 hPa 0,0 mm 0,1 km/h (0 Bft) S 191 ° 0 min 0,000 mm 0,0 UV-I 7 W/m² 13,8 °C 14,6 °C 1,6 km/h (1 Bft)
22.07.2017 05:57 14,6 °C 14,6 °C 95 % 1011,6 hPa 0,0 mm 3,0 km/h (1 Bft) W-SW 244 ° 0 min 0,000 mm 0,0 UV-I 7 W/m² 13,8 °C 14,6 °C 3,2 km/h (1 Bft)
22.07.2017 05:58 14,6 °C 14,6 °C 95 % 1011,5 hPa 0,0 mm 2,4 km/h (1 Bft) W-NW 285 ° 0 min 0,000 mm 0,0 UV-I 7 W/m² 13,8 °C 14,6 °C 4,8 km/h (1 Bft)
22.07.2017 05:59 14,6 °C 14,6 °C 95 % 1011,6 hPa 0,0 mm 1,1 km/h (1 Bft) W-NW 285 ° 0 min 0,000 mm 0,0 UV-I 9 W/m² 13,8 °C 14,6 °C 1,6 km/h (1 Bft)
22.07.2017 06:00 14,6 °C 14,6 °C 95 % 1011,6 hPa 0,0 mm 0,1 km/h (0 Bft) W-NW 285 ° 0 min 0,000 mm 0,0 UV-I 9 W/m² 13,8 °C 14,6 °C 1,6 km/h (1 Bft)
22.07.2017 06:01 14,6 °C 14,6 °C 95 % 1011,6 hPa 0,0 mm 0,0 km/h (0 Bft) W-NW 285 ° 0 min 0,000 mm 0,0 UV-I 9 W/m² 13,8 °C 14,6 °C 0,0 km/h (0 Bft)
22.07.2017 06:02 14,6 °C 14,6 °C 95 % 1011,6 hPa 0,0 mm 0,7 km/h (0 Bft) W 278 ° 0 min 0,000 mm 0,0 UV-I 9 W/m² 13,8 °C 14,6 °C 3,2 km/h (1 Bft)
22.07.2017 06:03 14,6 °C 14,6 °C 95 % 1011,5 hPa 0,0 mm 3,5 km/h (1 Bft) W-SW 243 ° 0 min 0,000 mm 0,0 UV-I 9 W/m² 13,8 °C 14,6 °C 6,4 km/h (2 Bft)
22.07.2017 06:04 14,6 °C 14,6 °C 95 % 1011,6 hPa 0,0 mm 3,4 km/h (1 Bft) W-SW 245 ° 0 min 0,000 mm 0,0 UV-I 9 W/m² 13,8 °C 14,6 °C 4,8 km/h (1 Bft)
22.07.2017 06:05 14,6 °C 14,6 °C 95 % 1011,6 hPa 0,0 mm 3,1 km/h (1 Bft) W 281 ° 0 min 0,000 mm 0,0 UV-I 9 W/m² 13,8 °C 14,6 °C 4,8 km/h (1 Bft)
22.07.2017 06:06 14,7 °C 14,7 °C 95 % 1011,5 hPa 0,0 mm 1,0 km/h (0 Bft) SW 227 ° 0 min 0,000 mm 0,0 UV-I 9 W/m² 13,9 °C 14,7 °C 3,2 km/h (1 Bft)
22.07.2017 06:07 14,7 °C 14,7 °C 95 % 1011,5 hPa 0,0 mm 1,0 km/h (0 Bft) SW 227 ° 0 min 0,000 mm 0,0 UV-I 9 W/m² 13,9 °C 14,7 °C 3,2 km/h (1 Bft)
22.07.2017 06:08 14,7 °C 14,7 °C 95 % 1011,6 hPa 0,0 mm 0,0 km/h (0 Bft) SW 227 ° 0 min 0,000 mm 0,0 UV-I 9 W/m² 13,9 °C 14,7 °C 0,0 km/h (0 Bft)
22.07.2017 06:09 14,7 °C 14,7 °C 95 % 1011,6 hPa 0,0 mm 0,3 km/h (0 Bft) SW 214 ° 0 min 0,000 mm 0,0 UV-I 9 W/m² 13,9 °C 14,7 °C 1,6 km/h (1 Bft)
22.07.2017 06:10 14,7 °C 14,7 °C 95 % 1011,6 hPa 0,0 mm 4,3 km/h (1 Bft) S-SW 199 ° 0 min 0,000 mm 0,0 UV-I 9 W/m² 13,9 °C 14,7 °C 6,4 km/h (2 Bft)
22.07.2017 06:11 14,7 °C 14,7 °C 95 % 1011,6 hPa 0,0 mm 2,9 km/h (1 Bft) S-SW 193 ° 0 min 0,000 mm 0,0 UV-I 11 W/m² 13,9 °C 14,7 °C 4,8 km/h (1 Bft)
22.07.2017 06:12 14,7 °C 14,7 °C 95 % 1011,6 hPa 0,0 mm 3,4 km/h (1 Bft) S-SW 206 ° 0 min 0,000 mm 0,0 UV-I 11 W/m² 13,9 °C 14,7 °C 8,0 km/h (2 Bft)
22.07.2017 06:13 14,8 °C 14,8 °C 95 % 1011,6 hPa 0,0 mm 1,0 km/h (0 Bft) S-SW 206 ° 0 min 0,000 mm 0,0 UV-I 11 W/m² 14,0 °C 14,8 °C 3,2 km/h (1 Bft)
22.07.2017 06:14 14,8 °C 14,8 °C 95 % 1011,6 hPa 0,0 mm 0,2 km/h (0 Bft) S-SW 206 ° 0 min 0,000 mm 0,0 UV-I 12 W/m² 14,0 °C 14,8 °C 1,6 km/h (1 Bft)
22.07.2017 06:15 14,8 °C 14,8 °C 95 % 1011,6 hPa 0,0 mm 0,3 km/h (0 Bft) S-SW 206 ° 0 min 0,000 mm 0,0 UV-I 14 W/m² 14,0 °C 14,8 °C 1,6 km/h (1 Bft)
22.07.2017 06:16 14,8 °C 14,8 °C 95 % 1011,6 hPa 0,0 mm 1,0 km/h (0 Bft) S-SW 206 ° 0 min 0,000 mm 0,0 UV-I 14 W/m² 14,0 °C 14,8 °C 1,6 km/h (1 Bft)
22.07.2017 06:17 14,8 °C 14,8 °C 95 % 1011,6 hPa 0,0 mm 0,2 km/h (0 Bft) S-SW 206 ° 0 min 0,000 mm 0,0 UV-I 14 W/m² 14,0 °C 14,8 °C 1,6 km/h (1 Bft)
22.07.2017 06:18 14,8 °C 14,8 °C 95 % 1011,6 hPa 0,0 mm 0,0 km/h (0 Bft) S-SW 206 ° 0 min 0,000 mm 0,0 UV-I 16 W/m² 14,0 °C 14,8 °C 0,0 km/h (0 Bft)
22.07.2017 06:19 14,8 °C 14,8 °C 95 % 1011,5 hPa 0,0 mm 1,0 km/h (0 Bft) S-SW 192 ° 0 min 0,000 mm 0,0 UV-I 16 W/m² 14,0 °C 14,8 °C 3,2 km/h (1 Bft)
22.07.2017 06:20 14,8 °C 14,8 °C 95 % 1011,5 hPa 0,0 mm 1,5 km/h (1 Bft) S-SW 192 ° 0 min 0,000 mm 0,0 UV-I 18 W/m² 14,0 °C 14,8 °C 4,8 km/h (1 Bft)
22.07.2017 06:21 14,8 °C 14,8 °C 95 % 1011,5 hPa 0,0 mm 0,1 km/h (0 Bft) S-SW 192 ° 0 min 0,000 mm 0,0 UV-I 18 W/m² 14,0 °C 14,8 °C 1,6 km/h (1 Bft)
22.07.2017 06:22 14,8 °C 14,8 °C 95 % 1011,5 hPa 0,0 mm 0,0 km/h (0 Bft) S-SW 192 ° 0 min 0,000 mm 0,0 UV-I 19 W/m² 14,0 °C 14,8 °C 0,0 km/h (0 Bft)
22.07.2017 06:23 14,8 °C 14,8 °C 95 % 1011,6 hPa 0,0 mm 0,0 km/h (0 Bft) S-SW 192 ° 0 min 0,000 mm 0,0 UV-I 21 W/m² 14,0 °C 14,8 °C 0,0 km/h (0 Bft)
22.07.2017 06:24 14,8 °C 14,8 °C 95 % 1011,5 hPa 0,0 mm 0,0 km/h (0 Bft) S-SW 192 ° 0 min 0,000 mm 0,0 UV-I 21 W/m² 14,0 °C 14,8 °C 0,0 km/h (0 Bft)
22.07.2017 06:25 14,8 °C 14,8 °C 95 % 1011,6 hPa 0,0 mm 0,0 km/h (0 Bft) S-SW 192 ° 0 min 0,000 mm 0,0 UV-I 23 W/m² 14,0 °C 14,8 °C 0,0 km/h (0 Bft)
22.07.2017 06:26 14,8 °C 14,9 °C 95 % 1011,6 hPa 0,0 mm 0,0 km/h (0 Bft) S-SW 192 ° 0 min 0,000 mm 0,0 UV-I 25 W/m² 14,0 °C 14,8 °C 0,0 km/h (0 Bft)
22.07.2017 06:27 14,8 °C 14,9 °C 95 % 1011,5 hPa 0,0 mm 0,0 km/h (0 Bft) S-SW 192 ° 0 min 0,000 mm 0,0 UV-I 25 W/m² 14,0 °C 14,8 °C 0,0 km/h (0 Bft)
22.07.2017 06:28 14,9 °C 14,9 °C 95 % 1011,5 hPa 0,0 mm 1,9 km/h (1 Bft) S-SW 192 ° 0 min 0,000 mm 0,0 UV-I 25 W/m² 14,1 °C 14,9 °C 3,2 km/h (1 Bft)
22.07.2017 06:29 14,9 °C 14,9 °C 95 % 1011,6 hPa 0,0 mm 0,1 km/h (0 Bft) S-SW 192 ° 0 min 0,000 mm 0,0 UV-I 25 W/m² 14,1 °C 14,9 °C 1,6 km/h (1 Bft)
22.07.2017 06:30 14,9 °C 14,9 °C 95 % 1011,5 hPa 0,0 mm 0,1 km/h (0 Bft) S-SW 192 ° 0 min 0,000 mm 0,0 UV-I 26 W/m² 14,1 °C 14,9 °C 1,6 km/h (1 Bft)
22.07.2017 06:31 14,9 °C 14,9 °C 95 % 1011,5 hPa 0,0 mm 0,0 km/h (0 Bft) S-SW 192 ° 0 min 0,000 mm 0,0 UV-I 26 W/m² 14,1 °C 14,9 °C 0,0 km/h (0 Bft)
22.07.2017 06:32 14,9 °C 14,9 °C 95 % 1011,5 hPa 0,0 mm 0,0 km/h (0 Bft) S-SW 192 ° 0 min 0,000 mm 0,0 UV-I 25 W/m² 14,1 °C 14,9 °C 0,0 km/h (0 Bft)
22.07.2017 06:33 14,9 °C 14,9 °C 95 % 1011,5 hPa 0,0 mm 0,0 km/h (0 Bft) S-SW 192 ° 0 min 0,000 mm 0,0 UV-I 25 W/m² 14,1 °C 14,9 °C 0,0 km/h (0 Bft)
22.07.2017 06:34 14,9 °C 14,9 °C 95 % 1011,5 hPa 0,0 mm 0,0 km/h (0 Bft) S-SW 192 ° 0 min 0,000 mm 0,0 UV-I 25 W/m² 14,1 °C 14,9 °C 0,0 km/h (0 Bft)
22.07.2017 06:35 14,9 °C 14,9 °C 95 % 1011,5 hPa 0,0 mm 0,0 km/h (0 Bft) S-SW 192 ° 0 min 0,000 mm 0,0 UV-I 23 W/m² 14,1 °C 14,9 °C 0,0 km/h (0 Bft)
22.07.2017 06:36 14,9 °C 14,9 °C 95 % 1011,5 hPa 0,0 mm 0,0 km/h (0 Bft) S-SW 192 ° 0 min 0,000 mm 0,0 UV-I 23 W/m² 14,1 °C 14,9 °C 0,0 km/h (0 Bft)
22.07.2017 06:37 14,9 °C 14,9 °C 95 % 1011,5 hPa 0,0 mm 0,0 km/h (0 Bft) S-SW 192 ° 0 min 0,000 mm 0,0 UV-I 23 W/m² 14,1 °C 14,9 °C 0,0 km/h (0 Bft)
22.07.2017 06:38 14,9 °C 14,9 °C 95 % 1011,5 hPa 0,0 mm 0,0 km/h (0 Bft) S-SW 192 ° 0 min 0,000 mm 0,0 UV-I 21 W/m² 14,1 °C 14,9 °C 0,0 km/h (0 Bft)
22.07.2017 06:39 14,9 °C 14,9 °C 95 % 1011,5 hPa 0,0 mm 0,0 km/h (0 Bft) S-SW 192 ° 0 min 0,000 mm 0,0 UV-I 21 W/m² 14,1 °C 14,9 °C 0,0 km/h (0 Bft)
22.07.2017 06:40 14,9 °C 14,9 °C 95 % 1011,5 hPa 0,0 mm 0,0 km/h (0 Bft) S-SW 192 ° 0 min 0,000 mm 0,0 UV-I 21 W/m² 14,1 °C 14,9 °C 0,0 km/h (0 Bft)
22.07.2017 06:41 14,9 °C 14,9 °C 95 % 1011,5 hPa 0,0 mm 0,0 km/h (0 Bft) S-SW 192 ° 0 min 0,000 mm 0,0 UV-I 21 W/m² 14,1 °C 14,9 °C 0,0 km/h (0 Bft)
22.07.2017 06:42 14,9 °C 14,9 °C 95 % 1011,5 hPa 0,0 mm 0,0 km/h (0 Bft) S-SW 192 ° 0 min 0,000 mm 0,0 UV-I 19 W/m² 14,1 °C 14,9 °C 0,0 km/h (0 Bft)
22.07.2017 06:43 14,9 °C 14,9 °C 95 % 1011,5 hPa 0,0 mm 0,0 km/h (0 Bft) S-SW 192 ° 0 min 0,000 mm 0,0 UV-I 19 W/m² 14,1 °C 14,9 °C 0,0 km/h (0 Bft)
22.07.2017 06:44 14,9 °C 14,9 °C 95 % 1011,5 hPa 0,0 mm 0,0 km/h (0 Bft) S-SW 192 ° 0 min 0,000 mm 0,0 UV-I 18 W/m² 14,1 °C 14,9 °C 0,0 km/h (0 Bft)
22.07.2017 06:45 14,9 °C 14,9 °C 95 % 1011,5 hPa 0,0 mm 0,0 km/h (0 Bft) S-SW 192 ° 0 min 0,000 mm 0,0 UV-I 18 W/m² 14,1 °C 14,9 °C 0,0 km/h (0 Bft)
22.07.2017 06:46 14,9 °C 14,9 °C 95 % 1011,6 hPa 0,0 mm 0,0 km/h (0 Bft) S-SW 192 ° 0 min 0,000 mm 0,0 UV-I 16 W/m² 14,1 °C 14,9 °C 0,0 km/h (0 Bft)
22.07.2017 06:47 14,9 °C 14,9 °C 95 % 1011,6 hPa 0,0 mm 0,0 km/h (0 Bft) S-SW 192 ° 0 min 0,000 mm 0,0 UV-I 16 W/m² 14,1 °C 14,9 °C 0,0 km/h (0 Bft)
22.07.2017 06:48 14,9 °C 14,9 °C 95 % 1011,6 hPa 0,0 mm 0,0 km/h (0 Bft) S-SW 192 ° 0 min 0,000 mm 0,0 UV-I 16 W/m² 14,1 °C 14,9 °C 0,0 km/h (0 Bft)
22.07.2017 06:49 14,9 °C 14,9 °C 95 % 1011,6 hPa 0,0 mm 0,0 km/h (0 Bft) S-SW 192 ° 0 min 0,000 mm 0,0 UV-I 16 W/m² 14,1 °C 14,9 °C 0,0 km/h (0 Bft)
22.07.2017 06:50 14,9 °C 14,9 °C 95 % 1011,6 hPa 0,0 mm 0,0 km/h (0 Bft) S-SW 192 ° 0 min 0,000 mm 0,0 UV-I 16 W/m² 14,1 °C 14,9 °C 0,0 km/h (0 Bft)
22.07.2017 06:51 14,9 °C 14,9 °C 95 % 1011,6 hPa 0,0 mm 0,0 km/h (0 Bft) S-SW 192 ° 0 min 0,000 mm 0,0 UV-I 18 W/m² 14,1 °C 14,9 °C 0,0 km/h (0 Bft)
22.07.2017 06:52 14,9 °C 14,9 °C 95 % 1011,6 hPa 0,0 mm 0,0 km/h (0 Bft) S-SW 192 ° 0 min 0,000 mm 0,0 UV-I 18 W/m² 14,1 °C 14,9 °C 0,0 km/h (0 Bft)
22.07.2017 06:53 14,9 °C 14,9 °C 95 % 1011,6 hPa 0,0 mm 0,0 km/h (0 Bft) S-SW 192 ° 0 min 0,000 mm 0,0 UV-I 18 W/m² 14,1 °C 14,9 °C 0,0 km/h (0 Bft)
22.07.2017 06:54 14,9 °C 14,9 °C 95 % 1011,6 hPa 0,0 mm 0,0 km/h (0 Bft) S-SW 192 ° 0 min 0,000 mm 0,0 UV-I 19 W/m² 14,1 °C 14,9 °C 0,0 km/h (0 Bft)
22.07.2017 06:55 15,0 °C 15,0 °C 95 % 1011,6 hPa 0,0 mm 0,0 km/h (0 Bft) S-SW 192 ° 0 min 0,000 mm 0,0 UV-I 19 W/m² 14,2 °C 15,0 °C 0,0 km/h (0 Bft)
22.07.2017 06:56 15,0 °C 15,0 °C 95 % 1011,6 hPa 0,0 mm 0,1 km/h (0 Bft) S 188 ° 0 min 0,000 mm 0,0 UV-I 19 W/m² 14,2 °C 15,0 °C 1,6 km/h (1 Bft)
22.07.2017 06:57 14,9 °C 15,0 °C 95 % 1011,6 hPa 0,0 mm 1,5 km/h (1 Bft) S-SW 197 ° 0 min 0,000 mm 0,0 UV-I 19 W/m² 14,1 °C 14,9 °C 3,2 km/h (1 Bft)
22.07.2017 06:58 14,9 °C 15,0 °C 95 % 1011,6 hPa 0,0 mm 1,8 km/h (1 Bft) S-SW 197 ° 0 min 0,000 mm 0,0 UV-I 21 W/m² 14,1 °C 14,9 °C 3,2 km/h (1 Bft)
22.07.2017 06:59 15,0 °C 15,0 °C 95 % 1011,6 hPa 0,0 mm 2,4 km/h (1 Bft) S-SW 197 ° 0 min 0,000 mm 0,0 UV-I 21 W/m² 14,2 °C 15,0 °C 3,2 km/h (1 Bft)
22.07.2017 07:00 14,9 °C 15,0 °C 95 % 1011,6 hPa 0,0 mm 0,5 km/h (0 Bft) S-SW 197 ° 0 min 0,000 mm 0,0 UV-I 23 W/m² 14,1 °C 14,9 °C 1,6 km/h (1 Bft)
22.07.2017 07:01 15,0 °C 15,0 °C 95 % 1011,6 hPa 0,0 mm 0,0 km/h (0 Bft) S-SW 197 ° 0 min 0,000 mm 0,0 UV-I 25 W/m² 14,2 °C 15,0 °C 0,0 km/h (0 Bft)
22.07.2017 07:02 15,0 °C 15,0 °C 95 % 1011,6 hPa 0,0 mm 0,0 km/h (0 Bft) S-SW 197 ° 0 min 0,000 mm 0,0 UV-I 26 W/m² 14,2 °C 15,0 °C 0,0 km/h (0 Bft)
22.07.2017 07:03 15,0 °C 15,0 °C 95 % 1011,6 hPa 0,0 mm 0,0 km/h (0 Bft) S-SW 197 ° 0 min 0,000 mm 0,0 UV-I 30 W/m² 14,2 °C 15,0 °C 0,0 km/h (0 Bft)
22.07.2017 07:04 15,0 °C 15,0 °C 95 % 1011,7 hPa 0,0 mm 0,0 km/h (0 Bft) S-SW 197 ° 0 min 0,000 mm 0,0 UV-I 32 W/m² 14,2 °C 15,0 °C 0,0 km/h (0 Bft)
22.07.2017 07:05 15,0 °C 15,0 °C 95 % 1011,6 hPa 0,0 mm 1,3 km/h (1 Bft) SW 225 ° 0 min 0,000 mm 0,0 UV-I 33 W/m² 14,2 °C 15,0 °C 3,2 km/h (1 Bft)
22.07.2017 07:06 15,1 °C 15,1 °C 95 % 1011,7 hPa 0,0 mm 1,6 km/h (1 Bft) SW 225 ° 0 min 0,000 mm 0,0 UV-I 35 W/m² 14,3 °C 15,1 °C 3,2 km/h (1 Bft)
22.07.2017 07:07 15,1 °C 15,1 °C 95 % 1011,7 hPa 0,0 mm 1,4 km/h (1 Bft) S-SO 159 ° 0 min 0,000 mm 0,0 UV-I 39 W/m² 14,3 °C 15,1 °C 6,4 km/h (2 Bft)
22.07.2017 07:08 15,1 °C 15,1 °C 95 % 1011,7 hPa 0,0 mm 1,9 km/h (1 Bft) W 259 ° 0 min 0,000 mm 0,0 UV-I 39 W/m² 14,3 °C 15,1 °C 4,8 km/h (1 Bft)
22.07.2017 07:09 15,1 °C 15,1 °C 95 % 1011,7 hPa 0,0 mm 0,6 km/h (0 Bft) W-SW 257 ° 0 min 0,000 mm 0,0 UV-I 39 W/m² 14,3 °C 15,1 °C 1,6 km/h (1 Bft)
22.07.2017 07:10 15,1 °C 15,1 °C 95 % 1011,7 hPa 0,0 mm 0,0 km/h (0 Bft) W-SW 257 ° 0 min 0,000 mm 0,0 UV-I 39 W/m² 14,3 °C 15,1 °C 0,0 km/h (0 Bft)
22.07.2017 07:11 15,2 °C 15,2 °C 95 % 1011,7 hPa 0,0 mm 0,0 km/h (0 Bft) W-SW 257 ° 0 min 0,000 mm 0,0 UV-I 39 W/m² 14,4 °C 15,2 °C 0,0 km/h (0 Bft)
22.07.2017 07:12 15,2 °C 15,2 °C 94 % 1011,7 hPa 0,0 mm 0,0 km/h (0 Bft) W-SW 257 ° 0 min 0,000 mm 0,0 UV-I 40 W/m² 14,2 °C 15,2 °C 0,0 km/h (0 Bft)
22.07.2017 07:13 15,2 °C 15,2 °C 95 % 1011,7 hPa 0,0 mm 0,0 km/h (0 Bft) W-SW 257 ° 0 min 0,000 mm 0,0 UV-I 40 W/m² 14,4 °C 15,2 °C 0,0 km/h (0 Bft)
22.07.2017 07:14 15,2 °C 15,2 °C 94 % 1011,8 hPa 0,0 mm 0,0 km/h (0 Bft) SW 220 ° 0 min 0,000 mm 0,0 UV-I 39 W/m² 14,2 °C 15,2 °C 0,0 km/h (0 Bft)
22.07.2017 07:15 15,2 °C 15,2 °C 94 % 1011,8 hPa 0,0 mm 0,0 km/h (0 Bft) SW 220 ° 0 min 0,000 mm 0,0 UV-I 37 W/m² 14,2 °C 15,2 °C 0,0 km/h (0 Bft)
22.07.2017 07:16 15,3 °C 15,3 °C 95 % 1011,8 hPa 0,0 mm 0,0 km/h (0 Bft) SW 220 ° 0 min 0,000 mm 0,0 UV-I 37 W/m² 14,5 °C 15,3 °C 0,0 km/h (0 Bft)
22.07.2017 07:17 15,3 °C 15,3 °C 94 % 1011,8 hPa 0,0 mm 0,0 km/h (0 Bft) SW 220 ° 0 min 0,000 mm 0,0 UV-I 37 W/m² 14,3 °C 15,3 °C 0,0 km/h (0 Bft)
22.07.2017 07:18 15,3 °C 15,3 °C 94 % 1011,8 hPa 0,0 mm 1,6 km/h (1 Bft) W-NW 286 ° 0 min 0,000 mm 0,0 UV-I 37 W/m² 14,3 °C 15,3 °C 3,2 km/h (1 Bft)
22.07.2017 07:19 15,3 °C 15,3 °C 94 % 1011,9 hPa 0,0 mm 0,5 km/h (0 Bft) W-NW 286 ° 0 min 0,000 mm 0,0 UV-I 35 W/m² 14,3 °C 15,3 °C 1,6 km/h (1 Bft)
22.07.2017 07:20 15,4 °C 15,4 °C 94 % 1011,9 hPa 0,0 mm 3,4 km/h (1 Bft) W-NW 286 ° 0 min 0,000 mm 0,0 UV-I 35 W/m² 14,4 °C 15,4 °C 4,8 km/h (1 Bft)
22.07.2017 07:21 15,4 °C 15,4 °C 94 % 1011,9 hPa 0,0 mm 3,4 km/h (1 Bft) W 275 ° 0 min 0,000 mm 0,0 UV-I 33 W/m² 14,4 °C 15,4 °C 4,8 km/h (1 Bft)
22.07.2017 07:22 15,4 °C 15,4 °C 94 % 1011,9 hPa 0,0 mm 4,5 km/h (1 Bft) W-SW 253 ° 0 min 0,000 mm 0,0 UV-I 33 W/m² 14,4 °C 15,4 °C 6,4 km/h (2 Bft)
22.07.2017 07:23 15,5 °C 15,5 °C 94 % 1011,9 hPa 0,0 mm 2,4 km/h (1 Bft) S 184 ° 0 min 0,000 mm 0,0 UV-I 33 W/m² 14,5 °C 15,5 °C 4,8 km/h (1 Bft)
22.07.2017 07:24 15,4 °C 15,5 °C 94 % 1011,9 hPa 0,0 mm 3,2 km/h (1 Bft) SO 129 ° 0 min 0,000 mm 0,0 UV-I 32 W/m² 14,4 °C 15,4 °C 4,8 km/h (1 Bft)
22.07.2017 07:25 15,4 °C 15,5 °C 94 % 1011,8 hPa 0,0 mm 2,5 km/h (1 Bft) W 281 ° 0 min 0,000 mm 0,0 UV-I 30 W/m² 14,4 °C 15,4 °C 4,8 km/h (1 Bft)
22.07.2017 07:26 15,4 °C 15,5 °C 94 % 1011,9 hPa 0,0 mm 3,5 km/h (1 Bft) W 281 ° 0 min 0,000 mm 0,0 UV-I 30 W/m² 14,4 °C 15,4 °C 6,4 km/h (2 Bft)
22.07.2017 07:27 15,4 °C 15,5 °C 94 % 1011,9 hPa 0,0 mm 0,1 km/h (0 Bft) W 281 ° 0 min 0,000 mm 0,0 UV-I 30 W/m² 14,4 °C 15,4 °C 1,6 km/h (1 Bft)
22.07.2017 07:28 15,5 °C 15,5 °C 94 % 1011,8 hPa 0,0 mm 0,1 km/h (0 Bft) W 281 ° 0 min 0,000 mm 0,0 UV-I 28 W/m² 14,5 °C 15,5 °C 1,6 km/h (1 Bft)
22.07.2017 07:29 15,6 °C 15,6 °C 94 % 1011,8 hPa 0,0 mm 2,7 km/h (1 Bft) W 281 ° 0 min 0,000 mm 0,0 UV-I 28 W/m² 14,6 °C 15,6 °C 4,8 km/h (1 Bft)
22.07.2017 07:30 15,5 °C 15,6 °C 94 % 1011,9 hPa 0,0 mm 0,3 km/h (0 Bft) W 281 ° 0 min 0,000 mm 0,0 UV-I 26 W/m² 14,5 °C 15,5 °C 1,6 km/h (1 Bft)
22.07.2017 07:31 15,6 °C 15,6 °C 94 % 1011,9 hPa 0,0 mm 0,0 km/h (0 Bft) W 281 ° 0 min 0,000 mm 0,0 UV-I 28 W/m² 14,6 °C 15,6 °C 0,0 km/h (0 Bft)
22.07.2017 07:32 15,6 °C 15,6 °C 93 % 1011,9 hPa 0,0 mm 0,0 km/h (0 Bft) W 281 ° 0 min 0,000 mm 0,0 UV-I 30 W/m² 14,5 °C 15,6 °C 0,0 km/h (0 Bft)
22.07.2017 07:33 15,6 °C 15,6 °C 93 % 1011,9 hPa 0,0 mm 0,0 km/h (0 Bft) W 281 ° 0 min 0,000 mm 0,0 UV-I 32 W/m² 14,5 °C 15,6 °C 0,0 km/h (0 Bft)
22.07.2017 07:34 15,6 °C 15,6 °C 94 % 1011,9 hPa 0,0 mm 0,0 km/h (0 Bft) W 281 ° 0 min 0,000 mm 0,0 UV-I 33 W/m² 14,6 °C 15,6 °C 0,0 km/h (0 Bft)
22.07.2017 07:35 15,5 °C 15,6 °C 93 % 1011,9 hPa 0,0 mm 0,0 km/h (0 Bft) W 280 ° 0 min 0,000 mm 0,0 UV-I 33 W/m² 14,4 °C 15,5 °C 0,0 km/h (0 Bft)
22.07.2017 07:36 15,6 °C 15,6 °C 93 % 1012,0 hPa 0,0 mm 0,0 km/h (0 Bft) W 280 ° 0 min 0,000 mm 0,0 UV-I 35 W/m² 14,5 °C 15,6 °C 0,0 km/h (0 Bft)
22.07.2017 07:37 15,5 °C 15,6 °C 93 % 1011,9 hPa 0,0 mm 0,0 km/h (0 Bft) W 280 ° 0 min 0,000 mm 0,0 UV-I 39 W/m² 14,4 °C 15,5 °C 0,0 km/h (0 Bft)
22.07.2017 07:38 15,6 °C 15,6 °C 93 % 1012,0 hPa 0,0 mm 0,0 km/h (0 Bft) W 280 ° 0 min 0,000 mm 0,0 UV-I 42 W/m² 14,5 °C 15,6 °C 0,0 km/h (0 Bft)
22.07.2017 07:39 15,5 °C 15,6 °C 94 % 1012,0 hPa 0,0 mm 0,0 km/h (0 Bft) W 280 ° 0 min 0,000 mm 0,0 UV-I 42 W/m² 14,5 °C 15,5 °C 0,0 km/h (0 Bft)
22.07.2017 07:40 15,6 °C 15,6 °C 94 % 1012,0 hPa 0,0 mm 0,0 km/h (0 Bft) W 280 ° 0 min 0,000 mm 0,0 UV-I 42 W/m² 14,6 °C 15,6 °C 0,0 km/h (0 Bft)
22.07.2017 07:41 15,5 °C 15,6 °C 94 % 1012,0 hPa 0,0 mm 1,9 km/h (1 Bft) W 279 ° 0 min 0,000 mm 0,0 UV-I 40 W/m² 14,5 °C 15,5 °C 4,8 km/h (1 Bft)
22.07.2017 07:42 15,6 °C 15,6 °C 94 % 1012,0 hPa 0,0 mm 0,5 km/h (0 Bft) W 279 ° 0 min 0,000 mm 0,0 UV-I 39 W/m² 14,6 °C 15,6 °C 1,6 km/h (1 Bft)
22.07.2017 07:43 15,6 °C 15,6 °C 94 % 1012,1 hPa 0,0 mm 0,0 km/h (0 Bft) W 279 ° 0 min 0,000 mm 0,0 UV-I 37 W/m² 14,6 °C 15,6 °C 0,0 km/h (0 Bft)
22.07.2017 07:44 15,6 °C 15,6 °C 93 % 1012,1 hPa 0,0 mm 0,0 km/h (0 Bft) W 279 ° 0 min 0,000 mm 0,0 UV-I 35 W/m² 14,5 °C 15,6 °C 0,0 km/h (0 Bft)
22.07.2017 07:45 15,6 °C 15,6 °C 93 % 1012,2 hPa 0,0 mm 1,3 km/h (1 Bft) W 279 ° 0 min 0,000 mm 0,0 UV-I 37 W/m² 14,5 °C 15,6 °C 3,2 km/h (1 Bft)
22.07.2017 07:46 15,6 °C 15,6 °C 93 % 1012,2 hPa 0,0 mm 2,4 km/h (1 Bft) W 279 ° 0 min 0,000 mm 0,0 UV-I 37 W/m² 14,5 °C 15,6 °C 3,2 km/h (1 Bft)
22.07.2017 07:47 15,7 °C 15,7 °C 93 % 1012,1 hPa 0,0 mm 0,7 km/h (0 Bft) W 279 ° 0 min 0,000 mm 0,0 UV-I 40 W/m² 14,6 °C 15,7 °C 3,2 km/h (1 Bft)
22.07.2017 07:48 15,7 °C 15,7 °C 93 % 1012,1 hPa 0,0 mm 0,0 km/h (0 Bft) W 279 ° 0 min 0,000 mm 0,0 UV-I 42 W/m² 14,6 °C 15,7 °C 0,0 km/h (0 Bft)
22.07.2017 07:49 15,7 °C 15,7 °C 93 % 1012,2 hPa 0,0 mm 0,0 km/h (0 Bft) W 279 ° 0 min 0,000 mm 0,0 UV-I 47 W/m² 14,6 °C 15,7 °C 0,0 km/h (0 Bft)
22.07.2017 07:50 15,7 °C 15,7 °C 93 % 1012,2 hPa 0,0 mm 0,0 km/h (0 Bft) W 279 ° 0 min 0,000 mm 0,0 UV-I 49 W/m² 14,6 °C 15,7 °C 0,0 km/h (0 Bft)
22.07.2017 07:51 15,7 °C 15,7 °C 93 % 1012,2 hPa 0,0 mm 0,0 km/h (0 Bft) W 279 ° 0 min 0,000 mm 0,0 UV-I 51 W/m² 14,6 °C 15,7 °C 0,0 km/h (0 Bft)
22.07.2017 07:52 15,7 °C 15,7 °C 93 % 1012,2 hPa 0,0 mm 0,0 km/h (0 Bft) W 279 ° 0 min 0,000 mm 0,0 UV-I 53 W/m² 14,6 °C 15,7 °C 0,0 km/h (0 Bft)
22.07.2017 07:53 15,7 °C 15,7 °C 93 % 1012,1 hPa 0,0 mm 0,0 km/h (0 Bft) W 279 ° 0 min 0,000 mm 0,0 UV-I 56 W/m² 14,6 °C 15,7 °C 0,0 km/h (0 Bft)
22.07.2017 07:54 15,7 °C 15,7 °C 93 % 1012,2 hPa 0,0 mm 0,0 km/h (0 Bft) W 279 ° 0 min 0,000 mm 0,0 UV-I 58 W/m² 14,6 °C 15,7 °C 0,0 km/h (0 Bft)
22.07.2017 07:55 15,7 °C 15,7 °C 93 % 1012,2 hPa 0,0 mm 0,0 km/h (0 Bft) W 278 ° 0 min 0,000 mm 0,0 UV-I 62 W/m² 14,6 °C 15,7 °C 0,0 km/h (0 Bft)
22.07.2017 07:56 15,7 °C 15,7 °C 93 % 1012,1 hPa 0,0 mm 0,0 km/h (0 Bft) W 278 ° 0 min 0,000 mm 0,0 UV-I 63 W/m² 14,6 °C 15,7 °C 0,0 km/h (0 Bft)
22.07.2017 07:57 15,7 °C 15,7 °C 93 % 1012,1 hPa 0,0 mm 0,0 km/h (0 Bft) W 278 ° 0 min 0,000 mm 0,0 UV-I 63 W/m² 14,6 °C 15,7 °C 0,0 km/h (0 Bft)
22.07.2017 07:58 15,7 °C 15,7 °C 93 % 1012,1 hPa 0,0 mm 0,0 km/h (0 Bft) W 278 ° 0 min 0,000 mm 0,0 UV-I 65 W/m² 14,6 °C 15,7 °C 0,0 km/h (0 Bft)
22.07.2017 07:59 15,7 °C 15,7 °C 93 % 1012,1 hPa 0,0 mm 0,0 km/h (0 Bft) W 278 ° 0 min 0,000 mm 0,5 UV-I 67 W/m² 14,6 °C 15,7 °C 0,0 km/h (0 Bft)
22.07.2017 08:00 15,8 °C 15,8 °C 93 % 1012,1 hPa 0,0 mm 0,0 km/h (0 Bft) W 278 ° 0 min 0,000 mm 0,5 UV-I 72 W/m² 14,7 °C 15,8 °C 0,0 km/h (0 Bft)
22.07.2017 08:01 15,8 °C 15,8 °C 93 % 1012,1 hPa 0,0 mm 0,0 km/h (0 Bft) W 278 ° 0 min 0,026 mm 0,5 UV-I 76 W/m² 14,7 °C 15,8 °C 0,0 km/h (0 Bft)
22.07.2017 08:02 15,8 °C 15,8 °C 93 % 1012,1 hPa 0,0 mm 2,5 km/h (1 Bft) W 279 ° 0 min 0,000 mm 0,6 UV-I 79 W/m² 14,7 °C 15,8 °C 3,2 km/h (1 Bft)
22.07.2017 08:03 15,9 °C 15,9 °C 94 % 1012,1 hPa 0,0 mm 0,8 km/h (0 Bft) W 279 ° 0 min 0,000 mm 0,6 UV-I 81 W/m² 14,9 °C 15,9 °C 3,2 km/h (1 Bft)
22.07.2017 08:04 16,0 °C 16,0 °C 93 % 1012,1 hPa 0,0 mm 1,2 km/h (1 Bft) W 278 ° 0 min 0,000 mm 0,6 UV-I 83 W/m² 14,9 °C 16,0 °C 3,2 km/h (1 Bft)
22.07.2017 08:05 16,1 °C 16,1 °C 93 % 1012,1 hPa 0,0 mm 0,2 km/h (0 Bft) W 278 ° 0 min 0,000 mm 0,6 UV-I 84 W/m² 15,0 °C 16,1 °C 1,6 km/h (1 Bft)
22.07.2017 08:06 16,1 °C 16,1 °C 93 % 1012,2 hPa 0,0 mm 0,0 km/h (0 Bft) W 278 ° 0 min 0,000 mm 0,6 UV-I 83 W/m² 15,0 °C 16,1 °C 0,0 km/h (0 Bft)
22.07.2017 08:07 16,1 °C 16,1 °C 93 % 1012,2 hPa 0,0 mm 0,0 km/h (0 Bft) W 278 ° 0 min 0,000 mm 0,6 UV-I 79 W/m² 15,0 °C 16,1 °C 0,0 km/h (0 Bft)
22.07.2017 08:08 16,1 °C 16,1 °C 93 % 1012,2 hPa 0,0 mm 0,0 km/h (0 Bft) W 278 ° 0 min 0,000 mm 0,5 UV-I 76 W/m² 15,0 °C 16,1 °C 0,0 km/h (0 Bft)
22.07.2017 08:09 16,1 °C 16,1 °C 93 % 1012,2 hPa 0,0 mm 1,2 km/h (1 Bft) W 278 ° 0 min 0,000 mm 0,5 UV-I 72 W/m² 15,0 °C 16,1 °C 3,2 km/h (1 Bft)
22.07.2017 08:10 16,1 °C 16,1 °C 93 % 1012,2 hPa 0,0 mm 3,2 km/h (1 Bft) N-NW 348 ° 0 min 0,000 mm 0,5 UV-I 70 W/m² 15,0 °C 16,1 °C 4,8 km/h (1 Bft)
22.07.2017 08:11 16,1 °C 16,1 °C 93 % 1012,2 hPa 0,0 mm 1,3 km/h (1 Bft) N 349 ° 0 min 0,000 mm 0,5 UV-I 70 W/m² 15,0 °C 16,1 °C 3,2 km/h (1 Bft)
22.07.2017 08:12 16,1 °C 16,1 °C 93 % 1012,1 hPa 0,0 mm 1,9 km/h (1 Bft) N 349 ° 0 min 0,000 mm 0,5 UV-I 72 W/m² 15,0 °C 16,1 °C 3,2 km/h (1 Bft)
22.07.2017 08:13 16,1 °C 16,1 °C 93 % 1012,2 hPa 0,0 mm 0,0 km/h (0 Bft) N 349 ° 0 min 0,000 mm 0,5 UV-I 74 W/m² 15,0 °C 16,1 °C 0,0 km/h (0 Bft)
22.07.2017 08:14 16,1 °C 16,1 °C 93 % 1012,2 hPa 0,0 mm 0,0 km/h (0 Bft) N 349 ° 0 min 0,000 mm 0,5 UV-I 74 W/m² 15,0 °C 16,1 °C 0,0 km/h (0 Bft)
22.07.2017 08:15 16,1 °C 16,1 °C 93 % 1012,2 hPa 0,0 mm 0,0 km/h (0 Bft) N 349 ° 0 min 0,000 mm 0,5 UV-I 74 W/m² 15,0 °C 16,1 °C 0,0 km/h (0 Bft)
22.07.2017 08:16 16,1 °C 16,1 °C 93 % 1012,2 hPa 0,0 mm 0,0 km/h (0 Bft) N 349 ° 0 min 0,000 mm 0,5 UV-I 74 W/m² 15,0 °C 16,1 °C 0,0 km/h (0 Bft)
22.07.2017 08:17 16,1 °C 16,1 °C 93 % 1012,3 hPa 0,0 mm 2,2 km/h (1 Bft) N-NW 341 ° 0 min 0,000 mm 0,5 UV-I 74 W/m² 15,0 °C 16,1 °C 4,8 km/h (1 Bft)
22.07.2017 08:18 16,1 °C 16,1 °C 93 % 1012,3 hPa 0,0 mm 1,9 km/h (1 Bft) N-NW 341 ° 0 min 0,000 mm 0,5 UV-I 72 W/m² 15,0 °C 16,1 °C 3,2 km/h (1 Bft)
22.07.2017 08:19 16,1 °C 16,1 °C 93 % 1012,3 hPa 0,0 mm 0,2 km/h (0 Bft) N-NW 341 ° 0 min 0,000 mm 0,5 UV-I 70 W/m² 15,0 °C 16,1 °C 1,6 km/h (1 Bft)
22.07.2017 08:20 16,2 °C 16,2 °C 93 % 1012,3 hPa 0,0 mm 0,0 km/h (0 Bft) N-NW 341 ° 0 min 0,000 mm 0,5 UV-I 70 W/m² 15,1 °C 16,2 °C 0,0 km/h (0 Bft)
22.07.2017 08:21 16,2 °C 16,2 °C 93 % 1012,3 hPa 0,0 mm 0,0 km/h (0 Bft) N-NW 341 ° 0 min 0,000 mm 0,5 UV-I 69 W/m² 15,1 °C 16,2 °C 0,0 km/h (0 Bft)
22.07.2017 08:22 16,2 °C 16,2 °C 93 % 1012,4 hPa 0,0 mm 0,0 km/h (0 Bft) N-NW 341 ° 0 min 0,000 mm 0,5 UV-I 69 W/m² 15,1 °C 16,2 °C 0,0 km/h (0 Bft)
22.07.2017 08:23 16,2 °C 16,2 °C 92 % 1012,4 hPa 0,0 mm 0,0 km/h (0 Bft) N-NW 341 ° 0 min 0,000 mm 0,5 UV-I 70 W/m² 14,9 °C 16,2 °C 0,0 km/h (0 Bft)
22.07.2017 08:24 16,3 °C 16,3 °C 93 % 1012,4 hPa 0,0 mm 0,0 km/h (0 Bft) N-NW 341 ° 0 min 0,000 mm 0,5 UV-I 76 W/m² 15,2 °C 16,3 °C 0,0 km/h (0 Bft)
22.07.2017 08:25 16,3 °C 16,3 °C 93 % 1012,4 hPa 0,0 mm 0,3 km/h (0 Bft) N-NW 348 ° 0 min 0,000 mm 0,6 UV-I 77 W/m² 15,2 °C 16,3 °C 1,6 km/h (1 Bft)
22.07.2017 08:26 16,3 °C 16,3 °C 93 % 1012,4 hPa 0,0 mm 1,3 km/h (1 Bft) N-NW 348 ° 0 min 0,000 mm 0,6 UV-I 81 W/m² 15,2 °C 16,3 °C 3,2 km/h (1 Bft)
22.07.2017 08:27 16,3 °C 16,3 °C 93 % 1012,4 hPa 0,0 mm 0,2 km/h (0 Bft) N-NW 348 ° 0 min 0,000 mm 0,6 UV-I 83 W/m² 15,2 °C 16,3 °C 1,6 km/h (1 Bft)
22.07.2017 08:28 16,3 °C 16,3 °C 93 % 1012,5 hPa 0,0 mm 0,0 km/h (0 Bft) N-NW 348 ° 0 min 0,000 mm 0,6 UV-I 83 W/m² 15,2 °C 16,3 °C 0,0 km/h (0 Bft)
22.07.2017 08:29 16,3 °C 16,3 °C 93 % 1012,5 hPa 0,0 mm 0,0 km/h (0 Bft) N-NW 348 ° 0 min 0,000 mm 0,6 UV-I 83 W/m² 15,2 °C 16,3 °C 0,0 km/h (0 Bft)
22.07.2017 08:30 16,3 °C 16,3 °C 93 % 1012,5 hPa 0,0 mm 0,0 km/h (0 Bft) N-NW 348 ° 0 min 0,000 mm 0,6 UV-I 84 W/m² 15,2 °C 16,3 °C 0,0 km/h (0 Bft)
22.07.2017 08:31 16,3 °C 16,3 °C 93 % 1012,5 hPa 0,0 mm 0,0 km/h (0 Bft) N-NW 348 ° 0 min 0,000 mm 0,6 UV-I 84 W/m² 15,2 °C 16,3 °C 0,0 km/h (0 Bft)
22.07.2017 08:32 16,3 °C 16,3 °C 93 % 1012,5 hPa 0,0 mm 0,0 km/h (0 Bft) N-NW 348 ° 0 min 0,000 mm 0,6 UV-I 86 W/m² 15,2 °C 16,3 °C 0,0 km/h (0 Bft)
22.07.2017 08:33 16,3 °C 16,3 °C 93 % 1012,5 hPa 0,0 mm 0,0 km/h (0 Bft) N-NW 348 ° 0 min 0,000 mm 0,6 UV-I 86 W/m² 15,2 °C 16,3 °C 0,0 km/h (0 Bft)
22.07.2017 08:34 16,3 °C 16,3 °C 93 % 1012,4 hPa 0,0 mm 0,0 km/h (0 Bft) N-NW 348 ° 0 min 0,000 mm 0,6 UV-I 86 W/m² 15,2 °C 16,3 °C 0,0 km/h (0 Bft)
22.07.2017 08:35 16,3 °C 16,3 °C 93 % 1012,5 hPa 0,0 mm 0,0 km/h (0 Bft) N-NW 348 ° 0 min 0,000 mm 0,6 UV-I 84 W/m² 15,2 °C 16,3 °C 0,0 km/h (0 Bft)
22.07.2017 08:36 16,3 °C 16,3 °C 93 % 1012,5 hPa 0,0 mm 0,0 km/h (0 Bft) N-NW 348 ° 0 min 0,000 mm 0,6 UV-I 81 W/m² 15,2 °C 16,3 °C 0,0 km/h (0 Bft)
22.07.2017 08:37 16,4 °C 16,4 °C 93 % 1012,5 hPa 0,0 mm 0,0 km/h (0 Bft) N-NW 348 ° 0 min 0,000 mm 0,6 UV-I 79 W/m² 15,3 °C 16,4 °C 0,0 km/h (0 Bft)
22.07.2017 08:38 16,4 °C 16,4 °C 93 % 1012,5 hPa 0,0 mm 0,0 km/h (0 Bft) N-NW 348 ° 0 min 0,000 mm 0,6 UV-I 79 W/m² 15,3 °C 16,4 °C 0,0 km/h (0 Bft)
22.07.2017 08:39 16,4 °C 16,5 °C 93 % 1012,5 hPa 0,0 mm 0,0 km/h (0 Bft) N-NW 348 ° 0 min 0,000 mm 0,6 UV-I 79 W/m² 15,3 °C 16,4 °C 0,0 km/h (0 Bft)
22.07.2017 08:40 16,5 °C 16,6 °C 93 % 1012,5 hPa 0,0 mm 0,5 km/h (0 Bft) N-NW 348 ° 0 min 0,000 mm 0,6 UV-I 81 W/m² 15,4 °C 16,5 °C 1,6 km/h (1 Bft)
22.07.2017 08:41 16,5 °C 16,5 °C 93 % 1012,5 hPa 0,0 mm 1,3 km/h (1 Bft) N-NW 348 ° 0 min 0,000 mm 0,6 UV-I 81 W/m² 15,4 °C 16,5 °C 1,6 km/h (1 Bft)
22.07.2017 08:42 16,4 °C 16,5 °C 93 % 1012,5 hPa 0,0 mm 0,2 km/h (0 Bft) N-NW 348 ° 0 min 0,000 mm 0,6 UV-I 81 W/m² 15,3 °C 16,4 °C 1,6 km/h (1 Bft)
22.07.2017 08:43 16,4 °C 16,4 °C 92 % 1012,5 hPa 0,0 mm 0,0 km/h (0 Bft) N-NW 348 ° 0 min 0,000 mm 0,6 UV-I 79 W/m² 15,1 °C 16,4 °C 0,0 km/h (0 Bft)
22.07.2017 08:44 16,4 °C 16,4 °C 93 % 1012,5 hPa 0,0 mm 0,0 km/h (0 Bft) N-NW 348 ° 0 min 0,000 mm 0,6 UV-I 79 W/m² 15,3 °C 16,4 °C 0,0 km/h (0 Bft)
22.07.2017 08:45 16,4 °C 16,4 °C 93 % 1012,5 hPa 0,0 mm 0,0 km/h (0 Bft) N-NW 348 ° 0 min 0,000 mm 0,6 UV-I 79 W/m² 15,3 °C 16,4 °C 0,0 km/h (0 Bft)
22.07.2017 08:46 16,4 °C 16,5 °C 93 % 1012,5 hPa 0,0 mm 1,9 km/h (1 Bft) N-NW 347 ° 0 min 0,000 mm 0,6 UV-I 79 W/m² 15,3 °C 16,4 °C 3,2 km/h (1 Bft)
22.07.2017 08:47 16,6 °C 16,6 °C 93 % 1012,6 hPa 0,0 mm 1,9 km/h (1 Bft) N-NW 347 ° 0 min 0,000 mm 0,6 UV-I 76 W/m² 15,5 °C 16,6 °C 3,2 km/h (1 Bft)
22.07.2017 08:48 16,6 °C 16,6 °C 93 % 1012,6 hPa 0,0 mm 2,3 km/h (1 Bft) N-NW 347 ° 0 min 0,000 mm 0,5 UV-I 76 W/m² 15,5 °C 16,6 °C 3,2 km/h (1 Bft)
22.07.2017 08:49 16,6 °C 16,7 °C 92 % 1012,6 hPa 0,0 mm 1,7 km/h (1 Bft) N-NW 347 ° 0 min 0,000 mm 0,5 UV-I 74 W/m² 15,3 °C 16,6 °C 3,2 km/h (1 Bft)
22.07.2017 08:50 16,7 °C 16,7 °C 92 % 1012,6 hPa 0,0 mm 1,3 km/h (1 Bft) N-NW 347 ° 0 min 0,000 mm 0,5 UV-I 72 W/m² 15,4 °C 16,7 °C 3,2 km/h (1 Bft)
22.07.2017 08:51 16,8 °C 16,8 °C 92 % 1012,6 hPa 0,0 mm 1,8 km/h (1 Bft) N-NW 347 ° 0 min 0,000 mm 0,5 UV-I 72 W/m² 15,5 °C 16,8 °C 3,2 km/h (1 Bft)
22.07.2017 08:52 16,8 °C 16,8 °C 92 % 1012,6 hPa 0,0 mm 2,8 km/h (1 Bft) N-NW 340 ° 0 min 0,000 mm 0,5 UV-I 70 W/m² 15,5 °C 16,8 °C 3,2 km/h (1 Bft)
22.07.2017 08:53 16,8 °C 16,8 °C 92 % 1012,7 hPa 0,0 mm 4,4 km/h (1 Bft) W-NW 284 ° 0 min 0,000 mm 0,5 UV-I 69 W/m² 15,5 °C 16,8 °C 4,8 km/h (1 Bft)
22.07.2017 08:54 16,8 °C 16,9 °C 92 % 1012,7 hPa 0,0 mm 3,0 km/h (1 Bft) W-NW 284 ° 0 min 0,000 mm 0,5 UV-I 69 W/m² 15,5 °C 16,8 °C 4,8 km/h (1 Bft)
22.07.2017 08:55 16,8 °C 16,9 °C 92 % 1012,7 hPa 0,0 mm 1,7 km/h (1 Bft) W-NW 284 ° 0 min 0,000 mm 0,5 UV-I 69 W/m² 15,5 °C 16,8 °C 3,2 km/h (1 Bft)
22.07.2017 08:56 16,8 °C 16,9 °C 92 % 1012,8 hPa 0,0 mm 1,5 km/h (1 Bft) W-NW 284 ° 0 min 0,000 mm 0,5 UV-I 69 W/m² 15,5 °C 16,8 °C 3,2 km/h (1 Bft)
22.07.2017 08:57 16,8 °C 16,9 °C 92 % 1012,7 hPa 0,0 mm 3,2 km/h (1 Bft) W-NW 284 ° 0 min 0,000 mm 0,5 UV-I 69 W/m² 15,5 °C 16,8 °C 4,8 km/h (1 Bft)
22.07.2017 08:58 16,8 °C 16,9 °C 92 % 1012,8 hPa 0,0 mm 2,9 km/h (1 Bft) W-NW 284 ° 0 min 0,000 mm 0,5 UV-I 69 W/m² 15,5 °C 16,8 °C 4,8 km/h (1 Bft)
22.07.2017 08:59 16,8 °C 16,8 °C 92 % 1012,8 hPa 0,0 mm 2,6 km/h (1 Bft) W-NW 284 ° 0 min 0,000 mm 0,5 UV-I 69 W/m² 15,5 °C 16,8 °C 4,8 km/h (1 Bft)
22.07.2017 09:00 16,8 °C 16,8 °C 92 % 1012,8 hPa 0,0 mm 1,4 km/h (1 Bft) W-NW 284 ° 0 min 0,000 mm 0,5 UV-I 69 W/m² 15,5 °C 16,8 °C 3,2 km/h (1 Bft)
22.07.2017 09:01 16,8 °C 16,8 °C 92 % 1012,8 hPa 0,0 mm 0,5 km/h (0 Bft) W-NW 284 ° 0 min 0,050 mm 0,5 UV-I 70 W/m² 15,5 °C 16,8 °C 1,6 km/h (1 Bft)
22.07.2017 09:02 16,8 °C 16,8 °C 92 % 1012,9 hPa 0,0 mm 0,0 km/h (0 Bft) W-NW 284 ° 0 min 0,000 mm 0,5 UV-I 70 W/m² 15,5 °C 16,8 °C 0,0 km/h (0 Bft)
22.07.2017 09:03 16,8 °C 16,8 °C 92 % 1012,9 hPa 0,0 mm 0,0 km/h (0 Bft) W-NW 284 ° 0 min 0,000 mm 0,5 UV-I 72 W/m² 15,5 °C 16,8 °C 0,0 km/h (0 Bft)
22.07.2017 09:04 16,8 °C 16,8 °C 92 % 1012,9 hPa 0,0 mm 0,1 km/h (0 Bft) W-NW 284 ° 0 min 0,000 mm 0,5 UV-I 74 W/m² 15,5 °C 16,8 °C 1,6 km/h (1 Bft)
22.07.2017 09:05 16,8 °C 16,8 °C 92 % 1012,9 hPa 0,0 mm 1,0 km/h (0 Bft) W-NW 284 ° 0 min 0,000 mm 0,6 UV-I 76 W/m² 15,5 °C 16,8 °C 1,6 km/h (1 Bft)
22.07.2017 09:06 16,8 °C 16,8 °C 92 % 1012,9 hPa 0,0 mm 1,8 km/h (1 Bft) W-NW 284 ° 0 min 0,000 mm 0,6 UV-I 79 W/m² 15,5 °C 16,8 °C 3,2 km/h (1 Bft)
22.07.2017 09:07 16,8 °C 16,8 °C 92 % 1012,9 hPa 0,0 mm 1,9 km/h (1 Bft) W-NW 284 ° 0 min 0,000 mm 0,6 UV-I 81 W/m² 15,5 °C 16,8 °C 3,2 km/h (1 Bft)
22.07.2017 09:08 16,7 °C 16,8 °C 92 % 1012,9 hPa 0,0 mm 1,3 km/h (1 Bft) W-NW 284 ° 0 min 0,000 mm 0,6 UV-I 84 W/m² 15,4 °C 16,7 °C 1,6 km/h (1 Bft)
22.07.2017 09:09 16,7 °C 16,7 °C 92 % 1013,0 hPa 0,0 mm 1,0 km/h (0 Bft) W-NW 284 ° 0 min 0,000 mm 0,7 UV-I 90 W/m² 15,4 °C 16,7 °C 1,6 km/h (1 Bft)
22.07.2017 09:10 16,7 °C 16,7 °C 91 % 1013,0 hPa 0,0 mm 1,5 km/h (1 Bft) W-NW 284 ° 0 min 0,000 mm 0,7 UV-I 95 W/m² 15,2 °C 16,7 °C 3,2 km/h (1 Bft)
22.07.2017 09:11 16,7 °C 16,7 °C 91 % 1012,9 hPa 0,0 mm 0,4 km/h (0 Bft) W-NW 284 ° 0 min 0,000 mm 0,8 UV-I 109 W/m² 15,2 °C 16,7 °C 1,6 km/h (1 Bft)
22.07.2017 09:12 16,8 °C 16,8 °C 91 % 1012,9 hPa 0,0 mm 0,0 km/h (0 Bft) W-NW 284 ° 0 min 0,000 mm 0,9 UV-I 114 W/m² 15,3 °C 16,8 °C 0,0 km/h (0 Bft)
22.07.2017 09:13 16,8 °C 16,8 °C 91 % 1012,9 hPa 0,0 mm 0,0 km/h (0 Bft) W-NW 284 ° 0 min 0,000 mm 0,9 UV-I 121 W/m² 15,3 °C 16,8 °C 0,0 km/h (0 Bft)
22.07.2017 09:14 16,8 °C 16,8 °C 91 % 1013,0 hPa 0,0 mm 0,0 km/h (0 Bft) W-NW 284 ° 0 min 0,000 mm 1,0 UV-I 128 W/m² 15,3 °C 16,8 °C 0,0 km/h (0 Bft)
22.07.2017 09:15 16,8 °C 16,8 °C 91 % 1013,0 hPa 0,0 mm 0,0 km/h (0 Bft) W-NW 284 ° 0 min 0,000 mm 1,0 UV-I 132 W/m² 15,3 °C 16,8 °C 0,0 km/h (0 Bft)
22.07.2017 09:16 16,8 °C 16,8 °C 91 % 1013,0 hPa 0,0 mm 0,0 km/h (0 Bft) W-NW 284 ° 0 min 0,000 mm 1,0 UV-I 137 W/m² 15,3 °C 16,8 °C 0,0 km/h (0 Bft)
22.07.2017 09:17 16,9 °C 16,9 °C 91 % 1013,0 hPa 0,0 mm 0,0 km/h (0 Bft) W-NW 284 ° 0 min 0,000 mm 1,1 UV-I 139 W/m² 15,4 °C 16,9 °C 0,0 km/h (0 Bft)
22.07.2017 09:18 16,9 °C 16,9 °C 91 % 1013,0 hPa 0,0 mm 0,0 km/h (0 Bft) W-NW 284 ° 0 min 0,000 mm 1,1 UV-I 141 W/m² 15,4 °C 16,9 °C 0,0 km/h (0 Bft)
22.07.2017 09:19 16,9 °C 16,9 °C 91 % 1013,0 hPa 0,0 mm 0,0 km/h (0 Bft) W-NW 284 ° 0 min 0,000 mm 1,1 UV-I 141 W/m² 15,4 °C 16,9 °C 0,0 km/h (0 Bft)
22.07.2017 09:20 16,9 °C 16,9 °C 90 % 1013,0 hPa 0,0 mm 0,0 km/h (0 Bft) W-NW 284 ° 0 min 0,000 mm 1,1 UV-I 139 W/m² 15,2 °C 16,9 °C 0,0 km/h (0 Bft)
22.07.2017 09:21 16,9 °C 16,9 °C 91 % 1013,0 hPa 0,0 mm 0,0 km/h (0 Bft) W-NW 284 ° 0 min 0,000 mm 1,0 UV-I 134 W/m² 15,4 °C 16,9 °C 0,0 km/h (0 Bft)
22.07.2017 09:22 16,9 °C 16,9 °C 91 % 1013,0 hPa 0,0 mm 0,0 km/h (0 Bft) W-NW 284 ° 0 min 0,000 mm 1,0 UV-I 125 W/m² 15,4 °C 16,9 °C 0,0 km/h (0 Bft)
22.07.2017 09:23 16,9 °C 17,0 °C 91 % 1013,1 hPa 0,0 mm 0,0 km/h (0 Bft) W-NW 284 ° 0 min 0,000 mm 0,9 UV-I 121 W/m² 15,4 °C 16,9 °C 0,0 km/h (0 Bft)
22.07.2017 09:24 16,9 °C 16,9 °C 91 % 1013,1 hPa 0,0 mm 0,0 km/h (0 Bft) W-NW 284 ° 0 min 0,000 mm 0,9 UV-I 120 W/m² 15,4 °C 16,9 °C 0,0 km/h (0 Bft)
22.07.2017 09:25 16,9 °C 16,9 °C 90 % 1013,0 hPa 0,0 mm 0,0 km/h (0 Bft) W-NW 284 ° 0 min 0,000 mm 0,9 UV-I 118 W/m² 15,2 °C 16,9 °C 0,0 km/h (0 Bft)
22.07.2017 09:26 16,9 °C 16,9 °C 91 % 1013,1 hPa 0,0 mm 0,0 km/h (0 Bft) W-NW 284 ° 0 min 0,000 mm 0,9 UV-I 114 W/m² 15,4 °C 16,9 °C 0,0 km/h (0 Bft)
22.07.2017 09:27 16,9 °C 16,9 °C 90 % 1013,1 hPa 0,0 mm 0,9 km/h (0 Bft) W-NW 284 ° 0 min 0,000 mm 0,9 UV-I 111 W/m² 15,2 °C 16,9 °C 1,6 km/h (1 Bft)
22.07.2017 09:28 16,9 °C 16,9 °C 90 % 1013,1 hPa 0,0 mm 0,2 km/h (0 Bft) W-NW 284 ° 0 min 0,000 mm 0,8 UV-I 104 W/m² 15,2 °C 16,9 °C 1,6 km/h (1 Bft)
22.07.2017 09:29 17,0 °C 17,0 °C 91 % 1013,1 hPa 0,0 mm 0,0 km/h (0 Bft) W-NW 284 ° 0 min 0,000 mm 0,8 UV-I 100 W/m² 15,5 °C 17,0 °C 0,0 km/h (0 Bft)
22.07.2017 09:30 16,9 °C 17,0 °C 91 % 1013,1 hPa 0,0 mm 0,0 km/h (0 Bft) W-NW 284 ° 0 min 0,000 mm 0,8 UV-I 100 W/m² 15,4 °C 16,9 °C 0,0 km/h (0 Bft)
22.07.2017 09:31 17,0 °C 17,0 °C 91 % 1013,1 hPa 0,0 mm 0,0 km/h (0 Bft) W-NW 284 ° 0 min 0,000 mm 0,8 UV-I 98 W/m² 15,5 °C 17,0 °C 0,0 km/h (0 Bft)
22.07.2017 09:32 16,9 °C 17,0 °C 92 % 1013,1 hPa 0,0 mm 0,0 km/h (0 Bft) W-NW 284 ° 0 min 0,000 mm 0,8 UV-I 100 W/m² 15,6 °C 16,9 °C 0,0 km/h (0 Bft)
22.07.2017 09:33 16,9 °C 17,0 °C 92 % 1013,1 hPa 0,0 mm 0,0 km/h (0 Bft) W-NW 284 ° 0 min 0,000 mm 0,8 UV-I 100 W/m² 15,6 °C 16,9 °C 0,0 km/h (0 Bft)
22.07.2017 09:34 16,9 °C 17,0 °C 92 % 1013,1 hPa 0,0 mm 0,0 km/h (0 Bft) W-NW 284 ° 0 min 0,000 mm 0,8 UV-I 105 W/m² 15,6 °C 16,9 °C 0,0 km/h (0 Bft)
22.07.2017 09:35 17,0 °C 17,0 °C 92 % 1013,1 hPa 0,0 mm 0,0 km/h (0 Bft) W-NW 284 ° 0 min 0,000 mm 0,9 UV-I 109 W/m² 15,7 °C 17,0 °C 0,0 km/h (0 Bft)
22.07.2017 09:36 17,0 °C 17,0 °C 92 % 1013,1 hPa 0,0 mm 0,0 km/h (0 Bft) W-NW 284 ° 0 min 0,000 mm 0,9 UV-I 113 W/m² 15,7 °C 17,0 °C 0,0 km/h (0 Bft)
22.07.2017 09:37 17,0 °C 17,0 °C 91 % 1013,1 hPa 0,0 mm 0,0 km/h (0 Bft) W-NW 284 ° 0 min 0,000 mm 0,9 UV-I 116 W/m² 15,5 °C 17,0 °C 0,0 km/h (0 Bft)
22.07.2017 09:38 17,1 °C 17,1 °C 89 % 1013,1 hPa 0,0 mm 0,0 km/h (0 Bft) W-NW 284 ° 0 min 0,000 mm 0,9 UV-I 118 W/m² 15,3 °C 17,1 °C 0,0 km/h (0 Bft)
22.07.2017 09:39 17,1 °C 17,1 °C 89 % 1013,1 hPa 0,0 mm 0,0 km/h (0 Bft) W-NW 284 ° 0 min 0,000 mm 0,9 UV-I 120 W/m² 15,3 °C 17,1 °C 0,0 km/h (0 Bft)
22.07.2017 09:40 17,1 °C 17,1 °C 89 % 1013,1 hPa 0,0 mm 0,0 km/h (0 Bft) W-NW 284 ° 0 min 0,000 mm 0,9 UV-I 116 W/m² 15,3 °C 17,1 °C 0,0 km/h (0 Bft)
22.07.2017 09:41 17,2 °C 17,2 °C 88 % 1013,1 hPa 0,0 mm 0,0 km/h (0 Bft) W-NW 284 ° 0 min 0,000 mm 0,9 UV-I 113 W/m² 15,2 °C 17,2 °C 0,0 km/h (0 Bft)
22.07.2017 09:42 17,2 °C 17,2 °C 88 % 1013,1 hPa 0,0 mm 0,0 km/h (0 Bft) W-NW 284 ° 0 min 0,000 mm 0,9 UV-I 111 W/m² 15,2 °C 17,2 °C 0,0 km/h (0 Bft)
22.07.2017 09:43 17,2 °C 17,2 °C 88 % 1013,1 hPa 0,0 mm 0,0 km/h (0 Bft) W-NW 284 ° 0 min 0,000 mm 0,9 UV-I 109 W/m² 15,2 °C 17,2 °C 0,0 km/h (0 Bft)
22.07.2017 09:44 17,3 °C 17,3 °C 89 % 1013,1 hPa 0,0 mm 0,0 km/h (0 Bft) W-NW 284 ° 0 min 0,000 mm 0,8 UV-I 107 W/m² 15,5 °C 17,3 °C 0,0 km/h (0 Bft)
22.07.2017 09:45 17,3 °C 17,3 °C 89 % 1013,2 hPa 0,0 mm 0,0 km/h (0 Bft) W-NW 284 ° 0 min 0,000 mm 0,8 UV-I 107 W/m² 15,5 °C 17,3 °C 0,0 km/h (0 Bft)
22.07.2017 09:46 17,3 °C 17,3 °C 89 % 1013,1 hPa 0,0 mm 0,0 km/h (0 Bft) W-NW 284 ° 0 min 0,000 mm 0,8 UV-I 107 W/m² 15,5 °C 17,3 °C 0,0 km/h (0 Bft)
22.07.2017 09:47 17,3 °C 17,3 °C 90 % 1013,2 hPa 0,0 mm 0,0 km/h (0 Bft) W-NW 284 ° 0 min 0,000 mm 0,9 UV-I 107 W/m² 15,6 °C 17,3 °C 0,0 km/h (0 Bft)
22.07.2017 09:48 17,3 °C 17,3 °C 89 % 1013,2 hPa 0,0 mm 0,0 km/h (0 Bft) W-NW 284 ° 0 min 0,000 mm 0,9 UV-I 109 W/m² 15,5 °C 17,3 °C 0,0 km/h (0 Bft)
22.07.2017 09:49 17,2 °C 17,3 °C 90 % 1013,2 hPa 0,0 mm 0,0 km/h (0 Bft) W-NW 284 ° 0 min 0,000 mm 0,9 UV-I 109 W/m² 15,5 °C 17,2 °C 0,0 km/h (0 Bft)
22.07.2017 09:50 17,3 °C 17,3 °C 89 % 1013,2 hPa 0,0 mm 0,0 km/h (0 Bft) W-NW 284 ° 0 min 0,000 mm 0,9 UV-I 111 W/m² 15,5 °C 17,3 °C 0,0 km/h (0 Bft)
22.07.2017 09:51 17,3 °C 17,3 °C 90 % 1013,2 hPa 0,0 mm 0,0 km/h (0 Bft) W-NW 284 ° 0 min 0,000 mm 0,9 UV-I 111 W/m² 15,6 °C 17,3 °C 0,0 km/h (0 Bft)
22.07.2017 09:52 17,3 °C 17,3 °C 89 % 1013,2 hPa 0,0 mm 0,0 km/h (0 Bft) W-NW 284 ° 0 min 0,000 mm 0,9 UV-I 113 W/m² 15,5 °C 17,3 °C 0,0 km/h (0 Bft)
22.07.2017 09:53 17,4 °C 17,4 °C 89 % 1013,3 hPa 0,0 mm 0,9 km/h (0 Bft) W-NW 284 ° 0 min 0,000 mm 0,9 UV-I 113 W/m² 15,6 °C 17,4 °C 1,6 km/h (1 Bft)
22.07.2017 09:54 17,4 °C 17,4 °C 89 % 1013,3 hPa 0,0 mm 0,0 km/h (0 Bft) W-NW 284 ° 0 min 0,000 mm 0,9 UV-I 118 W/m² 15,6 °C 17,4 °C 0,0 km/h (0 Bft)
22.07.2017 09:55 17,4 °C 17,4 °C 89 % 1013,3 hPa 0,0 mm 0,0 km/h (0 Bft) W-NW 284 ° 0 min 0,000 mm 1,0 UV-I 123 W/m² 15,6 °C 17,4 °C 0,0 km/h (0 Bft)
22.07.2017 09:56 17,4 °C 17,4 °C 89 % 1013,3 hPa 0,0 mm 0,0 km/h (0 Bft) W-NW 284 ° 0 min 0,000 mm 1,0 UV-I 130 W/m² 15,6 °C 17,4 °C 0,0 km/h (0 Bft)
22.07.2017 09:57 17,4 °C 17,4 °C 89 % 1013,3 hPa 0,0 mm 0,0 km/h (0 Bft) W-NW 284 ° 0 min 0,000 mm 1,1 UV-I 148 W/m² 15,6 °C 17,4 °C 0,0 km/h (0 Bft)
22.07.2017 09:58 17,4 °C 17,4 °C 89 % 1013,3 hPa 0,0 mm 0,0 km/h (0 Bft) W-NW 284 ° 0 min 0,000 mm 1,2 UV-I 155 W/m² 15,6 °C 17,4 °C 0,0 km/h (0 Bft)
22.07.2017 09:59 17,4 °C 17,4 °C 89 % 1013,3 hPa 0,0 mm 0,0 km/h (0 Bft) W-NW 284 ° 0 min 0,000 mm 1,3 UV-I 163 W/m² 15,6 °C 17,4 °C 0,0 km/h (0 Bft)
22.07.2017 10:00 17,4 °C 17,4 °C 89 % 1013,3 hPa 0,0 mm 0,0 km/h (0 Bft) W-NW 284 ° 0 min 0,051 mm 1,4 UV-I 174 W/m² 15,6 °C 17,4 °C 0,0 km/h (0 Bft)
22.07.2017 10:01 17,4 °C 17,4 °C 89 % 1013,3 hPa 0,0 mm 0,0 km/h (0 Bft) W-NW 284 ° 0 min 0,000 mm 1,5 UV-I 185 W/m² 15,6 °C 17,4 °C 0,0 km/h (0 Bft)
22.07.2017 10:02 17,4 °C 17,5 °C 90 % 1013,3 hPa 0,0 mm 0,0 km/h (0 Bft) W-NW 284 ° 0 min 0,000 mm 1,6 UV-I 197 W/m² 15,7 °C 17,4 °C 0,0 km/h (0 Bft)
22.07.2017 10:03 17,5 °C 17,5 °C 90 % 1013,3 hPa 0,0 mm 0,0 km/h (0 Bft) W-NW 284 ° 0 min 0,000 mm 1,7 UV-I 220 W/m² 15,8 °C 17,5 °C 0,0 km/h (0 Bft)
22.07.2017 10:04 17,6 °C 17,6 °C 89 % 1013,3 hPa 0,0 mm 0,0 km/h (0 Bft) W-NW 284 ° 0 min 0,000 mm 1,8 UV-I 227 W/m² 15,8 °C 17,6 °C 0,0 km/h (0 Bft)
22.07.2017 10:05 17,6 °C 17,6 °C 89 % 1013,3 hPa 0,0 mm 0,0 km/h (0 Bft) W-NW 284 ° 0 min 0,000 mm 1,9 UV-I 232 W/m² 15,8 °C 17,6 °C 0,0 km/h (0 Bft)
22.07.2017 10:06 17,6 °C 17,6 °C 89 % 1013,3 hPa 0,0 mm 0,0 km/h (0 Bft) W-NW 284 ° 0 min 0,000 mm 1,9 UV-I 237 W/m² 15,8 °C 17,6 °C 0,0 km/h (0 Bft)
22.07.2017 10:07 17,6 °C 17,6 °C 89 % 1013,3 hPa 0,0 mm 0,0 km/h (0 Bft) W-NW 284 ° 0 min 0,000 mm 2,0 UV-I 243 W/m² 15,8 °C 17,6 °C 0,0 km/h (0 Bft)
22.07.2017 10:08 17,7 °C 17,7 °C 88 % 1013,3 hPa 0,0 mm 0,0 km/h (0 Bft) W-NW 284 ° 0 min 0,000 mm 2,0 UV-I 246 W/m² 15,7 °C 17,7 °C 0,0 km/h (0 Bft)
22.07.2017 10:09 17,7 °C 17,7 °C 88 % 1013,4 hPa 0,0 mm 0,0 km/h (0 Bft) W-NW 284 ° 0 min 0,000 mm 2,0 UV-I 246 W/m² 15,7 °C 17,7 °C 0,0 km/h (0 Bft)
22.07.2017 10:10 17,7 °C 17,7 °C 88 % 1013,3 hPa 0,0 mm 0,0 km/h (0 Bft) W-NW 284 ° 0 min 0,000 mm 2,0 UV-I 246 W/m² 15,7 °C 17,7 °C 0,0 km/h (0 Bft)
22.07.2017 10:11 17,8 °C 17,8 °C 89 % 1013,3 hPa 0,0 mm 0,0 km/h (0 Bft) W-NW 284 ° 0 min 0,000 mm 2,1 UV-I 251 W/m² 16,0 °C 17,8 °C 0,0 km/h (0 Bft)
22.07.2017 10:12 17,8 °C 17,8 °C 88 % 1013,3 hPa 0,0 mm 0,0 km/h (0 Bft) W-NW 284 ° 0 min 0,000 mm 2,2 UV-I 260 W/m² 15,8 °C 17,8 °C 0,0 km/h (0 Bft)
22.07.2017 10:13 17,9 °C 17,9 °C 88 % 1013,3 hPa 0,0 mm 0,0 km/h (0 Bft) W-NW 284 ° 0 min 0,000 mm 2,2 UV-I 271 W/m² 15,9 °C 17,9 °C 0,0 km/h (0 Bft)
22.07.2017 10:14 18,0 °C 18,0 °C 87 % 1013,3 hPa 0,0 mm 0,0 km/h (0 Bft) W-NW 284 ° 0 min 0,000 mm 2,3 UV-I 278 W/m² 15,8 °C 18,0 °C 0,0 km/h (0 Bft)
22.07.2017 10:15 18,1 °C 18,1 °C 87 % 1013,3 hPa 0,0 mm 0,0 km/h (0 Bft) W-NW 284 ° 0 min 0,000 mm 2,3 UV-I 283 W/m² 15,9 °C 18,1 °C 0,0 km/h (0 Bft)
22.07.2017 10:16 18,1 °C 18,2 °C 86 % 1013,4 hPa 0,0 mm 0,0 km/h (0 Bft) W-NW 284 ° 0 min 0,000 mm 2,4 UV-I 283 W/m² 15,7 °C 18,1 °C 0,0 km/h (0 Bft)
22.07.2017 10:17 18,2 °C 18,2 °C 86 % 1013,4 hPa 0,0 mm 0,0 km/h (0 Bft) W-NW 284 ° 1 min 0,000 mm 2,4 UV-I 290 W/m² 15,8 °C 18,2 °C 0,0 km/h (0 Bft)
22.07.2017 10:18 18,2 °C 18,2 °C 86 % 1013,4 hPa 0,0 mm 0,0 km/h (0 Bft) W-NW 284 ° 1 min 0,000 mm 2,5 UV-I 306 W/m² 15,8 °C 18,2 °C 0,0 km/h (0 Bft)
22.07.2017 10:19 18,3 °C 18,3 °C 86 % 1013,3 hPa 0,0 mm 0,0 km/h (0 Bft) W-NW 284 ° 1 min 0,000 mm 2,7 UV-I 327 W/m² 15,9 °C 18,3 °C 0,0 km/h (0 Bft)
22.07.2017 10:20 18,4 °C 18,4 °C 87 % 1013,3 hPa 0,0 mm 0,6 km/h (0 Bft) W-NW 294 ° 1 min 0,000 mm 3,1 UV-I 374 W/m² 16,2 °C 18,4 °C 3,2 km/h (1 Bft)
22.07.2017 10:21 18,5 °C 18,6 °C 88 % 1013,3 hPa 0,0 mm 0,8 km/h (0 Bft) W-NW 294 ° 1 min 0,000 mm 3,0 UV-I 397 W/m² 16,5 °C 18,5 °C 3,2 km/h (1 Bft)
22.07.2017 10:22 18,6 °C 18,6 °C 84 % 1013,3 hPa 0,0 mm 1,5 km/h (1 Bft) NW 304 ° 1 min 0,000 mm 3,0 UV-I 411 W/m² 15,8 °C 18,6 °C 3,2 km/h (1 Bft)
22.07.2017 10:23 18,5 °C 18,6 °C 83 % 1013,3 hPa 0,0 mm 2,4 km/h (1 Bft) N-NW 336 ° 1 min 0,000 mm 4,5 UV-I 450 W/m² 15,6 °C 18,5 °C 4,8 km/h (1 Bft)
22.07.2017 10:24 18,5 °C 18,6 °C 82 % 1013,3 hPa 0,0 mm 2,7 km/h (1 Bft) N-NW 336 ° 1 min 0,000 mm 3,1 UV-I 404 W/m² 15,4 °C 18,5 °C 4,8 km/h (1 Bft)
22.07.2017 10:25 18,6 °C 18,6 °C 83 % 1013,3 hPa 0,0 mm 3,4 km/h (1 Bft) N-NO 28 ° 1 min 0,000 mm 3,1 UV-I 385 W/m² 15,7 °C 18,6 °C 4,8 km/h (1 Bft)
22.07.2017 10:26 18,6 °C 18,7 °C 83 % 1013,4 hPa 0,0 mm 4,6 km/h (1 Bft) N-NO 28 ° 1 min 0,000 mm 3,3 UV-I 403 W/m² 15,7 °C 18,6 °C 6,4 km/h (2 Bft)
22.07.2017 10:27 18,7 °C 18,7 °C 82 % 1013,4 hPa 0,0 mm 4,8 km/h (1 Bft) NO 47 ° 1 min 0,000 mm 3,0 UV-I 378 W/m² 15,6 °C 18,7 °C 6,4 km/h (2 Bft)
22.07.2017 10:28 18,7 °C 18,7 °C 82 % 1013,4 hPa 0,0 mm 1,5 km/h (1 Bft) NO 47 ° 1 min 0,000 mm 3,2 UV-I 388 W/m² 15,6 °C 18,7 °C 3,2 km/h (1 Bft)
22.07.2017 10:29 18,8 °C 18,8 °C 85 % 1013,3 hPa 0,0 mm 1,9 km/h (1 Bft) NO 47 ° 1 min 0,000 mm 3,2 UV-I 369 W/m² 16,2 °C 18,8 °C 3,2 km/h (1 Bft)
22.07.2017 10:30 18,8 °C 18,8 °C 83 % 1013,3 hPa 0,0 mm 2,2 km/h (1 Bft) NO 47 ° 1 min 0,000 mm 3,1 UV-I 346 W/m² 15,8 °C 18,8 °C 3,2 km/h (1 Bft)
22.07.2017 10:31 18,8 °C 18,8 °C 82 % 1013,4 hPa 0,0 mm 2,8 km/h (1 Bft) NO 50 ° 1 min 0,000 mm 3,5 UV-I 373 W/m² 15,7 °C 18,8 °C 4,8 km/h (1 Bft)
22.07.2017 10:32 18,9 °C 18,9 °C 80 % 1013,4 hPa 0,0 mm 2,3 km/h (1 Bft) NO 50 ° 1 min 0,000 mm 4,7 UV-I 373 W/m² 15,4 °C 18,9 °C 4,8 km/h (1 Bft)
22.07.2017 10:33 18,9 °C 18,9 °C 79 % 1013,4 hPa 0,0 mm 3,0 km/h (1 Bft) NO 49 ° 1 min 0,000 mm 4,2 UV-I 373 W/m² 15,2 °C 18,9 °C 4,8 km/h (1 Bft)
22.07.2017 10:34 18,9 °C 18,9 °C 78 % 1013,4 hPa 0,0 mm 1,1 km/h (1 Bft) NO 49 ° 1 min 0,000 mm 4,8 UV-I 373 W/m² 15,0 °C 18,9 °C 4,8 km/h (1 Bft)
22.07.2017 10:35 19,1 °C 19,1 °C 83 % 1013,4 hPa 0,0 mm 2,5 km/h (1 Bft) NO 49 ° 1 min 0,000 mm 5,1 UV-I 563 W/m² 16,1 °C 19,1 °C 4,8 km/h (1 Bft)
22.07.2017 10:36 19,2 °C 19,2 °C 78 % 1013,4 hPa 0,0 mm 2,1 km/h (1 Bft) NO 49 ° 1 min 0,000 mm 6,1 UV-I 563 W/m² 15,3 °C 19,2 °C 3,2 km/h (1 Bft)
22.07.2017 10:37 19,3 °C 19,3 °C 78 % 1013,4 hPa 0,0 mm 1,7 km/h (1 Bft) NO 49 ° 1 min 0,000 mm 6,1 UV-I 563 W/m² 15,4 °C 19,3 °C 4,8 km/h (1 Bft)
22.07.2017 10:38 19,4 °C 19,4 °C 80 % 1013,3 hPa 0,0 mm 2,9 km/h (1 Bft) NO 38 ° 1 min 0,000 mm 5,8 UV-I 875 W/m² 15,9 °C 19,4 °C 4,8 km/h (1 Bft)
22.07.2017 10:39 19,7 °C 19,7 °C 85 % 1013,3 hPa 0,0 mm 3,8 km/h (1 Bft) NO 36 ° 1 min 0,000 mm 5,6 UV-I 875 W/m² 17,1 °C 19,7 °C 4,8 km/h (1 Bft)
22.07.2017 10:40 19,9 °C 19,9 °C 82 % 1013,3 hPa 0,0 mm 2,3 km/h (1 Bft) NO 36 ° 1 min 0,000 mm 4,0 UV-I 557 W/m² 16,7 °C 19,9 °C 4,8 km/h (1 Bft)
22.07.2017 10:41 19,8 °C 19,9 °C 78 % 1013,4 hPa 0,0 mm 1,7 km/h (1 Bft) O 94 ° 1 min 0,000 mm 3,3 UV-I 557 W/m² 15,8 °C 19,8 °C 3,2 km/h (1 Bft)
22.07.2017 10:42 19,7 °C 19,8 °C 78 % 1013,3 hPa 0,0 mm 3,4 km/h (1 Bft) O-NO 67 ° 1 min 0,000 mm 3,2 UV-I 339 W/m² 15,8 °C 19,7 °C 6,4 km/h (2 Bft)
22.07.2017 10:43 19,7 °C 19,7 °C 80 % 1013,3 hPa 0,0 mm 2,4 km/h (1 Bft) NO 40 ° 1 min 0,000 mm 3,1 UV-I 329 W/m² 16,1 °C 19,7 °C 4,8 km/h (1 Bft)
22.07.2017 10:44 19,6 °C 19,7 °C 77 % 1013,4 hPa 0,0 mm 3,6 km/h (1 Bft) O-NO 71 ° 1 min 0,000 mm 3,1 UV-I 313 W/m² 15,5 °C 19,6 °C 6,4 km/h (2 Bft)
22.07.2017 10:45 19,4 °C 19,6 °C 77 % 1013,4 hPa 0,0 mm 1,9 km/h (1 Bft) O 94 ° 1 min 0,000 mm 3,1 UV-I 313 W/m² 15,3 °C 19,4 °C 3,2 km/h (1 Bft)
22.07.2017 10:46 19,4 °C 19,4 °C 79 % 1013,4 hPa 0,0 mm 3,3 km/h (1 Bft) NO 55 ° 1 min 0,000 mm 3,1 UV-I 320 W/m² 15,7 °C 19,4 °C 6,4 km/h (2 Bft)
22.07.2017 10:47 19,4 °C 19,4 °C 78 % 1013,4 hPa 0,0 mm 0,9 km/h (0 Bft) NO 55 ° 1 min 0,000 mm 3,3 UV-I 336 W/m² 15,5 °C 19,4 °C 3,2 km/h (1 Bft)
22.07.2017 10:48 19,4 °C 19,4 °C 79 % 1013,4 hPa 0,0 mm 3,2 km/h (1 Bft) O-NO 64 ° 1 min 0,000 mm 3,7 UV-I 336 W/m² 15,7 °C 19,4 °C 4,8 km/h (1 Bft)
22.07.2017 10:49 19,4 °C 19,4 °C 79 % 1013,4 hPa 0,0 mm 3,4 km/h (1 Bft) NO 46 ° 1 min 0,000 mm 4,2 UV-I 492 W/m² 15,7 °C 19,4 °C 4,8 km/h (1 Bft)
22.07.2017 10:50 19,5 °C 19,5 °C 79 % 1013,4 hPa 0,0 mm 2,9 km/h (1 Bft) NO 46 ° 1 min 0,000 mm 4,9 UV-I 698 W/m² 15,8 °C 19,5 °C 4,8 km/h (1 Bft)
22.07.2017 10:51 19,6 °C 19,6 °C 77 % 1013,4 hPa 0,0 mm 4,8 km/h (1 Bft) O 82 ° 1 min 0,000 mm 6,3 UV-I 698 W/m² 15,5 °C 19,6 °C 6,4 km/h (2 Bft)
22.07.2017 10:52 19,7 °C 19,7 °C 78 % 1013,4 hPa 0,0 mm 3,5 km/h (1 Bft) O 92 ° 1 min 0,000 mm 3,8 UV-I 698 W/m² 15,8 °C 19,7 °C 6,4 km/h (2 Bft)
22.07.2017 10:53 19,7 °C 19,7 °C 79 % 1013,4 hPa 0,0 mm 4,8 km/h (1 Bft) O-NO 67 ° 1 min 0,000 mm 6,3 UV-I 698 W/m² 16,0 °C 19,7 °C 6,4 km/h (2 Bft)
22.07.2017 10:54 19,8 °C 19,8 °C 82 % 1013,5 hPa 0,0 mm 3,0 km/h (1 Bft) O-NO 67 ° 1 min 0,000 mm 3,5 UV-I 698 W/m² 16,6 °C 19,8 °C 6,4 km/h (2 Bft)
22.07.2017 10:55 19,8 °C 19,8 °C 78 % 1013,4 hPa 0,0 mm 0,8 km/h (0 Bft) O-NO 67 ° 1 min 0,000 mm 3,4 UV-I 394 W/m² 15,8 °C 19,8 °C 1,6 km/h (1 Bft)
22.07.2017 10:56 19,9 °C 19,9 °C 79 % 1013,5 hPa 0,0 mm 0,5 km/h (0 Bft) O-NO 65 ° 1 min 0,000 mm 3,4 UV-I 445 W/m² 16,1 °C 19,9 °C 3,2 km/h (1 Bft)
22.07.2017 10:57 20,0 °C 20,0 °C 80 % 1013,4 hPa 0,0 mm 0,7 km/h (0 Bft) O-NO 65 ° 1 min 0,000 mm 3,7 UV-I 455 W/m² 16,4 °C 20,0 °C 3,2 km/h (1 Bft)
22.07.2017 10:58 20,0 °C 20,0 °C 78 % 1013,4 hPa 0,0 mm 3,5 km/h (1 Bft) NO 50 ° 1 min 0,000 mm 3,8 UV-I 464 W/m² 16,0 °C 20,0 °C 4,8 km/h (1 Bft)
22.07.2017 10:59 19,9 °C 20,0 °C 77 % 1013,4 hPa 0,0 mm 4,1 km/h (1 Bft) NO 53 ° 1 min 0,000 mm 3,8 UV-I 469 W/m² 15,7 °C 19,9 °C 6,4 km/h (2 Bft)
22.07.2017 11:00 20,0 °C 20,0 °C 77 % 1013,5 hPa 0,0 mm 5,3 km/h (1 Bft) NO 51 ° 1 min 0,000 mm 3,9 UV-I 483 W/m² 15,8 °C 20,0 °C 8,0 km/h (2 Bft)
22.07.2017 11:01 20,0 °C 20,0 °C 76 % 1013,4 hPa 0,0 mm 4,7 km/h (1 Bft) O-NO 59 ° 1 min 0,254 mm 4,2 UV-I 526 W/m² 15,6 °C 20,0 °C 8,0 km/h (2 Bft)
22.07.2017 11:02 19,9 °C 20,0 °C 76 % 1013,5 hPa 0,0 mm 2,3 km/h (1 Bft) O-NO 59 ° 1 min 0,000 mm 4,1 UV-I 578 W/m² 15,5 °C 19,9 °C 4,8 km/h (1 Bft)
22.07.2017 11:03 19,9 °C 19,9 °C 77 % 1013,5 hPa 0,0 mm 2,4 km/h (1 Bft) O-NO 57 ° 1 min 0,000 mm 4,1 UV-I 512 W/m² 15,7 °C 19,9 °C 4,8 km/h (1 Bft)
22.07.2017 11:04 20,0 °C 20,0 °C 77 % 1013,5 hPa 0,0 mm 2,4 km/h (1 Bft) O-NO 57 ° 1 min 0,000 mm 4,4 UV-I 547 W/m² 15,8 °C 20,0 °C 4,8 km/h (1 Bft)
22.07.2017 11:05 20,0 °C 20,0 °C 76 % 1013,5 hPa 0,0 mm 0,1 km/h (0 Bft) O-NO 59 ° 1 min 0,000 mm 4,3 UV-I 617 W/m² 15,6 °C 20,0 °C 1,6 km/h (1 Bft)
22.07.2017 11:06 20,0 °C 20,0 °C 77 % 1013,5 hPa 0,0 mm 0,3 km/h (0 Bft) O-NO 59 ° 1 min 0,000 mm 4,7 UV-I 622 W/m² 15,8 °C 20,0 °C 1,6 km/h (1 Bft)
22.07.2017 11:07 20,1 °C 20,1 °C 77 % 1013,5 hPa 0,0 mm 1,8 km/h (1 Bft) O-NO 59 ° 1 min 0,000 mm 4,6 UV-I 585 W/m² 15,9 °C 20,1 °C 3,2 km/h (1 Bft)
22.07.2017 11:08 20,1 °C 20,1 °C 76 % 1013,5 hPa 0,0 mm 5,5 km/h (1 Bft) O-NO 75 ° 1 min 0,000 mm 4,3 UV-I 534 W/m² 15,7 °C 20,1 °C 8,0 km/h (2 Bft)
22.07.2017 11:09 20,1 °C 20,2 °C 76 % 1013,5 hPa 0,0 mm 4,5 km/h (1 Bft) O-NO 74 ° 1 min 0,000 mm 4,7 UV-I 534 W/m² 15,7 °C 20,1 °C 4,8 km/h (1 Bft)
22.07.2017 11:10 20,1 °C 20,2 °C 75 % 1013,5 hPa 0,0 mm 3,4 km/h (1 Bft) O-NO 78 ° 1 min 0,000 mm 4,5 UV-I 712 W/m² 15,5 °C 20,1 °C 4,8 km/h (1 Bft)
22.07.2017 11:11 20,2 °C 20,2 °C 76 % 1013,5 hPa 0,0 mm 3,0 km/h (1 Bft) NO 46 ° 1 min 0,000 mm 4,4 UV-I 712 W/m² 15,8 °C 20,2 °C 4,8 km/h (1 Bft)
22.07.2017 11:12 20,2 °C 20,2 °C 75 % 1013,5 hPa 0,0 mm 3,2 km/h (1 Bft) O-NO 57 ° 1 min 0,000 mm 4,5 UV-I 577 W/m² 15,6 °C 20,2 °C 6,4 km/h (2 Bft)
22.07.2017 11:13 20,3 °C 20,3 °C 73 % 1013,5 hPa 0,0 mm 4,5 km/h (1 Bft) NO 52 ° 1 min 0,000 mm 4,4 UV-I 610 W/m² 15,3 °C 20,3 °C 6,4 km/h (2 Bft)
22.07.2017 11:14 20,3 °C 20,3 °C 73 % 1013,5 hPa 0,0 mm 4,5 km/h (1 Bft) NO 52 ° 1 min 0,000 mm 4,5 UV-I 515 W/m² 15,3 °C 20,3 °C 6,4 km/h (2 Bft)
22.07.2017 11:15 20,3 °C 20,3 °C 73 % 1013,5 hPa 0,0 mm 0,8 km/h (0 Bft) NO 53 ° 1 min 0,000 mm 4,4 UV-I 515 W/m² 15,3 °C 20,3 °C 3,2 km/h (1 Bft)
22.07.2017 11:16 20,3 °C 20,3 °C 74 % 1013,5 hPa 0,0 mm 4,1 km/h (1 Bft) NO 51 ° 1 min 0,000 mm 4,0 UV-I 515 W/m² 15,5 °C 20,3 °C 4,8 km/h (1 Bft)
22.07.2017 11:17 20,3 °C 20,3 °C 72 % 1013,5 hPa 0,0 mm 1,8 km/h (1 Bft) NO 51 ° 1 min 0,000 mm 3,9 UV-I 464 W/m² 15,1 °C 20,3 °C 3,2 km/h (1 Bft)
22.07.2017 11:18 20,3 °C 20,3 °C 71 % 1013,5 hPa 0,0 mm 0,8 km/h (0 Bft) NO 51 ° 1 min 0,000 mm 4,0 UV-I 455 W/m² 14,9 °C 20,3 °C 3,2 km/h (1 Bft)
22.07.2017 11:19 20,3 °C 20,3 °C 73 % 1013,5 hPa 0,0 mm 0,5 km/h (0 Bft) NO 51 ° 1 min 0,000 mm 3,9 UV-I 438 W/m² 15,3 °C 20,3 °C 1,6 km/h (1 Bft)
22.07.2017 11:20 20,4 °C 20,4 °C 80 % 1013,5 hPa 0,0 mm 1,8 km/h (1 Bft) N-NO 20 ° 1 min 0,000 mm 3,9 UV-I 438 W/m² 16,8 °C 20,4 °C 4,8 km/h (1 Bft)
22.07.2017 11:21 20,6 °C 20,6 °C 80 % 1013,4 hPa 0,0 mm 1,7 km/h (1 Bft) N-NO 17 ° 1 min 0,000 mm 4,1 UV-I 466 W/m² 17,0 °C 20,6 °C 3,2 km/h (1 Bft)
22.07.2017 11:22 20,7 °C 20,7 °C 76 % 1013,4 hPa 0,0 mm 3,7 km/h (1 Bft) N-NO 17 ° 1 min 0,000 mm 4,3 UV-I 499 W/m² 16,3 °C 20,7 °C 4,8 km/h (1 Bft)
22.07.2017 11:23 20,7 °C 20,7 °C 76 % 1013,5 hPa 0,0 mm 2,2 km/h (1 Bft) N-NO 17 ° 1 min 0,000 mm 4,6 UV-I 536 W/m² 16,3 °C 20,7 °C 3,2 km/h (1 Bft)
22.07.2017 11:24 20,8 °C 20,8 °C 74 % 1013,4 hPa 0,0 mm 0,5 km/h (0 Bft) N-NO 17 ° 1 min 0,000 mm 5,1 UV-I 621 W/m² 16,0 °C 20,8 °C 3,2 km/h (1 Bft)
22.07.2017 11:25 20,8 °C 20,8 °C 73 % 1013,4 hPa 0,0 mm 1,4 km/h (1 Bft) N-NO 17 ° 1 min 0,000 mm 5,0 UV-I 552 W/m² 15,8 °C 20,8 °C 1,6 km/h (1 Bft)
22.07.2017 11:26 20,8 °C 20,8 °C 77 % 1013,4 hPa 0,0 mm 3,2 km/h (1 Bft) N-NO 31 ° 1 min 0,000 mm 4,5 UV-I 517 W/m² 16,6 °C 20,8 °C 4,8 km/h (1 Bft)
22.07.2017 11:27 20,8 °C 20,8 °C 71 % 1013,4 hPa 0,0 mm 2,5 km/h (1 Bft) O-NO 64 ° 1 min 0,000 mm 4,5 UV-I 608 W/m² 15,3 °C 20,8 °C 4,8 km/h (1 Bft)
22.07.2017 11:28 20,7 °C 20,8 °C 73 % 1013,4 hPa 0,0 mm 2,5 km/h (1 Bft) O-NO 64 ° 1 min 0,000 mm 5,3 UV-I 608 W/m² 15,7 °C 20,7 °C 3,2 km/h (1 Bft)
22.07.2017 11:29 20,8 °C 20,8 °C 73 % 1013,4 hPa 0,0 mm 2,6 km/h (1 Bft) O-NO 63 ° 1 min 0,000 mm 5,2 UV-I 608 W/m² 15,8 °C 20,8 °C 3,2 km/h (1 Bft)
22.07.2017 11:30 20,9 °C 20,9 °C 72 % 1013,4 hPa 0,0 mm 1,5 km/h (1 Bft) O-NO 64 ° 1 min 0,000 mm 5,7 UV-I 608 W/m² 15,7 °C 20,9 °C 3,2 km/h (1 Bft)
22.07.2017 11:31 20,9 °C 20,9 °C 74 % 1013,4 hPa 0,0 mm 3,0 km/h (1 Bft) O-NO 64 ° 1 min 0,000 mm 4,5 UV-I 673 W/m² 16,1 °C 20,9 °C 4,8 km/h (1 Bft)
22.07.2017 11:32 20,8 °C 20,9 °C 69 % 1013,5 hPa 0,0 mm 1,6 km/h (1 Bft) O-NO 64 ° 1 min 0,000 mm 5,5 UV-I 740 W/m² 14,9 °C 20,8 °C 3,2 km/h (1 Bft)
22.07.2017 11:33 20,7 °C 20,8 °C 69 % 1013,4 hPa 0,0 mm 2,0 km/h (1 Bft) O-SO 109 ° 1 min 0,000 mm 5,2 UV-I 740 W/m² 14,8 °C 20,7 °C 4,8 km/h (1 Bft)
22.07.2017 11:34 20,7 °C 20,7 °C 69 % 1013,5 hPa 0,0 mm 0,8 km/h (0 Bft) O-NO 67 ° 1 min 0,000 mm 6,1 UV-I 684 W/m² 14,8 °C 20,7 °C 3,2 km/h (1 Bft)
22.07.2017 11:35 20,8 °C 20,8 °C 70 % 1013,5 hPa 0,0 mm 3,1 km/h (1 Bft) NO 52 ° 1 min 0,000 mm 5,2 UV-I 628 W/m² 15,1 °C 20,8 °C 4,8 km/h (1 Bft)
22.07.2017 11:36 20,9 °C 20,9 °C 73 % 1013,4 hPa 0,0 mm 4,1 km/h (1 Bft) N 360 ° 1 min 0,000 mm 5,3 UV-I 547 W/m² 15,9 °C 20,9 °C 6,4 km/h (2 Bft)
22.07.2017 11:37 20,9 °C 20,9 °C 73 % 1013,5 hPa 0,0 mm 2,9 km/h (1 Bft) N-NO 13 ° 1 min 0,000 mm 4,6 UV-I 598 W/m² 15,9 °C 20,9 °C 4,8 km/h (1 Bft)
22.07.2017 11:38 21,0 °C 21,0 °C 73 % 1013,4 hPa 0,0 mm 4,2 km/h (1 Bft) O-NO 57 ° 1 min 0,000 mm 4,5 UV-I 459 W/m² 16,0 °C 21,0 °C 6,4 km/h (2 Bft)
22.07.2017 11:39 21,1 °C 21,1 °C 71 % 1013,5 hPa 0,0 mm 3,8 km/h (1 Bft) NO 41 ° 1 min 0,000 mm 4,5 UV-I 432 W/m² 15,6 °C 21,1 °C 6,4 km/h (2 Bft)
22.07.2017 11:40 21,1 °C 21,1 °C 68 % 1013,4 hPa 0,0 mm 0,8 km/h (0 Bft) NO 41 ° 1 min 0,000 mm 4,6 UV-I 455 W/m² 15,0 °C 21,1 °C 3,2 km/h (1 Bft)
22.07.2017 11:41 21,1 °C 21,1 °C 70 % 1013,5 hPa 0,0 mm 3,5 km/h (1 Bft) N 5 ° 1 min 0,000 mm 4,4 UV-I 424 W/m² 15,4 °C 21,1 °C 4,8 km/h (1 Bft)
22.07.2017 11:42 21,1 °C 21,1 °C 71 % 1013,5 hPa 0,0 mm 5,9 km/h (2 Bft) N-NO 29 ° 1 min 0,000 mm 4,1 UV-I 364 W/m² 15,6 °C 21,1 °C 8,0 km/h (2 Bft)
22.07.2017 11:43 21,1 °C 21,1 °C 73 % 1013,5 hPa 0,0 mm 3,2 km/h (1 Bft) NO 45 ° 1 min 0,000 mm 4,1 UV-I 336 W/m² 16,1 °C 21,1 °C 6,4 km/h (2 Bft)
22.07.2017 11:44 21,1 °C 21,1 °C 71 % 1013,5 hPa 0,0 mm 3,5 km/h (1 Bft) NO 36 ° 1 min 0,000 mm 4,7 UV-I 383 W/m² 15,6 °C 21,1 °C 4,8 km/h (1 Bft)
22.07.2017 11:45 21,1 °C 21,1 °C 72 % 1013,5 hPa 0,0 mm 3,1 km/h (1 Bft) NO 39 ° 1 min 0,000 mm 7,0 UV-I 383 W/m² 15,8 °C 21,1 °C 4,8 km/h (1 Bft)
22.07.2017 11:46 21,1 °C 21,2 °C 72 % 1013,5 hPa 0,0 mm 1,9 km/h (1 Bft) NO 40 ° 1 min 0,000 mm 6,9 UV-I 383 W/m² 15,8 °C 21,1 °C 3,2 km/h (1 Bft)
22.07.2017 11:47 21,2 °C 21,2 °C 73 % 1013,5 hPa 0,0 mm 3,4 km/h (1 Bft) NO 46 ° 1 min 0,000 mm 7,2 UV-I 383 W/m² 16,2 °C 21,2 °C 4,8 km/h (1 Bft)
22.07.2017 11:48 21,2 °C 21,2 °C 70 % 1013,4 hPa 0,0 mm 3,2 km/h (1 Bft) NO 53 ° 1 min 0,000 mm 6,9 UV-I 383 W/m² 15,5 °C 21,2 °C 4,8 km/h (1 Bft)
22.07.2017 11:49 21,3 °C 21,3 °C 72 % 1013,5 hPa 0,0 mm 3,9 km/h (1 Bft) N-NW 344 ° 1 min 0,000 mm 6,4 UV-I 865 W/m² 16,0 °C 21,3 °C 6,4 km/h (2 Bft)
22.07.2017 11:50 21,5 °C 21,5 °C 72 % 1013,5 hPa 0,0 mm 4,5 km/h (1 Bft) N-NW 341 ° 1 min 0,000 mm 6,7 UV-I 849 W/m² 16,2 °C 21,5 °C 6,4 km/h (2 Bft)
22.07.2017 11:51 21,8 °C 21,8 °C 72 % 1013,4 hPa 0,0 mm 3,0 km/h (1 Bft) N-NW 346 ° 1 min 0,000 mm 6,7 UV-I 844 W/m² 16,5 °C 21,8 °C 4,8 km/h (1 Bft)
22.07.2017 11:52 21,8 °C 21,8 °C 68 % 1013,4 hPa 0,0 mm 4,4 km/h (1 Bft) N 9 ° 1 min 0,000 mm 6,7 UV-I 837 W/m² 15,6 °C 21,8 °C 6,4 km/h (2 Bft)
22.07.2017 11:53 21,8 °C 21,8 °C 66 % 1013,4 hPa 0,0 mm 5,6 km/h (1 Bft) N 5 ° 1 min 0,000 mm 6,7 UV-I 838 W/m² 15,2 °C 21,8 °C 8,0 km/h (2 Bft)
22.07.2017 11:54 21,7 °C 21,8 °C 66 % 1013,4 hPa 0,0 mm 3,9 km/h (1 Bft) N 5 ° 1 min 0,000 mm 6,7 UV-I 838 W/m² 15,1 °C 21,7 °C 6,4 km/h (2 Bft)
22.07.2017 11:55 21,7 °C 21,7 °C 69 % 1013,5 hPa 0,0 mm 3,6 km/h (1 Bft) N 355 ° 1 min 0,000 mm 6,7 UV-I 838 W/m² 15,8 °C 21,7 °C 4,8 km/h (1 Bft)
22.07.2017 11:56 21,6 °C 21,7 °C 65 % 1013,4 hPa 0,0 mm 3,8 km/h (1 Bft) NO 51 ° 1 min 0,000 mm 6,7 UV-I 838 W/m² 14,7 °C 21,6 °C 8,0 km/h (2 Bft)
22.07.2017 11:57 21,6 °C 21,6 °C 67 % 1013,4 hPa 0,0 mm 2,4 km/h (1 Bft) NO 43 ° 1 min 0,000 mm 6,7 UV-I 844 W/m² 15,2 °C 21,6 °C 3,2 km/h (1 Bft)
22.07.2017 11:58 21,5 °C 21,6 °C 68 % 1013,4 hPa 0,0 mm 5,0 km/h (1 Bft) N-NW 348 ° 1 min 0,000 mm 6,7 UV-I 846 W/m² 15,3 °C 21,5 °C 8,0 km/h (2 Bft)
22.07.2017 11:59 21,6 °C 21,6 °C 67 % 1013,4 hPa 0,0 mm 4,6 km/h (1 Bft) N-NO 12 ° 1 min 0,000 mm 6,8 UV-I 849 W/m² 15,2 °C 21,6 °C 6,4 km/h (2 Bft)
22.07.2017 12:00 21,7 °C 21,7 °C 68 % 1013,4 hPa 0,0 mm 0,5 km/h (0 Bft) N-NO 12 ° 1 min 0,381 mm 6,8 UV-I 865 W/m² 15,5 °C 21,7 °C 3,2 km/h (1 Bft)
22.07.2017 12:01 21,7 °C 21,7 °C 66 % 1013,4 hPa 0,0 mm 0,6 km/h (0 Bft) N-NO 12 ° 1 min 0,000 mm 6,8 UV-I 868 W/m² 15,1 °C 21,7 °C 1,6 km/h (1 Bft)
22.07.2017 12:02 21,7 °C 21,7 °C 70 % 1013,4 hPa 0,0 mm 3,4 km/h (1 Bft) N-NO 12 ° 1 min 0,000 mm 4,3 UV-I 868 W/m² 16,0 °C 21,7 °C 4,8 km/h (1 Bft)
22.07.2017 12:03 21,8 °C 21,8 °C 68 % 1013,4 hPa 0,0 mm 2,8 km/h (1 Bft) N-NO 12 ° 1 min 0,000 mm 3,1 UV-I 868 W/m² 15,6 °C 21,8 °C 4,8 km/h (1 Bft)
22.07.2017 12:04 21,8 °C 21,8 °C 63 % 1013,4 hPa 0,0 mm 2,1 km/h (1 Bft) NW 312 ° 1 min 0,000 mm 6,9 UV-I 868 W/m² 14,4 °C 21,8 °C 4,8 km/h (1 Bft)
22.07.2017 12:05 21,7 °C 21,8 °C 63 % 1013,4 hPa 0,0 mm 0,4 km/h (0 Bft) NW 312 ° 1 min 0,000 mm 6,9 UV-I 886 W/m² 14,3 °C 21,7 °C 3,2 km/h (1 Bft)
22.07.2017 12:06 21,6 °C 21,7 °C 65 % 1013,4 hPa 0,0 mm 1,5 km/h (1 Bft) N-NW 329 ° 1 min 0,000 mm 6,9 UV-I 867 W/m² 14,7 °C 21,6 °C 3,2 km/h (1 Bft)
22.07.2017 12:07 21,7 °C 21,7 °C 67 % 1013,4 hPa 0,0 mm 6,2 km/h (2 Bft) N-NW 333 ° 1 min 0,000 mm 6,9 UV-I 865 W/m² 15,3 °C 21,7 °C 9,7 km/h (2 Bft)
22.07.2017 12:08 21,8 °C 21,8 °C 67 % 1013,5 hPa 0,0 mm 4,8 km/h (1 Bft) N 5 ° 1 min 0,000 mm 6,9 UV-I 865 W/m² 15,4 °C 21,8 °C 6,4 km/h (2 Bft)
22.07.2017 12:09 21,9 °C 21,9 °C 67 % 1013,5 hPa 0,0 mm 3,5 km/h (1 Bft) N-NW 329 ° 1 min 0,000 mm 6,9 UV-I 865 W/m² 15,5 °C 21,9 °C 6,4 km/h (2 Bft)
22.07.2017 12:10 22,0 °C 22,0 °C 66 % 1013,5 hPa 0,0 mm 3,9 km/h (1 Bft) NO 34 ° 1 min 0,000 mm 6,9 UV-I 868 W/m² 15,3 °C 22,0 °C 9,7 km/h (2 Bft)
22.07.2017 12:11 22,1 °C 22,1 °C 65 % 1013,5 hPa 0,0 mm 5,3 km/h (1 Bft) N-NO 28 ° 1 min 0,000 mm 6,9 UV-I 872 W/m² 15,2 °C 22,1 °C 6,4 km/h (2 Bft)
22.07.2017 12:12 22,1 °C 22,1 °C 64 % 1013,4 hPa 0,0 mm 5,6 km/h (1 Bft) N-NO 13 ° 1 min 0,000 mm 3,1 UV-I 872 W/m² 15,0 °C 22,1 °C 8,0 km/h (2 Bft)
22.07.2017 12:13 22,0 °C 22,1 °C 63 % 1013,4 hPa 0,0 mm 4,2 km/h (1 Bft) N 5 ° 1 min 0,000 mm 7,0 UV-I 872 W/m² 14,6 °C 22,0 °C 6,4 km/h (2 Bft)
22.07.2017 12:14 22,1 °C 22,1 °C 67 % 1013,4 hPa 0,0 mm 5,2 km/h (1 Bft) N 350 ° 1 min 0,000 mm 7,0 UV-I 872 W/m² 15,7 °C 22,1 °C 8,0 km/h (2 Bft)
22.07.2017 12:15 22,2 °C 22,2 °C 64 % 1013,4 hPa 0,0 mm 7,0 km/h (2 Bft) N 351 ° 1 min 0,000 mm 7,0 UV-I 870 W/m² 15,1 °C 22,2 °C 9,7 km/h (2 Bft)
22.07.2017 12:16 22,3 °C 22,3 °C 66 % 1013,4 hPa 0,0 mm 3,6 km/h (1 Bft) NW 314 ° 1 min 0,000 mm 7,0 UV-I 865 W/m² 15,6 °C 22,3 °C 8,0 km/h (2 Bft)
22.07.2017 12:17 22,3 °C 22,3 °C 64 % 1013,4 hPa 0,0 mm 1,7 km/h (1 Bft) N-NW 346 ° 1 min 0,000 mm 7,0 UV-I 867 W/m² 15,2 °C 22,3 °C 3,2 km/h (1 Bft)
22.07.2017 12:18 22,4 °C 22,4 °C 69 % 1013,4 hPa 0,0 mm 4,1 km/h (1 Bft) N-NO 17 ° 1 min 0,000 mm 7,0 UV-I 877 W/m² 16,4 °C 22,4 °C 6,4 km/h (2 Bft)
22.07.2017 12:19 22,5 °C 22,5 °C 65 % 1013,4 hPa 0,0 mm 4,5 km/h (1 Bft) N 355 ° 1 min 0,000 mm 7,1 UV-I 882 W/m² 15,6 °C 22,5 °C 6,4 km/h (2 Bft)
22.07.2017 12:20 22,7 °C 22,7 °C 67 % 1013,4 hPa 0,0 mm 4,4 km/h (1 Bft) N 355 ° 1 min 0,000 mm 5,9 UV-I 905 W/m² 16,2 °C 22,7 °C 6,4 km/h (2 Bft)
22.07.2017 12:21 22,6 °C 22,7 °C 69 % 1013,4 hPa 0,0 mm 5,2 km/h (1 Bft) O-NO 64 ° 1 min 0,000 mm 3,1 UV-I 905 W/m² 16,6 °C 22,6 °C 6,4 km/h (2 Bft)
22.07.2017 12:22 22,5 °C 22,6 °C 68 % 1013,4 hPa 0,0 mm 4,0 km/h (1 Bft) N-NO 23 ° 1 min 0,000 mm 3,1 UV-I 905 W/m² 16,3 °C 22,5 °C 8,0 km/h (2 Bft)
22.07.2017 12:23 22,4 °C 22,5 °C 65 % 1013,4 hPa 0,0 mm 5,3 km/h (1 Bft) NW 321 ° 1 min 0,000 mm 7,2 UV-I 896 W/m² 15,5 °C 22,4 °C 8,0 km/h (2 Bft)
22.07.2017 12:24 22,3 °C 22,4 °C 63 % 1013,4 hPa 0,0 mm 2,4 km/h (1 Bft) NW 316 ° 1 min 0,000 mm 7,2 UV-I 898 W/m² 14,9 °C 22,3 °C 3,2 km/h (1 Bft)
22.07.2017 12:25 22,2 °C 22,3 °C 63 % 1013,4 hPa 0,0 mm 0,9 km/h (0 Bft) NW 316 ° 1 min 0,000 mm 7,1 UV-I 893 W/m² 14,8 °C 22,2 °C 1,6 km/h (1 Bft)
22.07.2017 12:26 22,2 °C 22,2 °C 67 % 1013,4 hPa 0,0 mm 0,4 km/h (0 Bft) NW 316 ° 1 min 0,000 mm 4,1 UV-I 893 W/m² 15,8 °C 22,2 °C 3,2 km/h (1 Bft)
22.07.2017 12:27 22,2 °C 22,2 °C 68 % 1013,4 hPa 0,0 mm 3,9 km/h (1 Bft) N-NW 340 ° 1 min 0,000 mm 3,5 UV-I 512 W/m² 16,0 °C 22,2 °C 8,0 km/h (2 Bft)
22.07.2017 12:28 22,2 °C 22,2 °C 69 % 1013,4 hPa 0,0 mm 4,2 km/h (1 Bft) N-NW 347 ° 1 min 0,000 mm 3,8 UV-I 512 W/m² 16,2 °C 22,2 °C 6,4 km/h (2 Bft)
22.07.2017 12:29 22,1 °C 22,2 °C 68 % 1013,4 hPa 0,0 mm 3,6 km/h (1 Bft) N-NW 346 ° 0 min 0,000 mm 3,8 UV-I 192 W/m² 15,9 °C 22,1 °C 6,4 km/h (2 Bft)
22.07.2017 12:30 22,0 °C 22,1 °C 67 % 1013,4 hPa 0,0 mm 1,9 km/h (1 Bft) N-NW 342 ° 0 min 0,000 mm 5,3 UV-I 192 W/m² 15,6 °C 22,0 °C 4,8 km/h (1 Bft)
22.07.2017 12:31 21,9 °C 22,0 °C 69 % 1013,4 hPa 0,0 mm 3,1 km/h (1 Bft) N 360 ° 0 min 0,000 mm 6,2 UV-I 192 W/m² 15,9 °C 21,9 °C 4,8 km/h (1 Bft)
22.07.2017 12:32 21,9 °C 21,9 °C 68 % 1013,3 hPa 0,0 mm 2,8 km/h (1 Bft) N 360 ° 0 min 0,000 mm 7,3 UV-I 192 W/m² 15,7 °C 21,9 °C 4,8 km/h (1 Bft)
22.07.2017 12:33 22,1 °C 22,1 °C 68 % 1013,3 hPa 0,0 mm 4,1 km/h (1 Bft) N-NW 346 ° 1 min 0,000 mm 7,3 UV-I 907 W/m² 15,9 °C 22,1 °C 6,4 km/h (2 Bft)
22.07.2017 12:34 22,1 °C 22,1 °C 65 % 1013,3 hPa 0,0 mm 3,4 km/h (1 Bft) N 355 ° 1 min 0,000 mm 7,2 UV-I 888 W/m² 15,2 °C 22,1 °C 6,4 km/h (2 Bft)
22.07.2017 12:35 22,0 °C 22,1 °C 64 % 1013,3 hPa 0,0 mm 0,3 km/h (0 Bft) N 355 ° 1 min 0,000 mm 7,2 UV-I 867 W/m² 14,9 °C 22,0 °C 1,6 km/h (1 Bft)
22.07.2017 12:36 21,9 °C 22,0 °C 64 % 1013,3 hPa 0,0 mm 0,8 km/h (0 Bft) N 355 ° 1 min 0,000 mm 7,1 UV-I 867 W/m² 14,8 °C 21,9 °C 1,6 km/h (1 Bft)
22.07.2017 12:37 21,8 °C 21,9 °C 64 % 1013,3 hPa 0,0 mm 0,0 km/h (0 Bft) N 355 ° 1 min 0,000 mm 7,1 UV-I 865 W/m² 14,7 °C 21,8 °C 0,0 km/h (0 Bft)
22.07.2017 12:38 21,9 °C 21,9 °C 71 % 1013,3 hPa 0,0 mm 0,0 km/h (0 Bft) N 355 ° 1 min 0,000 mm 7,2 UV-I 867 W/m² 16,4 °C 21,9 °C 0,0 km/h (0 Bft)
22.07.2017 12:39 21,9 °C 21,9 °C 66 % 1013,3 hPa 0,0 mm 0,3 km/h (0 Bft) N 355 ° 1 min 0,000 mm 7,2 UV-I 872 W/m² 15,3 °C 21,9 °C 1,6 km/h (1 Bft)
22.07.2017 12:40 22,0 °C 22,0 °C 65 % 1013,2 hPa 0,0 mm 1,3 km/h (1 Bft) N-NW 328 ° 1 min 0,000 mm 7,2 UV-I 875 W/m² 15,1 °C 22,0 °C 3,2 km/h (1 Bft)
22.07.2017 12:41 22,1 °C 22,1 °C 66 % 1013,3 hPa 0,0 mm 0,0 km/h (0 Bft) N-NW 328 ° 1 min 0,000 mm 7,2 UV-I 886 W/m² 15,4 °C 22,1 °C 0,0 km/h (0 Bft)
22.07.2017 12:42 22,1 °C 22,1 °C 66 % 1013,3 hPa 0,0 mm 1,3 km/h (1 Bft) N-NW 328 ° 1 min 0,000 mm 7,3 UV-I 888 W/m² 15,4 °C 22,1 °C 1,6 km/h (1 Bft)
22.07.2017 12:43 22,3 °C 22,3 °C 72 % 1013,2 hPa 0,0 mm 0,8 km/h (0 Bft) NO 54 ° 1 min 0,000 mm 7,3 UV-I 888 W/m² 17,0 °C 22,3 °C 3,2 km/h (1 Bft)
22.07.2017 12:44 22,3 °C 22,3 °C 69 % 1013,2 hPa 0,0 mm 3,9 km/h (1 Bft) NO 49 ° 1 min 0,000 mm 7,3 UV-I 888 W/m² 16,3 °C 22,3 °C 4,8 km/h (1 Bft)
22.07.2017 12:45 22,3 °C 22,3 °C 62 % 1013,3 hPa 0,0 mm 2,7 km/h (1 Bft) N 5 ° 1 min 0,000 mm 7,3 UV-I 896 W/m² 14,7 °C 22,3 °C 4,8 km/h (1 Bft)
22.07.2017 12:46 22,3 °C 22,3 °C 65 % 1013,2 hPa 0,0 mm 1,7 km/h (1 Bft) NW 318 ° 1 min 0,000 mm 7,3 UV-I 900 W/m² 15,4 °C 22,3 °C 3,2 km/h (1 Bft)
22.07.2017 12:47 22,3 °C 22,3 °C 67 % 1013,2 hPa 0,0 mm 2,1 km/h (1 Bft) W 267 ° 1 min 0,000 mm 7,3 UV-I 914 W/m² 15,9 °C 22,3 °C 3,2 km/h (1 Bft)
22.07.2017 12:48 22,4 °C 22,4 °C 65 % 1013,2 hPa 0,0 mm 2,1 km/h (1 Bft) W 266 ° 1 min 0,000 mm 7,4 UV-I 919 W/m² 15,5 °C 22,4 °C 4,8 km/h (1 Bft)
22.07.2017 12:49 22,6 °C 22,6 °C 65 % 1013,2 hPa 0,0 mm 1,5 km/h (1 Bft) W 264 ° 1 min 0,000 mm 7,4 UV-I 933 W/m² 15,7 °C 22,6 °C 3,2 km/h (1 Bft)
22.07.2017 12:50 22,5 °C 22,6 °C 63 % 1013,2 hPa 0,0 mm 3,8 km/h (1 Bft) S 189 ° 1 min 0,000 mm 7,4 UV-I 918 W/m² 15,1 °C 22,5 °C 8,0 km/h (2 Bft)
22.07.2017 12:51 22,4 °C 22,5 °C 67 % 1013,2 hPa 0,0 mm 2,4 km/h (1 Bft) S 185 ° 1 min 0,000 mm 7,4 UV-I 919 W/m² 16,0 °C 22,4 °C 4,8 km/h (1 Bft)
22.07.2017 12:52 22,4 °C 22,4 °C 68 % 1013,2 hPa 0,0 mm 0,6 km/h (0 Bft) W-SW 246 ° 1 min 0,000 mm 7,4 UV-I 918 W/m² 16,2 °C 22,4 °C 3,2 km/h (1 Bft)
22.07.2017 12:53 22,5 °C 22,5 °C 66 % 1013,2 hPa 0,0 mm 2,5 km/h (1 Bft) W 271 ° 1 min 0,000 mm 7,5 UV-I 923 W/m² 15,8 °C 22,5 °C 4,8 km/h (1 Bft)
22.07.2017 12:54 22,7 °C 22,7 °C 70 % 1013,2 hPa 0,0 mm 0,8 km/h (0 Bft) W-NW 293 ° 1 min 0,000 mm 7,5 UV-I 926 W/m² 16,9 °C 22,7 °C 3,2 km/h (1 Bft)
22.07.2017 12:55 22,9 °C 22,9 °C 69 % 1013,2 hPa 0,0 mm 2,0 km/h (1 Bft) NW 312 ° 1 min 0,000 mm 7,5 UV-I 921 W/m² 16,9 °C 22,9 °C 4,8 km/h (1 Bft)
22.07.2017 12:56 23,1 °C 23,1 °C 66 % 1013,2 hPa 0,0 mm 3,2 km/h (1 Bft) NW 313 ° 1 min 0,000 mm 7,4 UV-I 921 W/m² 16,4 °C 23,1 °C 6,4 km/h (2 Bft)
22.07.2017 12:57 23,0 °C 23,1 °C 65 % 1013,3 hPa 0,0 mm 1,8 km/h (1 Bft) NW 311 ° 1 min 0,000 mm 7,4 UV-I 921 W/m² 16,1 °C 23,0 °C 4,8 km/h (1 Bft)
22.07.2017 12:58 22,9 °C 23,0 °C 63 % 1013,2 hPa 0,0 mm 4,8 km/h (1 Bft) NW 315 ° 1 min 0,000 mm 7,4 UV-I 902 W/m² 15,5 °C 22,9 °C 8,0 km/h (2 Bft)
22.07.2017 12:59 22,9 °C 22,9 °C 66 % 1013,2 hPa 0,0 mm 5,6 km/h (1 Bft) N 355 ° 1 min 0,000 mm 7,4 UV-I 900 W/m² 16,2 °C 22,9 °C 8,0 km/h (2 Bft)
22.07.2017 13:00 22,9 °C 22,9 °C 67 % 1013,2 hPa 0,0 mm 7,3 km/h (2 Bft) N 350 ° 1 min 0,483 mm 7,5 UV-I 911 W/m² 16,4 °C 22,9 °C 12,9 km/h (3 Bft)
22.07.2017 13:01 22,9 °C 22,9 °C 66 % 1013,2 hPa 0,0 mm 4,6 km/h (1 Bft) N-NO 13 ° 1 min 0,000 mm 7,5 UV-I 921 W/m² 16,2 °C 22,9 °C 6,4 km/h (2 Bft)
22.07.2017 13:02 22,9 °C 23,0 °C 66 % 1013,2 hPa 0,0 mm 4,3 km/h (1 Bft) N-NW 335 ° 1 min 0,000 mm 7,5 UV-I 923 W/m² 16,2 °C 22,9 °C 6,4 km/h (2 Bft)
22.07.2017 13:03 23,1 °C 23,1 °C 65 % 1013,2 hPa 0,0 mm 2,6 km/h (1 Bft) N-NO 28 ° 1 min 0,000 mm 7,6 UV-I 932 W/m² 16,2 °C 23,1 °C 4,8 km/h (1 Bft)
22.07.2017 13:04 23,1 °C 23,1 °C 66 % 1013,2 hPa 0,0 mm 5,2 km/h (1 Bft) N 360 ° 1 min 0,000 mm 7,6 UV-I 940 W/m² 16,4 °C 23,1 °C 6,4 km/h (2 Bft)
22.07.2017 13:05 23,1 °C 23,2 °C 62 % 1013,2 hPa 0,0 mm 2,1 km/h (1 Bft) N 360 ° 1 min 0,000 mm 7,7 UV-I 963 W/m² 15,4 °C 23,1 °C 6,4 km/h (2 Bft)
22.07.2017 13:06 23,1 °C 23,1 °C 61 % 1013,2 hPa 0,0 mm 1,1 km/h (1 Bft) N 360 ° 1 min 0,000 mm 7,5 UV-I 953 W/m² 15,2 °C 23,1 °C 3,2 km/h (1 Bft)
22.07.2017 13:07 23,1 °C 23,1 °C 63 % 1013,2 hPa 0,0 mm 3,1 km/h (1 Bft) NW 304 ° 1 min 0,000 mm 7,4 UV-I 874 W/m² 15,7 °C 23,1 °C 4,8 km/h (1 Bft)
22.07.2017 13:08 22,9 °C 23,1 °C 61 % 1013,2 hPa 0,0 mm 1,6 km/h (1 Bft) W-NW 303 ° 1 min 0,000 mm 7,4 UV-I 874 W/m² 15,0 °C 22,9 °C 4,8 km/h (1 Bft)
22.07.2017 13:09 22,8 °C 22,9 °C 62 % 1013,2 hPa 0,0 mm 2,0 km/h (1 Bft) O 98 ° 0 min 0,000 mm 3,6 UV-I 172 W/m² 15,1 °C 22,8 °C 4,8 km/h (1 Bft)
22.07.2017 13:10 22,6 °C 22,8 °C 62 % 1013,2 hPa 0,0 mm 3,0 km/h (1 Bft) O 96 ° 0 min 0,000 mm 7,6 UV-I 218 W/m² 14,9 °C 22,6 °C 4,8 km/h (1 Bft)
22.07.2017 13:11 22,4 °C 22,6 °C 61 % 1013,2 hPa 0,0 mm 0,1 km/h (0 Bft) O 96 ° 1 min 0,000 mm 7,6 UV-I 942 W/m² 14,5 °C 22,4 °C 1,6 km/h (1 Bft)
22.07.2017 13:12 22,4 °C 22,4 °C 62 % 1013,1 hPa 0,0 mm 2,9 km/h (1 Bft) W-NW 296 ° 1 min 0,000 mm 7,6 UV-I 942 W/m² 14,8 °C 22,4 °C 6,4 km/h (2 Bft)
22.07.2017 13:13 22,6 °C 22,6 °C 67 % 1013,2 hPa 0,0 mm 6,4 km/h (2 Bft) W-SW 257 ° 1 min 0,000 mm 7,6 UV-I 947 W/m² 16,2 °C 22,6 °C 9,7 km/h (2 Bft)
22.07.2017 13:14 22,7 °C 22,7 °C 68 % 1013,1 hPa 0,0 mm 7,6 km/h (2 Bft) W 268 ° 1 min 0,000 mm 7,6 UV-I 953 W/m² 16,5 °C 22,7 °C 11,3 km/h (2 Bft)
22.07.2017 13:15 22,8 °C 22,8 °C 60 % 1013,2 hPa 0,0 mm 7,0 km/h (2 Bft) S 190 ° 1 min 0,000 mm 7,7 UV-I 969 W/m² 14,6 °C 22,8 °C 8,0 km/h (2 Bft)
22.07.2017 13:16 22,8 °C 22,8 °C 59 % 1013,1 hPa 0,0 mm 5,2 km/h (1 Bft) O-SO 112 ° 1 min 0,000 mm 7,7 UV-I 986 W/m² 14,4 °C 22,8 °C 8,0 km/h (2 Bft)
22.07.2017 13:17 22,7 °C 22,8 °C 64 % 1013,1 hPa 0,0 mm 4,2 km/h (1 Bft) O-SO 109 ° 1 min 0,000 mm 6,1 UV-I 425 W/m² 15,5 °C 22,7 °C 6,4 km/h (2 Bft)
22.07.2017 13:18 22,7 °C 22,7 °C 61 % 1013,1 hPa 0,0 mm 2,0 km/h (1 Bft) NO 51 ° 1 min 0,000 mm 3,6 UV-I 425 W/m² 14,8 °C 22,7 °C 3,2 km/h (1 Bft)
22.07.2017 13:19 22,7 °C 22,7 °C 63 % 1013,1 hPa 0,0 mm 1,9 km/h (1 Bft) W-NW 293 ° 1 min 0,000 mm 7,6 UV-I 983 W/m² 15,3 °C 22,7 °C 8,0 km/h (2 Bft)
22.07.2017 13:20 22,8 °C 22,8 °C 64 % 1013,1 hPa 0,0 mm 5,2 km/h (1 Bft) N-NW 348 ° 1 min 0,000 mm 4,3 UV-I 983 W/m² 15,6 °C 22,8 °C 8,0 km/h (2 Bft)
22.07.2017 13:21 22,9 °C 22,9 °C 70 % 1013,1 hPa 0,0 mm 3,4 km/h (1 Bft) N-NO 19 ° 1 min 0,000 mm 6,4 UV-I 983 W/m² 17,1 °C 22,9 °C 6,4 km/h (2 Bft)
22.07.2017 13:22 23,0 °C 23,0 °C 63 % 1013,1 hPa 0,0 mm 7,0 km/h (2 Bft) N-NO 17 ° 1 min 0,000 mm 3,3 UV-I 983 W/m² 15,6 °C 23,0 °C 11,3 km/h (2 Bft)
22.07.2017 13:23 23,1 °C 23,1 °C 64 % 1013,1 hPa 0,0 mm 4,2 km/h (1 Bft) N-NO 30 ° 1 min 0,000 mm 3,2 UV-I 983 W/m² 15,9 °C 23,1 °C 6,4 km/h (2 Bft)
22.07.2017 13:24 23,0 °C 23,1 °C 63 % 1013,0 hPa 0,0 mm 2,5 km/h (1 Bft) NO 44 ° 1 min 0,000 mm 3,2 UV-I 983 W/m² 15,6 °C 23,0 °C 4,8 km/h (1 Bft)
22.07.2017 13:25 22,9 °C 23,0 °C 68 % 1013,0 hPa 0,0 mm 1,6 km/h (1 Bft) NO 43 ° 0 min 0,000 mm 4,1 UV-I 185 W/m² 16,7 °C 22,9 °C 3,2 km/h (1 Bft)
22.07.2017 13:26 22,9 °C 22,9 °C 68 % 1013,0 hPa 0,0 mm 3,5 km/h (1 Bft) N-NO 13 ° 0 min 0,000 mm 7,6 UV-I 185 W/m² 16,7 °C 22,9 °C 6,4 km/h (2 Bft)
22.07.2017 13:27 23,1 °C 23,1 °C 65 % 1013,1 hPa 0,0 mm 4,2 km/h (1 Bft) N-NO 22 ° 1 min 0,000 mm 7,5 UV-I 900 W/m² 16,2 °C 23,1 °C 6,4 km/h (2 Bft)
22.07.2017 13:28 23,0 °C 23,1 °C 63 % 1013,1 hPa 0,0 mm 1,8 km/h (1 Bft) N-NO 22 ° 1 min 0,000 mm 7,5 UV-I 946 W/m² 15,6 °C 23,0 °C 3,2 km/h (1 Bft)
22.07.2017 13:29 23,2 °C 23,2 °C 63 % 1013,0 hPa 0,0 mm 3,8 km/h (1 Bft) NW 308 ° 1 min 0,000 mm 6,0 UV-I 881 W/m² 15,8 °C 23,2 °C 6,4 km/h (2 Bft)
22.07.2017 13:30 23,3 °C 23,3 °C 65 % 1013,0 hPa 0,0 mm 5,0 km/h (1 Bft) NW 304 ° 1 min 0,000 mm 3,8 UV-I 881 W/m² 16,3 °C 23,3 °C 6,4 km/h (2 Bft)
22.07.2017 13:31 23,3 °C 23,3 °C 63 % 1013,0 hPa 0,0 mm 4,0 km/h (1 Bft) W-NW 288 ° 0 min 0,000 mm 3,1 UV-I 151 W/m² 15,9 °C 23,3 °C 9,7 km/h (2 Bft)
22.07.2017 13:32 23,3 °C 23,3 °C 60 % 1012,9 hPa 0,0 mm 1,6 km/h (1 Bft) SO 126 ° 0 min 0,000 mm 3,1 UV-I 156 W/m² 15,1 °C 23,3 °C 3,2 km/h (1 Bft)
22.07.2017 13:33 23,1 °C 23,3 °C 61 % 1012,9 hPa 0,0 mm 4,2 km/h (1 Bft) W-SW 248 ° 0 min 0,000 mm 3,3 UV-I 176 W/m² 15,2 °C 23,1 °C 6,4 km/h (2 Bft)
22.07.2017 13:34 22,9 °C 23,1 °C 61 % 1013,0 hPa 0,0 mm 2,7 km/h (1 Bft) W 277 ° 1 min 0,000 mm 3,3 UV-I 993 W/m² 15,0 °C 22,9 °C 6,4 km/h (2 Bft)
22.07.2017 13:35 22,9 °C 22,9 °C 63 % 1013,0 hPa 0,0 mm 3,0 km/h (1 Bft) W 276 ° 1 min 0,000 mm 7,5 UV-I 947 W/m² 15,5 °C 22,9 °C 4,8 km/h (1 Bft)
22.07.2017 13:36 23,0 °C 23,0 °C 61 % 1013,0 hPa 0,0 mm 4,2 km/h (1 Bft) W 271 ° 1 min 0,000 mm 7,3 UV-I 925 W/m² 15,1 °C 23,0 °C 6,4 km/h (2 Bft)
22.07.2017 13:37 23,2 °C 23,2 °C 61 % 1013,0 hPa 0,0 mm 2,8 km/h (1 Bft) W-NW 290 ° 1 min 0,000 mm 7,4 UV-I 907 W/m² 15,3 °C 23,2 °C 3,2 km/h (1 Bft)
22.07.2017 13:38 23,3 °C 23,3 °C 63 % 1012,9 hPa 0,0 mm 2,3 km/h (1 Bft) W-NW 290 ° 1 min 0,000 mm 7,4 UV-I 909 W/m² 15,9 °C 23,3 °C 4,8 km/h (1 Bft)
22.07.2017 13:39 23,4 °C 23,4 °C 64 % 1013,0 hPa 0,0 mm 5,3 km/h (1 Bft) W-NW 283 ° 1 min 0,000 mm 7,5 UV-I 921 W/m² 16,2 °C 23,4 °C 9,7 km/h (2 Bft)
22.07.2017 13:40 23,6 °C 23,6 °C 61 % 1013,0 hPa 0,0 mm 2,8 km/h (1 Bft) W-NW 294 ° 1 min 0,000 mm 7,5 UV-I 928 W/m² 15,6 °C 23,6 °C 3,2 km/h (1 Bft)
22.07.2017 13:41 23,6 °C 23,6 °C 59 % 1012,9 hPa 0,0 mm 5,3 km/h (1 Bft) W-SW 254 ° 1 min 0,000 mm 7,5 UV-I 932 W/m² 15,1 °C 23,6 °C 11,3 km/h (2 Bft)
22.07.2017 13:42 23,7 °C 23,7 °C 62 % 1013,0 hPa 0,0 mm 5,4 km/h (1 Bft) W-SW 243 ° 1 min 0,000 mm 7,6 UV-I 935 W/m² 16,0 °C 23,7 °C 8,0 km/h (2 Bft)
22.07.2017 13:43 23,7 °C 23,7 °C 58 % 1013,0 hPa 0,0 mm 3,5 km/h (1 Bft) W-SW 238 ° 1 min 0,000 mm 7,6 UV-I 937 W/m² 14,9 °C 23,7 °C 6,4 km/h (2 Bft)
22.07.2017 13:44 23,7 °C 23,7 °C 67 % 1013,0 hPa 0,0 mm 2,0 km/h (1 Bft) W-SW 240 ° 1 min 0,000 mm 7,6 UV-I 940 W/m² 17,2 °C 23,7 °C 4,8 km/h (1 Bft)
22.07.2017 13:45 23,8 °C 23,8 °C 62 % 1013,0 hPa 0,0 mm 6,4 km/h (2 Bft) W 263 ° 1 min 0,000 mm 7,6 UV-I 940 W/m² 16,1 °C 23,8 °C 9,7 km/h (2 Bft)
22.07.2017 13:46 23,9 °C 23,9 °C 62 % 1013,0 hPa 0,0 mm 6,2 km/h (2 Bft) W 269 ° 1 min 0,000 mm 7,6 UV-I 946 W/m² 16,2 °C 23,9 °C 9,7 km/h (2 Bft)
22.07.2017 13:47 24,0 °C 24,0 °C 66 % 1013,0 hPa 0,0 mm 4,1 km/h (1 Bft) W-SW 248 ° 1 min 0,000 mm 7,6 UV-I 962 W/m² 17,2 °C 24,0 °C 4,8 km/h (1 Bft)
22.07.2017 13:48 24,0 °C 24,0 °C 62 % 1013,0 hPa 0,0 mm 1,4 km/h (1 Bft) W-SW 248 ° 1 min 0,000 mm 7,6 UV-I 960 W/m² 16,3 °C 24,0 °C 3,2 km/h (1 Bft)
22.07.2017 13:49 23,9 °C 24,0 °C 56 % 1013,0 hPa 0,0 mm 5,0 km/h (1 Bft) SW 235 ° 1 min 0,000 mm 7,5 UV-I 965 W/m² 14,6 °C 23,9 °C 11,3 km/h (2 Bft)
22.07.2017 13:50 23,9 °C 23,9 °C 60 % 1013,0 hPa 0,0 mm 10,7 km/h (2 Bft) NW 319 ° 1 min 0,000 mm 7,5 UV-I 962 W/m² 15,7 °C 23,9 °C 14,5 km/h (3 Bft)
22.07.2017 13:51 23,9 °C 23,9 °C 57 % 1013,0 hPa 0,0 mm 8,4 km/h (2 Bft) W-NW 286 ° 1 min 0,000 mm 7,5 UV-I 962 W/m² 14,9 °C 23,9 °C 12,9 km/h (3 Bft)
22.07.2017 13:52 24,0 °C 24,0 °C 59 % 1013,0 hPa 0,0 mm 9,4 km/h (2 Bft) W-NW 294 ° 1 min 0,000 mm 7,5 UV-I 977 W/m² 15,5 °C 24,0 °C 14,5 km/h (3 Bft)
22.07.2017 13:53 23,9 °C 24,0 °C 58 % 1013,0 hPa 0,0 mm 6,2 km/h (2 Bft) NW 306 ° 1 min 0,000 mm 3,2 UV-I 977 W/m² 15,1 °C 23,9 °C 11,3 km/h (2 Bft)
22.07.2017 13:54 23,8 °C 23,9 °C 57 % 1013,0 hPa 0,0 mm 8,0 km/h (2 Bft) W 261 ° 0 min 0,000 mm 3,6 UV-I 206 W/m² 14,8 °C 23,8 °C 11,3 km/h (2 Bft)
22.07.2017 13:55 23,6 °C 23,8 °C 56 % 1013,0 hPa 0,0 mm 8,5 km/h (2 Bft) W 279 ° 0 min 0,000 mm 4,0 UV-I 253 W/m² 14,3 °C 23,6 °C 12,9 km/h (3 Bft)
22.07.2017 13:56 23,4 °C 23,6 °C 58 % 1013,0 hPa 0,0 mm 5,1 km/h (1 Bft) NW 325 ° 0 min 0,000 mm 4,2 UV-I 253 W/m² 14,7 °C 23,4 °C 8,0 km/h (2 Bft)
22.07.2017 13:57 23,3 °C 23,4 °C 60 % 1013,0 hPa 0,0 mm 6,2 km/h (2 Bft) N-NO 17 ° 0 min 0,000 mm 7,3 UV-I 253 W/m² 15,1 °C 23,3 °C 8,0 km/h (2 Bft)
22.07.2017 13:58 23,4 °C 23,4 °C 60 % 1012,9 hPa 0,0 mm 4,9 km/h (1 Bft) N 9 ° 1 min 0,000 mm 6,1 UV-I 923 W/m² 15,2 °C 23,4 °C 6,4 km/h (2 Bft)
22.07.2017 13:59 23,6 °C 23,6 °C 56 % 1012,9 hPa 0,0 mm 4,8 km/h (1 Bft) NW 319 ° 1 min 0,000 mm 7,3 UV-I 916 W/m² 14,3 °C 23,6 °C 6,4 km/h (2 Bft)
22.07.2017 14:00 23,7 °C 23,7 °C 58 % 1012,9 hPa 0,0 mm 3,4 km/h (1 Bft) N-NW 336 ° 1 min 0,482 mm 7,3 UV-I 918 W/m² 14,9 °C 23,7 °C 8,0 km/h (2 Bft)
22.07.2017 14:01 23,9 °C 23,9 °C 61 % 1012,9 hPa 0,0 mm 8,0 km/h (2 Bft) NW 315 ° 1 min 0,000 mm 7,3 UV-I 914 W/m² 15,9 °C 23,9 °C 12,9 km/h (3 Bft)
22.07.2017 14:02 24,1 °C 24,1 °C 59 % 1012,9 hPa 0,0 mm 5,7 km/h (1 Bft) W-NW 286 ° 1 min 0,000 mm 7,3 UV-I 912 W/m² 15,6 °C 24,1 °C 8,0 km/h (2 Bft)
22.07.2017 14:03 24,2 °C 24,2 °C 62 % 1012,9 hPa 0,0 mm 5,5 km/h (1 Bft) W 280 ° 1 min 0,000 mm 7,3 UV-I 911 W/m² 16,4 °C 24,2 °C 11,3 km/h (2 Bft)
22.07.2017 14:04 24,3 °C 24,3 °C 58 % 1012,9 hPa 0,0 mm 7,4 km/h (2 Bft) N 5 ° 1 min 0,000 mm 7,3 UV-I 907 W/m² 15,5 °C 24,3 °C 11,3 km/h (2 Bft)
22.07.2017 14:05 24,3 °C 24,3 °C 57 % 1012,9 hPa 0,0 mm 6,8 km/h (2 Bft) N-NW 340 ° 1 min 0,000 mm 3,4 UV-I 905 W/m² 15,2 °C 24,3 °C 9,7 km/h (2 Bft)
22.07.2017 14:06 24,3 °C 24,3 °C 59 % 1012,8 hPa 0,0 mm 3,8 km/h (1 Bft) NW 319 ° 1 min 0,000 mm 7,2 UV-I 898 W/m² 15,8 °C 24,3 °C 6,4 km/h (2 Bft)
22.07.2017 14:07 24,2 °C 24,3 °C 58 % 1012,8 hPa 0,0 mm 5,0 km/h (1 Bft) N-NW 342 ° 1 min 0,000 mm 7,2 UV-I 893 W/m² 15,4 °C 24,2 °C 9,7 km/h (2 Bft)
22.07.2017 14:08 24,3 °C 24,3 °C 63 % 1012,8 hPa 0,0 mm 4,8 km/h (1 Bft) NW 321 ° 1 min 0,000 mm 7,2 UV-I 889 W/m² 16,8 °C 24,3 °C 9,7 km/h (2 Bft)
22.07.2017 14:09 24,3 °C 24,3 °C 59 % 1012,8 hPa 0,0 mm 8,0 km/h (2 Bft) W 264 ° 1 min 0,000 mm 7,1 UV-I 888 W/m² 15,8 °C 24,3 °C 11,3 km/h (2 Bft)
22.07.2017 14:10 24,2 °C 24,3 °C 57 % 1012,8 hPa 0,0 mm 5,7 km/h (1 Bft) W-SW 254 ° 1 min 0,000 mm 7,1 UV-I 893 W/m² 15,1 °C 24,2 °C 9,7 km/h (2 Bft)
22.07.2017 14:11 24,2 °C 24,2 °C 57 % 1012,8 hPa 0,0 mm 6,4 km/h (2 Bft) W 273 ° 1 min 0,000 mm 7,2 UV-I 900 W/m² 15,1 °C 24,2 °C 9,7 km/h (2 Bft)
22.07.2017 14:12 24,1 °C 24,2 °C 58 % 1012,9 hPa 0,0 mm 7,1 km/h (2 Bft) W-NW 298 ° 1 min 0,000 mm 7,2 UV-I 907 W/m² 15,3 °C 24,1 °C 12,9 km/h (3 Bft)
22.07.2017 14:13 24,1 °C 24,1 °C 59 % 1012,9 hPa 0,0 mm 6,2 km/h (2 Bft) N 355 ° 1 min 0,000 mm 7,2 UV-I 914 W/m² 15,6 °C 24,1 °C 8,0 km/h (2 Bft)
22.07.2017 14:14 24,1 °C 24,1 °C 59 % 1012,8 hPa 0,0 mm 7,6 km/h (2 Bft) N 5 ° 1 min 0,000 mm 7,3 UV-I 914 W/m² 15,6 °C 24,1 °C 14,5 km/h (3 Bft)
22.07.2017 14:15 24,2 °C 24,2 °C 61 % 1012,8 hPa 0,0 mm 6,7 km/h (2 Bft) NW 320 ° 1 min 0,000 mm 7,2 UV-I 893 W/m² 16,2 °C 24,2 °C 12,9 km/h (3 Bft)
22.07.2017 14:16 24,2 °C 24,2 °C 59 % 1012,8 hPa 0,0 mm 4,4 km/h (1 Bft) NW 317 ° 1 min 0,000 mm 7,2 UV-I 893 W/m² 15,7 °C 24,2 °C 6,4 km/h (2 Bft)
22.07.2017 14:17 24,1 °C 24,2 °C 57 % 1012,8 hPa 0,0 mm 4,1 km/h (1 Bft) W-NW 285 ° 1 min 0,000 mm 7,1 UV-I 888 W/m² 15,0 °C 24,1 °C 6,4 km/h (2 Bft)
22.07.2017 14:18 24,1 °C 24,1 °C 59 % 1012,8 hPa 0,0 mm 4,8 km/h (1 Bft) W 264 ° 1 min 0,000 mm 7,0 UV-I 881 W/m² 15,6 °C 24,1 °C 6,4 km/h (2 Bft)
22.07.2017 14:19 24,1 °C 24,1 °C 58 % 1012,9 hPa 0,0 mm 5,6 km/h (1 Bft) W-NW 284 ° 1 min 0,000 mm 7,1 UV-I 881 W/m² 15,3 °C 24,1 °C 6,4 km/h (2 Bft)
22.07.2017 14:20 23,9 °C 24,1 °C 56 % 1012,9 hPa 0,0 mm 5,0 km/h (1 Bft) W-SW 250 ° 1 min 0,000 mm 7,1 UV-I 882 W/m² 14,6 °C 23,9 °C 6,4 km/h (2 Bft)
22.07.2017 14:21 23,8 °C 23,9 °C 56 % 1012,8 hPa 0,0 mm 6,0 km/h (2 Bft) W-SW 242 ° 1 min 0,000 mm 7,1 UV-I 877 W/m² 14,5 °C 23,8 °C 11,3 km/h (2 Bft)
22.07.2017 14:22 23,8 °C 23,8 °C 57 % 1012,8 hPa 0,0 mm 1,8 km/h (1 Bft) W-NW 283 ° 1 min 0,000 mm 7,0 UV-I 874 W/m² 14,8 °C 23,8 °C 3,2 km/h (1 Bft)
22.07.2017 14:23 23,8 °C 23,8 °C 57 % 1012,8 hPa 0,0 mm 8,4 km/h (2 Bft) W 260 ° 1 min 0,000 mm 7,0 UV-I 870 W/m² 14,8 °C 23,8 °C 11,3 km/h (2 Bft)
22.07.2017 14:24 23,8 °C 23,8 °C 57 % 1012,8 hPa 0,0 mm 6,1 km/h (2 Bft) W-NW 287 ° 1 min 0,000 mm 7,0 UV-I 868 W/m² 14,8 °C 23,8 °C 11,3 km/h (2 Bft)
22.07.2017 14:25 23,8 °C 23,8 °C 57 % 1012,8 hPa 0,0 mm 7,8 km/h (2 Bft) W 270 ° 1 min 0,000 mm 7,0 UV-I 870 W/m² 14,8 °C 23,8 °C 11,3 km/h (2 Bft)
22.07.2017 14:26 23,8 °C 23,8 °C 59 % 1012,8 hPa 0,0 mm 6,4 km/h (2 Bft) W 274 ° 1 min 0,000 mm 7,0 UV-I 868 W/m² 15,3 °C 23,8 °C 9,7 km/h (2 Bft)
22.07.2017 14:27 23,9 °C 23,9 °C 58 % 1012,8 hPa 0,0 mm 8,6 km/h (2 Bft) W-NW 286 ° 1 min 0,000 mm 6,9 UV-I 861 W/m² 15,1 °C 23,9 °C 12,9 km/h (3 Bft)
22.07.2017 14:28 23,9 °C 23,9 °C 60 % 1012,8 hPa 0,0 mm 5,0 km/h (1 Bft) NW 315 ° 1 min 0,000 mm 6,9 UV-I 860 W/m² 15,7 °C 23,9 °C 9,7 km/h (2 Bft)
22.07.2017 14:29 23,9 °C 23,9 °C 58 % 1012,8 hPa 0,0 mm 4,9 km/h (1 Bft) W 271 ° 1 min 0,000 mm 6,9 UV-I 858 W/m² 15,1 °C 23,9 °C 6,4 km/h (2 Bft)
22.07.2017 14:30 23,9 °C 23,9 °C 63 % 1012,8 hPa 0,0 mm 1,0 km/h (0 Bft) N-NW 327 ° 1 min 0,000 mm 6,9 UV-I 860 W/m² 16,4 °C 23,9 °C 3,2 km/h (1 Bft)
22.07.2017 14:31 23,9 °C 23,9 °C 56 % 1012,8 hPa 0,0 mm 3,2 km/h (1 Bft) NW 325 ° 1 min 0,000 mm 6,9 UV-I 861 W/m² 14,6 °C 23,9 °C 4,8 km/h (1 Bft)
22.07.2017 14:32 23,9 °C 23,9 °C 58 % 1012,8 hPa 0,0 mm 4,2 km/h (1 Bft) W 277 ° 1 min 0,000 mm 6,8 UV-I 860 W/m² 15,1 °C 23,9 °C 6,4 km/h (2 Bft)
22.07.2017 14:33 24,1 °C 24,1 °C 55 % 1012,8 hPa 0,0 mm 6,1 km/h (2 Bft) NW 309 ° 1 min 0,000 mm 6,8 UV-I 865 W/m² 14,5 °C 24,1 °C 9,7 km/h (2 Bft)
22.07.2017 14:34 24,1 °C 24,1 °C 59 % 1012,8 hPa 0,0 mm 6,2 km/h (2 Bft) NW 319 ° 1 min 0,000 mm 6,9 UV-I 867 W/m² 15,6 °C 24,1 °C 11,3 km/h (2 Bft)
22.07.2017 14:35 24,1 °C 24,2 °C 60 % 1012,7 hPa 0,0 mm 6,6 km/h (2 Bft) N 10 ° 1 min 0,000 mm 6,8 UV-I 867 W/m² 15,8 °C 24,1 °C 9,7 km/h (2 Bft)
22.07.2017 14:36 24,2 °C 24,2 °C 62 % 1012,7 hPa 0,0 mm 3,1 km/h (1 Bft) N-NO 24 ° 1 min 0,000 mm 6,8 UV-I 867 W/m² 16,4 °C 24,2 °C 4,8 km/h (1 Bft)
22.07.2017 14:37 24,2 °C 24,2 °C 57 % 1012,7 hPa 0,0 mm 5,6 km/h (1 Bft) NW 309 ° 1 min 0,000 mm 6,8 UV-I 865 W/m² 15,1 °C 24,2 °C 11,3 km/h (2 Bft)
22.07.2017 14:38 24,3 °C 24,3 °C 59 % 1012,7 hPa 0,0 mm 5,1 km/h (1 Bft) NW 309 ° 1 min 0,000 mm 6,8 UV-I 867 W/m² 15,8 °C 24,3 °C 6,4 km/h (2 Bft)
22.07.2017 14:39 24,4 °C 24,4 °C 58 % 1012,8 hPa 0,0 mm 6,3 km/h (2 Bft) O-NO 61 ° 1 min 0,000 mm 6,8 UV-I 868 W/m² 15,6 °C 24,4 °C 9,7 km/h (2 Bft)
22.07.2017 14:40 24,3 °C 24,4 °C 56 % 1012,7 hPa 0,0 mm 1,0 km/h (0 Bft) N-NW 333 ° 1 min 0,000 mm 6,8 UV-I 868 W/m² 14,9 °C 24,3 °C 6,4 km/h (2 Bft)
22.07.2017 14:41 24,4 °C 24,4 °C 57 % 1012,7 hPa 0,0 mm 4,0 km/h (1 Bft) W-NW 300 ° 1 min 0,000 mm 6,8 UV-I 868 W/m² 15,3 °C 24,4 °C 8,0 km/h (2 Bft)
22.07.2017 14:42 24,4 °C 24,4 °C 57 % 1012,7 hPa 0,0 mm 7,7 km/h (2 Bft) N-NO 14 ° 1 min 0,000 mm 6,8 UV-I 868 W/m² 15,3 °C 24,4 °C 9,7 km/h (2 Bft)
22.07.2017 14:43 24,4 °C 24,4 °C 63 % 1012,7 hPa 0,0 mm 5,0 km/h (1 Bft) N 350 ° 1 min 0,000 mm 6,7 UV-I 860 W/m² 16,9 °C 24,4 °C 6,4 km/h (2 Bft)
22.07.2017 14:44 24,6 °C 24,6 °C 58 % 1012,8 hPa 0,0 mm 8,5 km/h (2 Bft) NW 316 ° 1 min 0,000 mm 6,7 UV-I 851 W/m² 15,8 °C 24,6 °C 12,9 km/h (3 Bft)
22.07.2017 14:45 24,6 °C 24,6 °C 58 % 1012,7 hPa 0,0 mm 9,1 km/h (2 Bft) N 5 ° 1 min 0,000 mm 6,7 UV-I 847 W/m² 15,8 °C 24,6 °C 14,5 km/h (3 Bft)
22.07.2017 14:46 24,6 °C 24,6 °C 56 % 1012,8 hPa 0,0 mm 7,3 km/h (2 Bft) N 9 ° 1 min 0,000 mm 6,6 UV-I 842 W/m² 15,2 °C 24,6 °C 8,0 km/h (2 Bft)
22.07.2017 14:47 24,7 °C 24,7 °C 56 % 1012,7 hPa 0,0 mm 6,3 km/h (2 Bft) NW 319 ° 1 min 0,000 mm 6,6 UV-I 842 W/m² 15,3 °C 24,7 °C 8,0 km/h (2 Bft)
22.07.2017 14:48 24,7 °C 24,7 °C 60 % 1012,8 hPa 0,0 mm 6,6 km/h (2 Bft) NW 304 ° 1 min 0,000 mm 6,6 UV-I 851 W/m² 16,4 °C 24,7 °C 12,9 km/h (3 Bft)
22.07.2017 14:49 24,7 °C 24,7 °C 58 % 1012,8 hPa 0,0 mm 5,3 km/h (1 Bft) W-NW 288 ° 1 min 0,000 mm 6,6 UV-I 868 W/m² 15,9 °C 24,7 °C 8,0 km/h (2 Bft)
22.07.2017 14:50 24,7 °C 24,7 °C 58 % 1012,8 hPa 0,0 mm 5,4 km/h (1 Bft) W 261 ° 1 min 0,000 mm 4,9 UV-I 814 W/m² 15,9 °C 24,7 °C 9,7 km/h (2 Bft)
22.07.2017 14:51 24,4 °C 24,7 °C 54 % 1012,8 hPa 0,0 mm 3,8 km/h (1 Bft) W 261 ° 1 min 0,000 mm 6,1 UV-I 893 W/m² 14,5 °C 24,4 °C 6,4 km/h (2 Bft)
22.07.2017 14:52 24,3 °C 24,4 °C 58 % 1012,8 hPa 0,0 mm 2,5 km/h (1 Bft) W 261 ° 1 min 0,000 mm 6,7 UV-I 895 W/m² 15,5 °C 24,3 °C 3,2 km/h (1 Bft)
22.07.2017 14:53 24,2 °C 24,3 °C 55 % 1012,8 hPa 0,0 mm 2,5 km/h (1 Bft) N-NO 25 ° 1 min 0,000 mm 6,6 UV-I 895 W/m² 14,6 °C 24,2 °C 6,4 km/h (2 Bft)
22.07.2017 14:54 24,3 °C 24,3 °C 61 % 1012,7 hPa 0,0 mm 4,6 km/h (1 Bft) N-NO 21 ° 1 min 0,000 mm 6,6 UV-I 895 W/m² 16,3 °C 24,3 °C 4,8 km/h (1 Bft)
22.07.2017 14:55 24,3 °C 24,3 °C 56 % 1012,8 hPa 0,0 mm 4,0 km/h (1 Bft) N 11 ° 1 min 0,000 mm 3,2 UV-I 895 W/m² 14,9 °C 24,3 °C 4,8 km/h (1 Bft)
22.07.2017 14:56 24,3 °C 24,3 °C 55 % 1012,8 hPa 0,0 mm 0,3 km/h (0 Bft) N 11 ° 0 min 0,000 mm 3,4 UV-I 165 W/m² 14,7 °C 24,3 °C 1,6 km/h (1 Bft)
22.07.2017 14:57 24,2 °C 24,3 °C 55 % 1012,7 hPa 0,0 mm 0,5 km/h (0 Bft) O-NO 76 ° 1 min 0,000 mm 6,4 UV-I 837 W/m² 14,6 °C 24,2 °C 3,2 km/h (1 Bft)
22.07.2017 14:58 24,2 °C 24,2 °C 56 % 1012,7 hPa 0,0 mm 2,7 km/h (1 Bft) O-NO 76 ° 1 min 0,000 mm 6,4 UV-I 842 W/m² 14,9 °C 24,2 °C 3,2 km/h (1 Bft)
22.07.2017 14:59 24,1 °C 24,2 °C 55 % 1012,7 hPa 0,0 mm 1,3 km/h (1 Bft) O-NO 76 ° 1 min 0,000 mm 6,5 UV-I 854 W/m² 14,5 °C 24,1 °C 1,6 km/h (1 Bft)
22.07.2017 15:00 24,1 °C 24,1 °C 62 % 1012,7 hPa 0,0 mm 2,9 km/h (1 Bft) O-NO 76 ° 1 min 0,559 mm 6,5 UV-I 860 W/m² 16,4 °C 24,1 °C 4,8 km/h (1 Bft)
22.07.2017 15:01 24,1 °C 24,1 °C 55 % 1012,7 hPa 0,0 mm 2,3 km/h (1 Bft) O-NO 76 ° 1 min 0,000 mm 6,4 UV-I 847 W/m² 14,5 °C 24,1 °C 4,8 km/h (1 Bft)
22.07.2017 15:02 24,2 °C 24,2 °C 57 % 1012,7 hPa 0,0 mm 0,2 km/h (0 Bft) O-NO 77 ° 1 min 0,000 mm 6,4 UV-I 807 W/m² 15,1 °C 24,2 °C 1,6 km/h (1 Bft)
22.07.2017 15:03 24,2 °C 24,2 °C 54 % 1012,7 hPa 0,0 mm 0,2 km/h (0 Bft) O-NO 76 ° 1 min 0,000 mm 6,4 UV-I 826 W/m² 14,3 °C 24,2 °C 1,6 km/h (1 Bft)
22.07.2017 15:04 24,3 °C 24,3 °C 56 % 1012,6 hPa 0,0 mm 2,7 km/h (1 Bft) W 275 ° 1 min 0,000 mm 6,2 UV-I 765 W/m² 14,9 °C 24,3 °C 6,4 km/h (2 Bft)
22.07.2017 15:05 24,3 °C 24,3 °C 57 % 1012,6 hPa 0,0 mm 4,1 km/h (1 Bft) W 280 ° 1 min 0,000 mm 6,2 UV-I 823 W/m² 15,2 °C 24,3 °C 6,4 km/h (2 Bft)
22.07.2017 15:06 24,2 °C 24,3 °C 55 % 1012,7 hPa 0,0 mm 7,4 km/h (2 Bft) W 263 ° 1 min 0,000 mm 6,3 UV-I 826 W/m² 14,6 °C 24,2 °C 9,7 km/h (2 Bft)
22.07.2017 15:07 24,2 °C 24,3 °C 59 % 1012,6 hPa 0,0 mm 4,6 km/h (1 Bft) W 263 ° 1 min 0,000 mm 6,3 UV-I 830 W/m² 15,7 °C 24,2 °C 6,4 km/h (2 Bft)
22.07.2017 15:08 24,2 °C 24,2 °C 58 % 1012,6 hPa 0,0 mm 5,0 km/h (1 Bft) NW 313 ° 1 min 0,000 mm 6,3 UV-I 837 W/m² 15,4 °C 24,2 °C 6,4 km/h (2 Bft)
22.07.2017 15:09 24,1 °C 24,2 °C 56 % 1012,6 hPa 0,0 mm 4,3 km/h (1 Bft) N-NW 329 ° 1 min 0,000 mm 6,3 UV-I 838 W/m² 14,8 °C 24,1 °C 6,4 km/h (2 Bft)
22.07.2017 15:10 24,2 °C 24,2 °C 58 % 1012,6 hPa 0,0 mm 4,1 km/h (1 Bft) N-NW 331 ° 1 min 0,000 mm 6,3 UV-I 831 W/m² 15,4 °C 24,2 °C 6,4 km/h (2 Bft)
22.07.2017 15:11 24,3 °C 24,3 °C 54 % 1012,6 hPa 0,0 mm 0,8 km/h (0 Bft) N-NW 331 ° 1 min 0,000 mm 6,2 UV-I 831 W/m² 14,4 °C 24,3 °C 3,2 km/h (1 Bft)
22.07.2017 15:12 24,3 °C 24,3 °C 54 % 1012,6 hPa 0,0 mm 0,8 km/h (0 Bft) N-NW 331 ° 1 min 0,000 mm 6,2 UV-I 812 W/m² 14,4 °C 24,3 °C 1,6 km/h (1 Bft)
22.07.2017 15:13 24,4 °C 24,4 °C 62 % 1012,6 hPa 0,0 mm 2,8 km/h (1 Bft) O-NO 73 ° 1 min 0,000 mm 6,2 UV-I 816 W/m² 16,6 °C 24,4 °C 4,8 km/h (1 Bft)
22.07.2017 15:14 24,4 °C 24,4 °C 57 % 1012,6 hPa 0,0 mm 2,7 km/h (1 Bft) O-NO 73 ° 1 min 0,000 mm 6,2 UV-I 831 W/m² 15,3 °C 24,4 °C 4,8 km/h (1 Bft)
22.07.2017 15:15 24,5 °C 24,5 °C 58 % 1012,6 hPa 0,0 mm 3,5 km/h (1 Bft) O 80 ° 1 min 0,000 mm 6,2 UV-I 831 W/m² 15,7 °C 24,5 °C 4,8 km/h (1 Bft)
22.07.2017 15:16 24,4 °C 24,5 °C 54 % 1012,6 hPa 0,0 mm 5,4 km/h (1 Bft) SO 144 ° 0 min 0,000 mm 3,2 UV-I 260 W/m² 14,5 °C 24,4 °C 6,4 km/h (2 Bft)
22.07.2017 15:17 24,3 °C 24,4 °C 53 % 1012,6 hPa 0,0 mm 0,8 km/h (0 Bft) SO 144 ° 0 min 0,000 mm 2,8 UV-I 163 W/m² 14,1 °C 24,3 °C 3,2 km/h (1 Bft)
22.07.2017 15:18 24,1 °C 24,3 °C 56 % 1012,6 hPa 0,0 mm 3,5 km/h (1 Bft) W-NW 288 ° 0 min 0,000 mm 2,7 UV-I 102 W/m² 14,8 °C 24,1 °C 9,7 km/h (2 Bft)
22.07.2017 15:19 24,0 °C 24,1 °C 59 % 1012,6 hPa 0,0 mm 2,6 km/h (1 Bft) W-NW 285 ° 0 min 0,000 mm 2,6 UV-I 102 W/m² 15,5 °C 24,0 °C 4,8 km/h (1 Bft)
22.07.2017 15:20 23,8 °C 24,0 °C 57 % 1012,6 hPa 0,0 mm 0,8 km/h (0 Bft) W-NW 303 ° 0 min 0,000 mm 2,6 UV-I 132 W/m² 14,8 °C 23,8 °C 3,2 km/h (1 Bft)
22.07.2017 15:21 23,8 °C 23,8 °C 59 % 1012,6 hPa 0,0 mm 2,3 km/h (1 Bft) W-NW 303 ° 0 min 0,000 mm 3,2 UV-I 132 W/m² 15,3 °C 23,8 °C 3,2 km/h (1 Bft)
22.07.2017 15:22 23,8 °C 23,8 °C 56 % 1012,6 hPa 0,0 mm 2,6 km/h (1 Bft) NW 306 ° 0 min 0,000 mm 5,4 UV-I 132 W/m² 14,5 °C 23,8 °C 4,8 km/h (1 Bft)
22.07.2017 15:23 23,8 °C 23,8 °C 54 % 1012,6 hPa 0,0 mm 1,2 km/h (1 Bft) NW 306 ° 0 min 0,000 mm 6,2 UV-I 132 W/m² 13,9 °C 23,8 °C 3,2 km/h (1 Bft)
22.07.2017 15:24 23,9 °C 23,9 °C 61 % 1012,6 hPa 0,0 mm 2,2 km/h (1 Bft) N-NW 336 ° 1 min 0,000 mm 6,1 UV-I 856 W/m² 15,9 °C 23,9 °C 4,8 km/h (1 Bft)
22.07.2017 15:25 24,1 °C 24,1 °C 54 % 1012,6 hPa 0,0 mm 3,5 km/h (1 Bft) N 350 ° 1 min 0,000 mm 6,0 UV-I 835 W/m² 14,2 °C 24,1 °C 4,8 km/h (1 Bft)
22.07.2017 15:26 24,3 °C 24,3 °C 55 % 1012,6 hPa 0,0 mm 2,8 km/h (1 Bft) N-NW 329 ° 1 min 0,000 mm 6,0 UV-I 809 W/m² 14,7 °C 24,3 °C 4,8 km/h (1 Bft)
22.07.2017 15:27 24,4 °C 24,4 °C 56 % 1012,6 hPa 0,0 mm 4,7 km/h (1 Bft) NW 319 ° 1 min 0,000 mm 5,9 UV-I 802 W/m² 15,0 °C 24,4 °C 9,7 km/h (2 Bft)
22.07.2017 15:28 24,4 °C 24,4 °C 53 % 1012,6 hPa 0,0 mm 1,8 km/h (1 Bft) NW 307 ° 1 min 0,000 mm 5,9 UV-I 793 W/m² 14,2 °C 24,4 °C 3,2 km/h (1 Bft)
22.07.2017 15:29 24,4 °C 24,4 °C 56 % 1012,6 hPa 0,0 mm 5,4 km/h (1 Bft) NW 321 ° 1 min 0,000 mm 5,8 UV-I 788 W/m² 15,0 °C 24,4 °C 8,0 km/h (2 Bft)
22.07.2017 15:30 24,5 °C 24,5 °C 57 % 1012,6 hPa 0,0 mm 7,2 km/h (2 Bft) NW 321 ° 1 min 0,000 mm 5,8 UV-I 784 W/m² 15,4 °C 24,5 °C 14,5 km/h (3 Bft)
22.07.2017 15:31 24,7 °C 24,7 °C 60 % 1012,6 hPa 0,0 mm 5,3 km/h (1 Bft) N-NW 342 ° 1 min 0,000 mm 5,8 UV-I 780 W/m² 16,4 °C 24,7 °C 6,4 km/h (2 Bft)
22.07.2017 15:32 24,8 °C 24,8 °C 56 % 1012,6 hPa 0,0 mm 3,0 km/h (1 Bft) N 355 ° 1 min 0,000 mm 5,8 UV-I 779 W/m² 15,4 °C 24,8 °C 6,4 km/h (2 Bft)
22.07.2017 15:33 25,0 °C 25,0 °C 60 % 1012,5 hPa 0,0 mm 4,5 km/h (1 Bft) N-NW 341 ° 1 min 0,000 mm 5,7 UV-I 779 W/m² 16,7 °C 25,0 °C 6,4 km/h (2 Bft)
22.07.2017 15:34 25,0 °C 25,0 °C 53 % 1012,6 hPa 0,0 mm 6,5 km/h (2 Bft) N-NW 344 ° 1 min 0,000 mm 5,7 UV-I 777 W/m² 14,7 °C 25,0 °C 9,7 km/h (2 Bft)
22.07.2017 15:35 24,9 °C 25,0 °C 57 % 1012,5 hPa 0,0 mm 6,6 km/h (2 Bft) N-NO 21 ° 1 min 0,000 mm 5,7 UV-I 779 W/m² 15,8 °C 24,9 °C 11,3 km/h (2 Bft)
22.07.2017 15:36 25,1 °C 25,1 °C 56 % 1012,5 hPa 0,0 mm 5,2 km/h (1 Bft) N 5 ° 1 min 0,000 mm 5,7 UV-I 782 W/m² 15,7 °C 25,1 °C 8,0 km/h (2 Bft)
22.07.2017 15:37 25,0 °C 25,1 °C 53 % 1012,5 hPa 0,0 mm 5,6 km/h (1 Bft) N-NO 19 ° 1 min 0,000 mm 5,7 UV-I 791 W/m² 14,7 °C 25,0 °C 8,0 km/h (2 Bft)
22.07.2017 15:38 25,0 °C 25,0 °C 54 % 1012,5 hPa 0,0 mm 5,6 km/h (1 Bft) N 350 ° 1 min 0,000 mm 5,7 UV-I 795 W/m² 15,0 °C 25,0 °C 8,0 km/h (2 Bft)
22.07.2017 15:39 25,1 °C 25,1 °C 53 % 1012,6 hPa 0,0 mm 1,4 km/h (1 Bft) N 350 ° 1 min 0,000 mm 5,7 UV-I 793 W/m² 14,8 °C 25,1 °C 4,8 km/h (1 Bft)
22.07.2017 15:40 24,9 °C 25,1 °C 55 % 1012,5 hPa 0,0 mm 1,3 km/h (1 Bft) N 350 ° 1 min 0,000 mm 5,6 UV-I 784 W/m² 15,2 °C 24,9 °C 3,2 km/h (1 Bft)
22.07.2017 15:41 24,9 °C 24,9 °C 51 % 1012,5 hPa 0,0 mm 5,0 km/h (1 Bft) N 355 ° 1 min 0,000 mm 5,6 UV-I 777 W/m² 14,1 °C 24,9 °C 8,0 km/h (2 Bft)
22.07.2017 15:42 24,9 °C 24,9 °C 54 % 1012,5 hPa 0,0 mm 6,0 km/h (2 Bft) N-NO 17 ° 1 min 0,000 mm 5,5 UV-I 770 W/m² 14,9 °C 24,9 °C 8,0 km/h (2 Bft)
22.07.2017 15:43 25,1 °C 25,1 °C 52 % 1012,5 hPa 0,0 mm 7,0 km/h (2 Bft) N-NO 17 ° 1 min 0,000 mm 5,5 UV-I 763 W/m² 14,5 °C 25,1 °C 11,3 km/h (2 Bft)
22.07.2017 15:44 25,1 °C 25,1 °C 53 % 1012,6 hPa 0,0 mm 6,7 km/h (2 Bft) N-NW 348 ° 1 min 0,000 mm 5,5 UV-I 761 W/m² 14,8 °C 25,1 °C 9,7 km/h (2 Bft)
22.07.2017 15:45 25,0 °C 25,1 °C 51 % 1012,6 hPa 0,0 mm 7,6 km/h (2 Bft) N-NO 15 ° 1 min 0,000 mm 5,5 UV-I 759 W/m² 14,1 °C 25,0 °C 9,7 km/h (2 Bft)
22.07.2017 15:46 24,9 °C 25,0 °C 52 % 1012,6 hPa 0,0 mm 5,0 km/h (1 Bft) N 9 ° 1 min 0,000 mm 5,5 UV-I 752 W/m² 14,4 °C 24,9 °C 9,7 km/h (2 Bft)
22.07.2017 15:47 24,9 °C 24,9 °C 55 % 1012,5 hPa 0,0 mm 5,6 km/h (1 Bft) N-NW 343 ° 1 min 0,000 mm 5,4 UV-I 745 W/m² 15,2 °C 24,9 °C 8,0 km/h (2 Bft)
22.07.2017 15:48 25,0 °C 25,0 °C 52 % 1012,5 hPa 0,0 mm 8,4 km/h (2 Bft) N 5 ° 1 min 0,000 mm 5,4 UV-I 745 W/m² 14,4 °C 25,0 °C 12,9 km/h (3 Bft)
22.07.2017 15:49 24,9 °C 25,0 °C 51 % 1012,6 hPa 0,0 mm 8,2 km/h (2 Bft) N 360 ° 1 min 0,000 mm 5,3 UV-I 733 W/m² 14,1 °C 24,9 °C 14,5 km/h (3 Bft)
22.07.2017 15:50 25,1 °C 25,1 °C 53 % 1012,6 hPa 0,0 mm 4,9 km/h (1 Bft) N-NW 334 ° 1 min 0,000 mm 5,3 UV-I 733 W/m² 14,8 °C 25,1 °C 6,4 km/h (2 Bft)
22.07.2017 15:51 25,1 °C 25,1 °C 54 % 1012,6 hPa 0,0 mm 2,8 km/h (1 Bft) W-NW 293 ° 1 min 0,000 mm 5,3 UV-I 740 W/m² 15,1 °C 25,1 °C 6,4 km/h (2 Bft)
22.07.2017 15:52 25,0 °C 25,1 °C 51 % 1012,5 hPa 0,0 mm 4,5 km/h (1 Bft) W-NW 288 ° 1 min 0,000 mm 5,3 UV-I 738 W/m² 14,1 °C 25,0 °C 6,4 km/h (2 Bft)
22.07.2017 15:53 24,8 °C 25,0 °C 50 % 1012,6 hPa 0,0 mm 4,6 km/h (1 Bft) NW 310 ° 1 min 0,000 mm 5,3 UV-I 738 W/m² 13,7 °C 24,8 °C 6,4 km/h (2 Bft)
22.07.2017 15:54 24,8 °C 24,8 °C 54 % 1012,6 hPa 0,0 mm 2,7 km/h (1 Bft) NW 310 ° 1 min 0,000 mm 5,3 UV-I 737 W/m² 14,8 °C 24,8 °C 4,8 km/h (1 Bft)
22.07.2017 15:55 24,7 °C 24,8 °C 54 % 1012,6 hPa 0,0 mm 6,5 km/h (2 Bft) NW 317 ° 1 min 0,000 mm 5,3 UV-I 737 W/m² 14,8 °C 24,7 °C 8,0 km/h (2 Bft)
22.07.2017 15:56 24,7 °C 24,7 °C 54 % 1012,6 hPa 0,0 mm 2,8 km/h (1 Bft) N-NW 346 ° 1 min 0,000 mm 5,2 UV-I 731 W/m² 14,8 °C 24,7 °C 4,8 km/h (1 Bft)
22.07.2017 15:57 24,8 °C 24,8 °C 57 % 1012,6 hPa 0,0 mm 6,4 km/h (2 Bft) N-NO 24 ° 1 min 0,000 mm 5,2 UV-I 729 W/m² 15,7 °C 24,8 °C 11,3 km/h (2 Bft)
22.07.2017 15:58 24,8 °C 24,8 °C 53 % 1012,5 hPa 0,0 mm 5,3 km/h (1 Bft) N-NW 332 ° 1 min 0,000 mm 5,1 UV-I 729 W/m² 14,6 °C 24,8 °C 8,0 km/h (2 Bft)
22.07.2017 15:59 24,9 °C 24,9 °C 55 % 1012,5 hPa 0,0 mm 4,5 km/h (1 Bft) N-NW 337 ° 1 min 0,000 mm 5,1 UV-I 722 W/m² 15,2 °C 24,9 °C 6,4 km/h (2 Bft)
22.07.2017 16:00 25,0 °C 25,1 °C 54 % 1012,5 hPa 0,0 mm 3,7 km/h (1 Bft) NW 321 ° 1 min 0,483 mm 5,0 UV-I 717 W/m² 15,0 °C 25,0 °C 6,4 km/h (2 Bft)
22.07.2017 16:01 25,0 °C 25,1 °C 52 % 1012,5 hPa 0,0 mm 5,0 km/h (1 Bft) N-NW 338 ° 1 min 0,000 mm 5,1 UV-I 719 W/m² 14,4 °C 25,0 °C 8,0 km/h (2 Bft)
22.07.2017 16:02 25,0 °C 25,0 °C 54 % 1012,5 hPa 0,0 mm 5,2 km/h (1 Bft) N-NW 327 ° 1 min 0,000 mm 5,1 UV-I 715 W/m² 15,0 °C 25,0 °C 8,0 km/h (2 Bft)
22.07.2017 16:03 25,0 °C 25,0 °C 54 % 1012,5 hPa 0,0 mm 6,8 km/h (2 Bft) N 9 ° 1 min 0,000 mm 5,1 UV-I 715 W/m² 15,0 °C 25,0 °C 12,9 km/h (3 Bft)
22.07.2017 16:04 24,9 °C 25,0 °C 57 % 1012,5 hPa 0,0 mm 7,1 km/h (2 Bft) N 360 ° 1 min 0,000 mm 5,0 UV-I 710 W/m² 15,8 °C 24,9 °C 9,7 km/h (2 Bft)
22.07.2017 16:05 24,9 °C 24,9 °C 51 % 1012,5 hPa 0,0 mm 6,4 km/h (2 Bft) W-NW 303 ° 1 min 0,000 mm 5,0 UV-I 708 W/m² 14,1 °C 24,9 °C 8,0 km/h (2 Bft)
22.07.2017 16:06 24,9 °C 24,9 °C 56 % 1012,5 hPa 0,0 mm 4,5 km/h (1 Bft) N-NO 30 ° 1 min 0,000 mm 5,0 UV-I 707 W/m² 15,5 °C 24,9 °C 6,4 km/h (2 Bft)
22.07.2017 16:07 24,8 °C 24,9 °C 51 % 1012,5 hPa 0,0 mm 6,0 km/h (2 Bft) N-NO 32 ° 1 min 0,000 mm 4,8 UV-I 668 W/m² 14,0 °C 24,8 °C 11,3 km/h (2 Bft)
22.07.2017 16:08 24,9 °C 24,9 °C 52 % 1012,4 hPa 0,0 mm 7,7 km/h (2 Bft) N-NW 333 ° 1 min 0,000 mm 2,7 UV-I 668 W/m² 14,4 °C 24,9 °C 12,9 km/h (3 Bft)
22.07.2017 16:09 24,9 °C 24,9 °C 54 % 1012,5 hPa 0,0 mm 5,0 km/h (1 Bft) N 355 ° 1 min 0,000 mm 3,1 UV-I 668 W/m² 14,9 °C 24,9 °C 6,4 km/h (2 Bft)
22.07.2017 16:10 24,8 °C 24,9 °C 52 % 1012,5 hPa 0,0 mm 4,5 km/h (1 Bft) N-NO 30 ° 1 min 0,000 mm 4,8 UV-I 668 W/m² 14,3 °C 24,8 °C 6,4 km/h (2 Bft)
22.07.2017 16:11 24,7 °C 24,8 °C 54 % 1012,5 hPa 0,0 mm 4,0 km/h (1 Bft) NW 319 ° 1 min 0,000 mm 4,8 UV-I 708 W/m² 14,8 °C 24,7 °C 6,4 km/h (2 Bft)
22.07.2017 16:12 24,6 °C 24,7 °C 54 % 1012,5 hPa 0,0 mm 6,0 km/h (2 Bft) W-NW 283 ° 1 min 0,000 mm 4,8 UV-I 705 W/m² 14,7 °C 24,6 °C 9,7 km/h (2 Bft)
22.07.2017 16:13 24,5 °C 24,6 °C 51 % 1012,5 hPa 0,0 mm 3,9 km/h (1 Bft) W-NW 292 ° 1 min 0,000 mm 4,8 UV-I 703 W/m² 13,7 °C 24,5 °C 8,0 km/h (2 Bft)
22.07.2017 16:14 24,4 °C 24,5 °C 54 % 1012,5 hPa 0,0 mm 5,1 km/h (1 Bft) NW 321 ° 1 min 0,000 mm 4,7 UV-I 693 W/m² 14,5 °C 24,4 °C 8,0 km/h (2 Bft)
22.07.2017 16:15 24,4 °C 24,4 °C 52 % 1012,5 hPa 0,0 mm 0,9 km/h (0 Bft) NW 306 ° 1 min 0,000 mm 4,7 UV-I 684 W/m² 13,9 °C 24,4 °C 1,6 km/h (1 Bft)
22.07.2017 16:16 24,4 °C 24,4 °C 55 % 1012,5 hPa 0,0 mm 3,5 km/h (1 Bft) NW 320 ° 1 min 0,000 mm 4,7 UV-I 647 W/m² 14,8 °C 24,4 °C 8,0 km/h (2 Bft)
22.07.2017 16:17 24,5 °C 24,5 °C 53 % 1012,5 hPa 0,0 mm 6,0 km/h (2 Bft) N-NW 329 ° 1 min 0,000 mm 4,3 UV-I 647 W/m² 14,3 °C 24,5 °C 6,4 km/h (2 Bft)
22.07.2017 16:18 24,6 °C 24,6 °C 53 % 1012,5 hPa 0,0 mm 2,3 km/h (1 Bft) N-NW 329 ° 0 min 0,000 mm 3,5 UV-I 79 W/m² 14,4 °C 24,6 °C 3,2 km/h (1 Bft)
22.07.2017 16:19 24,6 °C 24,6 °C 52 % 1012,4 hPa 0,0 mm 2,2 km/h (1 Bft) N-NW 342 ° 0 min 0,000 mm 2,4 UV-I 77 W/m² 14,1 °C 24,6 °C 3,2 km/h (1 Bft)
22.07.2017 16:20 24,6 °C 24,6 °C 54 % 1012,4 hPa 0,0 mm 2,4 km/h (1 Bft) N-NW 342 ° 0 min 0,000 mm 2,4 UV-I 77 W/m² 14,7 °C 24,6 °C 3,2 km/h (1 Bft)
22.07.2017 16:21 24,6 °C 24,6 °C 54 % 1012,4 hPa 0,0 mm 4,1 km/h (1 Bft) N 355 ° 0 min 0,000 mm 2,3 UV-I 74 W/m² 14,7 °C 24,6 °C 6,4 km/h (2 Bft)
22.07.2017 16:22 24,6 °C 24,6 °C 52 % 1012,4 hPa 0,0 mm 3,8 km/h (1 Bft) N 355 ° 0 min 0,000 mm 2,3 UV-I 72 W/m² 14,1 °C 24,6 °C 4,8 km/h (1 Bft)
22.07.2017 16:23 24,7 °C 24,7 °C 50 % 1012,4 hPa 0,0 mm 0,8 km/h (0 Bft) N 355 ° 0 min 0,000 mm 2,3 UV-I 70 W/m² 13,6 °C 24,7 °C 1,6 km/h (1 Bft)
22.07.2017 16:24 24,7 °C 24,7 °C 50 % 1012,4 hPa 0,0 mm 0,9 km/h (0 Bft) N 355 ° 0 min 0,000 mm 2,3 UV-I 76 W/m² 13,6 °C 24,7 °C 1,6 km/h (1 Bft)
22.07.2017 16:25 24,6 °C 24,7 °C 50 % 1012,4 hPa 0,0 mm 0,1 km/h (0 Bft) N 355 ° 0 min 0,000 mm 2,3 UV-I 76 W/m² 13,5 °C 24,6 °C 1,6 km/h (1 Bft)
22.07.2017 16:26 24,5 °C 24,6 °C 53 % 1012,4 hPa 0,0 mm 0,0 km/h (0 Bft) N 355 ° 0 min 0,000 mm 2,3 UV-I 76 W/m² 14,3 °C 24,5 °C 0,0 km/h (0 Bft)
22.07.2017 16:27 24,4 °C 24,5 °C 53 % 1012,4 hPa 0,0 mm 1,1 km/h (1 Bft) W-NW 302 ° 0 min 0,000 mm 2,3 UV-I 74 W/m² 14,2 °C 24,4 °C 3,2 km/h (1 Bft)
22.07.2017 16:28 24,4 °C 24,4 °C 52 % 1012,4 hPa 0,0 mm 2,2 km/h (1 Bft) N-NW 338 ° 0 min 0,000 mm 2,3 UV-I 72 W/m² 13,9 °C 24,4 °C 3,2 km/h (1 Bft)
22.07.2017 16:29 24,4 °C 24,4 °C 56 % 1012,3 hPa 0,0 mm 0,7 km/h (0 Bft) N 360 ° 0 min 0,000 mm 2,2 UV-I 70 W/m² 15,0 °C 24,4 °C 3,2 km/h (1 Bft)
22.07.2017 16:30 24,3 °C 24,4 °C 52 % 1012,3 hPa 0,0 mm 3,1 km/h (1 Bft) O 100 ° 0 min 0,000 mm 2,2 UV-I 69 W/m² 13,8 °C 24,3 °C 4,8 km/h (1 Bft)
22.07.2017 16:31 24,3 °C 24,3 °C 52 % 1012,4 hPa 0,0 mm 1,3 km/h (1 Bft) O 100 ° 0 min 0,000 mm 2,2 UV-I 70 W/m² 13,8 °C 24,3 °C 3,2 km/h (1 Bft)
22.07.2017 16:32 24,3 °C 24,3 °C 54 % 1012,3 hPa 0,0 mm 0,0 km/h (0 Bft) O 100 ° 0 min 0,000 mm 2,2 UV-I 72 W/m² 14,4 °C 24,3 °C 0,0 km/h (0 Bft)
22.07.2017 16:33 24,3 °C 24,3 °C 52 % 1012,3 hPa 0,0 mm 0,0 km/h (0 Bft) O 100 ° 0 min 0,000 mm 2,2 UV-I 76 W/m² 13,8 °C 24,3 °C 0,0 km/h (0 Bft)
22.07.2017 16:34 24,3 °C 24,3 °C 54 % 1012,2 hPa 0,0 mm 0,9 km/h (0 Bft) O 91 ° 0 min 0,000 mm 2,2 UV-I 113 W/m² 14,4 °C 24,3 °C 1,6 km/h (1 Bft)
22.07.2017 16:35 24,3 °C 24,3 °C 54 % 1012,3 hPa 0,0 mm 2,0 km/h (1 Bft) O-NO 74 ° 0 min 0,000 mm 2,2 UV-I 118 W/m² 14,4 °C 24,3 °C 3,2 km/h (1 Bft)
22.07.2017 16:36 24,3 °C 24,3 °C 55 % 1012,3 hPa 0,0 mm 1,1 km/h (1 Bft) N 355 ° 0 min 0,000 mm 2,2 UV-I 69 W/m² 14,7 °C 24,3 °C 3,2 km/h (1 Bft)
22.07.2017 16:37 24,3 °C 24,3 °C 53 % 1012,3 hPa 0,0 mm 2,7 km/h (1 Bft) N 355 ° 0 min 0,000 mm 2,2 UV-I 72 W/m² 14,1 °C 24,3 °C 6,4 km/h (2 Bft)
22.07.2017 16:38 24,4 °C 24,4 °C 53 % 1012,3 hPa 0,0 mm 4,3 km/h (1 Bft) NW 321 ° 0 min 0,000 mm 2,2 UV-I 97 W/m² 14,2 °C 24,4 °C 4,8 km/h (1 Bft)
22.07.2017 16:39 24,4 °C 24,4 °C 50 % 1012,3 hPa 0,0 mm 3,8 km/h (1 Bft) NW 321 ° 0 min 0,000 mm 2,2 UV-I 93 W/m² 13,3 °C 24,4 °C 4,8 km/h (1 Bft)
22.07.2017 16:40 24,5 °C 24,5 °C 53 % 1012,3 hPa 0,0 mm 2,1 km/h (1 Bft) NW 321 ° 0 min 0,000 mm 2,2 UV-I 70 W/m² 14,3 °C 24,5 °C 4,8 km/h (1 Bft)
22.07.2017 16:41 24,5 °C 24,6 °C 60 % 1012,3 hPa 0,0 mm 0,1 km/h (0 Bft) NW 321 ° 0 min 0,000 mm 2,1 UV-I 69 W/m² 16,2 °C 24,5 °C 1,6 km/h (1 Bft)
22.07.2017 16:42 24,5 °C 24,5 °C 53 % 1012,2 hPa 0,0 mm 0,0 km/h (0 Bft) N-NW 329 ° 0 min 0,000 mm 2,1 UV-I 69 W/m² 14,3 °C 24,5 °C 0,0 km/h (0 Bft)
22.07.2017 16:43 24,5 °C 24,5 °C 52 % 1012,2 hPa 0,0 mm 0,0 km/h (0 Bft) N-NW 329 ° 0 min 0,000 mm 2,1 UV-I 69 W/m² 14,0 °C 24,5 °C 0,0 km/h (0 Bft)
22.07.2017 16:44 24,4 °C 24,5 °C 52 % 1012,2 hPa 0,0 mm 0,0 km/h (0 Bft) N-NW 329 ° 0 min 0,000 mm 2,1 UV-I 67 W/m² 13,9 °C 24,4 °C 0,0 km/h (0 Bft)
22.07.2017 16:45 24,4 °C 24,4 °C 53 % 1012,2 hPa 0,0 mm 0,1 km/h (0 Bft) N-NW 329 ° 0 min 0,000 mm 2,1 UV-I 67 W/m² 14,2 °C 24,4 °C 1,6 km/h (1 Bft)
22.07.2017 16:46 24,4 °C 24,4 °C 52 % 1012,2 hPa 0,0 mm 1,9 km/h (1 Bft) N-NW 329 ° 0 min 0,000 mm 2,1 UV-I 69 W/m² 13,9 °C 24,4 °C 3,2 km/h (1 Bft)
22.07.2017 16:47 24,5 °C 24,5 °C 54 % 1012,2 hPa 0,0 mm 2,4 km/h (1 Bft) N-NW 327 ° 0 min 0,000 mm 2,1 UV-I 67 W/m² 14,6 °C 24,5 °C 4,8 km/h (1 Bft)
22.07.2017 16:48 24,6 °C 24,6 °C 56 % 1012,2 hPa 0,0 mm 7,1 km/h (2 Bft) N-NW 331 ° 0 min 0,000 mm 2,1 UV-I 65 W/m² 15,2 °C 24,6 °C 11,3 km/h (2 Bft)
22.07.2017 16:49 24,7 °C 24,7 °C 55 % 1012,2 hPa 0,0 mm 3,8 km/h (1 Bft) N-NW 329 ° 0 min 0,000 mm 2,1 UV-I 65 W/m² 15,0 °C 24,7 °C 8,0 km/h (2 Bft)
22.07.2017 16:50 24,7 °C 24,7 °C 54 % 1012,2 hPa 0,0 mm 3,1 km/h (1 Bft) NW 325 ° 0 min 0,000 mm 2,1 UV-I 67 W/m² 14,8 °C 24,7 °C 6,4 km/h (2 Bft)
22.07.2017 16:51 24,8 °C 24,8 °C 53 % 1012,3 hPa 0,0 mm 4,9 km/h (1 Bft) W-NW 297 ° 0 min 0,000 mm 2,1 UV-I 67 W/m² 14,6 °C 24,8 °C 8,0 km/h (2 Bft)
22.07.2017 16:52 24,8 °C 24,8 °C 52 % 1012,2 hPa 0,0 mm 4,0 km/h (1 Bft) W-NW 294 ° 0 min 0,000 mm 2,0 UV-I 67 W/m² 14,3 °C 24,8 °C 4,8 km/h (1 Bft)
22.07.2017 16:53 24,8 °C 24,8 °C 51 % 1012,2 hPa 0,0 mm 4,6 km/h (1 Bft) W 260 ° 0 min 0,000 mm 2,0 UV-I 65 W/m² 14,0 °C 24,8 °C 9,7 km/h (2 Bft)
22.07.2017 16:54 24,7 °C 24,8 °C 51 % 1012,2 hPa 0,0 mm 8,8 km/h (2 Bft) W-NW 286 ° 0 min 0,000 mm 2,0 UV-I 65 W/m² 13,9 °C 24,7 °C 11,3 km/h (2 Bft)
22.07.2017 16:55 24,7 °C 24,8 °C 53 % 1012,2 hPa 0,0 mm 6,7 km/h (2 Bft) W-NW 298 ° 0 min 0,000 mm 2,0 UV-I 65 W/m² 14,5 °C 24,7 °C 9,7 km/h (2 Bft)
22.07.2017 16:56 24,8 °C 24,8 °C 56 % 1012,2 hPa 0,0 mm 6,0 km/h (2 Bft) W-NW 287 ° 0 min 0,000 mm 2,0 UV-I 65 W/m² 15,4 °C 24,8 °C 6,4 km/h (2 Bft)
22.07.2017 16:57 24,8 °C 24,8 °C 51 % 1012,2 hPa 0,0 mm 5,1 km/h (1 Bft) NW 309 ° 0 min 0,000 mm 2,0 UV-I 65 W/m² 14,0 °C 24,8 °C 8,0 km/h (2 Bft)
22.07.2017 16:58 24,7 °C 24,8 °C 50 % 1012,2 hPa 0,0 mm 4,6 km/h (1 Bft) W-SW 241 ° 0 min 0,000 mm 2,0 UV-I 65 W/m² 13,6 °C 24,7 °C 9,7 km/h (2 Bft)
22.07.2017 16:59 24,7 °C 24,8 °C 50 % 1012,2 hPa 0,0 mm 4,3 km/h (1 Bft) W-SW 251 ° 0 min 0,000 mm 2,0 UV-I 65 W/m² 13,6 °C 24,7 °C 6,4 km/h (2 Bft)
22.07.2017 17:00 24,7 °C 24,7 °C 48 % 1012,2 hPa 0,0 mm 4,7 km/h (1 Bft) W 281 ° 0 min 0,000 mm 2,0 UV-I 65 W/m² 12,9 °C 24,7 °C 9,7 km/h (2 Bft)
22.07.2017 17:01 24,7 °C 24,7 °C 50 % 1012,2 hPa 0,0 mm 6,3 km/h (2 Bft) NW 321 ° 0 min 0,178 mm 2,0 UV-I 65 W/m² 13,6 °C 24,7 °C 8,0 km/h (2 Bft)
22.07.2017 17:02 24,7 °C 24,7 °C 48 % 1012,1 hPa 0,0 mm 1,7 km/h (1 Bft) NW 320 ° 0 min 0,000 mm 2,0 UV-I 67 W/m² 12,9 °C 24,7 °C 3,2 km/h (1 Bft)
22.07.2017 17:03 24,7 °C 24,7 °C 47 % 1012,1 hPa 0,0 mm 4,1 km/h (1 Bft) W-NW 292 ° 0 min 0,000 mm 1,9 UV-I 67 W/m² 12,6 °C 24,7 °C 6,4 km/h (2 Bft)
22.07.2017 17:04 24,7 °C 24,7 °C 48 % 1012,1 hPa 0,0 mm 2,5 km/h (1 Bft) W 265 ° 0 min 0,000 mm 1,9 UV-I 65 W/m² 12,9 °C 24,7 °C 4,8 km/h (1 Bft)
22.07.2017 17:05 24,7 °C 24,7 °C 49 % 1012,1 hPa 0,0 mm 2,3 km/h (1 Bft) W-NW 294 ° 0 min 0,000 mm 1,9 UV-I 63 W/m² 13,3 °C 24,7 °C 4,8 km/h (1 Bft)
22.07.2017 17:06 24,7 °C 24,7 °C 47 % 1012,1 hPa 0,0 mm 4,0 km/h (1 Bft) N 355 ° 0 min 0,000 mm 1,9 UV-I 62 W/m² 12,6 °C 24,7 °C 6,4 km/h (2 Bft)
22.07.2017 17:07 24,8 °C 24,8 °C 48 % 1012,1 hPa 0,0 mm 4,0 km/h (1 Bft) W-NW 298 ° 0 min 0,000 mm 1,9 UV-I 62 W/m² 13,0 °C 24,8 °C 6,4 km/h (2 Bft)
22.07.2017 17:08 24,9 °C 24,9 °C 49 % 1012,1 hPa 0,0 mm 4,1 km/h (1 Bft) W-SW 253 ° 0 min 0,000 mm 1,9 UV-I 62 W/m² 13,4 °C 24,9 °C 8,0 km/h (2 Bft)
22.07.2017 17:09 24,9 °C 24,9 °C 49 % 1012,1 hPa 0,0 mm 5,5 km/h (1 Bft) W 273 ° 0 min 0,000 mm 1,9 UV-I 65 W/m² 13,4 °C 24,9 °C 9,7 km/h (2 Bft)
22.07.2017 17:10 24,9 °C 24,9 °C 52 % 1012,1 hPa 0,0 mm 7,7 km/h (2 Bft) NW 319 ° 0 min 0,000 mm 1,9 UV-I 62 W/m² 14,4 °C 24,9 °C 12,9 km/h (3 Bft)
22.07.2017 17:11 24,9 °C 24,9 °C 52 % 1012,1 hPa 0,0 mm 7,7 km/h (2 Bft) W 271 ° 0 min 0,000 mm 1,9 UV-I 67 W/m² 14,4 °C 24,9 °C 12,9 km/h (3 Bft)
22.07.2017 17:12 24,9 °C 24,9 °C 52 % 1012,1 hPa 0,0 mm 6,5 km/h (2 Bft) W 264 ° 0 min 0,000 mm 1,9 UV-I 62 W/m² 14,4 °C 24,9 °C 9,7 km/h (2 Bft)
22.07.2017 17:13 24,9 °C 24,9 °C 56 % 1012,1 hPa 0,0 mm 5,5 km/h (1 Bft) W-SW 252 ° 0 min 0,000 mm 1,9 UV-I 62 W/m² 15,5 °C 24,9 °C 6,4 km/h (2 Bft)
22.07.2017 17:14 24,9 °C 24,9 °C 51 % 1012,1 hPa 0,0 mm 4,0 km/h (1 Bft) W-SW 256 ° 0 min 0,000 mm 1,8 UV-I 62 W/m² 14,1 °C 24,9 °C 6,4 km/h (2 Bft)
22.07.2017 17:15 24,8 °C 24,9 °C 54 % 1012,1 hPa 0,0 mm 3,8 km/h (1 Bft) W 259 ° 0 min 0,000 mm 1,8 UV-I 62 W/m² 14,8 °C 24,8 °C 6,4 km/h (2 Bft)
22.07.2017 17:16 24,8 °C 24,8 °C 54 % 1012,1 hPa 0,0 mm 8,1 km/h (2 Bft) NW 304 ° 0 min 0,000 mm 1,8 UV-I 62 W/m² 14,8 °C 24,8 °C 12,9 km/h (3 Bft)
22.07.2017 17:17 24,8 °C 24,8 °C 53 % 1012,1 hPa 0,0 mm 6,0 km/h (2 Bft) NW 314 ° 0 min 0,000 mm 1,8 UV-I 69 W/m² 14,6 °C 24,8 °C 8,0 km/h (2 Bft)
22.07.2017 17:18 24,8 °C 24,8 °C 48 % 1012,1 hPa 0,0 mm 5,0 km/h (1 Bft) NW 317 ° 0 min 0,000 mm 1,8 UV-I 77 W/m² 13,0 °C 24,8 °C 6,4 km/h (2 Bft)
22.07.2017 17:19 24,8 °C 24,8 °C 49 % 1012,1 hPa 0,0 mm 3,2 km/h (1 Bft) NW 317 ° 0 min 0,000 mm 1,8 UV-I 69 W/m² 13,3 °C 24,8 °C 4,8 km/h (1 Bft)
22.07.2017 17:20 24,8 °C 24,9 °C 51 % 1012,1 hPa 0,0 mm 2,0 km/h (1 Bft) NW 317 ° 0 min 0,000 mm 1,8 UV-I 60 W/m² 14,0 °C 24,8 °C 3,2 km/h (1 Bft)
22.07.2017 17:21 24,8 °C 24,9 °C 51 % 1012,1 hPa 0,0 mm 2,4 km/h (1 Bft) W 270 ° 0 min 0,000 mm 1,8 UV-I 60 W/m² 14,0 °C 24,8 °C 4,8 km/h (1 Bft)
22.07.2017 17:22 24,8 °C 24,9 °C 48 % 1012,1 hPa 0,0 mm 5,4 km/h (1 Bft) NW 322 ° 0 min 0,000 mm 1,8 UV-I 60 W/m² 13,0 °C 24,8 °C 8,0 km/h (2 Bft)
22.07.2017 17:23 24,8 °C 24,8 °C 52 % 1012,1 hPa 0,0 mm 7,8 km/h (2 Bft) NW 309 ° 0 min 0,000 mm 1,7 UV-I 62 W/m² 14,3 °C 24,8 °C 12,9 km/h (3 Bft)
22.07.2017 17:24 24,8 °C 24,8 °C 54 % 1012,1 hPa 0,0 mm 4,5 km/h (1 Bft) N-NW 329 ° 0 min 0,000 mm 1,7 UV-I 60 W/m² 14,8 °C 24,8 °C 8,0 km/h (2 Bft)
22.07.2017 17:25 24,9 °C 24,9 °C 47 % 1012,1 hPa 0,0 mm 3,7 km/h (1 Bft) N-NW 340 ° 0 min 0,000 mm 1,7 UV-I 62 W/m² 12,8 °C 24,9 °C 6,4 km/h (2 Bft)
22.07.2017 17:26 24,9 °C 24,9 °C 49 % 1012,1 hPa 0,0 mm 4,6 km/h (1 Bft) NW 322 ° 0 min 0,000 mm 1,7 UV-I 62 W/m² 13,4 °C 24,9 °C 8,0 km/h (2 Bft)
22.07.2017 17:27 24,9 °C 24,9 °C 50 % 1012,1 hPa 0,0 mm 3,2 km/h (1 Bft) NW 308 ° 0 min 0,000 mm 1,7 UV-I 63 W/m² 13,7 °C 24,9 °C 4,8 km/h (1 Bft)
22.07.2017 17:28 24,9 °C 24,9 °C 48 % 1012,1 hPa 0,0 mm 7,1 km/h (2 Bft) NW 308 ° 0 min 0,000 mm 1,7 UV-I 72 W/m² 13,1 °C 24,9 °C 9,7 km/h (2 Bft)
22.07.2017 17:29 24,9 °C 24,9 °C 47 % 1012,1 hPa 0,0 mm 5,9 km/h (2 Bft) NW 321 ° 0 min 0,000 mm 1,7 UV-I 67 W/m² 12,8 °C 24,9 °C 8,0 km/h (2 Bft)
22.07.2017 17:30 24,9 °C 24,9 °C 49 % 1012,2 hPa 0,0 mm 6,7 km/h (2 Bft) N-NW 336 ° 0 min 0,000 mm 1,7 UV-I 79 W/m² 13,4 °C 24,9 °C 8,0 km/h (2 Bft)
22.07.2017 17:31 24,9 °C 24,9 °C 45 % 1012,2 hPa 0,0 mm 10,2 km/h (2 Bft) NW 309 ° 0 min 0,000 mm 1,7 UV-I 125 W/m² 12,1 °C 24,9 °C 14,5 km/h (3 Bft)
22.07.2017 17:32 24,9 °C 24,9 °C 47 % 1012,1 hPa 0,0 mm 7,6 km/h (2 Bft) N-NW 329 ° 0 min 0,000 mm 1,7 UV-I 104 W/m² 12,8 °C 24,9 °C 12,9 km/h (3 Bft)
22.07.2017 17:33 24,9 °C 24,9 °C 49 % 1012,2 hPa 0,0 mm 3,6 km/h (1 Bft) N 360 ° 0 min 0,000 mm 1,7 UV-I 72 W/m² 13,4 °C 24,9 °C 8,0 km/h (2 Bft)
22.07.2017 17:34 24,9 °C 24,9 °C 46 % 1012,2 hPa 0,0 mm 4,2 km/h (1 Bft) NW 322 ° 0 min 0,000 mm 1,7 UV-I 70 W/m² 12,5 °C 24,9 °C 6,4 km/h (2 Bft)
22.07.2017 17:35 24,9 °C 24,9 °C 51 % 1012,2 hPa 0,0 mm 5,2 km/h (1 Bft) NW 313 ° 0 min 0,000 mm 1,7 UV-I 77 W/m² 14,1 °C 24,9 °C 6,4 km/h (2 Bft)
22.07.2017 17:36 24,9 °C 24,9 °C 49 % 1012,2 hPa 0,0 mm 4,2 km/h (1 Bft) N 355 ° 0 min 0,000 mm 1,7 UV-I 97 W/m² 13,4 °C 24,9 °C 4,8 km/h (1 Bft)
22.07.2017 17:37 24,9 °C 24,9 °C 50 % 1012,2 hPa 0,0 mm 5,3 km/h (1 Bft) N 360 ° 0 min 0,000 mm 1,7 UV-I 88 W/m² 13,7 °C 24,9 °C 8,0 km/h (2 Bft)
22.07.2017 17:38 24,9 °C 24,9 °C 48 % 1012,2 hPa 0,0 mm 4,8 km/h (1 Bft) NW 326 ° 0 min 0,000 mm 1,6 UV-I 81 W/m² 13,1 °C 24,9 °C 8,0 km/h (2 Bft)
22.07.2017 17:39 24,9 °C 24,9 °C 48 % 1012,2 hPa 0,0 mm 2,7 km/h (1 Bft) NW 321 ° 0 min 0,000 mm 1,7 UV-I 90 W/m² 13,1 °C 24,9 °C 4,8 km/h (1 Bft)
22.07.2017 17:40 24,8 °C 24,9 °C 46 % 1012,2 hPa 0,0 mm 4,8 km/h (1 Bft) W-NW 290 ° 0 min 0,000 mm 1,7 UV-I 91 W/m² 12,4 °C 24,8 °C 8,0 km/h (2 Bft)
22.07.2017 17:41 24,8 °C 24,8 °C 49 % 1012,2 hPa 0,0 mm 4,6 km/h (1 Bft) W 276 ° 0 min 0,000 mm 1,6 UV-I 79 W/m² 13,3 °C 24,8 °C 6,4 km/h (2 Bft)
22.07.2017 17:42 24,8 °C 24,8 °C 49 % 1012,2 hPa 0,0 mm 3,9 km/h (1 Bft) NW 304 ° 0 min 0,000 mm 1,6 UV-I 74 W/m² 13,3 °C 24,8 °C 6,4 km/h (2 Bft)
22.07.2017 17:43 24,8 °C 24,8 °C 49 % 1012,2 hPa 0,0 mm 6,8 km/h (2 Bft) W-NW 291 ° 0 min 0,000 mm 1,6 UV-I 74 W/m² 13,3 °C 24,8 °C 11,3 km/h (2 Bft)
22.07.2017 17:44 24,8 °C 24,8 °C 47 % 1012,3 hPa 0,0 mm 4,6 km/h (1 Bft) NW 311 ° 0 min 0,000 mm 1,6 UV-I 74 W/m² 12,7 °C 24,8 °C 6,4 km/h (2 Bft)
22.07.2017 17:45 24,8 °C 24,8 °C 47 % 1012,3 hPa 0,0 mm 2,7 km/h (1 Bft) NW 313 ° 0 min 0,000 mm 1,6 UV-I 72 W/m² 12,7 °C 24,8 °C 4,8 km/h (1 Bft)
22.07.2017 17:46 24,7 °C 24,8 °C 49 % 1012,2 hPa 0,0 mm 3,5 km/h (1 Bft) NW 313 ° 0 min 0,000 mm 1,6 UV-I 69 W/m² 13,3 °C 24,7 °C 4,8 km/h (1 Bft)
22.07.2017 17:47 24,8 °C 24,8 °C 48 % 1012,3 hPa 0,0 mm 1,4 km/h (1 Bft) NW 313 ° 0 min 0,000 mm 1,5 UV-I 67 W/m² 13,0 °C 24,8 °C 3,2 km/h (1 Bft)
22.07.2017 17:48 24,8 °C 24,8 °C 50 % 1012,2 hPa 0,0 mm 0,9 km/h (0 Bft) NW 313 ° 0 min 0,000 mm 1,5 UV-I 62 W/m² 13,7 °C 24,8 °C 3,2 km/h (1 Bft)
22.07.2017 17:49 24,8 °C 24,8 °C 47 % 1012,2 hPa 0,0 mm 1,4 km/h (1 Bft) NW 313 ° 0 min 0,000 mm 1,5 UV-I 62 W/m² 12,7 °C 24,8 °C 3,2 km/h (1 Bft)
22.07.2017 17:50 24,8 °C 24,8 °C 47 % 1012,2 hPa 0,0 mm 2,1 km/h (1 Bft) NW 313 ° 0 min 0,000 mm 1,5 UV-I 65 W/m² 12,7 °C 24,8 °C 4,8 km/h (1 Bft)
22.07.2017 17:51 24,8 °C 24,8 °C 48 % 1012,2 hPa 0,0 mm 3,4 km/h (1 Bft) NW 309 ° 0 min 0,000 mm 1,5 UV-I 69 W/m² 13,0 °C 24,8 °C 4,8 km/h (1 Bft)
22.07.2017 17:52 24,8 °C 24,8 °C 49 % 1012,2 hPa 0,0 mm 2,5 km/h (1 Bft) W 267 ° 0 min 0,000 mm 1,5 UV-I 70 W/m² 13,3 °C 24,8 °C 4,8 km/h (1 Bft)
22.07.2017 17:53 24,8 °C 24,8 °C 47 % 1012,2 hPa 0,0 mm 2,6 km/h (1 Bft) W 267 ° 0 min 0,000 mm 1,5 UV-I 72 W/m² 12,7 °C 24,8 °C 3,2 km/h (1 Bft)
22.07.2017 17:54 24,8 °C 24,8 °C 46 % 1012,2 hPa 0,0 mm 0,6 km/h (0 Bft) W 267 ° 0 min 0,000 mm 1,5 UV-I 76 W/m² 12,4 °C 24,8 °C 3,2 km/h (1 Bft)
22.07.2017 17:55 24,8 °C 24,8 °C 47 % 1012,2 hPa 0,0 mm 2,3 km/h (1 Bft) W 267 ° 0 min 0,000 mm 1,5 UV-I 77 W/m² 12,7 °C 24,8 °C 3,2 km/h (1 Bft)
22.07.2017 17:56 24,7 °C 24,8 °C 46 % 1012,3 hPa 0,0 mm 0,9 km/h (0 Bft) W 267 ° 0 min 0,000 mm 1,5 UV-I 74 W/m² 12,3 °C 24,7 °C 1,6 km/h (1 Bft)
22.07.2017 17:57 24,7 °C 24,7 °C 46 % 1012,3 hPa 0,0 mm 0,1 km/h (0 Bft) W 267 ° 0 min 0,000 mm 1,5 UV-I 70 W/m² 12,3 °C 24,7 °C 1,6 km/h (1 Bft)
22.07.2017 17:58 24,7 °C 24,7 °C 46 % 1012,3 hPa 0,0 mm 0,0 km/h (0 Bft) W 267 ° 0 min 0,000 mm 1,4 UV-I 70 W/m² 12,3 °C 24,7 °C 0,0 km/h (0 Bft)
22.07.2017 17:59 24,7 °C 24,7 °C 48 % 1012,3 hPa 0,0 mm 0,1 km/h (0 Bft) W 267 ° 0 min 0,000 mm 1,4 UV-I 70 W/m² 12,9 °C 24,7 °C 1,6 km/h (1 Bft)
22.07.2017 18:00 24,7 °C 24,7 °C 47 % 1012,3 hPa 0,0 mm 1,2 km/h (1 Bft) W 276 ° 0 min 0,076 mm 1,4 UV-I 67 W/m² 12,6 °C 24,7 °C 3,2 km/h (1 Bft)
22.07.2017 18:01 24,8 °C 24,8 °C 49 % 1012,3 hPa 0,0 mm 2,3 km/h (1 Bft) W 277 ° 0 min 0,000 mm 1,4 UV-I 67 W/m² 13,3 °C 24,8 °C 3,2 km/h (1 Bft)
22.07.2017 18:02 24,8 °C 24,8 °C 49 % 1012,3 hPa 0,0 mm 4,8 km/h (1 Bft) W 279 ° 0 min 0,000 mm 1,4 UV-I 67 W/m² 13,3 °C 24,8 °C 4,8 km/h (1 Bft)
22.07.2017 18:03 24,9 °C 24,9 °C 51 % 1012,3 hPa 0,0 mm 2,7 km/h (1 Bft) W-NW 282 ° 0 min 0,000 mm 1,4 UV-I 65 W/m² 14,1 °C 24,9 °C 3,2 km/h (1 Bft)
22.07.2017 18:04 24,9 °C 24,9 °C 51 % 1012,3 hPa 0,0 mm 3,0 km/h (1 Bft) NW 305 ° 0 min 0,000 mm 1,4 UV-I 63 W/m² 14,1 °C 24,9 °C 4,8 km/h (1 Bft)
22.07.2017 18:05 24,9 °C 24,9 °C 50 % 1012,3 hPa 0,0 mm 3,7 km/h (1 Bft) W-NW 292 ° 0 min 0,000 mm 1,4 UV-I 62 W/m² 13,7 °C 24,9 °C 6,4 km/h (2 Bft)
22.07.2017 18:06 24,9 °C 24,9 °C 49 % 1012,3 hPa 0,0 mm 7,4 km/h (2 Bft) W 263 ° 0 min 0,000 mm 1,4 UV-I 62 W/m² 13,4 °C 24,9 °C 11,3 km/h (2 Bft)
22.07.2017 18:07 24,8 °C 24,9 °C 52 % 1012,3 hPa 0,0 mm 6,3 km/h (2 Bft) W 260 ° 0 min 0,000 mm 1,3 UV-I 62 W/m² 14,3 °C 24,8 °C 11,3 km/h (2 Bft)
22.07.2017 18:08 24,8 °C 24,8 °C 49 % 1012,3 hPa 0,0 mm 3,9 km/h (1 Bft) W 259 ° 0 min 0,000 mm 1,3 UV-I 62 W/m² 13,3 °C 24,8 °C 4,8 km/h (1 Bft)
22.07.2017 18:09 24,8 °C 24,8 °C 48 % 1012,3 hPa 0,0 mm 3,2 km/h (1 Bft) W 259 ° 0 min 0,000 mm 1,3 UV-I 60 W/m² 13,0 °C 24,8 °C 4,8 km/h (1 Bft)
22.07.2017 18:10 24,7 °C 24,8 °C 49 % 1012,3 hPa 0,0 mm 2,2 km/h (1 Bft) W 260 ° 0 min 0,000 mm 1,3 UV-I 60 W/m² 13,3 °C 24,7 °C 4,8 km/h (1 Bft)
22.07.2017 18:11 24,7 °C 24,8 °C 49 % 1012,2 hPa 0,0 mm 0,5 km/h (0 Bft) W 259 ° 0 min 0,000 mm 1,3 UV-I 60 W/m² 13,3 °C 24,7 °C 1,6 km/h (1 Bft)
22.07.2017 18:12 24,7 °C 24,8 °C 50 % 1012,2 hPa 0,0 mm 4,6 km/h (1 Bft) W 267 ° 0 min 0,000 mm 1,3 UV-I 60 W/m² 13,6 °C 24,7 °C 6,4 km/h (2 Bft)
22.07.2017 18:13 24,7 °C 24,7 °C 50 % 1012,3 hPa 0,0 mm 3,0 km/h (1 Bft) NW 313 ° 0 min 0,000 mm 1,3 UV-I 58 W/m² 13,6 °C 24,7 °C 4,8 km/h (1 Bft)
22.07.2017 18:14 24,7 °C 24,7 °C 52 % 1012,2 hPa 0,0 mm 4,9 km/h (1 Bft) W-NW 284 ° 0 min 0,000 mm 1,3 UV-I 58 W/m² 14,2 °C 24,7 °C 6,4 km/h (2 Bft)
22.07.2017 18:15 24,7 °C 24,7 °C 51 % 1012,2 hPa 0,0 mm 4,6 km/h (1 Bft) NW 311 ° 0 min 0,000 mm 1,3 UV-I 60 W/m² 13,9 °C 24,7 °C 8,0 km/h (2 Bft)
22.07.2017 18:16 24,7 °C 24,7 °C 50 % 1012,2 hPa 0,0 mm 7,2 km/h (2 Bft) W-SW 257 ° 0 min 0,000 mm 1,3 UV-I 60 W/m² 13,6 °C 24,7 °C 11,3 km/h (2 Bft)
22.07.2017 18:17 24,7 °C 24,7 °C 48 % 1012,3 hPa 0,0 mm 7,4 km/h (2 Bft) W-NW 288 ° 0 min 0,000 mm 1,3 UV-I 62 W/m² 12,9 °C 24,7 °C 11,3 km/h (2 Bft)
22.07.2017 18:18 24,6 °C 24,7 °C 48 % 1012,2 hPa 0,0 mm 6,2 km/h (2 Bft) W-NW 283 ° 0 min 0,000 mm 1,3 UV-I 72 W/m² 12,8 °C 24,6 °C 11,3 km/h (2 Bft)
22.07.2017 18:19 24,7 °C 24,7 °C 48 % 1012,3 hPa 0,0 mm 7,0 km/h (2 Bft) NW 305 ° 0 min 0,000 mm 1,3 UV-I 63 W/m² 12,9 °C 24,7 °C 9,7 km/h (2 Bft)
22.07.2017 18:20 24,7 °C 24,7 °C 50 % 1012,2 hPa 0,0 mm 4,3 km/h (1 Bft) NW 321 ° 0 min 0,000 mm 1,2 UV-I 63 W/m² 13,6 °C 24,7 °C 6,4 km/h (2 Bft)
22.07.2017 18:21 24,7 °C 24,7 °C 50 % 1012,2 hPa 0,0 mm 6,5 km/h (2 Bft) W-NW 283 ° 0 min 0,000 mm 1,2 UV-I 63 W/m² 13,6 °C 24,7 °C 11,3 km/h (2 Bft)
22.07.2017 18:22 24,7 °C 24,7 °C 49 % 1012,3 hPa 0,0 mm 5,0 km/h (1 Bft) NW 315 ° 0 min 0,000 mm 1,2 UV-I 65 W/m² 13,3 °C 24,7 °C 6,4 km/h (2 Bft)
22.07.2017 18:23 24,7 °C 24,7 °C 49 % 1012,3 hPa 0,0 mm 2,0 km/h (1 Bft) NW 315 ° 0 min 0,000 mm 1,2 UV-I 67 W/m² 13,3 °C 24,7 °C 3,2 km/h (1 Bft)
22.07.2017 18:24 24,7 °C 24,7 °C 49 % 1012,3 hPa 0,0 mm 1,4 km/h (1 Bft) NW 315 ° 0 min 0,000 mm 1,2 UV-I 63 W/m² 13,3 °C 24,7 °C 1,6 km/h (1 Bft)
22.07.2017 18:25 24,7 °C 24,7 °C 51 % 1012,3 hPa 0,0 mm 3,0 km/h (1 Bft) N-NW 327 ° 0 min 0,000 mm 1,2 UV-I 63 W/m² 13,9 °C 24,7 °C 8,0 km/h (2 Bft)
22.07.2017 18:26 24,7 °C 24,7 °C 50 % 1012,3 hPa 0,0 mm 4,1 km/h (1 Bft) W-NW 295 ° 0 min 0,000 mm 1,2 UV-I 62 W/m² 13,6 °C 24,7 °C 6,4 km/h (2 Bft)
22.07.2017 18:27 24,7 °C 24,7 °C 49 % 1012,2 hPa 0,0 mm 2,5 km/h (1 Bft) NW 317 ° 0 min 0,000 mm 1,2 UV-I 62 W/m² 13,3 °C 24,7 °C 4,8 km/h (1 Bft)
22.07.2017 18:28 24,7 °C 24,7 °C 50 % 1012,3 hPa 0,0 mm 3,3 km/h (1 Bft) W-NW 298 ° 0 min 0,000 mm 1,2 UV-I 63 W/m² 13,6 °C 24,7 °C 4,8 km/h (1 Bft)
22.07.2017 18:29 24,7 °C 24,7 °C 50 % 1012,2 hPa 0,0 mm 3,4 km/h (1 Bft) W-NW 302 ° 0 min 0,000 mm 1,2 UV-I 58 W/m² 13,6 °C 24,7 °C 4,8 km/h (1 Bft)
22.07.2017 18:30 24,7 °C 24,7 °C 50 % 1012,2 hPa 0,0 mm 1,7 km/h (1 Bft) W-NW 302 ° 0 min 0,000 mm 1,2 UV-I 58 W/m² 13,6 °C 24,7 °C 3,2 km/h (1 Bft)
22.07.2017 18:31 24,7 °C 24,7 °C 49 % 1012,2 hPa 0,0 mm 3,5 km/h (1 Bft) NW 304 ° 0 min 0,000 mm 1,1 UV-I 58 W/m² 13,3 °C 24,7 °C 4,8 km/h (1 Bft)
22.07.2017 18:32 24,7 °C 24,7 °C 49 % 1012,2 hPa 0,0 mm 2,9 km/h (1 Bft) N-NW 329 ° 0 min 0,000 mm 1,1 UV-I 58 W/m² 13,3 °C 24,7 °C 4,8 km/h (1 Bft)
22.07.2017 18:33 24,7 °C 24,7 °C 49 % 1012,1 hPa 0,0 mm 0,1 km/h (0 Bft) N-NW 329 ° 0 min 0,000 mm 1,1 UV-I 58 W/m² 13,3 °C 24,7 °C 1,6 km/h (1 Bft)
22.07.2017 18:34 24,7 °C 24,7 °C 50 % 1012,2 hPa 0,0 mm 2,3 km/h (1 Bft) W-NW 302 ° 0 min 0,000 mm 1,1 UV-I 60 W/m² 13,6 °C 24,7 °C 4,8 km/h (1 Bft)
22.07.2017 18:35 24,7 °C 24,7 °C 50 % 1012,2 hPa 0,0 mm 2,9 km/h (1 Bft) W-NW 302 ° 0 min 0,000 mm 1,1 UV-I 60 W/m² 13,6 °C 24,7 °C 4,8 km/h (1 Bft)
22.07.2017 18:36 24,7 °C 24,7 °C 51 % 1012,2 hPa 0,0 mm 5,4 km/h (1 Bft) NW 314 ° 0 min 0,000 mm 1,1 UV-I 60 W/m² 13,9 °C 24,7 °C 11,3 km/h (2 Bft)
22.07.2017 18:37 24,7 °C 24,7 °C 50 % 1012,2 hPa 0,0 mm 5,3 km/h (1 Bft) NW 308 ° 0 min 0,000 mm 1,1 UV-I 58 W/m² 13,6 °C 24,7 °C 8,0 km/h (2 Bft)
22.07.2017 18:38 24,7 °C 24,7 °C 49 % 1012,2 hPa 0,0 mm 1,6 km/h (1 Bft) NW 308 ° 0 min 0,000 mm 1,1 UV-I 58 W/m² 13,3 °C 24,7 °C 3,2 km/h (1 Bft)
22.07.2017 18:39 24,7 °C 24,7 °C 50 % 1012,2 hPa 0,0 mm 5,2 km/h (1 Bft) W-NW 298 ° 0 min 0,000 mm 1,0 UV-I 56 W/m² 13,6 °C 24,7 °C 9,7 km/h (2 Bft)
22.07.2017 18:40 24,7 °C 24,7 °C 51 % 1012,2 hPa 0,0 mm 2,7 km/h (1 Bft) NW 311 ° 0 min 0,000 mm 0,0 UV-I 54 W/m² 13,9 °C 24,7 °C 6,4 km/h (2 Bft)
22.07.2017 18:41 24,6 °C 24,7 °C 50 % 1012,2 hPa 0,0 mm 3,0 km/h (1 Bft) NW 311 ° 0 min 0,000 mm 0,0 UV-I 53 W/m² 13,5 °C 24,6 °C 4,8 km/h (1 Bft)
22.07.2017 18:42 24,6 °C 24,6 °C 50 % 1012,1 hPa 0,0 mm 2,4 km/h (1 Bft) NW 311 ° 0 min 0,000 mm 0,0 UV-I 53 W/m² 13,5 °C 24,6 °C 4,8 km/h (1 Bft)
22.07.2017 18:43 24,5 °C 24,6 °C 50 % 1012,2 hPa 0,0 mm 1,2 km/h (1 Bft) NW 311 ° 0 min 0,000 mm 0,0 UV-I 53 W/m² 13,4 °C 24,5 °C 3,2 km/h (1 Bft)
22.07.2017 18:44 24,4 °C 24,5 °C 52 % 1012,1 hPa 0,0 mm 4,2 km/h (1 Bft) NW 312 ° 0 min 0,000 mm 0,0 UV-I 53 W/m² 13,9 °C 24,4 °C 6,4 km/h (2 Bft)
22.07.2017 18:45 24,3 °C 24,4 °C 48 % 1012,2 hPa 0,0 mm 1,9 km/h (1 Bft) NW 313 ° 0 min 0,000 mm 0,0 UV-I 54 W/m² 12,6 °C 24,3 °C 3,2 km/h (1 Bft)
22.07.2017 18:46 24,3 °C 24,3 °C 47 % 1012,1 hPa 0,0 mm 5,3 km/h (1 Bft) NW 316 ° 0 min 0,000 mm 0,8 UV-I 56 W/m² 12,3 °C 24,3 °C 6,4 km/h (2 Bft)
22.07.2017 18:47 24,2 °C 24,3 °C 50 % 1012,1 hPa 0,0 mm 2,2 km/h (1 Bft) NW 315 ° 0 min 0,000 mm 0,8 UV-I 58 W/m² 13,1 °C 24,2 °C 4,8 km/h (1 Bft)
22.07.2017 18:48 24,1 °C 24,2 °C 52 % 1012,1 hPa 0,0 mm 1,3 km/h (1 Bft) NW 315 ° 0 min 0,000 mm 0,8 UV-I 62 W/m² 13,6 °C 24,1 °C 3,2 km/h (1 Bft)
22.07.2017 18:49 24,0 °C 24,1 °C 49 % 1012,2 hPa 0,0 mm 2,4 km/h (1 Bft) W-NW 290 ° 0 min 0,000 mm 0,8 UV-I 63 W/m² 12,6 °C 24,0 °C 4,8 km/h (1 Bft)
22.07.2017 18:50 23,9 °C 24,0 °C 51 % 1012,2 hPa 0,0 mm 1,1 km/h (1 Bft) W-NW 290 ° 0 min 0,000 mm 0,8 UV-I 69 W/m² 13,1 °C 23,9 °C 3,2 km/h (1 Bft)
22.07.2017 18:51 23,8 °C 23,9 °C 50 % 1012,1 hPa 0,0 mm 0,4 km/h (0 Bft) W-NW 290 ° 0 min 0,000 mm 0,8 UV-I 76 W/m² 12,7 °C 23,8 °C 1,6 km/h (1 Bft)
22.07.2017 18:52 23,7 °C 23,8 °C 52 % 1012,1 hPa 0,0 mm 0,0 km/h (0 Bft) W-NW 290 ° 0 min 0,000 mm 0,8 UV-I 77 W/m² 13,2 °C 23,7 °C 0,0 km/h (0 Bft)
22.07.2017 18:53 23,7 °C 23,7 °C 52 % 1012,1 hPa 0,0 mm 0,1 km/h (0 Bft) W-NW 290 ° 0 min 0,000 mm 0,8 UV-I 81 W/m² 13,2 °C 23,7 °C 1,6 km/h (1 Bft)
22.07.2017 18:54 23,6 °C 23,7 °C 52 % 1012,1 hPa 0,0 mm 0,0 km/h (0 Bft) W-NW 290 ° 0 min 0,000 mm 0,8 UV-I 84 W/m² 13,2 °C 23,6 °C 0,0 km/h (0 Bft)
22.07.2017 18:55 23,6 °C 23,6 °C 54 % 1012,1 hPa 0,0 mm 0,1 km/h (0 Bft) W-NW 290 ° 0 min 0,000 mm 0,8 UV-I 86 W/m² 13,7 °C 23,6 °C 1,6 km/h (1 Bft)
22.07.2017 18:56 23,5 °C 23,6 °C 54 % 1012,1 hPa 0,0 mm 0,0 km/h (0 Bft) W-NW 290 ° 0 min 0,000 mm 0,8 UV-I 91 W/m² 13,6 °C 23,5 °C 0,0 km/h (0 Bft)
22.07.2017 18:57 23,4 °C 23,5 °C 53 % 1012,1 hPa 0,0 mm 0,0 km/h (0 Bft) W-NW 290 ° 0 min 0,000 mm 0,8 UV-I 93 W/m² 13,3 °C 23,4 °C 0,0 km/h (0 Bft)
22.07.2017 18:58 23,4 °C 23,4 °C 55 % 1012,1 hPa 0,0 mm 0,0 km/h (0 Bft) W-NW 290 ° 0 min 0,000 mm 0,9 UV-I 97 W/m² 13,8 °C 23,4 °C 0,0 km/h (0 Bft)
22.07.2017 18:59 23,4 °C 23,4 °C 58 % 1012,1 hPa 0,0 mm 0,0 km/h (0 Bft) W-NW 290 ° 0 min 0,000 mm 0,9 UV-I 104 W/m² 14,7 °C 23,4 °C 0,0 km/h (0 Bft)
22.07.2017 19:00 23,3 °C 23,4 °C 55 % 1012,1 hPa 0,0 mm 0,0 km/h (0 Bft) W-NW 290 ° 0 min 0,076 mm 0,9 UV-I 111 W/m² 13,7 °C 23,3 °C 0,0 km/h (0 Bft)
22.07.2017 19:01 23,3 °C 23,3 °C 62 % 1012,1 hPa 0,0 mm 0,0 km/h (0 Bft) W-NW 290 ° 0 min 0,000 mm 0,9 UV-I 105 W/m² 15,6 °C 23,3 °C 0,0 km/h (0 Bft)
22.07.2017 19:02 23,3 °C 23,3 °C 56 % 1012,1 hPa 0,0 mm 0,0 km/h (0 Bft) W-NW 290 ° 0 min 0,000 mm 0,9 UV-I 118 W/m² 14,0 °C 23,3 °C 0,0 km/h (0 Bft)
22.07.2017 19:03 23,3 °C 23,3 °C 55 % 1012,1 hPa 0,0 mm 0,0 km/h (0 Bft) W-NW 290 ° 0 min 0,000 mm 0,9 UV-I 123 W/m² 13,7 °C 23,3 °C 0,0 km/h (0 Bft)
22.07.2017 19:04 23,3 °C 23,3 °C 57 % 1012,1 hPa 0,0 mm 0,0 km/h (0 Bft) W-NW 290 ° 0 min 0,000 mm 0,9 UV-I 113 W/m² 14,3 °C 23,3 °C 0,0 km/h (0 Bft)
22.07.2017 19:05 23,4 °C 23,4 °C 56 % 1012,1 hPa 0,0 mm 0,0 km/h (0 Bft) W-NW 290 ° 0 min 0,000 mm 0,9 UV-I 109 W/m² 14,1 °C 23,4 °C 0,0 km/h (0 Bft)
22.07.2017 19:06 23,4 °C 23,4 °C 58 % 1012,1 hPa 0,0 mm 0,0 km/h (0 Bft) W-NW 290 ° 0 min 0,000 mm 0,9 UV-I 111 W/m² 14,7 °C 23,4 °C 0,0 km/h (0 Bft)
22.07.2017 19:07 23,4 °C 23,4 °C 55 % 1012,1 hPa 0,0 mm 0,0 km/h (0 Bft) W-NW 290 ° 0 min 0,000 mm 0,9 UV-I 114 W/m² 13,8 °C 23,4 °C 0,0 km/h (0 Bft)
22.07.2017 19:08 23,5 °C 23,5 °C 56 % 1012,0 hPa 0,0 mm 0,0 km/h (0 Bft) W-NW 290 ° 0 min 0,000 mm 0,9 UV-I 116 W/m² 14,2 °C 23,5 °C 0,0 km/h (0 Bft)
22.07.2017 19:09 23,5 °C 23,5 °C 56 % 1012,0 hPa 0,0 mm 0,0 km/h (0 Bft) W-NW 290 ° 0 min 0,000 mm 0,8 UV-I 114 W/m² 14,2 °C 23,5 °C 0,0 km/h (0 Bft)
22.07.2017 19:10 23,6 °C 23,6 °C 56 % 1012,1 hPa 0,0 mm 0,0 km/h (0 Bft) W-NW 290 ° 0 min 0,000 mm 0,8 UV-I 109 W/m² 14,3 °C 23,6 °C 0,0 km/h (0 Bft)
22.07.2017 19:11 23,6 °C 23,6 °C 55 % 1012,0 hPa 0,0 mm 0,0 km/h (0 Bft) W-NW 290 ° 0 min 0,000 mm 0,8 UV-I 109 W/m² 14,0 °C 23,6 °C 0,0 km/h (0 Bft)
22.07.2017 19:12 23,7 °C 23,7 °C 54 % 1012,0 hPa 0,0 mm 0,0 km/h (0 Bft) W-NW 290 ° 0 min 0,000 mm 0,8 UV-I 111 W/m² 13,8 °C 23,7 °C 0,0 km/h (0 Bft)
22.07.2017 19:13 23,6 °C 23,7 °C 61 % 1012,0 hPa 0,0 mm 0,0 km/h (0 Bft) W-NW 290 ° 0 min 0,000 mm 0,8 UV-I 118 W/m² 15,6 °C 23,6 °C 0,0 km/h (0 Bft)
22.07.2017 19:14 23,5 °C 23,6 °C 55 % 1012,0 hPa 0,0 mm 0,0 km/h (0 Bft) W-NW 290 ° 0 min 0,000 mm 0,8 UV-I 128 W/m² 13,9 °C 23,5 °C 0,0 km/h (0 Bft)
22.07.2017 19:15 23,5 °C 23,5 °C 58 % 1012,1 hPa 0,0 mm 0,6 km/h (0 Bft) W-NW 290 ° 0 min 0,000 mm 0,8 UV-I 123 W/m² 14,7 °C 23,5 °C 1,6 km/h (1 Bft)
22.07.2017 19:16 23,4 °C 23,5 °C 60 % 1012,0 hPa 0,0 mm 2,2 km/h (1 Bft) W-NW 290 ° 0 min 0,000 mm 0,8 UV-I 114 W/m² 15,2 °C 23,4 °C 3,2 km/h (1 Bft)
22.07.2017 19:17 23,6 °C 23,6 °C 53 % 1012,0 hPa 0,0 mm 2,7 km/h (1 Bft) W-NW 297 ° 0 min 0,000 mm 0,8 UV-I 109 W/m² 13,4 °C 23,6 °C 3,2 km/h (1 Bft)
22.07.2017 19:18 23,8 °C 23,8 °C 53 % 1012,0 hPa 0,0 mm 0,4 km/h (0 Bft) W-NW 297 ° 0 min 0,000 mm 0,8 UV-I 109 W/m² 13,6 °C 23,8 °C 1,6 km/h (1 Bft)
22.07.2017 19:19 23,9 °C 23,9 °C 55 % 1012,0 hPa 0,0 mm 0,2 km/h (0 Bft) W-NW 297 ° 0 min 0,000 mm 0,8 UV-I 111 W/m² 14,3 °C 23,9 °C 1,6 km/h (1 Bft)
22.07.2017 19:20 24,1 °C 24,1 °C 56 % 1012,0 hPa 0,0 mm 1,8 km/h (1 Bft) W-NW 297 ° 0 min 0,000 mm 0,7 UV-I 113 W/m² 14,8 °C 24,1 °C 3,2 km/h (1 Bft)
22.07.2017 19:21 24,2 °C 24,2 °C 57 % 1012,0 hPa 0,0 mm 1,5 km/h (1 Bft) W-NW 297 ° 0 min 0,000 mm 0,7 UV-I 113 W/m² 15,1 °C 24,2 °C 3,2 km/h (1 Bft)
22.07.2017 19:22 24,2 °C 24,2 °C 56 % 1012,0 hPa 0,0 mm 1,2 km/h (1 Bft) W-NW 297 ° 0 min 0,000 mm 0,7 UV-I 111 W/m² 14,9 °C 24,2 °C 3,2 km/h (1 Bft)
22.07.2017 19:23 24,2 °C 24,2 °C 55 % 1012,0 hPa 0,0 mm 2,7 km/h (1 Bft) NW 311 ° 0 min 0,000 mm 0,7 UV-I 111 W/m² 14,6 °C 24,2 °C 4,8 km/h (1 Bft)
22.07.2017 19:24 24,3 °C 24,3 °C 55 % 1012,0 hPa 0,0 mm 1,2 km/h (1 Bft) NW 311 ° 0 min 0,000 mm 0,7 UV-I 113 W/m² 14,7 °C 24,3 °C 3,2 km/h (1 Bft)
22.07.2017 19:25 24,3 °C 24,3 °C 55 % 1012,0 hPa 0,0 mm 2,7 km/h (1 Bft) NW 311 ° 0 min 0,000 mm 0,7 UV-I 116 W/m² 14,7 °C 24,3 °C 4,8 km/h (1 Bft)
22.07.2017 19:26 24,3 °C 24,3 °C 55 % 1012,1 hPa 0,0 mm 2,8 km/h (1 Bft) NW 311 ° 0 min 0,000 mm 0,7 UV-I 123 W/m² 14,7 °C 24,3 °C 4,8 km/h (1 Bft)
22.07.2017 19:27 24,3 °C 24,3 °C 57 % 1012,1 hPa 0,0 mm 3,9 km/h (1 Bft) NW 324 ° 0 min 0,000 mm 0,7 UV-I 127 W/m² 15,2 °C 24,3 °C 4,8 km/h (1 Bft)
22.07.2017 19:28 24,3 °C 24,3 °C 54 % 1012,1 hPa 0,0 mm 1,9 km/h (1 Bft) N-NW 328 ° 0 min 0,000 mm 0,7 UV-I 123 W/m² 14,4 °C 24,3 °C 3,2 km/h (1 Bft)
22.07.2017 19:29 24,3 °C 24,3 °C 54 % 1012,1 hPa 0,0 mm 0,7 km/h (0 Bft) N-NW 328 ° 0 min 0,000 mm 0,7 UV-I 123 W/m² 14,4 °C 24,3 °C 1,6 km/h (1 Bft)
22.07.2017 19:30 24,3 °C 24,3 °C 56 % 1012,1 hPa 0,0 mm 1,3 km/h (1 Bft) N-NW 328 ° 0 min 0,000 mm 0,7 UV-I 128 W/m² 14,9 °C 24,3 °C 4,8 km/h (1 Bft)
22.07.2017 19:31 24,3 °C 24,3 °C 55 % 1012,1 hPa 0,0 mm 1,7 km/h (1 Bft) N-NW 328 ° 0 min 0,000 mm 0,7 UV-I 137 W/m² 14,7 °C 24,3 °C 3,2 km/h (1 Bft)
22.07.2017 19:32 24,3 °C 24,3 °C 55 % 1012,1 hPa 0,0 mm 1,5 km/h (1 Bft) N-NW 328 ° 0 min 0,000 mm 0,7 UV-I 139 W/m² 14,7 °C 24,3 °C 3,2 km/h (1 Bft)
22.07.2017 19:33 24,3 °C 24,3 °C 56 % 1012,1 hPa 0,0 mm 1,7 km/h (1 Bft) N-NW 327 ° 0 min 0,000 mm 0,6 UV-I 134 W/m² 14,9 °C 24,3 °C 3,2 km/h (1 Bft)
22.07.2017 19:34 24,2 °C 24,3 °C 57 % 1012,1 hPa 0,0 mm 2,3 km/h (1 Bft) NW 324 ° 0 min 0,000 mm 0,6 UV-I 155 W/m² 15,1 °C 24,2 °C 4,8 km/h (1 Bft)
22.07.2017 19:35 24,3 °C 24,3 °C 56 % 1012,1 hPa 0,0 mm 1,5 km/h (1 Bft) NW 324 ° 0 min 0,000 mm 0,6 UV-I 172 W/m² 14,9 °C 24,3 °C 1,6 km/h (1 Bft)
22.07.2017 19:36 24,2 °C 24,3 °C 55 % 1012,1 hPa 0,0 mm 3,0 km/h (1 Bft) NW 309 ° 0 min 0,000 mm 0,6 UV-I 181 W/m² 14,6 °C 24,2 °C 4,8 km/h (1 Bft)
22.07.2017 19:37 24,2 °C 24,2 °C 53 % 1012,1 hPa 0,0 mm 3,8 km/h (1 Bft) N-NW 327 ° 0 min 0,000 mm 0,6 UV-I 167 W/m² 14,0 °C 24,2 °C 6,4 km/h (2 Bft)
22.07.2017 19:38 24,2 °C 24,2 °C 51 % 1012,1 hPa 0,0 mm 4,7 km/h (1 Bft) N-NW 327 ° 0 min 0,000 mm 0,6 UV-I 181 W/m² 13,4 °C 24,2 °C 6,4 km/h (2 Bft)
22.07.2017 19:39 24,2 °C 24,2 °C 50 % 1012,1 hPa 0,0 mm 1,7 km/h (1 Bft) N-NW 339 ° 0 min 0,000 mm 0,6 UV-I 193 W/m² 13,1 °C 24,2 °C 3,2 km/h (1 Bft)
22.07.2017 19:40 24,2 °C 24,2 °C 52 % 1012,2 hPa 0,0 mm 1,6 km/h (1 Bft) N-NW 338 ° 0 min 0,000 mm 0,6 UV-I 190 W/m² 13,7 °C 24,2 °C 4,8 km/h (1 Bft)
22.07.2017 19:41 24,2 °C 24,2 °C 54 % 1012,2 hPa 0,0 mm 0,9 km/h (0 Bft) N-NW 338 ° 0 min 0,000 mm 0,6 UV-I 188 W/m² 14,3 °C 24,2 °C 3,2 km/h (1 Bft)
22.07.2017 19:42 24,2 °C 24,2 °C 53 % 1012,2 hPa 0,0 mm 1,7 km/h (1 Bft) N-NW 338 ° 0 min 0,000 mm 0,5 UV-I 185 W/m² 14,0 °C 24,2 °C 3,2 km/h (1 Bft)
22.07.2017 19:43 24,2 °C 24,2 °C 56 % 1012,2 hPa 0,0 mm 3,4 km/h (1 Bft) NW 325 ° 0 min 0,000 mm 0,5 UV-I 181 W/m² 14,9 °C 24,2 °C 4,8 km/h (1 Bft)
22.07.2017 19:44 24,1 °C 24,2 °C 55 % 1012,2 hPa 0,0 mm 2,3 km/h (1 Bft) NW 325 ° 0 min 0,000 mm 0,5 UV-I 176 W/m² 14,5 °C 24,1 °C 4,8 km/h (1 Bft)
22.07.2017 19:45 24,1 °C 24,1 °C 52 % 1012,2 hPa 0,0 mm 3,1 km/h (1 Bft) NW 306 ° 0 min 0,000 mm 0,5 UV-I 171 W/m² 13,6 °C 24,1 °C 4,8 km/h (1 Bft)
22.07.2017 19:46 24,1 °C 24,1 °C 55 % 1012,2 hPa 0,0 mm 3,3 km/h (1 Bft) NW 306 ° 0 min 0,000 mm 0,5 UV-I 171 W/m² 14,5 °C 24,1 °C 4,8 km/h (1 Bft)
22.07.2017 19:47 24,0 °C 24,1 °C 54 % 1012,3 hPa 0,0 mm 1,1 km/h (1 Bft) NW 306 ° 0 min 0,000 mm 0,5 UV-I 165 W/m² 14,1 °C 24,0 °C 1,6 km/h (1 Bft)
22.07.2017 19:48 24,0 °C 24,0 °C 54 % 1012,2 hPa 0,0 mm 2,2 km/h (1 Bft) NW 306 ° 0 min 0,000 mm 0,5 UV-I 156 W/m² 14,1 °C 24,0 °C 3,2 km/h (1 Bft)
22.07.2017 19:49 23,9 °C 24,0 °C 56 % 1012,2 hPa 0,0 mm 4,3 km/h (1 Bft) NW 305 ° 0 min 0,000 mm 0,5 UV-I 155 W/m² 14,6 °C 23,9 °C 4,8 km/h (1 Bft)
22.07.2017 19:50 23,9 °C 23,9 °C 55 % 1012,3 hPa 0,0 mm 2,6 km/h (1 Bft) NW 305 ° 0 min 0,000 mm 0,0 UV-I 149 W/m² 14,3 °C 23,9 °C 3,2 km/h (1 Bft)
22.07.2017 19:51 23,9 °C 23,9 °C 57 % 1012,3 hPa 0,0 mm 3,0 km/h (1 Bft) NW 309 ° 0 min 0,000 mm 0,0 UV-I 139 W/m² 14,9 °C 23,9 °C 4,8 km/h (1 Bft)
22.07.2017 19:52 23,8 °C 23,9 °C 55 % 1012,3 hPa 0,0 mm 2,2 km/h (1 Bft) W-NW 288 ° 0 min 0,000 mm 0,0 UV-I 137 W/m² 14,2 °C 23,8 °C 3,2 km/h (1 Bft)
22.07.2017 19:53 23,8 °C 23,8 °C 52 % 1012,3 hPa 0,0 mm 1,5 km/h (1 Bft) W-NW 288 ° 0 min 0,000 mm 0,0 UV-I 128 W/m² 13,3 °C 23,8 °C 3,2 km/h (1 Bft)
22.07.2017 19:54 23,9 °C 23,9 °C 55 % 1012,3 hPa 0,0 mm 2,5 km/h (1 Bft) W-NW 288 ° 0 min 0,000 mm 0,0 UV-I 120 W/m² 14,3 °C 23,9 °C 4,8 km/h (1 Bft)
22.07.2017 19:55 23,9 °C 23,9 °C 54 % 1012,3 hPa 0,0 mm 2,3 km/h (1 Bft) W-NW 288 ° 0 min 0,000 mm 0,0 UV-I 102 W/m² 14,0 °C 23,9 °C 3,2 km/h (1 Bft)
22.07.2017 19:56 23,9 °C 23,9 °C 52 % 1012,3 hPa 0,0 mm 1,5 km/h (1 Bft) W-NW 288 ° 0 min 0,000 mm 0,0 UV-I 109 W/m² 13,4 °C 23,9 °C 3,2 km/h (1 Bft)
22.07.2017 19:57 23,8 °C 23,9 °C 56 % 1012,3 hPa 0,0 mm 0,3 km/h (0 Bft) W-NW 288 ° 0 min 0,000 mm 0,0 UV-I 109 W/m² 14,5 °C 23,8 °C 3,2 km/h (1 Bft)
22.07.2017 19:58 23,8 °C 23,8 °C 52 % 1012,3 hPa 0,0 mm 0,0 km/h (0 Bft) W-NW 288 ° 0 min 0,000 mm 0,0 UV-I 100 W/m² 13,3 °C 23,8 °C 0,0 km/h (0 Bft)
22.07.2017 19:59 23,7 °C 23,8 °C 56 % 1012,3 hPa 0,0 mm 0,0 km/h (0 Bft) W-NW 288 ° 0 min 0,000 mm 0,0 UV-I 93 W/m² 14,4 °C 23,7 °C 0,0 km/h (0 Bft)
22.07.2017 20:00 23,6 °C 23,7 °C 57 % 1012,3 hPa 0,0 mm 0,0 km/h (0 Bft) W-NW 288 ° 0 min 0,000 mm 0,0 UV-I 88 W/m² 14,6 °C 23,6 °C 0,0 km/h (0 Bft)
22.07.2017 20:01 23,5 °C 23,6 °C 56 % 1012,3 hPa 0,0 mm 0,3 km/h (0 Bft) W-NW 288 ° 0 min 0,102 mm 0,0 UV-I 86 W/m² 14,2 °C 23,5 °C 3,2 km/h (1 Bft)
22.07.2017 20:02 23,4 °C 23,5 °C 54 % 1012,3 hPa 0,0 mm 0,8 km/h (0 Bft) W-NW 288 ° 0 min 0,000 mm 0,0 UV-I 86 W/m² 13,6 °C 23,4 °C 3,2 km/h (1 Bft)
22.07.2017 20:03 23,4 °C 23,4 °C 54 % 1012,3 hPa 0,0 mm 0,8 km/h (0 Bft) W-NW 288 ° 0 min 0,000 mm 0,0 UV-I 84 W/m² 13,6 °C 23,4 °C 1,6 km/h (1 Bft)
22.07.2017 20:04 23,4 °C 23,4 °C 57 % 1012,2 hPa 0,0 mm 0,7 km/h (0 Bft) W-NW 288 ° 0 min 0,000 mm 0,0 UV-I 93 W/m² 14,4 °C 23,4 °C 1,6 km/h (1 Bft)
22.07.2017 20:05 23,3 °C 23,4 °C 54 % 1012,3 hPa 0,0 mm 0,0 km/h (0 Bft) W-NW 288 ° 0 min 0,000 mm 0,0 UV-I 98 W/m² 13,5 °C 23,3 °C 0,0 km/h (0 Bft)
22.07.2017 20:06 23,3 °C 23,3 °C 55 % 1012,3 hPa 0,0 mm 0,0 km/h (0 Bft) W-NW 288 ° 0 min 0,000 mm 0,0 UV-I 69 W/m² 13,7 °C 23,3 °C 0,0 km/h (0 Bft)
22.07.2017 20:07 23,2 °C 23,3 °C 55 % 1012,3 hPa 0,0 mm 0,0 km/h (0 Bft) W-NW 288 ° 0 min 0,000 mm 0,0 UV-I 69 W/m² 13,6 °C 23,2 °C 0,0 km/h (0 Bft)
22.07.2017 20:08 23,2 °C 23,3 °C 55 % 1012,3 hPa 0,0 mm 0,0 km/h (0 Bft) W-NW 288 ° 0 min 0,000 mm 0,0 UV-I 63 W/m² 13,6 °C 23,2 °C 0,0 km/h (0 Bft)
22.07.2017 20:09 23,2 °C 23,3 °C 55 % 1012,3 hPa 0,0 mm 0,0 km/h (0 Bft) W-NW 288 ° 0 min 0,000 mm 0,0 UV-I 63 W/m² 13,6 °C 23,2 °C 0,0 km/h (0 Bft)
22.07.2017 20:10 23,2 °C 23,2 °C 56 % 1012,3 hPa 0,0 mm 0,0 km/h (0 Bft) W-NW 288 ° 0 min 0,000 mm 0,0 UV-I 62 W/m² 13,9 °C 23,2 °C 0,0 km/h (0 Bft)
22.07.2017 20:11 23,1 °C 23,2 °C 59 % 1012,3 hPa 0,0 mm 0,0 km/h (0 Bft) W-NW 288 ° 0 min 0,000 mm 0,0 UV-I 60 W/m² 14,6 °C 23,1 °C 0,0 km/h (0 Bft)
22.07.2017 20:12 22,9 °C 23,1 °C 59 % 1012,3 hPa 0,0 mm 0,0 km/h (0 Bft) W-NW 288 ° 0 min 0,000 mm 0,0 UV-I 65 W/m² 14,5 °C 22,9 °C 0,0 km/h (0 Bft)
22.07.2017 20:13 22,8 °C 22,9 °C 59 % 1012,3 hPa 0,0 mm 0,0 km/h (0 Bft) W-NW 288 ° 0 min 0,000 mm 0,0 UV-I 77 W/m² 14,4 °C 22,8 °C 0,0 km/h (0 Bft)
22.07.2017 20:14 22,8 °C 22,8 °C 57 % 1012,4 hPa 0,0 mm 0,0 km/h (0 Bft) W-NW 288 ° 0 min 0,000 mm 0,0 UV-I 77 W/m² 13,8 °C 22,8 °C 0,0 km/h (0 Bft)
22.07.2017 20:15 22,6 °C 22,8 °C 61 % 1012,3 hPa 0,0 mm 0,0 km/h (0 Bft) W-NW 288 ° 0 min 0,000 mm 0,0 UV-I 77 W/m² 14,7 °C 22,6 °C 0,0 km/h (0 Bft)
22.07.2017 20:16 22,4 °C 22,6 °C 60 % 1012,3 hPa 0,0 mm 0,0 km/h (0 Bft) W-NW 288 ° 0 min 0,000 mm 0,0 UV-I 76 W/m² 14,2 °C 22,4 °C 0,0 km/h (0 Bft)
22.07.2017 20:17 22,4 °C 22,4 °C 65 % 1012,4 hPa 0,0 mm 0,0 km/h (0 Bft) W-NW 288 ° 0 min 0,000 mm 0,0 UV-I 74 W/m² 15,5 °C 22,4 °C 0,0 km/h (0 Bft)
22.07.2017 20:18 22,3 °C 22,4 °C 65 % 1012,4 hPa 0,0 mm 0,0 km/h (0 Bft) W-NW 288 ° 0 min 0,000 mm 0,0 UV-I 69 W/m² 15,4 °C 22,3 °C 0,0 km/h (0 Bft)
22.07.2017 20:19 22,2 °C 22,3 °C 65 % 1012,4 hPa 0,0 mm 0,0 km/h (0 Bft) W-NW 288 ° 0 min 0,000 mm 0,0 UV-I 69 W/m² 15,3 °C 22,2 °C 0,0 km/h (0 Bft)
22.07.2017 20:20 22,1 °C 22,2 °C 67 % 1012,4 hPa 0,0 mm 0,0 km/h (0 Bft) W-NW 288 ° 0 min 0,000 mm 0,0 UV-I 63 W/m² 15,7 °C 22,1 °C 0,0 km/h (0 Bft)
22.07.2017 20:21 22,0 °C 22,1 °C 63 % 1012,4 hPa 0,0 mm 0,0 km/h (0 Bft) W-NW 288 ° 0 min 0,000 mm 0,0 UV-I 58 W/m² 14,6 °C 22,0 °C 0,0 km/h (0 Bft)
22.07.2017 20:22 22,0 °C 22,0 °C 62 % 1012,5 hPa 0,0 mm 0,0 km/h (0 Bft) W-NW 288 ° 0 min 0,000 mm 0,0 UV-I 51 W/m² 14,4 °C 22,0 °C 0,0 km/h (0 Bft)
22.07.2017 20:23 22,0 °C 22,0 °C 64 % 1012,4 hPa 0,0 mm 0,0 km/h (0 Bft) W-NW 288 ° 0 min 0,000 mm 0,0 UV-I 47 W/m² 14,9 °C 22,0 °C 0,0 km/h (0 Bft)
22.07.2017 20:24 21,9 °C 22,0 °C 66 % 1012,4 hPa 0,0 mm 0,0 km/h (0 Bft) W-NW 288 ° 0 min 0,000 mm 0,0 UV-I 37 W/m² 15,3 °C 21,9 °C 0,0 km/h (0 Bft)
22.07.2017 20:25 21,9 °C 21,9 °C 64 % 1012,4 hPa 0,0 mm 0,0 km/h (0 Bft) W-NW 288 ° 0 min 0,000 mm 0,0 UV-I 37 W/m² 14,8 °C 21,9 °C 0,0 km/h (0 Bft)
22.07.2017 20:26 21,9 °C 21,9 °C 66 % 1012,5 hPa 0,0 mm 0,0 km/h (0 Bft) W-NW 288 ° 0 min 0,000 mm 0,0 UV-I 33 W/m² 15,3 °C 21,9 °C 0,0 km/h (0 Bft)
22.07.2017 20:27 21,9 °C 21,9 °C 64 % 1012,5 hPa 0,0 mm 0,0 km/h (0 Bft) W-NW 288 ° 0 min 0,000 mm 0,0 UV-I 33 W/m² 14,8 °C 21,9 °C 0,0 km/h (0 Bft)
22.07.2017 20:28 21,8 °C 21,9 °C 68 % 1012,4 hPa 0,0 mm 0,0 km/h (0 Bft) W-NW 288 ° 0 min 0,000 mm 0,0 UV-I 33 W/m² 15,6 °C 21,8 °C 0,0 km/h (0 Bft)
22.07.2017 20:29 21,7 °C 21,8 °C 67 % 1012,5 hPa 0,0 mm 0,1 km/h (0 Bft) W-NW 288 ° 0 min 0,000 mm 0,0 UV-I 32 W/m² 15,3 °C 21,7 °C 1,6 km/h (1 Bft)
22.07.2017 20:30 21,6 °C 21,7 °C 67 % 1012,5 hPa 0,0 mm 2,0 km/h (1 Bft) W-NW 288 ° 0 min 0,000 mm 0,0 UV-I 28 W/m² 15,2 °C 21,6 °C 3,2 km/h (1 Bft)
22.07.2017 20:31 21,5 °C 21,6 °C 64 % 1012,5 hPa 0,0 mm 2,2 km/h (1 Bft) W-NW 288 ° 0 min 0,000 mm 0,0 UV-I 26 W/m² 14,4 °C 21,5 °C 3,2 km/h (1 Bft)
22.07.2017 20:32 21,4 °C 21,6 °C 68 % 1012,5 hPa 0,0 mm 1,3 km/h (1 Bft) W-NW 288 ° 0 min 0,000 mm 0,0 UV-I 25 W/m² 15,2 °C 21,4 °C 3,2 km/h (1 Bft)
22.07.2017 20:33 21,3 °C 21,4 °C 69 % 1012,6 hPa 0,0 mm 1,8 km/h (1 Bft) W-NW 288 ° 0 min 0,000 mm 0,0 UV-I 25 W/m² 15,4 °C 21,3 °C 3,2 km/h (1 Bft)
22.07.2017 20:34 21,2 °C 21,3 °C 70 % 1012,6 hPa 0,0 mm 1,8 km/h (1 Bft) W-NW 288 ° 0 min 0,000 mm 0,0 UV-I 23 W/m² 15,5 °C 21,2 °C 3,2 km/h (1 Bft)
22.07.2017 20:35 21,1 °C 21,2 °C 69 % 1012,5 hPa 0,0 mm 2,9 km/h (1 Bft) W-NW 287 ° 0 min 0,000 mm 0,0 UV-I 21 W/m² 15,2 °C 21,1 °C 4,8 km/h (1 Bft)
22.07.2017 20:36 21,1 °C 21,1 °C 70 % 1012,6 hPa 0,0 mm 2,3 km/h (1 Bft) W-NW 287 ° 0 min 0,000 mm 0,0 UV-I 18 W/m² 15,4 °C 21,1 °C 3,2 km/h (1 Bft)
22.07.2017 20:37 21,0 °C 21,1 °C 69 % 1012,5 hPa 0,0 mm 2,9 km/h (1 Bft) W-NW 287 ° 0 min 0,000 mm 0,0 UV-I 16 W/m² 15,1 °C 21,0 °C 4,8 km/h (1 Bft)
22.07.2017 20:38 20,9 °C 21,0 °C 68 % 1012,6 hPa 0,0 mm 2,6 km/h (1 Bft) W-NW 287 ° 0 min 0,000 mm 0,0 UV-I 14 W/m² 14,8 °C 20,9 °C 3,2 km/h (1 Bft)
22.07.2017 20:39 20,9 °C 20,9 °C 68 % 1012,6 hPa 0,0 mm 1,7 km/h (1 Bft) W-NW 287 ° 0 min 0,000 mm 0,0 UV-I 14 W/m² 14,8 °C 20,9 °C 3,2 km/h (1 Bft)
22.07.2017 20:40 20,8 °C 20,9 °C 70 % 1012,6 hPa 0,0 mm 1,0 km/h (0 Bft) W-NW 287 ° 0 min 0,000 mm 0,0 UV-I 12 W/m² 15,1 °C 20,8 °C 1,6 km/h (1 Bft)
22.07.2017 20:41 20,7 °C 20,8 °C 69 % 1012,5 hPa 0,0 mm 2,5 km/h (1 Bft) W-NW 287 ° 0 min 0,000 mm 0,0 UV-I 12 W/m² 14,8 °C 20,7 °C 3,2 km/h (1 Bft)
22.07.2017 20:42 20,7 °C 20,8 °C 71 % 1012,5 hPa 0,0 mm 0,4 km/h (0 Bft) W-NW 287 ° 0 min 0,000 mm 0,0 UV-I 11 W/m² 15,2 °C 20,7 °C 1,6 km/h (1 Bft)
22.07.2017 20:43 20,5 °C 20,7 °C 70 % 1012,5 hPa 0,0 mm 1,2 km/h (1 Bft) W-NW 287 ° 0 min 0,000 mm 0,0 UV-I 11 W/m² 14,8 °C 20,5 °C 3,2 km/h (1 Bft)
22.07.2017 20:44 20,4 °C 20,5 °C 70 % 1012,5 hPa 0,0 mm 1,4 km/h (1 Bft) W-NW 287 ° 0 min 0,000 mm 0,0 UV-I 9 W/m² 14,7 °C 20,4 °C 3,2 km/h (1 Bft)
22.07.2017 20:45 20,3 °C 20,4 °C 70 % 1012,5 hPa 0,0 mm 1,1 km/h (1 Bft) W-NW 287 ° 0 min 0,000 mm 0,0 UV-I 9 W/m² 14,6 °C 20,3 °C 3,2 km/h (1 Bft)
22.07.2017 20:46 20,2 °C 20,3 °C 71 % 1012,5 hPa 0,0 mm 0,9 km/h (0 Bft) W-NW 287 ° 0 min 0,000 mm 0,0 UV-I 9 W/m² 14,8 °C 20,2 °C 1,6 km/h (1 Bft)
22.07.2017 20:47 20,2 °C 20,2 °C 69 % 1012,5 hPa 0,0 mm 2,9 km/h (1 Bft) W-NW 287 ° 0 min 0,000 mm 0,0 UV-I 7 W/m² 14,3 °C 20,2 °C 3,2 km/h (1 Bft)
22.07.2017 20:48 20,2 °C 20,2 °C 70 % 1012,5 hPa 0,0 mm 2,4 km/h (1 Bft) W-NW 287 ° 0 min 0,000 mm 0,0 UV-I 7 W/m² 14,5 °C 20,2 °C 3,2 km/h (1 Bft)
22.07.2017 20:49 20,1 °C 20,2 °C 69 % 1012,5 hPa 0,0 mm 2,3 km/h (1 Bft) SW 225 ° 0 min 0,000 mm 0,0 UV-I 7 W/m² 14,2 °C 20,1 °C 4,8 km/h (1 Bft)
22.07.2017 20:50 20,1 °C 20,1 °C 69 % 1012,5 hPa 0,0 mm 2,7 km/h (1 Bft) SW 223 ° 0 min 0,000 mm 0,0 UV-I 7 W/m² 14,2 °C 20,1 °C 3,2 km/h (1 Bft)
22.07.2017 20:51 20,1 °C 20,1 °C 69 % 1012,6 hPa 0,0 mm 2,5 km/h (1 Bft) SW 223 ° 0 min 0,000 mm 0,0 UV-I 5 W/m² 14,2 °C 20,1 °C 4,8 km/h (1 Bft)
22.07.2017 20:52 19,9 °C 20,1 °C 70 % 1012,5 hPa 0,0 mm 3,4 km/h (1 Bft) SW 223 ° 0 min 0,000 mm 0,0 UV-I 5 W/m² 14,3 °C 19,9 °C 4,8 km/h (1 Bft)
22.07.2017 20:53 19,9 °C 19,9 °C 72 % 1012,5 hPa 0,0 mm 2,3 km/h (1 Bft) SW 223 ° 0 min 0,000 mm 0,0 UV-I 5 W/m² 14,7 °C 19,9 °C 4,8 km/h (1 Bft)
22.07.2017 20:54 19,8 °C 19,9 °C 71 % 1012,5 hPa 0,0 mm 1,9 km/h (1 Bft) SW 223 ° 0 min 0,000 mm 0,0 UV-I 5 W/m² 14,4 °C 19,8 °C 3,2 km/h (1 Bft)
22.07.2017 20:55 19,7 °C 19,8 °C 71 % 1012,5 hPa 0,0 mm 3,0 km/h (1 Bft) SW 223 ° 0 min 0,000 mm 0,0 UV-I 5 W/m² 14,3 °C 19,7 °C 4,8 km/h (1 Bft)
22.07.2017 20:56 19,6 °C 19,7 °C 72 % 1012,5 hPa 0,0 mm 1,7 km/h (1 Bft) SW 223 ° 0 min 0,000 mm 0,0 UV-I 5 W/m² 14,4 °C 19,6 °C 3,2 km/h (1 Bft)
22.07.2017 20:57 19,5 °C 19,6 °C 72 % 1012,5 hPa 0,0 mm 1,7 km/h (1 Bft) SW 223 ° 0 min 0,000 mm 0,0 UV-I 5 W/m² 14,3 °C 19,5 °C 3,2 km/h (1 Bft)
22.07.2017 20:58 19,4 °C 19,5 °C 69 % 1012,5 hPa 0,0 mm 2,9 km/h (1 Bft) SW 223 ° 0 min 0,000 mm 0,0 UV-I 5 W/m² 13,6 °C 19,4 °C 4,8 km/h (1 Bft)
22.07.2017 20:59 19,4 °C 19,4 °C 71 % 1012,5 hPa 0,0 mm 0,5 km/h (0 Bft) SW 223 ° 0 min 0,000 mm 0,0 UV-I 0 W/m² 14,0 °C 19,4 °C 1,6 km/h (1 Bft)
22.07.2017 21:00 19,3 °C 19,4 °C 71 % 1012,5 hPa 0,0 mm 0,5 km/h (0 Bft) SW 223 ° 0 min 0,000 mm 0,0 UV-I 0 W/m² 13,9 °C 19,3 °C 1,6 km/h (1 Bft)
22.07.2017 21:01 19,3 °C 19,3 °C 72 % 1012,5 hPa 0,0 mm 0,3 km/h (0 Bft) SW 223 ° 0 min 0,025 mm 0,0 UV-I 0 W/m² 14,1 °C 19,3 °C 1,6 km/h (1 Bft)
22.07.2017 21:02 19,2 °C 19,3 °C 72 % 1012,5 hPa 0,0 mm 0,0 km/h (0 Bft) SW 223 ° 0 min 0,000 mm 0,0 UV-I 0 W/m² 14,0 °C 19,2 °C 0,0 km/h (0 Bft)
22.07.2017 21:03 19,1 °C 19,2 °C 72 % 1012,5 hPa 0,0 mm 2,3 km/h (1 Bft) SW 223 ° 0 min 0,000 mm 0,0 UV-I 0 W/m² 13,9 °C 19,1 °C 4,8 km/h (1 Bft)
22.07.2017 21:04 18,9 °C 19,1 °C 73 % 1012,5 hPa 0,0 mm 3,5 km/h (1 Bft) SW 223 ° 0 min 0,000 mm 0,0 UV-I 0 W/m² 13,9 °C 18,9 °C 4,8 km/h (1 Bft)
22.07.2017 21:05 18,8 °C 18,9 °C 73 % 1012,5 hPa 0,0 mm 3,1 km/h (1 Bft) SW 223 ° 0 min 0,000 mm 0,0 UV-I 0 W/m² 13,9 °C 18,8 °C 4,8 km/h (1 Bft)
22.07.2017 21:06 18,8 °C 18,8 °C 73 % 1012,6 hPa 0,0 mm 2,9 km/h (1 Bft) SW 223 ° 0 min 0,000 mm 0,0 UV-I 0 W/m² 13,9 °C 18,8 °C 4,8 km/h (1 Bft)
22.07.2017 21:07 18,7 °C 18,8 °C 73 % 1012,5 hPa 0,0 mm 4,1 km/h (1 Bft) SW 218 ° 0 min 0,000 mm 0,0 UV-I 0 W/m² 13,8 °C 18,7 °C 6,4 km/h (2 Bft)
22.07.2017 21:08 18,6 °C 18,7 °C 73 % 1012,6 hPa 0,0 mm 3,6 km/h (1 Bft) SW 218 ° 0 min 0,000 mm 0,0 UV-I 0 W/m² 13,7 °C 18,6 °C 6,4 km/h (2 Bft)
22.07.2017 21:09 18,6 °C 18,7 °C 74 % 1012,5 hPa 0,0 mm 4,2 km/h (1 Bft) SW 218 ° 0 min 0,000 mm 0,0 UV-I 0 W/m² 13,9 °C 18,6 °C 4,8 km/h (1 Bft)
22.07.2017 21:10 18,6 °C 18,6 °C 73 % 1012,5 hPa 0,0 mm 3,8 km/h (1 Bft) SW 218 ° 0 min 0,000 mm 0,0 UV-I 0 W/m² 13,7 °C 18,6 °C 4,8 km/h (1 Bft)
22.07.2017 21:11 18,6 °C 18,6 °C 73 % 1012,5 hPa 0,0 mm 3,8 km/h (1 Bft) SW 218 ° 0 min 0,000 mm 0,0 UV-I 0 W/m² 13,7 °C 18,6 °C 4,8 km/h (1 Bft)
22.07.2017 21:12 18,6 °C 18,6 °C 72 % 1012,5 hPa 0,0 mm 3,2 km/h (1 Bft) SW 218 ° 0 min 0,000 mm 0,0 UV-I 0 W/m² 13,4 °C 18,6 °C 4,8 km/h (1 Bft)
22.07.2017 21:13 18,7 °C 18,7 °C 72 % 1012,5 hPa 0,0 mm 3,1 km/h (1 Bft) SW 218 ° 0 min 0,000 mm 0,0 UV-I 0 W/m² 13,5 °C 18,7 °C 4,8 km/h (1 Bft)
22.07.2017 21:14 18,7 °C 18,7 °C 71 % 1012,5 hPa 0,0 mm 3,4 km/h (1 Bft) SW 218 ° 0 min 0,000 mm 0,0 UV-I 0 W/m² 13,3 °C 18,7 °C 4,8 km/h (1 Bft)
22.07.2017 21:15 18,7 °C 18,7 °C 72 % 1012,6 hPa 0,0 mm 3,4 km/h (1 Bft) SW 218 ° 0 min 0,000 mm 0,0 UV-I 0 W/m² 13,5 °C 18,7 °C 4,8 km/h (1 Bft)
22.07.2017 21:16 18,8 °C 18,8 °C 72 % 1012,5 hPa 0,0 mm 2,2 km/h (1 Bft) SW 218 ° 0 min 0,000 mm 0,0 UV-I 0 W/m² 13,6 °C 18,8 °C 3,2 km/h (1 Bft)
22.07.2017 21:17 18,7 °C 18,8 °C 72 % 1012,5 hPa 0,0 mm 1,8 km/h (1 Bft) SW 218 ° 0 min 0,000 mm 0,0 UV-I 0 W/m² 13,5 °C 18,7 °C 3,2 km/h (1 Bft)
22.07.2017 21:18 18,6 °C 18,7 °C 73 % 1012,5 hPa 0,0 mm 0,3 km/h (0 Bft) SW 218 ° 0 min 0,000 mm 0,0 UV-I 0 W/m² 13,7 °C 18,6 °C 3,2 km/h (1 Bft)
22.07.2017 21:19 18,5 °C 18,6 °C 74 % 1012,5 hPa 0,0 mm 3,2 km/h (1 Bft) SW 218 ° 0 min 0,000 mm 0,0 UV-I 0 W/m² 13,8 °C 18,5 °C 4,8 km/h (1 Bft)
22.07.2017 21:20 18,4 °C 18,5 °C 75 % 1012,5 hPa 0,0 mm 2,1 km/h (1 Bft) SW 218 ° 0 min 0,000 mm 0,0 UV-I 0 W/m² 13,9 °C 18,4 °C 3,2 km/h (1 Bft)
22.07.2017 21:21 18,3 °C 18,4 °C 75 % 1012,5 hPa 0,0 mm 1,5 km/h (1 Bft) SW 218 ° 0 min 0,000 mm 0,0 UV-I 0 W/m² 13,8 °C 18,3 °C 1,6 km/h (1 Bft)
22.07.2017 21:22 18,2 °C 18,3 °C 76 % 1012,5 hPa 0,0 mm 3,2 km/h (1 Bft) SW 218 ° 0 min 0,000 mm 0,0 UV-I 0 W/m² 13,9 °C 18,2 °C 3,2 km/h (1 Bft)
22.07.2017 21:23 18,2 °C 18,2 °C 77 % 1012,5 hPa 0,0 mm 2,8 km/h (1 Bft) SW 218 ° 0 min 0,000 mm 0,0 UV-I 0 W/m² 14,1 °C 18,2 °C 4,8 km/h (1 Bft)
22.07.2017 21:24 18,1 °C 18,2 °C 77 % 1012,5 hPa 0,0 mm 3,0 km/h (1 Bft) SW 218 ° 0 min 0,000 mm 0,0 UV-I 0 W/m² 14,0 °C 18,1 °C 4,8 km/h (1 Bft)
22.07.2017 21:25 18,1 °C 18,1 °C 77 % 1012,5 hPa 0,0 mm 1,6 km/h (1 Bft) SW 218 ° 0 min 0,000 mm 0,0 UV-I 0 W/m² 14,0 °C 18,1 °C 3,2 km/h (1 Bft)
22.07.2017 21:26 17,9 °C 18,1 °C 78 % 1012,5 hPa 0,0 mm 1,1 km/h (1 Bft) SW 218 ° 0 min 0,000 mm 0,0 UV-I 0 W/m² 14,0 °C 17,9 °C 3,2 km/h (1 Bft)
22.07.2017 21:27 17,9 °C 17,9 °C 78 % 1012,5 hPa 0,0 mm 0,0 km/h (0 Bft) SW 218 ° 0 min 0,000 mm 0,0 UV-I 0 W/m² 14,0 °C 17,9 °C 0,0 km/h (0 Bft)
22.07.2017 21:28 17,9 °C 17,9 °C 78 % 1012,5 hPa 0,0 mm 0,0 km/h (0 Bft) SW 218 ° 0 min 0,000 mm 0,0 UV-I 0 W/m² 14,0 °C 17,9 °C 0,0 km/h (0 Bft)
22.07.2017 21:29 17,9 °C 17,9 °C 78 % 1012,5 hPa 0,0 mm 0,0 km/h (0 Bft) SW 218 ° 0 min 0,000 mm 0,0 UV-I 0 W/m² 14,0 °C 17,9 °C 0,0 km/h (0 Bft)
22.07.2017 21:30 18,0 °C 18,0 °C 78 % 1012,5 hPa 0,0 mm 0,0 km/h (0 Bft) SW 218 ° 0 min 0,000 mm 0,0 UV-I 0 W/m² 14,1 °C 18,0 °C 0,0 km/h (0 Bft)
22.07.2017 21:31 18,1 °C 18,1 °C 78 % 1012,6 hPa 0,0 mm 0,0 km/h (0 Bft) SW 218 ° 0 min 0,000 mm 0,0 UV-I 0 W/m² 14,2 °C 18,1 °C 0,0 km/h (0 Bft)
22.07.2017 21:32 18,1 °C 18,1 °C 77 % 1012,5 hPa 0,0 mm 0,0 km/h (0 Bft) SW 218 ° 0 min 0,000 mm 0,0 UV-I 0 W/m² 14,0 °C 18,1 °C 0,0 km/h (0 Bft)
22.07.2017 21:33 18,2 °C 18,2 °C 78 % 1012,6 hPa 0,0 mm 0,0 km/h (0 Bft) SW 218 ° 0 min 0,000 mm 0,0 UV-I 0 W/m² 14,3 °C 18,2 °C 0,0 km/h (0 Bft)
22.07.2017 21:34 18,2 °C 18,2 °C 77 % 1012,6 hPa 0,0 mm 0,0 km/h (0 Bft) SW 218 ° 0 min 0,000 mm 0,0 UV-I 0 W/m² 14,1 °C 18,2 °C 0,0 km/h (0 Bft)
22.07.2017 21:35 18,3 °C 18,3 °C 77 % 1012,6 hPa 0,0 mm 0,0 km/h (0 Bft) SW 218 ° 0 min 0,000 mm 0,0 UV-I 0 W/m² 14,2 °C 18,3 °C 0,0 km/h (0 Bft)
22.07.2017 21:36 18,3 °C 18,3 °C 77 % 1012,6 hPa 0,0 mm 0,0 km/h (0 Bft) SW 218 ° 0 min 0,000 mm 0,0 UV-I 0 W/m² 14,2 °C 18,3 °C 0,0 km/h (0 Bft)
22.07.2017 21:37 18,3 °C 18,3 °C 77 % 1012,6 hPa 0,0 mm 0,0 km/h (0 Bft) SW 218 ° 0 min 0,000 mm 0,0 UV-I 0 W/m² 14,2 °C 18,3 °C 0,0 km/h (0 Bft)
22.07.2017 21:38 18,3 °C 18,3 °C 77 % 1012,6 hPa 0,0 mm 0,0 km/h (0 Bft) SW 218 ° 0 min 0,000 mm 0,0 UV-I 0 W/m² 14,2 °C 18,3 °C 0,0 km/h (0 Bft)
22.07.2017 21:39 18,3 °C 18,3 °C 77 % 1012,6 hPa 0,0 mm 0,0 km/h (0 Bft) SW 218 ° 0 min 0,000 mm 0,0 UV-I 0 W/m² 14,2 °C 18,3 °C 0,0 km/h (0 Bft)
22.07.2017 21:40 18,4 °C 18,4 °C 76 % 1012,6 hPa 0,0 mm 0,0 km/h (0 Bft) SW 218 ° 0 min 0,000 mm 0,0 UV-I 0 W/m² 14,1 °C 18,4 °C 0,0 km/h (0 Bft)
22.07.2017 21:41 18,4 °C 18,4 °C 77 % 1012,7 hPa 0,0 mm 0,0 km/h (0 Bft) SW 218 ° 0 min 0,000 mm 0,0 UV-I 0 W/m² 14,3 °C 18,4 °C 0,0 km/h (0 Bft)
22.07.2017 21:42 18,3 °C 18,4 °C 77 % 1012,7 hPa 0,0 mm 0,0 km/h (0 Bft) SW 218 ° 0 min 0,000 mm 0,0 UV-I 0 W/m² 14,2 °C 18,3 °C 0,0 km/h (0 Bft)
22.07.2017 21:43 18,3 °C 18,3 °C 78 % 1012,7 hPa 0,0 mm 0,0 km/h (0 Bft) SW 218 ° 0 min 0,000 mm 0,0 UV-I 0 W/m² 14,4 °C 18,3 °C 0,0 km/h (0 Bft)
22.07.2017 21:44 18,2 °C 18,3 °C 77 % 1012,6 hPa 0,0 mm 1,5 km/h (1 Bft) SW 226 ° 0 min 0,000 mm 0,0 UV-I 0 W/m² 14,1 °C 18,2 °C 3,2 km/h (1 Bft)
22.07.2017 21:45 18,2 °C 18,2 °C 78 % 1012,7 hPa 0,0 mm 0,3 km/h (0 Bft) SW 226 ° 0 min 0,000 mm 0,0 UV-I 0 W/m² 14,3 °C 18,2 °C 1,6 km/h (1 Bft)
22.07.2017 21:46 18,1 °C 18,2 °C 78 % 1012,7 hPa 0,0 mm 0,3 km/h (0 Bft) SW 226 ° 0 min 0,000 mm 0,0 UV-I 0 W/m² 14,2 °C 18,1 °C 1,6 km/h (1 Bft)
22.07.2017 21:47 18,1 °C 18,2 °C 77 % 1012,6 hPa 0,0 mm 1,0 km/h (0 Bft) SW 225 ° 0 min 0,000 mm 0,0 UV-I 0 W/m² 14,0 °C 18,1 °C 3,2 km/h (1 Bft)
22.07.2017 21:48 18,1 °C 18,2 °C 77 % 1012,6 hPa 0,0 mm 0,9 km/h (0 Bft) SW 225 ° 0 min 0,000 mm 0,0 UV-I 0 W/m² 14,0 °C 18,1 °C 3,2 km/h (1 Bft)
22.07.2017 21:49 18,1 °C 18,1 °C 77 % 1012,6 hPa 0,0 mm 0,7 km/h (0 Bft) SW 225 ° 0 min 0,000 mm 0,0 UV-I 0 W/m² 14,0 °C 18,1 °C 3,2 km/h (1 Bft)
22.07.2017 21:50 18,2 °C 18,2 °C 77 % 1012,7 hPa 0,0 mm 0,7 km/h (0 Bft) SW 226 ° 0 min 0,000 mm 0,0 UV-I 0 W/m² 14,1 °C 18,2 °C 1,6 km/h (1 Bft)
22.07.2017 21:51 18,1 °C 18,2 °C 77 % 1012,6 hPa 0,0 mm 0,3 km/h (0 Bft) SW 226 ° 0 min 0,000 mm 0,0 UV-I 0 W/m² 14,0 °C 18,1 °C 1,6 km/h (1 Bft)
22.07.2017 21:52 18,1 °C 18,2 °C 77 % 1012,7 hPa 0,0 mm 1,0 km/h (0 Bft) SW 225 ° 0 min 0,000 mm 0,0 UV-I 0 W/m² 14,0 °C 18,1 °C 3,2 km/h (1 Bft)
22.07.2017 21:53 18,2 °C 18,2 °C 77 % 1012,8 hPa 0,0 mm 0,2 km/h (0 Bft) SW 226 ° 0 min 0,000 mm 0,0 UV-I 0 W/m² 14,1 °C 18,2 °C 1,6 km/h (1 Bft)
22.07.2017 21:54 18,2 °C 18,2 °C 77 % 1012,8 hPa 0,0 mm 0,0 km/h (0 Bft) SW 226 ° 0 min 0,000 mm 0,0 UV-I 0 W/m² 14,1 °C 18,2 °C 0,0 km/h (0 Bft)
22.07.2017 21:55 18,2 °C 18,2 °C 77 % 1012,8 hPa 0,0 mm 0,6 km/h (0 Bft) SW 226 ° 0 min 0,000 mm 0,0 UV-I 0 W/m² 14,1 °C 18,2 °C 1,6 km/h (1 Bft)
22.07.2017 21:56 18,2 °C 18,2 °C 77 % 1012,8 hPa 0,0 mm 0,9 km/h (0 Bft) SW 226 ° 0 min 0,000 mm 0,0 UV-I 0 W/m² 14,1 °C 18,2 °C 1,6 km/h (1 Bft)
22.07.2017 21:57 18,2 °C 18,3 °C 78 % 1012,8 hPa 0,0 mm 1,2 km/h (1 Bft) SW 226 ° 0 min 0,000 mm 0,0 UV-I 0 W/m² 14,3 °C 18,2 °C 1,6 km/h (1 Bft)
22.07.2017 21:58 18,2 °C 18,2 °C 77 % 1012,9 hPa 0,0 mm 0,4 km/h (0 Bft) SW 226 ° 0 min 0,000 mm 0,0 UV-I 0 W/m² 14,1 °C 18,2 °C 1,6 km/h (1 Bft)
22.07.2017 21:59 18,2 °C 18,2 °C 77 % 1012,9 hPa 0,0 mm 0,7 km/h (0 Bft) SW 226 ° 0 min 0,000 mm 0,0 UV-I 0 W/m² 14,1 °C 18,2 °C 3,2 km/h (1 Bft)
22.07.2017 22:00 18,2 °C 18,2 °C 77 % 1012,9 hPa 0,0 mm 0,2 km/h (0 Bft) SW 226 ° 0 min 0,000 mm 0,0 UV-I 0 W/m² 14,1 °C 18,2 °C 1,6 km/h (1 Bft)
22.07.2017 22:01 18,2 °C 18,2 °C 77 % 1012,9 hPa 0,0 mm 0,5 km/h (0 Bft) SW 226 ° 0 min 0,000 mm 0,0 UV-I 0 W/m² 14,1 °C 18,2 °C 3,2 km/h (1 Bft)
22.07.2017 22:02 18,2 °C 18,2 °C 77 % 1012,9 hPa 0,0 mm 0,8 km/h (0 Bft) SW 226 ° 0 min 0,000 mm 0,0 UV-I 0 W/m² 14,1 °C 18,2 °C 3,2 km/h (1 Bft)
22.07.2017 22:03 18,2 °C 18,2 °C 77 % 1013,0 hPa 0,0 mm 0,7 km/h (0 Bft) SW 226 ° 0 min 0,000 mm 0,0 UV-I 0 W/m² 14,1 °C 18,2 °C 1,6 km/h (1 Bft)
22.07.2017 22:04 18,2 °C 18,2 °C 77 % 1013,0 hPa 0,0 mm 0,2 km/h (0 Bft) SW 226 ° 0 min 0,000 mm 0,0 UV-I 0 W/m² 14,1 °C 18,2 °C 1,6 km/h (1 Bft)
22.07.2017 22:05 18,2 °C 18,2 °C 77 % 1013,0 hPa 0,0 mm 0,3 km/h (0 Bft) SW 226 ° 0 min 0,000 mm 0,0 UV-I 0 W/m² 14,1 °C 18,2 °C 1,6 km/h (1 Bft)
22.07.2017 22:06 18,2 °C 18,2 °C 78 % 1013,0 hPa 0,0 mm 0,5 km/h (0 Bft) SW 226 ° 0 min 0,000 mm 0,0 UV-I 0 W/m² 14,3 °C 18,2 °C 3,2 km/h (1 Bft)
22.07.2017 22:07 18,2 °C 18,2 °C 77 % 1013,0 hPa 0,0 mm 0,3 km/h (0 Bft) SW 226 ° 0 min 0,000 mm 0,0 UV-I 0 W/m² 14,1 °C 18,2 °C 1,6 km/h (1 Bft)
22.07.2017 22:08 18,2 °C 18,2 °C 77 % 1012,9 hPa 0,0 mm 0,0 km/h (0 Bft) SW 226 ° 0 min 0,000 mm 0,0 UV-I 0 W/m² 14,1 °C 18,2 °C 0,0 km/h (0 Bft)
22.07.2017 22:09 18,1 °C 18,2 °C 77 % 1012,9 hPa 0,0 mm 0,0 km/h (0 Bft) SW 226 ° 0 min 0,000 mm 0,0 UV-I 0 W/m² 14,0 °C 18,1 °C 0,0 km/h (0 Bft)
22.07.2017 22:10 18,2 °C 18,2 °C 77 % 1012,9 hPa 0,0 mm 0,0 km/h (0 Bft) SW 226 ° 0 min 0,000 mm 0,0 UV-I 0 W/m² 14,1 °C 18,2 °C 0,0 km/h (0 Bft)
22.07.2017 22:11 18,1 °C 18,2 °C 77 % 1012,8 hPa 0,0 mm 0,1 km/h (0 Bft) SW 226 ° 0 min 0,000 mm 0,0 UV-I 0 W/m² 14,0 °C 18,1 °C 1,6 km/h (1 Bft)
22.07.2017 22:12 18,1 °C 18,1 °C 78 % 1012,8 hPa 0,0 mm 0,0 km/h (0 Bft) SW 226 ° 0 min 0,000 mm 0,0 UV-I 0 W/m² 14,2 °C 18,1 °C 0,0 km/h (0 Bft)
22.07.2017 22:13 18,1 °C 18,1 °C 77 % 1012,9 hPa 0,0 mm 0,0 km/h (0 Bft) SW 226 ° 0 min 0,000 mm 0,0 UV-I 0 W/m² 14,0 °C 18,1 °C 0,0 km/h (0 Bft)
22.07.2017 22:14 18,1 °C 18,1 °C 78 % 1012,8 hPa 0,0 mm 0,0 km/h (0 Bft) SW 226 ° 0 min 0,000 mm 0,0 UV-I 0 W/m² 14,2 °C 18,1 °C 0,0 km/h (0 Bft)
22.07.2017 22:15 18,1 °C 18,1 °C 78 % 1012,8 hPa 0,0 mm 0,2 km/h (0 Bft) SW 226 ° 0 min 0,000 mm 0,0 UV-I 0 W/m² 14,2 °C 18,1 °C 1,6 km/h (1 Bft)
22.07.2017 22:16 18,1 °C 18,1 °C 78 % 1012,9 hPa 0,0 mm 0,0 km/h (0 Bft) SW 226 ° 0 min 0,000 mm 0,0 UV-I 0 W/m² 14,2 °C 18,1 °C 0,0 km/h (0 Bft)
22.07.2017 22:17 18,1 °C 18,1 °C 77 % 1012,9 hPa 0,0 mm 0,0 km/h (0 Bft) SW 226 ° 0 min 0,000 mm 0,0 UV-I 0 W/m² 14,0 °C 18,1 °C 0,0 km/h (0 Bft)
22.07.2017 22:18 18,1 °C 18,1 °C 77 % 1012,8 hPa 0,0 mm 0,0 km/h (0 Bft) SW 226 ° 0 min 0,000 mm 0,0 UV-I 0 W/m² 14,0 °C 18,1 °C 0,0 km/h (0 Bft)
22.07.2017 22:19 18,1 °C 18,1 °C 77 % 1012,9 hPa 0,0 mm 0,0 km/h (0 Bft) SW 226 ° 0 min 0,000 mm 0,0 UV-I 0 W/m² 14,0 °C 18,1 °C 0,0 km/h (0 Bft)
22.07.2017 22:20 18,0 °C 18,1 °C 78 % 1012,8 hPa 0,0 mm 1,1 km/h (1 Bft) SW 226 ° 0 min 0,000 mm 0,0 UV-I 0 W/m² 14,1 °C 18,0 °C 3,2 km/h (1 Bft)
22.07.2017 22:21 18,1 °C 18,1 °C 77 % 1012,8 hPa 0,0 mm 0,5 km/h (0 Bft) SW 223 ° 0 min 0,000 mm 0,0 UV-I 0 W/m² 14,0 °C 18,1 °C 1,6 km/h (1 Bft)
22.07.2017 22:22 18,1 °C 18,1 °C 77 % 1012,7 hPa 0,0 mm 0,0 km/h (0 Bft) SW 223 ° 0 min 0,000 mm 0,0 UV-I 0 W/m² 14,0 °C 18,1 °C 0,0 km/h (0 Bft)
22.07.2017 22:23 18,0 °C 18,1 °C 77 % 1012,7 hPa 0,0 mm 0,0 km/h (0 Bft) SW 223 ° 0 min 0,000 mm 0,0 UV-I 0 W/m² 13,9 °C 18,0 °C 0,0 km/h (0 Bft)
22.07.2017 22:24 18,1 °C 18,1 °C 77 % 1012,7 hPa 0,0 mm 0,1 km/h (0 Bft) SW 223 ° 0 min 0,000 mm 0,0 UV-I 0 W/m² 14,0 °C 18,1 °C 1,6 km/h (1 Bft)
22.07.2017 22:25 18,0 °C 18,1 °C 77 % 1012,7 hPa 0,0 mm 0,3 km/h (0 Bft) SW 223 ° 0 min 0,000 mm 0,0 UV-I 0 W/m² 13,9 °C 18,0 °C 1,6 km/h (1 Bft)
22.07.2017 22:26 18,0 °C 18,1 °C 77 % 1012,7 hPa 0,0 mm 0,0 km/h (0 Bft) SW 223 ° 0 min 0,000 mm 0,0 UV-I 0 W/m² 13,9 °C 18,0 °C 0,0 km/h (0 Bft)
22.07.2017 22:27 18,0 °C 18,1 °C 77 % 1012,7 hPa 0,0 mm 0,0 km/h (0 Bft) SW 223 ° 0 min 0,000 mm 0,0 UV-I 0 W/m² 13,9 °C 18,0 °C 0,0 km/h (0 Bft)
22.07.2017 22:28 18,1 °C 18,1 °C 77 % 1012,7 hPa 0,0 mm 0,7 km/h (0 Bft) SW 223 ° 0 min 0,000 mm 0,0 UV-I 0 W/m² 14,0 °C 18,1 °C 1,6 km/h (1 Bft)
22.07.2017 22:29 18,0 °C 18,1 °C 77 % 1012,7 hPa 0,0 mm 0,0 km/h (0 Bft) SW 223 ° 0 min 0,000 mm 0,0 UV-I 0 W/m² 13,9 °C 18,0 °C 0,0 km/h (0 Bft)
22.07.2017 22:30 18,0 °C 18,0 °C 77 % 1012,7 hPa 0,0 mm 0,0 km/h (0 Bft) SW 223 ° 0 min 0,000 mm 0,0 UV-I 0 W/m² 13,9 °C 18,0 °C 0,0 km/h (0 Bft)
22.07.2017 22:31 17,9 °C 18,0 °C 77 % 1012,6 hPa 0,0 mm 0,0 km/h (0 Bft) SW 223 ° 0 min 0,000 mm 0,0 UV-I 0 W/m² 13,8 °C 17,9 °C 0,0 km/h (0 Bft)
22.07.2017 22:32 17,9 °C 18,0 °C 77 % 1012,6 hPa 0,0 mm 0,0 km/h (0 Bft) SW 223 ° 0 min 0,000 mm 0,0 UV-I 0 W/m² 13,8 °C 17,9 °C 0,0 km/h (0 Bft)
22.07.2017 22:33 17,9 °C 17,9 °C 77 % 1012,6 hPa 0,0 mm 0,0 km/h (0 Bft) SW 223 ° 0 min 0,000 mm 0,0 UV-I 0 W/m² 13,8 °C 17,9 °C 0,0 km/h (0 Bft)
22.07.2017 22:34 17,8 °C 17,9 °C 77 % 1012,5 hPa 0,0 mm 0,0 km/h (0 Bft) SW 223 ° 0 min 0,000 mm 0,0 UV-I 0 W/m² 13,7 °C 17,8 °C 0,0 km/h (0 Bft)
22.07.2017 22:35 17,8 °C 17,8 °C 77 % 1012,6 hPa 0,0 mm 0,0 km/h (0 Bft) SW 223 ° 0 min 0,000 mm 0,0 UV-I 0 W/m² 13,7 °C 17,8 °C 0,0 km/h (0 Bft)
22.07.2017 22:36 17,8 °C 17,8 °C 78 % 1012,5 hPa 0,0 mm 0,0 km/h (0 Bft) SW 223 ° 0 min 0,000 mm 0,0 UV-I 0 W/m² 13,9 °C 17,8 °C 0,0 km/h (0 Bft)
22.07.2017 22:37 17,8 °C 17,8 °C 78 % 1012,6 hPa 0,0 mm 0,0 km/h (0 Bft) SW 223 ° 0 min 0,000 mm 0,0 UV-I 0 W/m² 13,9 °C 17,8 °C 0,0 km/h (0 Bft)
22.07.2017 22:38 17,7 °C 17,8 °C 79 % 1012,5 hPa 0,0 mm 0,0 km/h (0 Bft) SW 223 ° 0 min 0,000 mm 0,0 UV-I 0 W/m² 14,0 °C 17,7 °C 0,0 km/h (0 Bft)
22.07.2017 22:39 17,7 °C 17,8 °C 79 % 1012,5 hPa 0,0 mm 0,0 km/h (0 Bft) SW 223 ° 0 min 0,000 mm 0,0 UV-I 0 W/m² 14,0 °C 17,7 °C 0,0 km/h (0 Bft)
22.07.2017 22:40 17,7 °C 17,7 °C 80 % 1012,5 hPa 0,0 mm 0,0 km/h (0 Bft) SW 223 ° 0 min 0,000 mm 0,0 UV-I 0 W/m² 14,2 °C 17,7 °C 0,0 km/h (0 Bft)
22.07.2017 22:41 17,6 °C 17,7 °C 80 % 1012,4 hPa 0,0 mm 0,0 km/h (0 Bft) SW 223 ° 0 min 0,000 mm 0,0 UV-I 0 W/m² 14,1 °C 17,6 °C 0,0 km/h (0 Bft)
22.07.2017 22:42 17,5 °C 17,6 °C 79 % 1012,4 hPa 0,0 mm 0,0 km/h (0 Bft) SW 223 ° 0 min 0,000 mm 0,0 UV-I 0 W/m² 13,8 °C 17,5 °C 0,0 km/h (0 Bft)
22.07.2017 22:43 17,5 °C 17,6 °C 79 % 1012,3 hPa 0,0 mm 0,0 km/h (0 Bft) SW 223 ° 0 min 0,000 mm 0,0 UV-I 0 W/m² 13,8 °C 17,5 °C 0,0 km/h (0 Bft)
22.07.2017 22:44 17,5 °C 17,5 °C 79 % 1012,3 hPa 0,0 mm 0,0 km/h (0 Bft) SW 223 ° 0 min 0,000 mm 0,0 UV-I 0 W/m² 13,8 °C 17,5 °C 0,0 km/h (0 Bft)
22.07.2017 22:45 17,5 °C 17,5 °C 79 % 1012,3 hPa 0,0 mm 0,0 km/h (0 Bft) SW 223 ° 0 min 0,000 mm 0,0 UV-I 0 W/m² 13,8 °C 17,5 °C 0,0 km/h (0 Bft)
22.07.2017 22:46 17,5 °C 17,5 °C 78 % 1012,2 hPa 0,0 mm 0,0 km/h (0 Bft) SW 223 ° 0 min 0,000 mm 0,0 UV-I 0 W/m² 13,6 °C 17,5 °C 0,0 km/h (0 Bft)
22.07.2017 22:47 17,5 °C 17,5 °C 78 % 1012,3 hPa 0,0 mm 0,0 km/h (0 Bft) SW 223 ° 0 min 0,000 mm 0,0 UV-I 0 W/m² 13,6 °C 17,5 °C 0,0 km/h (0 Bft)
22.07.2017 22:48 17,5 °C 17,6 °C 78 % 1012,2 hPa 0,0 mm 0,0 km/h (0 Bft) SW 223 ° 0 min 0,000 mm 0,0 UV-I 0 W/m² 13,6 °C 17,5 °C 0,0 km/h (0 Bft)
22.07.2017 22:49 17,6 °C 17,6 °C 77 % 1012,1 hPa 0,0 mm 0,0 km/h (0 Bft) SW 223 ° 0 min 0,000 mm 0,0 UV-I 0 W/m² 13,5 °C 17,6 °C 0,0 km/h (0 Bft)
22.07.2017 22:50 17,6 °C 17,6 °C 77 % 1012,1 hPa 0,0 mm 0,0 km/h (0 Bft) SW 223 ° 0 min 0,000 mm 0,0 UV-I 0 W/m² 13,5 °C 17,6 °C 0,0 km/h (0 Bft)
22.07.2017 22:51 17,6 °C 17,6 °C 77 % 1012,1 hPa 0,0 mm 0,0 km/h (0 Bft) SW 223 ° 0 min 0,000 mm 0,0 UV-I 0 W/m² 13,5 °C 17,6 °C 0,0 km/h (0 Bft)
22.07.2017 22:52 17,6 °C 17,6 °C 77 % 1012,1 hPa 0,0 mm 0,0 km/h (0 Bft) SW 223 ° 0 min 0,000 mm 0,0 UV-I 0 W/m² 13,5 °C 17,6 °C 0,0 km/h (0 Bft)
22.07.2017 22:53 17,6 °C 17,6 °C 77 % 1012,1 hPa 0,0 mm 0,0 km/h (0 Bft) SW 223 ° 0 min 0,000 mm 0,0 UV-I 0 W/m² 13,5 °C 17,6 °C 0,0 km/h (0 Bft)
22.07.2017 22:54 17,6 °C 17,6 °C 78 % 1012,0 hPa 0,0 mm 0,0 km/h (0 Bft) SW 223 ° 0 min 0,000 mm 0,0 UV-I 0 W/m² 13,7 °C 17,6 °C 0,0 km/h (0 Bft)
22.07.2017 22:55 17,5 °C 17,6 °C 78 % 1012,0 hPa 0,0 mm 0,0 km/h (0 Bft) SW 223 ° 0 min 0,000 mm 0,0 UV-I 0 W/m² 13,6 °C 17,5 °C 0,0 km/h (0 Bft)
22.07.2017 22:56 17,4 °C 17,5 °C 78 % 1012,0 hPa 0,0 mm 0,0 km/h (0 Bft) SW 223 ° 0 min 0,000 mm 0,0 UV-I 0 W/m² 13,5 °C 17,4 °C 0,0 km/h (0 Bft)
22.07.2017 22:57 17,4 °C 17,4 °C 79 % 1012,0 hPa 0,0 mm 0,0 km/h (0 Bft) SW 223 ° 0 min 0,000 mm 0,0 UV-I 0 W/m² 13,7 °C 17,4 °C 0,0 km/h (0 Bft)
22.07.2017 22:58 17,4 °C 17,4 °C 78 % 1012,0 hPa 0,0 mm 0,0 km/h (0 Bft) SW 223 ° 0 min 0,000 mm 0,0 UV-I 0 W/m² 13,5 °C 17,4 °C 0,0 km/h (0 Bft)
22.07.2017 22:59 17,4 °C 17,4 °C 78 % 1012,0 hPa 0,0 mm 0,0 km/h (0 Bft) SW 223 ° 0 min 0,000 mm 0,0 UV-I 0 W/m² 13,5 °C 17,4 °C 0,0 km/h (0 Bft)
22.07.2017 23:00 17,4 °C 17,4 °C 78 % 1012,0 hPa 0,0 mm 0,0 km/h (0 Bft) SW 223 ° 0 min 0,000 mm 0,0 UV-I 0 W/m² 13,5 °C 17,4 °C 0,0 km/h (0 Bft)
22.07.2017 23:01 17,4 °C 17,4 °C 78 % 1012,0 hPa 0,0 mm 0,0 km/h (0 Bft) SW 223 ° 0 min 0,025 mm 0,0 UV-I 0 W/m² 13,5 °C 17,4 °C 0,0 km/h (0 Bft)
22.07.2017 23:02 17,4 °C 17,4 °C 78 % 1012,0 hPa 0,0 mm 0,0 km/h (0 Bft) SW 223 ° 0 min 0,000 mm 0,0 UV-I 0 W/m² 13,5 °C 17,4 °C 0,0 km/h (0 Bft)
22.07.2017 23:03 17,3 °C 17,4 °C 78 % 1012,0 hPa 0,0 mm 0,0 km/h (0 Bft) SW 223 ° 0 min 0,000 mm 0,0 UV-I 0 W/m² 13,4 °C 17,3 °C 0,0 km/h (0 Bft)
22.07.2017 23:04 17,4 °C 17,4 °C 79 % 1012,0 hPa 0,0 mm 0,0 km/h (0 Bft) SW 223 ° 0 min 0,000 mm 0,0 UV-I 0 W/m² 13,7 °C 17,4 °C 0,0 km/h (0 Bft)
22.07.2017 23:05 17,4 °C 17,4 °C 78 % 1012,0 hPa 0,0 mm 0,0 km/h (0 Bft) SW 223 ° 0 min 0,000 mm 0,0 UV-I 0 W/m² 13,5 °C 17,4 °C 0,0 km/h (0 Bft)
22.07.2017 23:06 17,4 °C 17,4 °C 78 % 1012,0 hPa 0,0 mm 0,0 km/h (0 Bft) SW 223 ° 0 min 0,000 mm 0,0 UV-I 0 W/m² 13,5 °C 17,4 °C 0,0 km/h (0 Bft)
22.07.2017 23:07 17,3 °C 17,4 °C 78 % 1012,0 hPa 0,0 mm 0,0 km/h (0 Bft) SW 223 ° 0 min 0,000 mm 0,0 UV-I 0 W/m² 13,4 °C 17,3 °C 0,0 km/h (0 Bft)
22.07.2017 23:08 17,3 °C 17,3 °C 78 % 1012,0 hPa 0,0 mm 0,0 km/h (0 Bft) SW 223 ° 0 min 0,000 mm 0,0 UV-I 0 W/m² 13,4 °C 17,3 °C 0,0 km/h (0 Bft)
22.07.2017 23:09 17,3 °C 17,3 °C 78 % 1011,9 hPa 0,0 mm 0,0 km/h (0 Bft) SW 223 ° 0 min 0,000 mm 0,0 UV-I 0 W/m² 13,4 °C 17,3 °C 0,0 km/h (0 Bft)
22.07.2017 23:10 17,3 °C 17,3 °C 78 % 1012,0 hPa 0,0 mm 0,0 km/h (0 Bft) SW 223 ° 0 min 0,000 mm 0,0 UV-I 0 W/m² 13,4 °C 17,3 °C 0,0 km/h (0 Bft)
22.07.2017 23:11 17,3 °C 17,3 °C 79 % 1012,0 hPa 0,0 mm 0,0 km/h (0 Bft) SW 223 ° 0 min 0,000 mm 0,0 UV-I 0 W/m² 13,6 °C 17,3 °C 0,0 km/h (0 Bft)
22.07.2017 23:12 17,2 °C 17,3 °C 79 % 1012,0 hPa 0,0 mm 0,0 km/h (0 Bft) SW 223 ° 0 min 0,000 mm 0,0 UV-I 0 W/m² 13,5 °C 17,2 °C 0,0 km/h (0 Bft)
22.07.2017 23:13 17,2 °C 17,2 °C 80 % 1012,0 hPa 0,0 mm 0,0 km/h (0 Bft) SW 223 ° 0 min 0,000 mm 0,0 UV-I 0 W/m² 13,7 °C 17,2 °C 0,0 km/h (0 Bft)
22.07.2017 23:14 17,1 °C 17,2 °C 80 % 1012,0 hPa 0,0 mm 0,0 km/h (0 Bft) SW 223 ° 0 min 0,000 mm 0,0 UV-I 0 W/m² 13,6 °C 17,1 °C 0,0 km/h (0 Bft)
22.07.2017 23:15 17,1 °C 17,1 °C 81 % 1012,0 hPa 0,0 mm 0,0 km/h (0 Bft) SW 223 ° 0 min 0,000 mm 0,0 UV-I 0 W/m² 13,8 °C 17,1 °C 0,0 km/h (0 Bft)
22.07.2017 23:16 17,1 °C 17,1 °C 81 % 1011,9 hPa 0,0 mm 0,0 km/h (0 Bft) SW 223 ° 0 min 0,000 mm 0,0 UV-I 0 W/m² 13,8 °C 17,1 °C 0,0 km/h (0 Bft)
22.07.2017 23:17 16,9 °C 17,1 °C 81 % 1011,9 hPa 0,0 mm 0,0 km/h (0 Bft) SW 223 ° 0 min 0,000 mm 0,0 UV-I 0 W/m² 13,6 °C 16,9 °C 0,0 km/h (0 Bft)
22.07.2017 23:18 16,8 °C 16,9 °C 82 % 1012,0 hPa 0,0 mm 0,0 km/h (0 Bft) SW 223 ° 0 min 0,000 mm 0,0 UV-I 0 W/m² 13,7 °C 16,8 °C 0,0 km/h (0 Bft)
22.07.2017 23:19 16,8 °C 16,8 °C 82 % 1012,0 hPa 0,0 mm 0,0 km/h (0 Bft) SW 223 ° 0 min 0,000 mm 0,0 UV-I 0 W/m² 13,7 °C 16,8 °C 0,0 km/h (0 Bft)
22.07.2017 23:20 16,7 °C 16,8 °C 82 % 1012,0 hPa 0,0 mm 0,0 km/h (0 Bft) SW 223 ° 0 min 0,000 mm 0,0 UV-I 0 W/m² 13,6 °C 16,7 °C 0,0 km/h (0 Bft)
22.07.2017 23:21 16,8 °C 16,8 °C 82 % 1012,0 hPa 0,0 mm 0,0 km/h (0 Bft) SW 223 ° 0 min 0,000 mm 0,0 UV-I 0 W/m² 13,7 °C 16,8 °C 0,0 km/h (0 Bft)
22.07.2017 23:22 16,7 °C 16,8 °C 82 % 1012,0 hPa 0,0 mm 0,0 km/h (0 Bft) SW 223 ° 0 min 0,000 mm 0,0 UV-I 0 W/m² 13,6 °C 16,7 °C 0,0 km/h (0 Bft)
22.07.2017 23:23 16,7 °C 16,7 °C 82 % 1012,1 hPa 0,0 mm 0,0 km/h (0 Bft) SW 223 ° 0 min 0,000 mm 0,0 UV-I 0 W/m² 13,6 °C 16,7 °C 0,0 km/h (0 Bft)
22.07.2017 23:24 16,7 °C 16,7 °C 82 % 1012,1 hPa 0,0 mm 0,0 km/h (0 Bft) SW 223 ° 0 min 0,000 mm 0,0 UV-I 0 W/m² 13,6 °C 16,7 °C 0,0 km/h (0 Bft)
22.07.2017 23:25 16,7 °C 16,7 °C 81 % 1012,1 hPa 0,0 mm 0,0 km/h (0 Bft) SW 223 ° 0 min 0,000 mm 0,0 UV-I 0 W/m² 13,4 °C 16,7 °C 0,0 km/h (0 Bft)
22.07.2017 23:26 16,7 °C 16,7 °C 81 % 1012,1 hPa 0,0 mm 0,0 km/h (0 Bft) SW 223 ° 0 min 0,000 mm 0,0 UV-I 0 W/m² 13,4 °C 16,7 °C 0,0 km/h (0 Bft)
22.07.2017 23:27 16,7 °C 16,7 °C 81 % 1012,1 hPa 0,0 mm 0,0 km/h (0 Bft) SW 223 ° 0 min 0,000 mm 0,0 UV-I 0 W/m² 13,4 °C 16,7 °C 0,0 km/h (0 Bft)
22.07.2017 23:28 16,6 °C 16,7 °C 82 % 1012,0 hPa 0,0 mm 0,0 km/h (0 Bft) SW 223 ° 0 min 0,000 mm 0,0 UV-I 0 W/m² 13,5 °C 16,6 °C 0,0 km/h (0 Bft)
22.07.2017 23:29 16,6 °C 16,6 °C 82 % 1012,1 hPa 0,0 mm 0,0 km/h (0 Bft) SW 223 ° 0 min 0,000 mm 0,0 UV-I 0 W/m² 13,5 °C 16,6 °C 0,0 km/h (0 Bft)
22.07.2017 23:30 16,6 °C 16,6 °C 82 % 1012,1 hPa 0,0 mm 0,0 km/h (0 Bft) SW 223 ° 0 min 0,000 mm 0,0 UV-I 0 W/m² 13,5 °C 16,6 °C 0,0 km/h (0 Bft)
22.07.2017 23:31 16,6 °C 16,6 °C 83 % 1012,1 hPa 0,0 mm 0,0 km/h (0 Bft) SW 223 ° 0 min 0,000 mm 0,0 UV-I 0 W/m² 13,7 °C 16,6 °C 0,0 km/h (0 Bft)
22.07.2017 23:32 16,4 °C 16,6 °C 82 % 1012,1 hPa 0,0 mm 0,0 km/h (0 Bft) SW 223 ° 0 min 0,000 mm 0,0 UV-I 0 W/m² 13,3 °C 16,4 °C 0,0 km/h (0 Bft)
22.07.2017 23:33 16,4 °C 16,4 °C 82 % 1012,1 hPa 0,0 mm 0,0 km/h (0 Bft) SW 223 ° 0 min 0,000 mm 0,0 UV-I 0 W/m² 13,3 °C 16,4 °C 0,0 km/h (0 Bft)
22.07.2017 23:34 16,3 °C 16,4 °C 83 % 1012,1 hPa 0,0 mm 0,0 km/h (0 Bft) SW 223 ° 0 min 0,000 mm 0,0 UV-I 0 W/m² 13,4 °C 16,3 °C 0,0 km/h (0 Bft)
22.07.2017 23:35 16,4 °C 16,4 °C 83 % 1012,1 hPa 0,0 mm 0,0 km/h (0 Bft) SW 223 ° 0 min 0,000 mm 0,0 UV-I 0 W/m² 13,5 °C 16,4 °C 0,0 km/h (0 Bft)
22.07.2017 23:36 16,4 °C 16,4 °C 83 % 1012,1 hPa 0,0 mm 0,0 km/h (0 Bft) SW 223 ° 0 min 0,000 mm 0,0 UV-I 0 W/m² 13,5 °C 16,4 °C 0,0 km/h (0 Bft)
22.07.2017 23:37 16,3 °C 16,4 °C 82 % 1012,1 hPa 0,0 mm 0,0 km/h (0 Bft) SW 223 ° 0 min 0,000 mm 0,0 UV-I 0 W/m² 13,2 °C 16,3 °C 0,0 km/h (0 Bft)
22.07.2017 23:38 16,3 °C 16,4 °C 82 % 1012,1 hPa 0,0 mm 0,0 km/h (0 Bft) SW 223 ° 0 min 0,000 mm 0,0 UV-I 0 W/m² 13,2 °C 16,3 °C 0,0 km/h (0 Bft)
22.07.2017 23:39 16,3 °C 16,3 °C 82 % 1012,1 hPa 0,0 mm 0,0 km/h (0 Bft) SW 223 ° 0 min 0,000 mm 0,0 UV-I 0 W/m² 13,2 °C 16,3 °C 0,0 km/h (0 Bft)
22.07.2017 23:40 16,3 °C 16,4 °C 82 % 1012,1 hPa 0,0 mm 0,0 km/h (0 Bft) SW 223 ° 0 min 0,000 mm 0,0 UV-I 0 W/m² 13,2 °C 16,3 °C 0,0 km/h (0 Bft)
22.07.2017 23:41 16,4 °C 16,4 °C 82 % 1012,2 hPa 0,0 mm 0,0 km/h (0 Bft) SW 223 ° 0 min 0,000 mm 0,0 UV-I 0 W/m² 13,3 °C 16,4 °C 0,0 km/h (0 Bft)
22.07.2017 23:42 16,3 °C 16,4 °C 82 % 1012,2 hPa 0,0 mm 0,0 km/h (0 Bft) SW 223 ° 0 min 0,000 mm 0,0 UV-I 0 W/m² 13,2 °C 16,3 °C 0,0 km/h (0 Bft)
22.07.2017 23:43 16,3 °C 16,3 °C 84 % 1012,1 hPa 0,0 mm 0,0 km/h (0 Bft) SW 223 ° 0 min 0,000 mm 0,0 UV-I 0 W/m² 13,6 °C 16,3 °C 0,0 km/h (0 Bft)
22.07.2017 23:44 16,3 °C 16,3 °C 84 % 1012,1 hPa 0,0 mm 0,0 km/h (0 Bft) SW 223 ° 0 min 0,000 mm 0,0 UV-I 0 W/m² 13,6 °C 16,3 °C 0,0 km/h (0 Bft)
22.07.2017 23:45 16,2 °C 16,3 °C 84 % 1012,1 hPa 0,0 mm 0,0 km/h (0 Bft) SW 223 ° 0 min 0,000 mm 0,0 UV-I 0 W/m² 13,5 °C 16,2 °C 0,0 km/h (0 Bft)
22.07.2017 23:46 16,1 °C 16,2 °C 84 % 1012,1 hPa 0,0 mm 0,0 km/h (0 Bft) SW 223 ° 0 min 0,000 mm 0,0 UV-I 0 W/m² 13,4 °C 16,1 °C 0,0 km/h (0 Bft)
22.07.2017 23:47 16,1 °C 16,1 °C 84 % 1012,1 hPa 0,0 mm 0,0 km/h (0 Bft) SW 223 ° 0 min 0,000 mm 0,0 UV-I 0 W/m² 13,4 °C 16,1 °C 0,0 km/h (0 Bft)
22.07.2017 23:48 16,0 °C 16,1 °C 84 % 1012,1 hPa 0,0 mm 0,0 km/h (0 Bft) SW 223 ° 0 min 0,000 mm 0,0 UV-I 0 W/m² 13,3 °C 16,0 °C 0,0 km/h (0 Bft)
22.07.2017 23:49 15,9 °C 16,0 °C 84 % 1012,1 hPa 0,0 mm 0,0 km/h (0 Bft) SW 223 ° 0 min 0,000 mm 0,0 UV-I 0 W/m² 13,2 °C 15,9 °C 0,0 km/h (0 Bft)
22.07.2017 23:50 15,9 °C 15,9 °C 85 % 1012,1 hPa 0,0 mm 0,0 km/h (0 Bft) SW 223 ° 0 min 0,000 mm 0,0 UV-I 0 W/m² 13,4 °C 15,9 °C 0,0 km/h (0 Bft)
22.07.2017 23:51 15,9 °C 15,9 °C 85 % 1012,1 hPa 0,0 mm 0,0 km/h (0 Bft) SW 223 ° 0 min 0,000 mm 0,0 UV-I 0 W/m² 13,4 °C 15,9 °C 0,0 km/h (0 Bft)
22.07.2017 23:52 15,8 °C 15,9 °C 85 % 1012,1 hPa 0,0 mm 0,0 km/h (0 Bft) SW 223 ° 0 min 0,000 mm 0,0 UV-I 0 W/m² 13,3 °C 15,8 °C 0,0 km/h (0 Bft)
22.07.2017 23:53 15,8 °C 15,9 °C 85 % 1012,1 hPa 0,0 mm 0,0 km/h (0 Bft) SW 223 ° 0 min 0,000 mm 0,0 UV-I 0 W/m² 13,3 °C 15,8 °C 0,0 km/h (0 Bft)
22.07.2017 23:54 15,8 °C 15,8 °C 86 % 1012,1 hPa 0,0 mm 0,0 km/h (0 Bft) SW 223 ° 0 min 0,000 mm 0,0 UV-I 0 W/m² 13,5 °C 15,8 °C 0,0 km/h (0 Bft)
22.07.2017 23:55 15,7 °C 15,8 °C 86 % 1012,0 hPa 0,0 mm 0,0 km/h (0 Bft) SW 223 ° 0 min 0,000 mm 0,0 UV-I 0 W/m² 13,4 °C 15,7 °C 0,0 km/h (0 Bft)
22.07.2017 23:56 15,7 °C 15,7 °C 86 % 1012,0 hPa 0,0 mm 0,0 km/h (0 Bft) SW 223 ° 0 min 0,000 mm 0,0 UV-I 0 W/m² 13,4 °C 15,7 °C 0,0 km/h (0 Bft)
22.07.2017 23:57 15,7 °C 15,7 °C 86 % 1012,0 hPa 0,0 mm 0,0 km/h (0 Bft) SW 223 ° 0 min 0,000 mm 0,0 UV-I 0 W/m² 13,4 °C 15,7 °C 0,0 km/h (0 Bft)
22.07.2017 23:58 15,8 °C 15,8 °C 86 % 1012,0 hPa 0,0 mm 0,0 km/h (0 Bft) SW 223 ° 0 min 0,000 mm 0,0 UV-I 0 W/m² 13,5 °C 15,8 °C 0,0 km/h (0 Bft)
22.07.2017 23:59 15,8 °C 15,8 °C 86 % 1012,0 hPa 0,0 mm 0,0 km/h (0 Bft) SW 223 ° 0 min 0,000 mm 0,0 UV-I 0 W/m² 13,5 °C 15,8 °C 0,0 km/h (0 Bft)
_ Min-Zeit 05:36 05:36 17:31 00:00 - 23:59 - - - - - - 17:31 05:36 23:59
Minimum _ 14,3 °C 14,3 °C 45 % 1010,1 hPa - 0,0 km/h (0 Bft) - - - - - - 12,1 °C 14,3 °C 0,0 km/h (0 Bft)
_ Max-Zeit 15:51 16:01 07:16 12:11 02:55 01:46 - - 16:17 15:00 13:16 13:34 13:47 15:51 01:46
Maximum _ 25,1 °C 25,1 °C 95 % 1013,5 hPa 0,2 mm 17,8 km/h
W-NW (3 Bft)
- - 1 min 0,559 mm 7,7 UV-I 993 W/m² 17,2 °C 25,1 °C 25,7 km/h
W-NW (4 Bft)
Durchschnitt _ 19,3 °C 19,3 °C 76 % 1012,2 hPa #0,8 mm 2,3 km/h (1 Bft) W-NW - #5:37 h #3,327 mm 3,5 UV-I 208 W/m² 14,5 °C 19,3 °C 3,9 km/h (1 Bft)